<?xml version="1.0" encoding="UTF-8" standalone="no" ?>
<gpx xmlns="http://www.topografix.com/GPX/1/1" xmlns:xsi="http://www.w3.org/2001/XMLSchema-instance" xsi:schemaLocation="http://www.topografix.com/GPX/1/1 http://www.topografix.com/GPX/1/1/gpx.xsd" version="1.1" creator="VisuGPX - https://www.visugpx.com">
  <metadata>
    <name>Sun Trip 2019</name>
    <desc><![CDATA[Le parcours du Sun Trip 2019]]></desc>
  </metadata>
  <trk>
    <name><![CDATA[J12]]></name>
    <trkseg>
      <trkpt lat="44.88331" lon="7.3312">
        <ele>376</ele>
        <time>2019-04-17T17:44:16Z</time>
      </trkpt>
      <trkpt lat="44.88327" lon="7.33107">
        <ele>376</ele>
        <time>2019-04-17T17:45:16Z</time>
      </trkpt>
      <trkpt lat="44.88097" lon="7.33145">
        <ele>371</ele>
        <time>2019-04-17T17:46:16Z</time>
      </trkpt>
      <trkpt lat="44.87913" lon="7.33246">
        <ele>370</ele>
        <time>2019-04-17T17:47:16Z</time>
      </trkpt>
      <trkpt lat="44.87853" lon="7.3327">
        <ele>369</ele>
        <time>2019-04-17T17:48:16Z</time>
      </trkpt>
      <trkpt lat="44.87638" lon="7.33318">
        <ele>366</ele>
        <time>2019-04-17T17:49:16Z</time>
      </trkpt>
      <trkpt lat="44.87636" lon="7.33313">
        <ele>366</ele>
        <time>2019-04-17T17:50:16Z</time>
      </trkpt>
      <trkpt lat="44.87633" lon="7.3331">
        <ele>366</ele>
        <time>2019-04-17T17:51:16Z</time>
      </trkpt>
      <trkpt lat="44.87629" lon="7.3331">
        <ele>365</ele>
        <time>2019-04-17T17:52:16Z</time>
      </trkpt>
      <trkpt lat="44.87624" lon="7.33314">
        <ele>365</ele>
        <time>2019-04-17T17:53:16Z</time>
      </trkpt>
      <trkpt lat="44.87622" lon="7.33323">
        <ele>365</ele>
        <time>2019-04-17T17:54:16Z</time>
      </trkpt>
      <trkpt lat="44.87479" lon="7.33356">
        <ele>364</ele>
        <time>2019-04-17T17:55:16Z</time>
      </trkpt>
      <trkpt lat="44.87434" lon="7.33369">
        <ele>364</ele>
        <time>2019-04-17T17:56:16Z</time>
      </trkpt>
      <trkpt lat="44.87053" lon="7.3346">
        <ele>361</ele>
        <time>2019-04-17T17:57:16Z</time>
      </trkpt>
      <trkpt lat="44.86871" lon="7.335">
        <ele>359</ele>
        <time>2019-04-17T17:58:16Z</time>
      </trkpt>
      <trkpt lat="44.86822" lon="7.33507">
        <ele>357</ele>
        <time>2019-04-17T17:59:16Z</time>
      </trkpt>
      <trkpt lat="44.86803" lon="7.33506">
        <ele>357</ele>
        <time>2019-04-17T18:00:16Z</time>
      </trkpt>
      <trkpt lat="44.86769" lon="7.33493">
        <ele>355</ele>
        <time>2019-04-17T18:01:16Z</time>
      </trkpt>
      <trkpt lat="44.86728" lon="7.33467">
        <ele>355</ele>
        <time>2019-04-17T18:02:16Z</time>
      </trkpt>
      <trkpt lat="44.86699" lon="7.33443">
        <ele>355</ele>
        <time>2019-04-17T18:03:16Z</time>
      </trkpt>
      <trkpt lat="44.8665" lon="7.33388">
        <ele>356</ele>
        <time>2019-04-17T18:04:16Z</time>
      </trkpt>
      <trkpt lat="44.86627" lon="7.33366">
        <ele>357</ele>
        <time>2019-04-17T18:05:16Z</time>
      </trkpt>
      <trkpt lat="44.86612" lon="7.33358">
        <ele>357</ele>
        <time>2019-04-17T18:06:16Z</time>
      </trkpt>
      <trkpt lat="44.86552" lon="7.33338">
        <ele>359</ele>
        <time>2019-04-17T18:07:16Z</time>
      </trkpt>
      <trkpt lat="44.86536" lon="7.33311">
        <ele>359</ele>
        <time>2019-04-17T18:08:16Z</time>
      </trkpt>
      <trkpt lat="44.86534" lon="7.33296">
        <ele>359</ele>
        <time>2019-04-17T18:09:16Z</time>
      </trkpt>
      <trkpt lat="44.8653" lon="7.3329">
        <ele>359</ele>
        <time>2019-04-17T18:10:16Z</time>
      </trkpt>
      <trkpt lat="44.86523" lon="7.33284">
        <ele>359</ele>
        <time>2019-04-17T18:11:16Z</time>
      </trkpt>
      <trkpt lat="44.86518" lon="7.33283">
        <ele>359</ele>
        <time>2019-04-17T18:12:16Z</time>
      </trkpt>
      <trkpt lat="44.86507" lon="7.33288">
        <ele>360</ele>
        <time>2019-04-17T18:13:16Z</time>
      </trkpt>
      <trkpt lat="44.86503" lon="7.33293">
        <ele>360</ele>
        <time>2019-04-17T18:14:16Z</time>
      </trkpt>
      <trkpt lat="44.865" lon="7.333">
        <ele>360</ele>
        <time>2019-04-17T18:15:16Z</time>
      </trkpt>
      <trkpt lat="44.86499" lon="7.33309">
        <ele>360</ele>
        <time>2019-04-17T18:16:16Z</time>
      </trkpt>
      <trkpt lat="44.8648" lon="7.33331">
        <ele>360</ele>
        <time>2019-04-17T18:17:16Z</time>
      </trkpt>
      <trkpt lat="44.86428" lon="7.33355">
        <ele>358</ele>
        <time>2019-04-17T18:18:16Z</time>
      </trkpt>
      <trkpt lat="44.86333" lon="7.33392">
        <ele>354</ele>
        <time>2019-04-17T18:19:16Z</time>
      </trkpt>
      <trkpt lat="44.86266" lon="7.3341">
        <ele>355</ele>
        <time>2019-04-17T18:20:16Z</time>
      </trkpt>
      <trkpt lat="44.85559" lon="7.3365">
        <ele>347</ele>
        <time>2019-04-17T18:21:16Z</time>
      </trkpt>
      <trkpt lat="44.85533" lon="7.33646">
        <ele>347</ele>
        <time>2019-04-17T18:22:16Z</time>
      </trkpt>
      <trkpt lat="44.8552" lon="7.33648">
        <ele>347</ele>
        <time>2019-04-17T18:23:16Z</time>
      </trkpt>
      <trkpt lat="44.85502" lon="7.33646">
        <ele>347</ele>
        <time>2019-04-17T18:24:16Z</time>
      </trkpt>
      <trkpt lat="44.85496" lon="7.33642">
        <ele>347</ele>
        <time>2019-04-17T18:25:16Z</time>
      </trkpt>
      <trkpt lat="44.85489" lon="7.33642">
        <ele>347</ele>
        <time>2019-04-17T18:26:16Z</time>
      </trkpt>
      <trkpt lat="44.85483" lon="7.33648">
        <ele>347</ele>
        <time>2019-04-17T18:27:16Z</time>
      </trkpt>
      <trkpt lat="44.85476" lon="7.3366">
        <ele>346</ele>
        <time>2019-04-17T18:28:16Z</time>
      </trkpt>
      <trkpt lat="44.85462" lon="7.33672">
        <ele>346</ele>
        <time>2019-04-17T18:29:16Z</time>
      </trkpt>
      <trkpt lat="44.85449" lon="7.33679">
        <ele>346</ele>
        <time>2019-04-17T18:30:16Z</time>
      </trkpt>
      <trkpt lat="44.85411" lon="7.33697">
        <ele>345</ele>
        <time>2019-04-17T18:31:16Z</time>
      </trkpt>
      <trkpt lat="44.85221" lon="7.33767">
        <ele>348</ele>
        <time>2019-04-17T18:32:16Z</time>
      </trkpt>
      <trkpt lat="44.85167" lon="7.33792">
        <ele>348</ele>
        <time>2019-04-17T18:33:16Z</time>
      </trkpt>
      <trkpt lat="44.85134" lon="7.33815">
        <ele>347</ele>
        <time>2019-04-17T18:34:16Z</time>
      </trkpt>
      <trkpt lat="44.85117" lon="7.33812">
        <ele>347</ele>
        <time>2019-04-17T18:35:16Z</time>
      </trkpt>
      <trkpt lat="44.85101" lon="7.33805">
        <ele>346</ele>
        <time>2019-04-17T18:36:16Z</time>
      </trkpt>
      <trkpt lat="44.85092" lon="7.33799">
        <ele>346</ele>
        <time>2019-04-17T18:37:16Z</time>
      </trkpt>
      <trkpt lat="44.85081" lon="7.338">
        <ele>346</ele>
        <time>2019-04-17T18:38:16Z</time>
      </trkpt>
      <trkpt lat="44.85076" lon="7.33805">
        <ele>346</ele>
        <time>2019-04-17T18:39:16Z</time>
      </trkpt>
      <trkpt lat="44.8507" lon="7.33818">
        <ele>346</ele>
        <time>2019-04-17T18:40:16Z</time>
      </trkpt>
      <trkpt lat="44.8507" lon="7.33826">
        <ele>346</ele>
        <time>2019-04-17T18:41:16Z</time>
      </trkpt>
      <trkpt lat="44.85072" lon="7.33839">
        <ele>346</ele>
        <time>2019-04-17T18:42:16Z</time>
      </trkpt>
      <trkpt lat="44.85071" lon="7.33857">
        <ele>346</ele>
        <time>2019-04-17T18:43:16Z</time>
      </trkpt>
      <trkpt lat="44.85064" lon="7.33893">
        <ele>346</ele>
        <time>2019-04-17T18:44:16Z</time>
      </trkpt>
      <trkpt lat="44.85053" lon="7.33933">
        <ele>346</ele>
        <time>2019-04-17T18:45:16Z</time>
      </trkpt>
      <trkpt lat="44.85029" lon="7.34">
        <ele>347</ele>
        <time>2019-04-17T18:46:16Z</time>
      </trkpt>
      <trkpt lat="44.84992" lon="7.3412">
        <ele>348</ele>
        <time>2019-04-17T18:47:16Z</time>
      </trkpt>
      <trkpt lat="44.84981" lon="7.34146">
        <ele>347</ele>
        <time>2019-04-17T18:48:16Z</time>
      </trkpt>
      <trkpt lat="44.84958" lon="7.34183">
        <ele>346</ele>
        <time>2019-04-17T18:49:16Z</time>
      </trkpt>
      <trkpt lat="44.84944" lon="7.34209">
        <ele>346</ele>
        <time>2019-04-17T18:50:16Z</time>
      </trkpt>
      <trkpt lat="44.84927" lon="7.34246">
        <ele>346</ele>
        <time>2019-04-17T18:51:16Z</time>
      </trkpt>
      <trkpt lat="44.84915" lon="7.34275">
        <ele>346</ele>
        <time>2019-04-17T18:52:16Z</time>
      </trkpt>
      <trkpt lat="44.84875" lon="7.3439">
        <ele>344</ele>
        <time>2019-04-17T18:53:16Z</time>
      </trkpt>
      <trkpt lat="44.84857" lon="7.34432">
        <ele>344</ele>
        <time>2019-04-17T18:54:16Z</time>
      </trkpt>
      <trkpt lat="44.84836" lon="7.34472">
        <ele>343</ele>
        <time>2019-04-17T18:55:16Z</time>
      </trkpt>
      <trkpt lat="44.84822" lon="7.34506">
        <ele>342</ele>
        <time>2019-04-17T18:56:16Z</time>
      </trkpt>
      <trkpt lat="44.848" lon="7.34569">
        <ele>341</ele>
        <time>2019-04-17T18:57:16Z</time>
      </trkpt>
      <trkpt lat="44.84789" lon="7.34593">
        <ele>340</ele>
        <time>2019-04-17T18:58:16Z</time>
      </trkpt>
      <trkpt lat="44.84777" lon="7.34615">
        <ele>340</ele>
        <time>2019-04-17T18:59:16Z</time>
      </trkpt>
      <trkpt lat="44.84652" lon="7.34757">
        <ele>337</ele>
        <time>2019-04-17T19:00:16Z</time>
      </trkpt>
      <trkpt lat="44.84485" lon="7.34961">
        <ele>335</ele>
        <time>2019-04-17T19:01:16Z</time>
      </trkpt>
      <trkpt lat="44.84441" lon="7.35006">
        <ele>334</ele>
        <time>2019-04-17T19:02:16Z</time>
      </trkpt>
      <trkpt lat="44.84418" lon="7.35034">
        <ele>333</ele>
        <time>2019-04-17T19:03:16Z</time>
      </trkpt>
      <trkpt lat="44.84403" lon="7.35059">
        <ele>332</ele>
        <time>2019-04-17T19:04:16Z</time>
      </trkpt>
      <trkpt lat="44.84382" lon="7.35114">
        <ele>332</ele>
        <time>2019-04-17T19:05:16Z</time>
      </trkpt>
      <trkpt lat="44.84377" lon="7.35122">
        <ele>332</ele>
        <time>2019-04-17T19:06:16Z</time>
      </trkpt>
      <trkpt lat="44.84372" lon="7.35127">
        <ele>332</ele>
        <time>2019-04-17T19:07:16Z</time>
      </trkpt>
      <trkpt lat="44.84363" lon="7.35124">
        <ele>332</ele>
        <time>2019-04-17T19:08:16Z</time>
      </trkpt>
      <trkpt lat="44.84352" lon="7.35119">
        <ele>331</ele>
        <time>2019-04-17T19:09:16Z</time>
      </trkpt>
      <trkpt lat="44.84347" lon="7.35108">
        <ele>331</ele>
        <time>2019-04-17T19:10:16Z</time>
      </trkpt>
      <trkpt lat="44.84342" lon="7.35104">
        <ele>331</ele>
        <time>2019-04-17T19:11:16Z</time>
      </trkpt>
      <trkpt lat="44.84336" lon="7.35102">
        <ele>331</ele>
        <time>2019-04-17T19:12:16Z</time>
      </trkpt>
      <trkpt lat="44.84325" lon="7.35104">
        <ele>331</ele>
        <time>2019-04-17T19:13:16Z</time>
      </trkpt>
      <trkpt lat="44.84318" lon="7.35115">
        <ele>331</ele>
        <time>2019-04-17T19:14:16Z</time>
      </trkpt>
      <trkpt lat="44.84315" lon="7.35129">
        <ele>331</ele>
        <time>2019-04-17T19:15:16Z</time>
      </trkpt>
      <trkpt lat="44.84288" lon="7.35182">
        <ele>331</ele>
        <time>2019-04-17T19:16:16Z</time>
      </trkpt>
      <trkpt lat="44.84187" lon="7.35301">
        <ele>330</ele>
        <time>2019-04-17T19:17:16Z</time>
      </trkpt>
      <trkpt lat="44.84081" lon="7.35421">
        <ele>329</ele>
        <time>2019-04-17T19:18:16Z</time>
      </trkpt>
      <trkpt lat="44.84072" lon="7.35419">
        <ele>329</ele>
        <time>2019-04-17T19:19:16Z</time>
      </trkpt>
      <trkpt lat="44.84065" lon="7.35424">
        <ele>329</ele>
        <time>2019-04-17T19:20:16Z</time>
      </trkpt>
      <trkpt lat="44.84062" lon="7.35434">
        <ele>329</ele>
        <time>2019-04-17T19:21:16Z</time>
      </trkpt>
      <trkpt lat="44.84062" lon="7.35444">
        <ele>329</ele>
        <time>2019-04-17T19:22:16Z</time>
      </trkpt>
      <trkpt lat="44.84053" lon="7.35456">
        <ele>328</ele>
        <time>2019-04-17T19:23:16Z</time>
      </trkpt>
      <trkpt lat="44.83858" lon="7.3568">
        <ele>323</ele>
        <time>2019-04-17T19:24:16Z</time>
      </trkpt>
      <trkpt lat="44.83609" lon="7.3598">
        <ele>319</ele>
        <time>2019-04-17T19:25:16Z</time>
      </trkpt>
      <trkpt lat="44.83036" lon="7.36714">
        <ele>315</ele>
        <time>2019-04-17T19:26:16Z</time>
      </trkpt>
      <trkpt lat="44.83022" lon="7.36729">
        <ele>315</ele>
        <time>2019-04-17T19:27:16Z</time>
      </trkpt>
      <trkpt lat="44.82992" lon="7.3675">
        <ele>316</ele>
        <time>2019-04-17T19:28:16Z</time>
      </trkpt>
      <trkpt lat="44.82956" lon="7.36767">
        <ele>313</ele>
        <time>2019-04-17T19:29:16Z</time>
      </trkpt>
      <trkpt lat="44.82764" lon="7.36844">
        <ele>313</ele>
        <time>2019-04-17T19:30:16Z</time>
      </trkpt>
      <trkpt lat="44.82337" lon="7.37012">
        <ele>312</ele>
        <time>2019-04-17T19:31:16Z</time>
      </trkpt>
      <trkpt lat="44.82156" lon="7.37046">
        <ele>313</ele>
        <time>2019-04-17T19:32:16Z</time>
      </trkpt>
      <trkpt lat="44.81749" lon="7.37109">
        <ele>312</ele>
        <time>2019-04-17T19:33:16Z</time>
      </trkpt>
      <trkpt lat="44.81688" lon="7.37116">
        <ele>312</ele>
        <time>2019-04-17T19:34:16Z</time>
      </trkpt>
      <trkpt lat="44.81686" lon="7.37107">
        <ele>312</ele>
        <time>2019-04-17T19:35:16Z</time>
      </trkpt>
      <trkpt lat="44.81682" lon="7.371">
        <ele>312</ele>
        <time>2019-04-17T19:36:16Z</time>
      </trkpt>
      <trkpt lat="44.81676" lon="7.37096">
        <ele>312</ele>
        <time>2019-04-17T19:37:16Z</time>
      </trkpt>
      <trkpt lat="44.8167" lon="7.37095">
        <ele>313</ele>
        <time>2019-04-17T19:38:16Z</time>
      </trkpt>
      <trkpt lat="44.81664" lon="7.37098">
        <ele>312</ele>
        <time>2019-04-17T19:39:16Z</time>
      </trkpt>
      <trkpt lat="44.81659" lon="7.37104">
        <ele>312</ele>
        <time>2019-04-17T19:40:16Z</time>
      </trkpt>
      <trkpt lat="44.81657" lon="7.37112">
        <ele>312</ele>
        <time>2019-04-17T19:41:16Z</time>
      </trkpt>
      <trkpt lat="44.81656" lon="7.37121">
        <ele>312</ele>
        <time>2019-04-17T19:42:16Z</time>
      </trkpt>
      <trkpt lat="44.81187" lon="7.37197">
        <ele>311</ele>
        <time>2019-04-17T19:43:16Z</time>
      </trkpt>
      <trkpt lat="44.80913" lon="7.37237">
        <ele>311</ele>
        <time>2019-04-17T19:44:16Z</time>
      </trkpt>
      <trkpt lat="44.80673" lon="7.37276">
        <ele>311</ele>
        <time>2019-04-17T19:45:16Z</time>
      </trkpt>
      <trkpt lat="44.79958" lon="7.37386">
        <ele>309</ele>
        <time>2019-04-17T19:46:16Z</time>
      </trkpt>
      <trkpt lat="44.79751" lon="7.37423">
        <ele>309</ele>
        <time>2019-04-17T19:47:16Z</time>
      </trkpt>
      <trkpt lat="44.79499" lon="7.37457">
        <ele>305</ele>
        <time>2019-04-17T19:48:16Z</time>
      </trkpt>
      <trkpt lat="44.79288" lon="7.37492">
        <ele>307</ele>
        <time>2019-04-17T19:49:16Z</time>
      </trkpt>
      <trkpt lat="44.78891" lon="7.37551">
        <ele>304</ele>
        <time>2019-04-17T19:50:16Z</time>
      </trkpt>
      <trkpt lat="44.78829" lon="7.37543">
        <ele>304</ele>
        <time>2019-04-17T19:51:16Z</time>
      </trkpt>
      <trkpt lat="44.78647" lon="7.37507">
        <ele>305</ele>
        <time>2019-04-17T19:52:16Z</time>
      </trkpt>
      <trkpt lat="44.78631" lon="7.37585">
        <ele>304</ele>
        <time>2019-04-17T19:53:16Z</time>
      </trkpt>
      <trkpt lat="44.78616" lon="7.37613">
        <ele>304</ele>
        <time>2019-04-17T19:54:16Z</time>
      </trkpt>
      <trkpt lat="44.78595" lon="7.3764">
        <ele>303</ele>
        <time>2019-04-17T19:55:16Z</time>
      </trkpt>
      <trkpt lat="44.78459" lon="7.37702">
        <ele>302</ele>
        <time>2019-04-17T19:56:16Z</time>
      </trkpt>
      <trkpt lat="44.78438" lon="7.37709">
        <ele>302</ele>
        <time>2019-04-17T19:57:16Z</time>
      </trkpt>
      <trkpt lat="44.78422" lon="7.37726">
        <ele>302</ele>
        <time>2019-04-17T19:58:16Z</time>
      </trkpt>
      <trkpt lat="44.78413" lon="7.3776">
        <ele>301</ele>
        <time>2019-04-17T19:59:16Z</time>
      </trkpt>
      <trkpt lat="44.78399" lon="7.37853">
        <ele>303</ele>
        <time>2019-04-17T20:00:16Z</time>
      </trkpt>
      <trkpt lat="44.78352" lon="7.37989">
        <ele>299</ele>
        <time>2019-04-17T20:01:16Z</time>
      </trkpt>
      <trkpt lat="44.78299" lon="7.3809">
        <ele>298</ele>
        <time>2019-04-17T20:02:16Z</time>
      </trkpt>
      <trkpt lat="44.78255" lon="7.38162">
        <ele>298</ele>
        <time>2019-04-17T20:03:16Z</time>
      </trkpt>
      <trkpt lat="44.78242" lon="7.38177">
        <ele>297</ele>
        <time>2019-04-17T20:04:16Z</time>
      </trkpt>
      <trkpt lat="44.78226" lon="7.3819">
        <ele>297</ele>
        <time>2019-04-17T20:05:16Z</time>
      </trkpt>
      <trkpt lat="44.78214" lon="7.38194">
        <ele>296</ele>
        <time>2019-04-17T20:06:16Z</time>
      </trkpt>
      <trkpt lat="44.78209" lon="7.38199">
        <ele>296</ele>
        <time>2019-04-17T20:07:16Z</time>
      </trkpt>
      <trkpt lat="44.78205" lon="7.38206">
        <ele>296</ele>
        <time>2019-04-17T20:08:16Z</time>
      </trkpt>
      <trkpt lat="44.78203" lon="7.38222">
        <ele>296</ele>
        <time>2019-04-17T20:09:16Z</time>
      </trkpt>
      <trkpt lat="44.78193" lon="7.38243">
        <ele>296</ele>
        <time>2019-04-17T20:10:16Z</time>
      </trkpt>
      <trkpt lat="44.78176" lon="7.3827">
        <ele>296</ele>
        <time>2019-04-17T20:11:16Z</time>
      </trkpt>
      <trkpt lat="44.78147" lon="7.38309">
        <ele>296</ele>
        <time>2019-04-17T20:12:16Z</time>
      </trkpt>
      <trkpt lat="44.75022" lon="7.40694">
        <ele>271</ele>
        <time>2019-04-17T20:13:16Z</time>
      </trkpt>
      <trkpt lat="44.74768" lon="7.40889">
        <ele>272</ele>
        <time>2019-04-17T20:14:16Z</time>
      </trkpt>
      <trkpt lat="44.74665" lon="7.40967">
        <ele>272</ele>
        <time>2019-04-17T20:15:16Z</time>
      </trkpt>
      <trkpt lat="44.74659" lon="7.40969">
        <ele>272</ele>
        <time>2019-04-17T20:16:16Z</time>
      </trkpt>
      <trkpt lat="44.74646" lon="7.40978">
        <ele>271</ele>
        <time>2019-04-17T20:17:16Z</time>
      </trkpt>
      <trkpt lat="44.74639" lon="7.40978">
        <ele>271</ele>
        <time>2019-04-17T20:18:16Z</time>
      </trkpt>
      <trkpt lat="44.74631" lon="7.40976">
        <ele>271</ele>
        <time>2019-04-17T20:19:16Z</time>
      </trkpt>
      <trkpt lat="44.74615" lon="7.40956">
        <ele>271</ele>
        <time>2019-04-17T20:20:16Z</time>
      </trkpt>
      <trkpt lat="44.74609" lon="7.40953">
        <ele>271</ele>
        <time>2019-04-17T20:21:16Z</time>
      </trkpt>
      <trkpt lat="44.74602" lon="7.40953">
        <ele>271</ele>
        <time>2019-04-17T20:22:16Z</time>
      </trkpt>
      <trkpt lat="44.74595" lon="7.40956">
        <ele>271</ele>
        <time>2019-04-17T20:23:16Z</time>
      </trkpt>
      <trkpt lat="44.74589" lon="7.40962">
        <ele>271</ele>
        <time>2019-04-17T20:24:16Z</time>
      </trkpt>
      <trkpt lat="44.74584" lon="7.40971">
        <ele>271</ele>
        <time>2019-04-17T20:25:16Z</time>
      </trkpt>
      <trkpt lat="44.74582" lon="7.40982">
        <ele>270</ele>
        <time>2019-04-17T20:26:16Z</time>
      </trkpt>
      <trkpt lat="44.74584" lon="7.40996">
        <ele>270</ele>
        <time>2019-04-17T20:27:16Z</time>
      </trkpt>
      <trkpt lat="44.7458" lon="7.41008">
        <ele>270</ele>
        <time>2019-04-17T20:28:16Z</time>
      </trkpt>
      <trkpt lat="44.74549" lon="7.41051">
        <ele>271</ele>
        <time>2019-04-17T20:29:16Z</time>
      </trkpt>
      <trkpt lat="44.74541" lon="7.4106">
        <ele>271</ele>
        <time>2019-04-17T20:30:16Z</time>
      </trkpt>
      <trkpt lat="44.74462" lon="7.41125">
        <ele>270</ele>
        <time>2019-04-17T20:31:16Z</time>
      </trkpt>
      <trkpt lat="44.74169" lon="7.41349">
        <ele>269</ele>
        <time>2019-04-17T20:32:16Z</time>
      </trkpt>
      <trkpt lat="44.7391" lon="7.41543">
        <ele>267</ele>
        <time>2019-04-17T20:33:16Z</time>
      </trkpt>
      <trkpt lat="44.73854" lon="7.41593">
        <ele>267</ele>
        <time>2019-04-17T20:34:16Z</time>
      </trkpt>
      <trkpt lat="44.73809" lon="7.41644">
        <ele>266</ele>
        <time>2019-04-17T20:35:16Z</time>
      </trkpt>
      <trkpt lat="44.73684" lon="7.41814">
        <ele>265</ele>
        <time>2019-04-17T20:36:16Z</time>
      </trkpt>
      <trkpt lat="44.73464" lon="7.42134">
        <ele>265</ele>
        <time>2019-04-17T20:37:16Z</time>
      </trkpt>
      <trkpt lat="44.73454" lon="7.42142">
        <ele>265</ele>
        <time>2019-04-17T20:38:16Z</time>
      </trkpt>
      <trkpt lat="44.73448" lon="7.42156">
        <ele>265</ele>
        <time>2019-04-17T20:39:16Z</time>
      </trkpt>
      <trkpt lat="44.73321" lon="7.42321">
        <ele>264</ele>
        <time>2019-04-17T20:40:16Z</time>
      </trkpt>
      <trkpt lat="44.72311" lon="7.43715">
        <ele>263</ele>
        <time>2019-04-17T20:41:16Z</time>
      </trkpt>
      <trkpt lat="44.72274" lon="7.43763">
        <ele>264</ele>
        <time>2019-04-17T20:42:16Z</time>
      </trkpt>
      <trkpt lat="44.72042" lon="7.44089">
        <ele>263</ele>
        <time>2019-04-17T20:43:16Z</time>
      </trkpt>
      <trkpt lat="44.71993" lon="7.44118">
        <ele>264</ele>
        <time>2019-04-17T20:44:16Z</time>
      </trkpt>
      <trkpt lat="44.71979" lon="7.44123">
        <ele>263</ele>
        <time>2019-04-17T20:45:16Z</time>
      </trkpt>
      <trkpt lat="44.71977" lon="7.44139">
        <ele>263</ele>
        <time>2019-04-17T20:46:16Z</time>
      </trkpt>
      <trkpt lat="44.71979" lon="7.44176">
        <ele>262</ele>
        <time>2019-04-17T20:47:16Z</time>
      </trkpt>
      <trkpt lat="44.70679" lon="7.45968">
        <ele>267</ele>
        <time>2019-04-17T20:48:16Z</time>
      </trkpt>
      <trkpt lat="44.7065" lon="7.46006">
        <ele>267</ele>
        <time>2019-04-17T20:49:16Z</time>
      </trkpt>
      <trkpt lat="44.7062" lon="7.46038">
        <ele>269</ele>
        <time>2019-04-17T20:50:16Z</time>
      </trkpt>
      <trkpt lat="44.70592" lon="7.46063">
        <ele>270</ele>
        <time>2019-04-17T20:51:16Z</time>
      </trkpt>
      <trkpt lat="44.70562" lon="7.46083">
        <ele>270</ele>
        <time>2019-04-17T20:52:16Z</time>
      </trkpt>
      <trkpt lat="44.70475" lon="7.46129">
        <ele>269</ele>
        <time>2019-04-17T20:53:16Z</time>
      </trkpt>
      <trkpt lat="44.68882" lon="7.46938">
        <ele>276</ele>
        <time>2019-04-17T20:54:16Z</time>
      </trkpt>
      <trkpt lat="44.6834" lon="7.47218">
        <ele>279</ele>
        <time>2019-04-17T20:55:16Z</time>
      </trkpt>
      <trkpt lat="44.66961" lon="7.47919">
        <ele>296</ele>
        <time>2019-04-17T20:56:16Z</time>
      </trkpt>
      <trkpt lat="44.66858" lon="7.47974">
        <ele>296</ele>
        <time>2019-04-17T20:57:16Z</time>
      </trkpt>
      <trkpt lat="44.66812" lon="7.47989">
        <ele>295</ele>
        <time>2019-04-17T20:58:16Z</time>
      </trkpt>
      <trkpt lat="44.66799" lon="7.4799">
        <ele>295</ele>
        <time>2019-04-17T20:59:16Z</time>
      </trkpt>
      <trkpt lat="44.66793" lon="7.47984">
        <ele>295</ele>
        <time>2019-04-17T21:00:16Z</time>
      </trkpt>
      <trkpt lat="44.66787" lon="7.4798">
        <ele>295</ele>
        <time>2019-04-17T21:01:16Z</time>
      </trkpt>
      <trkpt lat="44.6678" lon="7.4798">
        <ele>294</ele>
        <time>2019-04-17T21:02:16Z</time>
      </trkpt>
      <trkpt lat="44.66773" lon="7.47982">
        <ele>294</ele>
        <time>2019-04-17T21:03:16Z</time>
      </trkpt>
      <trkpt lat="44.66768" lon="7.47988">
        <ele>294</ele>
        <time>2019-04-17T21:04:16Z</time>
      </trkpt>
      <trkpt lat="44.66763" lon="7.47995">
        <ele>294</ele>
        <time>2019-04-17T21:05:16Z</time>
      </trkpt>
      <trkpt lat="44.66761" lon="7.48004">
        <ele>294</ele>
        <time>2019-04-17T21:06:16Z</time>
      </trkpt>
      <trkpt lat="44.66752" lon="7.48016">
        <ele>294</ele>
        <time>2019-04-17T21:07:16Z</time>
      </trkpt>
      <trkpt lat="44.66745" lon="7.48023">
        <ele>294</ele>
        <time>2019-04-17T21:08:16Z</time>
      </trkpt>
      <trkpt lat="44.66711" lon="7.48048">
        <ele>294</ele>
        <time>2019-04-17T21:09:16Z</time>
      </trkpt>
      <trkpt lat="44.66506" lon="7.48149">
        <ele>303</ele>
        <time>2019-04-17T21:10:16Z</time>
      </trkpt>
      <trkpt lat="44.66148" lon="7.48332">
        <ele>314</ele>
        <time>2019-04-17T21:11:16Z</time>
      </trkpt>
      <trkpt lat="44.66113" lon="7.48351">
        <ele>314</ele>
        <time>2019-04-17T21:12:16Z</time>
      </trkpt>
      <trkpt lat="44.66077" lon="7.48376">
        <ele>313</ele>
        <time>2019-04-17T21:13:16Z</time>
      </trkpt>
      <trkpt lat="44.66038" lon="7.48406">
        <ele>314</ele>
        <time>2019-04-17T21:14:16Z</time>
      </trkpt>
      <trkpt lat="44.65638" lon="7.48719">
        <ele>324</ele>
        <time>2019-04-17T21:15:16Z</time>
      </trkpt>
      <trkpt lat="44.65605" lon="7.48731">
        <ele>324</ele>
        <time>2019-04-17T21:16:16Z</time>
      </trkpt>
      <trkpt lat="44.65596" lon="7.48725">
        <ele>324</ele>
        <time>2019-04-17T21:17:16Z</time>
      </trkpt>
      <trkpt lat="44.6559" lon="7.48724">
        <ele>323</ele>
        <time>2019-04-17T21:18:16Z</time>
      </trkpt>
      <trkpt lat="44.65579" lon="7.4873">
        <ele>324</ele>
        <time>2019-04-17T21:19:16Z</time>
      </trkpt>
      <trkpt lat="44.65574" lon="7.48737">
        <ele>324</ele>
        <time>2019-04-17T21:20:16Z</time>
      </trkpt>
      <trkpt lat="44.65571" lon="7.48747">
        <ele>324</ele>
        <time>2019-04-17T21:21:16Z</time>
      </trkpt>
      <trkpt lat="44.6557" lon="7.48758">
        <ele>324</ele>
        <time>2019-04-17T21:22:16Z</time>
      </trkpt>
      <trkpt lat="44.65548" lon="7.48788">
        <ele>325</ele>
        <time>2019-04-17T21:23:16Z</time>
      </trkpt>
      <trkpt lat="44.65222" lon="7.49038">
        <ele>334</ele>
        <time>2019-04-17T21:24:16Z</time>
      </trkpt>
      <trkpt lat="44.65133" lon="7.49111">
        <ele>336</ele>
        <time>2019-04-17T21:25:16Z</time>
      </trkpt>
      <trkpt lat="44.65115" lon="7.49113">
        <ele>336</ele>
        <time>2019-04-17T21:26:16Z</time>
      </trkpt>
      <trkpt lat="44.6511" lon="7.49109">
        <ele>336</ele>
        <time>2019-04-17T21:27:16Z</time>
      </trkpt>
      <trkpt lat="44.65105" lon="7.49107">
        <ele>337</ele>
        <time>2019-04-17T21:28:16Z</time>
      </trkpt>
      <trkpt lat="44.651" lon="7.49107">
        <ele>337</ele>
        <time>2019-04-17T21:29:16Z</time>
      </trkpt>
      <trkpt lat="44.65095" lon="7.4911">
        <ele>337</ele>
        <time>2019-04-17T21:30:16Z</time>
      </trkpt>
      <trkpt lat="44.6509" lon="7.49117">
        <ele>337</ele>
        <time>2019-04-17T21:31:16Z</time>
      </trkpt>
      <trkpt lat="44.65088" lon="7.49125">
        <ele>337</ele>
        <time>2019-04-17T21:32:16Z</time>
      </trkpt>
      <trkpt lat="44.65088" lon="7.49132">
        <ele>337</ele>
        <time>2019-04-17T21:33:16Z</time>
      </trkpt>
      <trkpt lat="44.65075" lon="7.49155">
        <ele>338</ele>
        <time>2019-04-17T21:34:16Z</time>
      </trkpt>
      <trkpt lat="44.65021" lon="7.49199">
        <ele>337</ele>
        <time>2019-04-17T21:35:16Z</time>
      </trkpt>
      <trkpt lat="44.65018" lon="7.49194">
        <ele>337</ele>
        <time>2019-04-17T21:36:16Z</time>
      </trkpt>
      <trkpt lat="44.65009" lon="7.49191">
        <ele>337</ele>
        <time>2019-04-17T21:37:16Z</time>
      </trkpt>
      <trkpt lat="44.65001" lon="7.49195">
        <ele>337</ele>
        <time>2019-04-17T21:38:16Z</time>
      </trkpt>
      <trkpt lat="44.64997" lon="7.49207">
        <ele>338</ele>
        <time>2019-04-17T21:39:16Z</time>
      </trkpt>
      <trkpt lat="44.64997" lon="7.49215">
        <ele>338</ele>
        <time>2019-04-17T21:40:16Z</time>
      </trkpt>
      <trkpt lat="44.65" lon="7.49221">
        <ele>338</ele>
        <time>2019-04-17T21:41:16Z</time>
      </trkpt>
      <trkpt lat="44.65004" lon="7.49226">
        <ele>338</ele>
        <time>2019-04-17T21:42:16Z</time>
      </trkpt>
      <trkpt lat="44.64945" lon="7.49331">
        <ele>345</ele>
        <time>2019-04-17T21:43:16Z</time>
      </trkpt>
      <trkpt lat="44.64874" lon="7.49468">
        <ele>341</ele>
        <time>2019-04-17T21:44:16Z</time>
      </trkpt>
      <trkpt lat="44.64854" lon="7.49491">
        <ele>340</ele>
        <time>2019-04-17T21:45:16Z</time>
      </trkpt>
      <trkpt lat="44.64834" lon="7.49503">
        <ele>340</ele>
        <time>2019-04-17T21:46:16Z</time>
      </trkpt>
      <trkpt lat="44.64713" lon="7.49538">
        <ele>344</ele>
        <time>2019-04-17T21:47:16Z</time>
      </trkpt>
      <trkpt lat="44.64712" lon="7.49536">
        <ele>344</ele>
        <time>2019-04-17T21:48:16Z</time>
      </trkpt>
      <trkpt lat="44.64707" lon="7.49534">
        <ele>345</ele>
        <time>2019-04-17T21:49:16Z</time>
      </trkpt>
      <trkpt lat="44.64704" lon="7.49537">
        <ele>345</ele>
        <time>2019-04-17T21:50:16Z</time>
      </trkpt>
      <trkpt lat="44.64703" lon="7.49541">
        <ele>345</ele>
        <time>2019-04-17T21:51:16Z</time>
      </trkpt>
      <trkpt lat="44.64563" lon="7.49583">
        <ele>350</ele>
        <time>2019-04-17T21:52:16Z</time>
      </trkpt>
      <trkpt lat="44.64559" lon="7.49577">
        <ele>350</ele>
        <time>2019-04-17T21:53:16Z</time>
      </trkpt>
      <trkpt lat="44.64554" lon="7.49575">
        <ele>350</ele>
        <time>2019-04-17T21:54:16Z</time>
      </trkpt>
      <trkpt lat="44.64549" lon="7.49575">
        <ele>350</ele>
        <time>2019-04-17T21:55:16Z</time>
      </trkpt>
      <trkpt lat="44.64545" lon="7.49577">
        <ele>351</ele>
        <time>2019-04-17T21:56:16Z</time>
      </trkpt>
      <trkpt lat="44.6454" lon="7.49585">
        <ele>351</ele>
        <time>2019-04-17T21:57:16Z</time>
      </trkpt>
      <trkpt lat="44.64539" lon="7.4959">
        <ele>351</ele>
        <time>2019-04-17T21:58:16Z</time>
      </trkpt>
      <trkpt lat="44.64413" lon="7.49651">
        <ele>354</ele>
        <time>2019-04-17T21:59:16Z</time>
      </trkpt>
      <trkpt lat="44.64233" lon="7.49744">
        <ele>353</ele>
        <time>2019-04-17T22:00:16Z</time>
      </trkpt>
      <trkpt lat="44.64214" lon="7.49751">
        <ele>353</ele>
        <time>2019-04-17T22:01:16Z</time>
      </trkpt>
      <trkpt lat="44.64208" lon="7.49743">
        <ele>353</ele>
        <time>2019-04-17T22:02:16Z</time>
      </trkpt>
      <trkpt lat="44.64199" lon="7.49744">
        <ele>354</ele>
        <time>2019-04-17T22:03:16Z</time>
      </trkpt>
      <trkpt lat="44.64196" lon="7.49749">
        <ele>354</ele>
        <time>2019-04-17T22:04:16Z</time>
      </trkpt>
      <trkpt lat="44.64195" lon="7.49759">
        <ele>353</ele>
        <time>2019-04-17T22:05:16Z</time>
      </trkpt>
      <trkpt lat="44.64185" lon="7.49771">
        <ele>353</ele>
        <time>2019-04-17T22:06:16Z</time>
      </trkpt>
      <trkpt lat="44.64118" lon="7.49794">
        <ele>354</ele>
        <time>2019-04-17T22:07:16Z</time>
      </trkpt>
      <trkpt lat="44.64081" lon="7.49812">
        <ele>355</ele>
        <time>2019-04-17T22:08:16Z</time>
      </trkpt>
      <trkpt lat="44.64037" lon="7.49845">
        <ele>355</ele>
        <time>2019-04-17T22:09:16Z</time>
      </trkpt>
      <trkpt lat="44.64027" lon="7.49855">
        <ele>355</ele>
        <time>2019-04-17T22:10:16Z</time>
      </trkpt>
      <trkpt lat="44.63996" lon="7.49874">
        <ele>356</ele>
        <time>2019-04-17T22:11:16Z</time>
      </trkpt>
      <trkpt lat="44.63993" lon="7.49874">
        <ele>356</ele>
        <time>2019-04-17T22:12:16Z</time>
      </trkpt>
      <trkpt lat="44.63985" lon="7.49877">
        <ele>356</ele>
        <time>2019-04-17T22:13:16Z</time>
      </trkpt>
      <trkpt lat="44.63983" lon="7.4988">
        <ele>356</ele>
        <time>2019-04-17T22:14:16Z</time>
      </trkpt>
      <trkpt lat="44.6395" lon="7.49881">
        <ele>356</ele>
        <time>2019-04-17T22:15:16Z</time>
      </trkpt>
      <trkpt lat="44.63897" lon="7.49858">
        <ele>356</ele>
        <time>2019-04-17T22:16:16Z</time>
      </trkpt>
      <trkpt lat="44.62936" lon="7.49432">
        <ele>373</ele>
        <time>2019-04-17T22:17:16Z</time>
      </trkpt>
      <trkpt lat="44.62169" lon="7.49091">
        <ele>387</ele>
        <time>2019-04-17T22:18:16Z</time>
      </trkpt>
      <trkpt lat="44.62148" lon="7.4908">
        <ele>387</ele>
        <time>2019-04-17T22:19:16Z</time>
      </trkpt>
      <trkpt lat="44.62142" lon="7.49072">
        <ele>387</ele>
        <time>2019-04-17T22:20:16Z</time>
      </trkpt>
      <trkpt lat="44.62136" lon="7.49073">
        <ele>387</ele>
        <time>2019-04-17T22:21:16Z</time>
      </trkpt>
      <trkpt lat="44.62113" lon="7.49066">
        <ele>388</ele>
        <time>2019-04-17T22:22:16Z</time>
      </trkpt>
      <trkpt lat="44.61172" lon="7.48649">
        <ele>400</ele>
        <time>2019-04-17T22:23:16Z</time>
      </trkpt>
      <trkpt lat="44.61172" lon="7.4864">
        <ele>400</ele>
        <time>2019-04-17T22:24:16Z</time>
      </trkpt>
      <trkpt lat="44.61169" lon="7.48632">
        <ele>400</ele>
        <time>2019-04-17T22:25:16Z</time>
      </trkpt>
      <trkpt lat="44.61162" lon="7.48628">
        <ele>400</ele>
        <time>2019-04-17T22:26:16Z</time>
      </trkpt>
      <trkpt lat="44.61158" lon="7.48628">
        <ele>400</ele>
        <time>2019-04-17T22:27:16Z</time>
      </trkpt>
      <trkpt lat="44.61151" lon="7.48633">
        <ele>400</ele>
        <time>2019-04-17T22:28:16Z</time>
      </trkpt>
      <trkpt lat="44.61149" lon="7.48638">
        <ele>400</ele>
        <time>2019-04-17T22:29:16Z</time>
      </trkpt>
      <trkpt lat="44.60594" lon="7.48394">
        <ele>414</ele>
        <time>2019-04-17T22:30:16Z</time>
      </trkpt>
      <trkpt lat="44.60562" lon="7.48383">
        <ele>415</ele>
        <time>2019-04-17T22:31:16Z</time>
      </trkpt>
      <trkpt lat="44.60425" lon="7.48356">
        <ele>420</ele>
        <time>2019-04-17T22:32:16Z</time>
      </trkpt>
      <trkpt lat="44.60148" lon="7.48307">
        <ele>422</ele>
        <time>2019-04-17T22:33:16Z</time>
      </trkpt>
      <trkpt lat="44.60067" lon="7.48291">
        <ele>422</ele>
        <time>2019-04-17T22:34:16Z</time>
      </trkpt>
      <trkpt lat="44.5998" lon="7.48279">
        <ele>423</ele>
        <time>2019-04-17T22:35:16Z</time>
      </trkpt>
      <trkpt lat="44.59871" lon="7.48285">
        <ele>425</ele>
        <time>2019-04-17T22:36:16Z</time>
      </trkpt>
      <trkpt lat="44.59857" lon="7.48289">
        <ele>425</ele>
        <time>2019-04-17T22:37:16Z</time>
      </trkpt>
      <trkpt lat="44.59828" lon="7.4831">
        <ele>424</ele>
        <time>2019-04-17T22:38:16Z</time>
      </trkpt>
      <trkpt lat="44.59793" lon="7.48312">
        <ele>425</ele>
        <time>2019-04-17T22:39:16Z</time>
      </trkpt>
      <trkpt lat="44.59545" lon="7.48298">
        <ele>428</ele>
        <time>2019-04-17T22:40:16Z</time>
      </trkpt>
      <trkpt lat="44.59479" lon="7.48303">
        <ele>426</ele>
        <time>2019-04-17T22:41:16Z</time>
      </trkpt>
      <trkpt lat="44.5939" lon="7.48299">
        <ele>426</ele>
        <time>2019-04-17T22:42:16Z</time>
      </trkpt>
      <trkpt lat="44.59373" lon="7.48302">
        <ele>426</ele>
        <time>2019-04-17T22:43:16Z</time>
      </trkpt>
      <trkpt lat="44.59357" lon="7.48317">
        <ele>426</ele>
        <time>2019-04-17T22:44:16Z</time>
      </trkpt>
      <trkpt lat="44.5935" lon="7.48332">
        <ele>426</ele>
        <time>2019-04-17T22:45:16Z</time>
      </trkpt>
      <trkpt lat="44.59334" lon="7.48417">
        <ele>426</ele>
        <time>2019-04-17T22:46:16Z</time>
      </trkpt>
      <trkpt lat="44.59326" lon="7.4843">
        <ele>426</ele>
        <time>2019-04-17T22:47:16Z</time>
      </trkpt>
      <trkpt lat="44.59315" lon="7.48442">
        <ele>426</ele>
        <time>2019-04-17T22:48:16Z</time>
      </trkpt>
      <trkpt lat="44.59299" lon="7.48449">
        <ele>426</ele>
        <time>2019-04-17T22:49:16Z</time>
      </trkpt>
      <trkpt lat="44.59283" lon="7.48449">
        <ele>427</ele>
        <time>2019-04-17T22:50:16Z</time>
      </trkpt>
      <trkpt lat="44.58495" lon="7.48342">
        <ele>436</ele>
        <time>2019-04-17T22:51:16Z</time>
      </trkpt>
      <trkpt lat="44.58456" lon="7.48329">
        <ele>436</ele>
        <time>2019-04-17T22:52:16Z</time>
      </trkpt>
      <trkpt lat="44.58446" lon="7.48319">
        <ele>436</ele>
        <time>2019-04-17T22:53:16Z</time>
      </trkpt>
      <trkpt lat="44.58423" lon="7.48289">
        <ele>436</ele>
        <time>2019-04-17T22:54:16Z</time>
      </trkpt>
      <trkpt lat="44.58387" lon="7.48234">
        <ele>437</ele>
        <time>2019-04-17T22:55:16Z</time>
      </trkpt>
      <trkpt lat="44.58365" lon="7.48181">
        <ele>438</ele>
        <time>2019-04-17T22:56:16Z</time>
      </trkpt>
      <trkpt lat="44.5836" lon="7.48161">
        <ele>438</ele>
        <time>2019-04-17T22:57:16Z</time>
      </trkpt>
      <trkpt lat="44.58336" lon="7.48002">
        <ele>440</ele>
        <time>2019-04-17T22:58:16Z</time>
      </trkpt>
      <trkpt lat="44.58284" lon="7.47594">
        <ele>446</ele>
        <time>2019-04-17T22:59:16Z</time>
      </trkpt>
      <trkpt lat="44.5829" lon="7.47591">
        <ele>446</ele>
        <time>2019-04-17T23:00:16Z</time>
      </trkpt>
      <trkpt lat="44.58295" lon="7.47584">
        <ele>447</ele>
        <time>2019-04-17T23:01:16Z</time>
      </trkpt>
      <trkpt lat="44.58297" lon="7.47574">
        <ele>447</ele>
        <time>2019-04-17T23:02:16Z</time>
      </trkpt>
      <trkpt lat="44.58296" lon="7.47564">
        <ele>447</ele>
        <time>2019-04-17T23:03:16Z</time>
      </trkpt>
      <trkpt lat="44.58292" lon="7.47556">
        <ele>447</ele>
        <time>2019-04-17T23:04:16Z</time>
      </trkpt>
      <trkpt lat="44.58286" lon="7.47551">
        <ele>447</ele>
        <time>2019-04-17T23:05:16Z</time>
      </trkpt>
      <trkpt lat="44.58279" lon="7.4755">
        <ele>447</ele>
        <time>2019-04-17T23:06:16Z</time>
      </trkpt>
      <trkpt lat="44.58263" lon="7.47493">
        <ele>448</ele>
        <time>2019-04-17T23:07:16Z</time>
      </trkpt>
      <trkpt lat="44.58234" lon="7.47412">
        <ele>449</ele>
        <time>2019-04-17T23:08:16Z</time>
      </trkpt>
      <trkpt lat="44.58006" lon="7.46786">
        <ele>464</ele>
        <time>2019-04-17T23:09:16Z</time>
      </trkpt>
      <trkpt lat="44.57985" lon="7.46738">
        <ele>466</ele>
        <time>2019-04-17T23:10:16Z</time>
      </trkpt>
      <trkpt lat="44.5796" lon="7.46695">
        <ele>467</ele>
        <time>2019-04-17T23:11:16Z</time>
      </trkpt>
      <trkpt lat="44.57937" lon="7.46661">
        <ele>466</ele>
        <time>2019-04-17T23:12:16Z</time>
      </trkpt>
      <trkpt lat="44.57907" lon="7.46627">
        <ele>464</ele>
        <time>2019-04-17T23:13:16Z</time>
      </trkpt>
      <trkpt lat="44.57572" lon="7.46315">
        <ele>468</ele>
        <time>2019-04-17T23:14:16Z</time>
      </trkpt>
      <trkpt lat="44.57506" lon="7.46257">
        <ele>468</ele>
        <time>2019-04-17T23:15:16Z</time>
      </trkpt>
      <trkpt lat="44.57476" lon="7.46236">
        <ele>469</ele>
        <time>2019-04-17T23:16:16Z</time>
      </trkpt>
      <trkpt lat="44.57477" lon="7.46228">
        <ele>470</ele>
        <time>2019-04-17T23:17:16Z</time>
      </trkpt>
      <trkpt lat="44.57475" lon="7.4622">
        <ele>471</ele>
        <time>2019-04-17T23:18:16Z</time>
      </trkpt>
      <trkpt lat="44.57471" lon="7.46215">
        <ele>471</ele>
        <time>2019-04-17T23:19:16Z</time>
      </trkpt>
      <trkpt lat="44.57467" lon="7.46212">
        <ele>471</ele>
        <time>2019-04-17T23:20:16Z</time>
      </trkpt>
      <trkpt lat="44.57459" lon="7.46212">
        <ele>471</ele>
        <time>2019-04-17T23:21:16Z</time>
      </trkpt>
      <trkpt lat="44.57455" lon="7.46215">
        <ele>471</ele>
        <time>2019-04-17T23:22:16Z</time>
      </trkpt>
      <trkpt lat="44.57446" lon="7.46204">
        <ele>471</ele>
        <time>2019-04-17T23:23:16Z</time>
      </trkpt>
      <trkpt lat="44.57422" lon="7.46183">
        <ele>472</ele>
        <time>2019-04-17T23:24:16Z</time>
      </trkpt>
      <trkpt lat="44.57406" lon="7.46173">
        <ele>472</ele>
        <time>2019-04-17T23:25:16Z</time>
      </trkpt>
      <trkpt lat="44.57373" lon="7.46159">
        <ele>472</ele>
        <time>2019-04-17T23:26:16Z</time>
      </trkpt>
      <trkpt lat="44.57329" lon="7.46153">
        <ele>470</ele>
        <time>2019-04-17T23:27:16Z</time>
      </trkpt>
      <trkpt lat="44.57312" lon="7.46152">
        <ele>470</ele>
        <time>2019-04-17T23:28:16Z</time>
      </trkpt>
      <trkpt lat="44.57186" lon="7.46164">
        <ele>470</ele>
        <time>2019-04-17T23:29:16Z</time>
      </trkpt>
      <trkpt lat="44.57167" lon="7.46164">
        <ele>470</ele>
        <time>2019-04-17T23:30:16Z</time>
      </trkpt>
      <trkpt lat="44.57123" lon="7.46159">
        <ele>470</ele>
        <time>2019-04-17T23:31:16Z</time>
      </trkpt>
      <trkpt lat="44.57096" lon="7.46151">
        <ele>470</ele>
        <time>2019-04-17T23:32:16Z</time>
      </trkpt>
      <trkpt lat="44.56911" lon="7.46076">
        <ele>471</ele>
        <time>2019-04-17T23:33:16Z</time>
      </trkpt>
      <trkpt lat="44.56841" lon="7.46047">
        <ele>474</ele>
        <time>2019-04-17T23:34:16Z</time>
      </trkpt>
      <trkpt lat="44.56835" lon="7.46041">
        <ele>474</ele>
        <time>2019-04-17T23:35:16Z</time>
      </trkpt>
      <trkpt lat="44.56821" lon="7.46035">
        <ele>474</ele>
        <time>2019-04-17T23:36:16Z</time>
      </trkpt>
      <trkpt lat="44.56806" lon="7.46033">
        <ele>474</ele>
        <time>2019-04-17T23:37:16Z</time>
      </trkpt>
      <trkpt lat="44.56804" lon="7.46022">
        <ele>474</ele>
        <time>2019-04-17T23:38:16Z</time>
      </trkpt>
      <trkpt lat="44.56799" lon="7.46014">
        <ele>474</ele>
        <time>2019-04-17T23:39:16Z</time>
      </trkpt>
      <trkpt lat="44.5679" lon="7.46008">
        <ele>474</ele>
        <time>2019-04-17T23:40:16Z</time>
      </trkpt>
      <trkpt lat="44.56749" lon="7.45967">
        <ele>474</ele>
        <time>2019-04-17T23:41:16Z</time>
      </trkpt>
      <trkpt lat="44.56579" lon="7.45735">
        <ele>477</ele>
        <time>2019-04-17T23:42:16Z</time>
      </trkpt>
      <trkpt lat="44.56447" lon="7.45597">
        <ele>481</ele>
        <time>2019-04-17T23:43:16Z</time>
      </trkpt>
      <trkpt lat="44.56217" lon="7.45367">
        <ele>485</ele>
        <time>2019-04-17T23:44:16Z</time>
      </trkpt>
      <trkpt lat="44.56105" lon="7.45253">
        <ele>486</ele>
        <time>2019-04-17T23:45:16Z</time>
      </trkpt>
      <trkpt lat="44.55783" lon="7.44934">
        <ele>487</ele>
        <time>2019-04-17T23:46:16Z</time>
      </trkpt>
      <trkpt lat="44.55768" lon="7.44909">
        <ele>487</ele>
        <time>2019-04-17T23:47:16Z</time>
      </trkpt>
      <trkpt lat="44.55764" lon="7.44893">
        <ele>487</ele>
        <time>2019-04-17T23:48:16Z</time>
      </trkpt>
      <trkpt lat="44.55765" lon="7.44886">
        <ele>488</ele>
        <time>2019-04-17T23:49:16Z</time>
      </trkpt>
      <trkpt lat="44.55764" lon="7.4488">
        <ele>488</ele>
        <time>2019-04-17T23:50:16Z</time>
      </trkpt>
      <trkpt lat="44.5576" lon="7.44873">
        <ele>488</ele>
        <time>2019-04-17T23:51:16Z</time>
      </trkpt>
      <trkpt lat="44.55753" lon="7.44869">
        <ele>488</ele>
        <time>2019-04-17T23:52:16Z</time>
      </trkpt>
      <trkpt lat="44.55747" lon="7.44871">
        <ele>488</ele>
        <time>2019-04-17T23:53:16Z</time>
      </trkpt>
      <trkpt lat="44.55743" lon="7.44874">
        <ele>487</ele>
        <time>2019-04-17T23:54:16Z</time>
      </trkpt>
      <trkpt lat="44.55734" lon="7.44872">
        <ele>487</ele>
        <time>2019-04-17T23:55:16Z</time>
      </trkpt>
      <trkpt lat="44.55713" lon="7.44861">
        <ele>487</ele>
        <time>2019-04-17T23:56:16Z</time>
      </trkpt>
      <trkpt lat="44.55666" lon="7.44816">
        <ele>487</ele>
        <time>2019-04-17T23:57:16Z</time>
      </trkpt>
      <trkpt lat="44.55633" lon="7.44781">
        <ele>487</ele>
        <time>2019-04-17T23:58:16Z</time>
      </trkpt>
      <trkpt lat="44.55608" lon="7.44742">
        <ele>488</ele>
        <time>2019-04-17T23:59:16Z</time>
      </trkpt>
      <trkpt lat="44.55578" lon="7.44689">
        <ele>489</ele>
        <time>2019-04-18T00:00:16Z</time>
      </trkpt>
      <trkpt lat="44.55558" lon="7.44632">
        <ele>489</ele>
        <time>2019-04-18T00:01:16Z</time>
      </trkpt>
      <trkpt lat="44.55547" lon="7.44577">
        <ele>489</ele>
        <time>2019-04-18T00:02:16Z</time>
      </trkpt>
      <trkpt lat="44.5554" lon="7.44509">
        <ele>491</ele>
        <time>2019-04-18T00:03:16Z</time>
      </trkpt>
      <trkpt lat="44.5554" lon="7.44453">
        <ele>492</ele>
        <time>2019-04-18T00:04:16Z</time>
      </trkpt>
      <trkpt lat="44.55546" lon="7.44395">
        <ele>492</ele>
        <time>2019-04-18T00:05:16Z</time>
      </trkpt>
      <trkpt lat="44.55583" lon="7.44247">
        <ele>494</ele>
        <time>2019-04-18T00:06:16Z</time>
      </trkpt>
      <trkpt lat="44.55594" lon="7.44234">
        <ele>494</ele>
        <time>2019-04-18T00:07:16Z</time>
      </trkpt>
      <trkpt lat="44.55611" lon="7.44223">
        <ele>494</ele>
        <time>2019-04-18T00:08:16Z</time>
      </trkpt>
      <trkpt lat="44.55616" lon="7.4421">
        <ele>494</ele>
        <time>2019-04-18T00:09:16Z</time>
      </trkpt>
      <trkpt lat="44.55616" lon="7.44202">
        <ele>494</ele>
        <time>2019-04-18T00:10:16Z</time>
      </trkpt>
      <trkpt lat="44.55615" lon="7.44194">
        <ele>494</ele>
        <time>2019-04-18T00:11:16Z</time>
      </trkpt>
      <trkpt lat="44.55607" lon="7.44175">
        <ele>493</ele>
        <time>2019-04-18T00:12:16Z</time>
      </trkpt>
      <trkpt lat="44.55605" lon="7.44165">
        <ele>493</ele>
        <time>2019-04-18T00:13:16Z</time>
      </trkpt>
      <trkpt lat="44.55918" lon="7.42983">
        <ele>510</ele>
        <time>2019-04-18T00:14:16Z</time>
      </trkpt>
      <trkpt lat="44.56046" lon="7.42486">
        <ele>517</ele>
        <time>2019-04-18T00:15:16Z</time>
      </trkpt>
      <trkpt lat="44.56071" lon="7.424">
        <ele>519</ele>
        <time>2019-04-18T00:16:16Z</time>
      </trkpt>
      <trkpt lat="44.56106" lon="7.42296">
        <ele>521</ele>
        <time>2019-04-18T00:17:16Z</time>
      </trkpt>
      <trkpt lat="44.56181" lon="7.42086">
        <ele>527</ele>
        <time>2019-04-18T00:18:16Z</time>
      </trkpt>
      <trkpt lat="44.56203" lon="7.42043">
        <ele>527</ele>
        <time>2019-04-18T00:19:16Z</time>
      </trkpt>
      <trkpt lat="44.56315" lon="7.41875">
        <ele>537</ele>
        <time>2019-04-18T00:20:16Z</time>
      </trkpt>
      <trkpt lat="44.56328" lon="7.41842">
        <ele>535</ele>
        <time>2019-04-18T00:21:16Z</time>
      </trkpt>
      <trkpt lat="44.56335" lon="7.41805">
        <ele>533</ele>
        <time>2019-04-18T00:22:16Z</time>
      </trkpt>
      <trkpt lat="44.56387" lon="7.41424">
        <ele>534</ele>
        <time>2019-04-18T00:23:16Z</time>
      </trkpt>
      <trkpt lat="44.5647" lon="7.40806">
        <ele>544</ele>
        <time>2019-04-18T00:24:16Z</time>
      </trkpt>
      <trkpt lat="44.56476" lon="7.40745">
        <ele>545</ele>
        <time>2019-04-18T00:25:16Z</time>
      </trkpt>
      <trkpt lat="44.56476" lon="7.40683">
        <ele>545</ele>
        <time>2019-04-18T00:26:16Z</time>
      </trkpt>
      <trkpt lat="44.56469" lon="7.40622">
        <ele>547</ele>
        <time>2019-04-18T00:27:16Z</time>
      </trkpt>
      <trkpt lat="44.5638" lon="7.40292">
        <ele>545</ele>
        <time>2019-04-18T00:28:16Z</time>
      </trkpt>
      <trkpt lat="44.56364" lon="7.40224">
        <ele>545</ele>
        <time>2019-04-18T00:29:16Z</time>
      </trkpt>
      <trkpt lat="44.56361" lon="7.40187">
        <ele>544</ele>
        <time>2019-04-18T00:30:16Z</time>
      </trkpt>
      <trkpt lat="44.56365" lon="7.40095">
        <ele>548</ele>
        <time>2019-04-18T00:31:16Z</time>
      </trkpt>
      <trkpt lat="44.56376" lon="7.3996">
        <ele>557</ele>
        <time>2019-04-18T00:32:16Z</time>
      </trkpt>
      <trkpt lat="44.56381" lon="7.39871">
        <ele>561</ele>
        <time>2019-04-18T00:33:16Z</time>
      </trkpt>
      <trkpt lat="44.56385" lon="7.39863">
        <ele>562</ele>
        <time>2019-04-18T00:34:16Z</time>
      </trkpt>
      <trkpt lat="44.56391" lon="7.39821">
        <ele>562</ele>
        <time>2019-04-18T00:35:16Z</time>
      </trkpt>
      <trkpt lat="44.56411" lon="7.39764">
        <ele>562</ele>
        <time>2019-04-18T00:36:16Z</time>
      </trkpt>
      <trkpt lat="44.56466" lon="7.39632">
        <ele>568</ele>
        <time>2019-04-18T00:37:16Z</time>
      </trkpt>
      <trkpt lat="44.56646" lon="7.39288">
        <ele>565</ele>
        <time>2019-04-18T00:38:16Z</time>
      </trkpt>
      <trkpt lat="44.56757" lon="7.3908">
        <ele>564</ele>
        <time>2019-04-18T00:39:16Z</time>
      </trkpt>
      <trkpt lat="44.56783" lon="7.39017">
        <ele>573</ele>
        <time>2019-04-18T00:40:16Z</time>
      </trkpt>
      <trkpt lat="44.56808" lon="7.38916">
        <ele>574</ele>
        <time>2019-04-18T00:41:16Z</time>
      </trkpt>
      <trkpt lat="44.56816" lon="7.38829">
        <ele>571</ele>
        <time>2019-04-18T00:42:16Z</time>
      </trkpt>
      <trkpt lat="44.56818" lon="7.38724">
        <ele>565</ele>
        <time>2019-04-18T00:43:16Z</time>
      </trkpt>
      <trkpt lat="44.56828" lon="7.38699">
        <ele>566</ele>
        <time>2019-04-18T00:44:16Z</time>
      </trkpt>
      <trkpt lat="44.56845" lon="7.38666">
        <ele>567</ele>
        <time>2019-04-18T00:45:16Z</time>
      </trkpt>
      <trkpt lat="44.56878" lon="7.38638">
        <ele>572</ele>
        <time>2019-04-18T00:46:16Z</time>
      </trkpt>
      <trkpt lat="44.56855" lon="7.38633">
        <ele>571</ele>
        <time>2019-04-18T00:47:16Z</time>
      </trkpt>
      <trkpt lat="44.56836" lon="7.3862">
        <ele>571</ele>
        <time>2019-04-18T00:48:16Z</time>
      </trkpt>
      <trkpt lat="44.56816" lon="7.38583">
        <ele>572</ele>
        <time>2019-04-18T00:49:16Z</time>
      </trkpt>
      <trkpt lat="44.56813" lon="7.38461">
        <ele>575</ele>
        <time>2019-04-18T00:50:16Z</time>
      </trkpt>
      <trkpt lat="44.56803" lon="7.37563">
        <ele>580</ele>
        <time>2019-04-18T00:51:16Z</time>
      </trkpt>
      <trkpt lat="44.56798" lon="7.37338">
        <ele>580</ele>
        <time>2019-04-18T00:52:16Z</time>
      </trkpt>
      <trkpt lat="44.56795" lon="7.37287">
        <ele>579</ele>
        <time>2019-04-18T00:53:16Z</time>
      </trkpt>
      <trkpt lat="44.56781" lon="7.37067">
        <ele>582</ele>
        <time>2019-04-18T00:54:16Z</time>
      </trkpt>
      <trkpt lat="44.56765" lon="7.36858">
        <ele>584</ele>
        <time>2019-04-18T00:55:16Z</time>
      </trkpt>
      <trkpt lat="44.56764" lon="7.36815">
        <ele>585</ele>
        <time>2019-04-18T00:56:16Z</time>
      </trkpt>
      <trkpt lat="44.56772" lon="7.36766">
        <ele>586</ele>
        <time>2019-04-18T00:57:16Z</time>
      </trkpt>
      <trkpt lat="44.56782" lon="7.36729">
        <ele>587</ele>
        <time>2019-04-18T00:58:16Z</time>
      </trkpt>
      <trkpt lat="44.56797" lon="7.3669">
        <ele>588</ele>
        <time>2019-04-18T00:59:16Z</time>
      </trkpt>
      <trkpt lat="44.56861" lon="7.36557">
        <ele>589</ele>
        <time>2019-04-18T01:00:16Z</time>
      </trkpt>
      <trkpt lat="44.56906" lon="7.36457">
        <ele>592</ele>
        <time>2019-04-18T01:01:16Z</time>
      </trkpt>
      <trkpt lat="44.56919" lon="7.36419">
        <ele>593</ele>
        <time>2019-04-18T01:02:16Z</time>
      </trkpt>
      <trkpt lat="44.56922" lon="7.36406">
        <ele>593</ele>
        <time>2019-04-18T01:03:16Z</time>
      </trkpt>
      <trkpt lat="44.5692" lon="7.36361">
        <ele>594</ele>
        <time>2019-04-18T01:04:16Z</time>
      </trkpt>
      <trkpt lat="44.5689" lon="7.35991">
        <ele>599</ele>
        <time>2019-04-18T01:05:16Z</time>
      </trkpt>
      <trkpt lat="44.56885" lon="7.35958">
        <ele>600</ele>
        <time>2019-04-18T01:06:16Z</time>
      </trkpt>
      <trkpt lat="44.5684" lon="7.35854">
        <ele>604</ele>
        <time>2019-04-18T01:07:16Z</time>
      </trkpt>
      <trkpt lat="44.56774" lon="7.35714">
        <ele>602</ele>
        <time>2019-04-18T01:08:16Z</time>
      </trkpt>
      <trkpt lat="44.56731" lon="7.35629">
        <ele>602</ele>
        <time>2019-04-18T01:09:16Z</time>
      </trkpt>
      <trkpt lat="44.56647" lon="7.35453">
        <ele>608</ele>
        <time>2019-04-18T01:10:16Z</time>
      </trkpt>
      <trkpt lat="44.56623" lon="7.35401">
        <ele>609</ele>
        <time>2019-04-18T01:11:16Z</time>
      </trkpt>
      <trkpt lat="44.56607" lon="7.35369">
        <ele>609</ele>
        <time>2019-04-18T01:12:16Z</time>
      </trkpt>
      <trkpt lat="44.56571" lon="7.35317">
        <ele>611</ele>
        <time>2019-04-18T01:13:16Z</time>
      </trkpt>
      <trkpt lat="44.56494" lon="7.35246">
        <ele>612</ele>
        <time>2019-04-18T01:14:16Z</time>
      </trkpt>
      <trkpt lat="44.56329" lon="7.35027">
        <ele>624</ele>
        <time>2019-04-18T01:15:16Z</time>
      </trkpt>
      <trkpt lat="44.56314" lon="7.35011">
        <ele>624</ele>
        <time>2019-04-18T01:16:16Z</time>
      </trkpt>
      <trkpt lat="44.56287" lon="7.34996">
        <ele>623</ele>
        <time>2019-04-18T01:17:16Z</time>
      </trkpt>
      <trkpt lat="44.56253" lon="7.34981">
        <ele>622</ele>
        <time>2019-04-18T01:18:16Z</time>
      </trkpt>
      <trkpt lat="44.56232" lon="7.34968">
        <ele>623</ele>
        <time>2019-04-18T01:19:16Z</time>
      </trkpt>
      <trkpt lat="44.56182" lon="7.34919">
        <ele>625</ele>
        <time>2019-04-18T01:20:16Z</time>
      </trkpt>
      <trkpt lat="44.56117" lon="7.34829">
        <ele>632</ele>
        <time>2019-04-18T01:21:16Z</time>
      </trkpt>
      <trkpt lat="44.55862" lon="7.34662">
        <ele>641</ele>
        <time>2019-04-18T01:22:16Z</time>
      </trkpt>
      <trkpt lat="44.5583" lon="7.34645">
        <ele>637</ele>
        <time>2019-04-18T01:23:16Z</time>
      </trkpt>
      <trkpt lat="44.55816" lon="7.34624">
        <ele>639</ele>
        <time>2019-04-18T01:24:16Z</time>
      </trkpt>
      <trkpt lat="44.55803" lon="7.34594">
        <ele>642</ele>
        <time>2019-04-18T01:25:16Z</time>
      </trkpt>
      <trkpt lat="44.55782" lon="7.3452">
        <ele>646</ele>
        <time>2019-04-18T01:26:16Z</time>
      </trkpt>
      <trkpt lat="44.55739" lon="7.34316">
        <ele>651</ele>
        <time>2019-04-18T01:27:16Z</time>
      </trkpt>
      <trkpt lat="44.55703" lon="7.34134">
        <ele>655</ele>
        <time>2019-04-18T01:28:16Z</time>
      </trkpt>
      <trkpt lat="44.5569" lon="7.3403">
        <ele>652</ele>
        <time>2019-04-18T01:29:16Z</time>
      </trkpt>
      <trkpt lat="44.55685" lon="7.33969">
        <ele>649</ele>
        <time>2019-04-18T01:30:16Z</time>
      </trkpt>
      <trkpt lat="44.55684" lon="7.33925">
        <ele>649</ele>
        <time>2019-04-18T01:31:16Z</time>
      </trkpt>
      <trkpt lat="44.55689" lon="7.33865">
        <ele>651</ele>
        <time>2019-04-18T01:32:16Z</time>
      </trkpt>
      <trkpt lat="44.55688" lon="7.33797">
        <ele>652</ele>
        <time>2019-04-18T01:33:16Z</time>
      </trkpt>
      <trkpt lat="44.55683" lon="7.33749">
        <ele>653</ele>
        <time>2019-04-18T01:34:16Z</time>
      </trkpt>
      <trkpt lat="44.55675" lon="7.3371">
        <ele>652</ele>
        <time>2019-04-18T01:35:16Z</time>
      </trkpt>
      <trkpt lat="44.55652" lon="7.33657">
        <ele>649</ele>
        <time>2019-04-18T01:36:16Z</time>
      </trkpt>
      <trkpt lat="44.55644" lon="7.33604">
        <ele>645</ele>
        <time>2019-04-18T01:37:16Z</time>
      </trkpt>
      <trkpt lat="44.55642" lon="7.33598">
        <ele>645</ele>
        <time>2019-04-18T01:38:16Z</time>
      </trkpt>
      <trkpt lat="44.55595" lon="7.33544">
        <ele>639</ele>
        <time>2019-04-18T01:39:16Z</time>
      </trkpt>
      <trkpt lat="44.55584" lon="7.33525">
        <ele>640</ele>
        <time>2019-04-18T01:40:16Z</time>
      </trkpt>
      <trkpt lat="44.55583" lon="7.33497">
        <ele>642</ele>
        <time>2019-04-18T01:41:16Z</time>
      </trkpt>
      <trkpt lat="44.55589" lon="7.33479">
        <ele>644</ele>
        <time>2019-04-18T01:42:16Z</time>
      </trkpt>
      <trkpt lat="44.55603" lon="7.33441">
        <ele>645</ele>
        <time>2019-04-18T01:43:16Z</time>
      </trkpt>
      <trkpt lat="44.55785" lon="7.33055">
        <ele>645</ele>
        <time>2019-04-18T01:44:16Z</time>
      </trkpt>
      <trkpt lat="44.558" lon="7.33029">
        <ele>645</ele>
        <time>2019-04-18T01:45:16Z</time>
      </trkpt>
      <trkpt lat="44.55893" lon="7.32882">
        <ele>648</ele>
        <time>2019-04-18T01:46:16Z</time>
      </trkpt>
      <trkpt lat="44.56297" lon="7.3234">
        <ele>667</ele>
        <time>2019-04-18T01:47:16Z</time>
      </trkpt>
      <trkpt lat="44.56326" lon="7.32282">
        <ele>666</ele>
        <time>2019-04-18T01:48:16Z</time>
      </trkpt>
      <trkpt lat="44.56336" lon="7.32229">
        <ele>666</ele>
        <time>2019-04-18T01:49:16Z</time>
      </trkpt>
      <trkpt lat="44.56339" lon="7.32186">
        <ele>665</ele>
        <time>2019-04-18T01:50:16Z</time>
      </trkpt>
      <trkpt lat="44.5634" lon="7.3216">
        <ele>665</ele>
        <time>2019-04-18T01:51:16Z</time>
      </trkpt>
      <trkpt lat="44.56338" lon="7.32118">
        <ele>666</ele>
        <time>2019-04-18T01:52:16Z</time>
      </trkpt>
      <trkpt lat="44.56334" lon="7.32083">
        <ele>666</ele>
        <time>2019-04-18T01:53:16Z</time>
      </trkpt>
      <trkpt lat="44.56313" lon="7.31989">
        <ele>670</ele>
        <time>2019-04-18T01:54:16Z</time>
      </trkpt>
      <trkpt lat="44.56304" lon="7.31965">
        <ele>670</ele>
        <time>2019-04-18T01:55:16Z</time>
      </trkpt>
      <trkpt lat="44.56291" lon="7.31938">
        <ele>670</ele>
        <time>2019-04-18T01:56:16Z</time>
      </trkpt>
      <trkpt lat="44.56252" lon="7.31878">
        <ele>672</ele>
        <time>2019-04-18T01:57:16Z</time>
      </trkpt>
      <trkpt lat="44.56216" lon="7.31811">
        <ele>680</ele>
        <time>2019-04-18T01:58:16Z</time>
      </trkpt>
      <trkpt lat="44.56173" lon="7.31688">
        <ele>682</ele>
        <time>2019-04-18T01:59:16Z</time>
      </trkpt>
      <trkpt lat="44.5616" lon="7.31644">
        <ele>684</ele>
        <time>2019-04-18T02:00:16Z</time>
      </trkpt>
      <trkpt lat="44.56149" lon="7.31579">
        <ele>685</ele>
        <time>2019-04-18T02:01:16Z</time>
      </trkpt>
      <trkpt lat="44.56115" lon="7.31316">
        <ele>690</ele>
        <time>2019-04-18T02:02:16Z</time>
      </trkpt>
      <trkpt lat="44.56112" lon="7.31272">
        <ele>692</ele>
        <time>2019-04-18T02:03:16Z</time>
      </trkpt>
      <trkpt lat="44.56115" lon="7.31228">
        <ele>693</ele>
        <time>2019-04-18T02:04:16Z</time>
      </trkpt>
      <trkpt lat="44.56148" lon="7.31069">
        <ele>686</ele>
        <time>2019-04-18T02:05:16Z</time>
      </trkpt>
      <trkpt lat="44.56181" lon="7.3089">
        <ele>690</ele>
        <time>2019-04-18T02:06:16Z</time>
      </trkpt>
      <trkpt lat="44.56191" lon="7.30858">
        <ele>690</ele>
        <time>2019-04-18T02:07:16Z</time>
      </trkpt>
      <trkpt lat="44.56226" lon="7.30802">
        <ele>688</ele>
        <time>2019-04-18T02:08:16Z</time>
      </trkpt>
      <trkpt lat="44.56294" lon="7.30683">
        <ele>686</ele>
        <time>2019-04-18T02:09:16Z</time>
      </trkpt>
      <trkpt lat="44.56342" lon="7.30606">
        <ele>687</ele>
        <time>2019-04-18T02:10:16Z</time>
      </trkpt>
      <trkpt lat="44.56357" lon="7.30585">
        <ele>688</ele>
        <time>2019-04-18T02:11:16Z</time>
      </trkpt>
      <trkpt lat="44.5638" lon="7.3056">
        <ele>689</ele>
        <time>2019-04-18T02:12:16Z</time>
      </trkpt>
      <trkpt lat="44.56574" lon="7.30402">
        <ele>693</ele>
        <time>2019-04-18T02:13:16Z</time>
      </trkpt>
      <trkpt lat="44.56632" lon="7.30358">
        <ele>695</ele>
        <time>2019-04-18T02:14:16Z</time>
      </trkpt>
      <trkpt lat="44.56749" lon="7.30264">
        <ele>698</ele>
        <time>2019-04-18T02:15:16Z</time>
      </trkpt>
      <trkpt lat="44.56762" lon="7.3025">
        <ele>699</ele>
        <time>2019-04-18T02:16:16Z</time>
      </trkpt>
      <trkpt lat="44.56782" lon="7.30224">
        <ele>700</ele>
        <time>2019-04-18T02:17:16Z</time>
      </trkpt>
      <trkpt lat="44.56828" lon="7.30132">
        <ele>700</ele>
        <time>2019-04-18T02:18:16Z</time>
      </trkpt>
      <trkpt lat="44.56865" lon="7.30042">
        <ele>709</ele>
        <time>2019-04-18T02:19:16Z</time>
      </trkpt>
      <trkpt lat="44.56887" lon="7.3">
        <ele>709</ele>
        <time>2019-04-18T02:20:16Z</time>
      </trkpt>
      <trkpt lat="44.56945" lon="7.29863">
        <ele>717</ele>
        <time>2019-04-18T02:21:16Z</time>
      </trkpt>
      <trkpt lat="44.56966" lon="7.29782">
        <ele>717</ele>
        <time>2019-04-18T02:22:16Z</time>
      </trkpt>
      <trkpt lat="44.56982" lon="7.29711">
        <ele>716</ele>
        <time>2019-04-18T02:23:16Z</time>
      </trkpt>
      <trkpt lat="44.56981" lon="7.2966">
        <ele>716</ele>
        <time>2019-04-18T02:24:16Z</time>
      </trkpt>
      <trkpt lat="44.5691" lon="7.29335">
        <ele>712</ele>
        <time>2019-04-18T02:25:16Z</time>
      </trkpt>
      <trkpt lat="44.56893" lon="7.2913">
        <ele>717</ele>
        <time>2019-04-18T02:26:16Z</time>
      </trkpt>
      <trkpt lat="44.56878" lon="7.28921">
        <ele>727</ele>
        <time>2019-04-18T02:27:16Z</time>
      </trkpt>
      <trkpt lat="44.56875" lon="7.28835">
        <ele>735</ele>
        <time>2019-04-18T02:28:16Z</time>
      </trkpt>
      <trkpt lat="44.56896" lon="7.28701">
        <ele>742</ele>
        <time>2019-04-18T02:29:16Z</time>
      </trkpt>
      <trkpt lat="44.56913" lon="7.28572">
        <ele>744</ele>
        <time>2019-04-18T02:30:16Z</time>
      </trkpt>
      <trkpt lat="44.5692" lon="7.28559">
        <ele>741</ele>
        <time>2019-04-18T02:31:16Z</time>
      </trkpt>
      <trkpt lat="44.56932" lon="7.28551">
        <ele>739</ele>
        <time>2019-04-18T02:32:16Z</time>
      </trkpt>
      <trkpt lat="44.56956" lon="7.2855">
        <ele>734</ele>
        <time>2019-04-18T02:33:16Z</time>
      </trkpt>
      <trkpt lat="44.57042" lon="7.28555">
        <ele>726</ele>
        <time>2019-04-18T02:34:16Z</time>
      </trkpt>
      <trkpt lat="44.57063" lon="7.28555">
        <ele>727</ele>
        <time>2019-04-18T02:35:16Z</time>
      </trkpt>
      <trkpt lat="44.57099" lon="7.28538">
        <ele>732</ele>
        <time>2019-04-18T02:36:16Z</time>
      </trkpt>
      <trkpt lat="44.57124" lon="7.28516">
        <ele>739</ele>
        <time>2019-04-18T02:37:16Z</time>
      </trkpt>
      <trkpt lat="44.57136" lon="7.28492">
        <ele>741</ele>
        <time>2019-04-18T02:38:16Z</time>
      </trkpt>
      <trkpt lat="44.57143" lon="7.2847">
        <ele>743</ele>
        <time>2019-04-18T02:39:16Z</time>
      </trkpt>
      <trkpt lat="44.57171" lon="7.28237">
        <ele>742</ele>
        <time>2019-04-18T02:40:16Z</time>
      </trkpt>
      <trkpt lat="44.57194" lon="7.281">
        <ele>745</ele>
        <time>2019-04-18T02:41:16Z</time>
      </trkpt>
      <trkpt lat="44.57195" lon="7.27956">
        <ele>748</ele>
        <time>2019-04-18T02:42:16Z</time>
      </trkpt>
      <trkpt lat="44.57193" lon="7.27933">
        <ele>749</ele>
        <time>2019-04-18T02:43:16Z</time>
      </trkpt>
      <trkpt lat="44.57183" lon="7.27896">
        <ele>749</ele>
        <time>2019-04-18T02:44:16Z</time>
      </trkpt>
      <trkpt lat="44.57156" lon="7.27809">
        <ele>750</ele>
        <time>2019-04-18T02:45:16Z</time>
      </trkpt>
      <trkpt lat="44.57153" lon="7.27792">
        <ele>751</ele>
        <time>2019-04-18T02:46:16Z</time>
      </trkpt>
      <trkpt lat="44.57144" lon="7.27701">
        <ele>752</ele>
        <time>2019-04-18T02:47:16Z</time>
      </trkpt>
      <trkpt lat="44.57138" lon="7.27666">
        <ele>752</ele>
        <time>2019-04-18T02:48:16Z</time>
      </trkpt>
      <trkpt lat="44.57131" lon="7.27641">
        <ele>752</ele>
        <time>2019-04-18T02:49:16Z</time>
      </trkpt>
      <trkpt lat="44.57119" lon="7.27617">
        <ele>752</ele>
        <time>2019-04-18T02:50:16Z</time>
      </trkpt>
      <trkpt lat="44.57058" lon="7.27525">
        <ele>751</ele>
        <time>2019-04-18T02:51:16Z</time>
      </trkpt>
      <trkpt lat="44.57049" lon="7.27508">
        <ele>751</ele>
        <time>2019-04-18T02:52:16Z</time>
      </trkpt>
      <trkpt lat="44.57044" lon="7.2749">
        <ele>751</ele>
        <time>2019-04-18T02:53:16Z</time>
      </trkpt>
      <trkpt lat="44.57042" lon="7.27465">
        <ele>751</ele>
        <time>2019-04-18T02:54:16Z</time>
      </trkpt>
      <trkpt lat="44.57046" lon="7.27356">
        <ele>753</ele>
        <time>2019-04-18T02:55:16Z</time>
      </trkpt>
      <trkpt lat="44.57054" lon="7.27235">
        <ele>758</ele>
        <time>2019-04-18T02:56:16Z</time>
      </trkpt>
      <trkpt lat="44.57061" lon="7.27213">
        <ele>758</ele>
        <time>2019-04-18T02:57:16Z</time>
      </trkpt>
      <trkpt lat="44.57114" lon="7.27106">
        <ele>763</ele>
        <time>2019-04-18T02:58:16Z</time>
      </trkpt>
      <trkpt lat="44.57131" lon="7.27054">
        <ele>764</ele>
        <time>2019-04-18T02:59:16Z</time>
      </trkpt>
      <trkpt lat="44.57147" lon="7.26982">
        <ele>764</ele>
        <time>2019-04-18T03:00:16Z</time>
      </trkpt>
      <trkpt lat="44.57158" lon="7.26923">
        <ele>763</ele>
        <time>2019-04-18T03:01:16Z</time>
      </trkpt>
      <trkpt lat="44.5716" lon="7.26901">
        <ele>763</ele>
        <time>2019-04-18T03:02:16Z</time>
      </trkpt>
      <trkpt lat="44.5716" lon="7.26882">
        <ele>763</ele>
        <time>2019-04-18T03:03:16Z</time>
      </trkpt>
      <trkpt lat="44.57156" lon="7.26844">
        <ele>762</ele>
        <time>2019-04-18T03:04:16Z</time>
      </trkpt>
      <trkpt lat="44.57131" lon="7.26641">
        <ele>768</ele>
        <time>2019-04-18T03:05:16Z</time>
      </trkpt>
      <trkpt lat="44.57112" lon="7.26516">
        <ele>774</ele>
        <time>2019-04-18T03:06:16Z</time>
      </trkpt>
      <trkpt lat="44.57109" lon="7.26478">
        <ele>774</ele>
        <time>2019-04-18T03:07:16Z</time>
      </trkpt>
      <trkpt lat="44.57108" lon="7.26418">
        <ele>773</ele>
        <time>2019-04-18T03:08:16Z</time>
      </trkpt>
      <trkpt lat="44.57135" lon="7.26181">
        <ele>779</ele>
        <time>2019-04-18T03:09:16Z</time>
      </trkpt>
      <trkpt lat="44.57155" lon="7.26003">
        <ele>775</ele>
        <time>2019-04-18T03:10:16Z</time>
      </trkpt>
      <trkpt lat="44.57155" lon="7.2598">
        <ele>776</ele>
        <time>2019-04-18T03:11:16Z</time>
      </trkpt>
      <trkpt lat="44.57153" lon="7.2595">
        <ele>778</ele>
        <time>2019-04-18T03:12:16Z</time>
      </trkpt>
      <trkpt lat="44.5714" lon="7.25908">
        <ele>780</ele>
        <time>2019-04-18T03:13:16Z</time>
      </trkpt>
      <trkpt lat="44.5703" lon="7.25731">
        <ele>784</ele>
        <time>2019-04-18T03:14:16Z</time>
      </trkpt>
      <trkpt lat="44.56979" lon="7.25653">
        <ele>784</ele>
        <time>2019-04-18T03:15:16Z</time>
      </trkpt>
      <trkpt lat="44.5697" lon="7.25636">
        <ele>784</ele>
        <time>2019-04-18T03:16:16Z</time>
      </trkpt>
      <trkpt lat="44.5696" lon="7.25608">
        <ele>784</ele>
        <time>2019-04-18T03:17:16Z</time>
      </trkpt>
      <trkpt lat="44.56951" lon="7.25567">
        <ele>785</ele>
        <time>2019-04-18T03:18:16Z</time>
      </trkpt>
      <trkpt lat="44.5695" lon="7.25549">
        <ele>785</ele>
        <time>2019-04-18T03:19:16Z</time>
      </trkpt>
      <trkpt lat="44.56951" lon="7.25527">
        <ele>786</ele>
        <time>2019-04-18T03:20:16Z</time>
      </trkpt>
      <trkpt lat="44.56957" lon="7.25509">
        <ele>787</ele>
        <time>2019-04-18T03:21:16Z</time>
      </trkpt>
      <trkpt lat="44.56999" lon="7.25424">
        <ele>786</ele>
        <time>2019-04-18T03:22:16Z</time>
      </trkpt>
      <trkpt lat="44.571" lon="7.25229">
        <ele>798</ele>
        <time>2019-04-18T03:23:16Z</time>
      </trkpt>
      <trkpt lat="44.5722" lon="7.24923">
        <ele>803</ele>
        <time>2019-04-18T03:24:16Z</time>
      </trkpt>
      <trkpt lat="44.57266" lon="7.24796">
        <ele>808</ele>
        <time>2019-04-18T03:25:16Z</time>
      </trkpt>
      <trkpt lat="44.57286" lon="7.24708">
        <ele>810</ele>
        <time>2019-04-18T03:26:16Z</time>
      </trkpt>
      <trkpt lat="44.57347" lon="7.24317">
        <ele>821</ele>
        <time>2019-04-18T03:27:16Z</time>
      </trkpt>
      <trkpt lat="44.57351" lon="7.24265">
        <ele>824</ele>
        <time>2019-04-18T03:28:16Z</time>
      </trkpt>
      <trkpt lat="44.5735" lon="7.23713">
        <ele>820</ele>
        <time>2019-04-18T03:29:16Z</time>
      </trkpt>
      <trkpt lat="44.57334" lon="7.23392">
        <ele>825</ele>
        <time>2019-04-18T03:30:16Z</time>
      </trkpt>
      <trkpt lat="44.57338" lon="7.23236">
        <ele>824</ele>
        <time>2019-04-18T03:31:16Z</time>
      </trkpt>
      <trkpt lat="44.57335" lon="7.23174">
        <ele>826</ele>
        <time>2019-04-18T03:32:16Z</time>
      </trkpt>
      <trkpt lat="44.57328" lon="7.23125">
        <ele>826</ele>
        <time>2019-04-18T03:33:16Z</time>
      </trkpt>
      <trkpt lat="44.57267" lon="7.22795">
        <ele>836</ele>
        <time>2019-04-18T03:34:16Z</time>
      </trkpt>
      <trkpt lat="44.57265" lon="7.22723">
        <ele>840</ele>
        <time>2019-04-18T03:35:16Z</time>
      </trkpt>
      <trkpt lat="44.57273" lon="7.22625">
        <ele>844</ele>
        <time>2019-04-18T03:36:16Z</time>
      </trkpt>
      <trkpt lat="44.57291" lon="7.22521">
        <ele>848</ele>
        <time>2019-04-18T03:37:16Z</time>
      </trkpt>
      <trkpt lat="44.57306" lon="7.22484">
        <ele>849</ele>
        <time>2019-04-18T03:38:16Z</time>
      </trkpt>
      <trkpt lat="44.57322" lon="7.22449">
        <ele>848</ele>
        <time>2019-04-18T03:39:16Z</time>
      </trkpt>
      <trkpt lat="44.57467" lon="7.22196">
        <ele>857</ele>
        <time>2019-04-18T03:40:16Z</time>
      </trkpt>
      <trkpt lat="44.576" lon="7.21941">
        <ele>859</ele>
        <time>2019-04-18T03:41:16Z</time>
      </trkpt>
      <trkpt lat="44.57653" lon="7.21847">
        <ele>871</ele>
        <time>2019-04-18T03:42:16Z</time>
      </trkpt>
      <trkpt lat="44.5766" lon="7.21833">
        <ele>872</ele>
        <time>2019-04-18T03:43:16Z</time>
      </trkpt>
      <trkpt lat="44.57683" lon="7.21758">
        <ele>879</ele>
        <time>2019-04-18T03:44:16Z</time>
      </trkpt>
      <trkpt lat="44.57692" lon="7.21716">
        <ele>879</ele>
        <time>2019-04-18T03:45:16Z</time>
      </trkpt>
      <trkpt lat="44.57698" lon="7.21636">
        <ele>878</ele>
        <time>2019-04-18T03:46:16Z</time>
      </trkpt>
      <trkpt lat="44.5769" lon="7.21497">
        <ele>879</ele>
        <time>2019-04-18T03:47:16Z</time>
      </trkpt>
      <trkpt lat="44.57688" lon="7.21433">
        <ele>881</ele>
        <time>2019-04-18T03:48:16Z</time>
      </trkpt>
      <trkpt lat="44.57696" lon="7.21303">
        <ele>888</ele>
        <time>2019-04-18T03:49:16Z</time>
      </trkpt>
      <trkpt lat="44.57732" lon="7.2096">
        <ele>906</ele>
        <time>2019-04-18T03:50:16Z</time>
      </trkpt>
      <trkpt lat="44.57771" lon="7.20757">
        <ele>914</ele>
        <time>2019-04-18T03:51:16Z</time>
      </trkpt>
      <trkpt lat="44.57782" lon="7.20648">
        <ele>918</ele>
        <time>2019-04-18T03:52:16Z</time>
      </trkpt>
      <trkpt lat="44.57785" lon="7.20377">
        <ele>922</ele>
        <time>2019-04-18T03:53:16Z</time>
      </trkpt>
      <trkpt lat="44.57782" lon="7.20328">
        <ele>923</ele>
        <time>2019-04-18T03:54:16Z</time>
      </trkpt>
      <trkpt lat="44.57748" lon="7.20114">
        <ele>928</ele>
        <time>2019-04-18T03:55:16Z</time>
      </trkpt>
      <trkpt lat="44.57711" lon="7.19863">
        <ele>938</ele>
        <time>2019-04-18T03:56:16Z</time>
      </trkpt>
      <trkpt lat="44.57708" lon="7.19849">
        <ele>938</ele>
        <time>2019-04-18T03:57:16Z</time>
      </trkpt>
      <trkpt lat="44.57699" lon="7.19834">
        <ele>938</ele>
        <time>2019-04-18T03:58:16Z</time>
      </trkpt>
      <trkpt lat="44.57688" lon="7.19824">
        <ele>937</ele>
        <time>2019-04-18T03:59:16Z</time>
      </trkpt>
      <trkpt lat="44.57627" lon="7.19782">
        <ele>933</ele>
        <time>2019-04-18T04:00:16Z</time>
      </trkpt>
      <trkpt lat="44.57611" lon="7.19764">
        <ele>932</ele>
        <time>2019-04-18T04:01:16Z</time>
      </trkpt>
      <trkpt lat="44.57575" lon="7.19711">
        <ele>931</ele>
        <time>2019-04-18T04:02:16Z</time>
      </trkpt>
      <trkpt lat="44.57563" lon="7.1969">
        <ele>931</ele>
        <time>2019-04-18T04:03:16Z</time>
      </trkpt>
      <trkpt lat="44.57556" lon="7.19666">
        <ele>932</ele>
        <time>2019-04-18T04:04:16Z</time>
      </trkpt>
      <trkpt lat="44.57553" lon="7.19637">
        <ele>932</ele>
        <time>2019-04-18T04:05:16Z</time>
      </trkpt>
      <trkpt lat="44.57557" lon="7.19572">
        <ele>933</ele>
        <time>2019-04-18T04:06:16Z</time>
      </trkpt>
      <trkpt lat="44.57566" lon="7.19484">
        <ele>937</ele>
        <time>2019-04-18T04:07:16Z</time>
      </trkpt>
      <trkpt lat="44.57568" lon="7.19413">
        <ele>943</ele>
        <time>2019-04-18T04:08:16Z</time>
      </trkpt>
      <trkpt lat="44.57594" lon="7.19276">
        <ele>943</ele>
        <time>2019-04-18T04:09:16Z</time>
      </trkpt>
      <trkpt lat="44.57606" lon="7.19226">
        <ele>945</ele>
        <time>2019-04-18T04:10:16Z</time>
      </trkpt>
      <trkpt lat="44.57619" lon="7.19197">
        <ele>946</ele>
        <time>2019-04-18T04:11:16Z</time>
      </trkpt>
      <trkpt lat="44.57679" lon="7.1909">
        <ele>951</ele>
        <time>2019-04-18T04:12:16Z</time>
      </trkpt>
      <trkpt lat="44.5773" lon="7.19003">
        <ele>956</ele>
        <time>2019-04-18T04:13:16Z</time>
      </trkpt>
      <trkpt lat="44.57765" lon="7.18936">
        <ele>955</ele>
        <time>2019-04-18T04:14:16Z</time>
      </trkpt>
      <trkpt lat="44.57783" lon="7.18886">
        <ele>957</ele>
        <time>2019-04-18T04:15:16Z</time>
      </trkpt>
      <trkpt lat="44.57884" lon="7.18501">
        <ele>972</ele>
        <time>2019-04-18T04:16:16Z</time>
      </trkpt>
      <trkpt lat="44.57895" lon="7.18464">
        <ele>973</ele>
        <time>2019-04-18T04:17:16Z</time>
      </trkpt>
      <trkpt lat="44.57929" lon="7.1838">
        <ele>977</ele>
        <time>2019-04-18T04:18:16Z</time>
      </trkpt>
      <trkpt lat="44.57988" lon="7.18247">
        <ele>980</ele>
        <time>2019-04-18T04:19:16Z</time>
      </trkpt>
      <trkpt lat="44.57995" lon="7.18237">
        <ele>980</ele>
        <time>2019-04-18T04:20:16Z</time>
      </trkpt>
      <trkpt lat="44.57998" lon="7.18237">
        <ele>981</ele>
        <time>2019-04-18T04:21:16Z</time>
      </trkpt>
      <trkpt lat="44.58" lon="7.18236">
        <ele>981</ele>
        <time>2019-04-18T04:22:16Z</time>
      </trkpt>
      <trkpt lat="44.58" lon="7.1823">
        <ele>981</ele>
        <time>2019-04-18T04:23:16Z</time>
      </trkpt>
      <trkpt lat="44.57998" lon="7.18228">
        <ele>981</ele>
        <time>2019-04-18T04:24:16Z</time>
      </trkpt>
      <trkpt lat="44.58002" lon="7.18215">
        <ele>981</ele>
        <time>2019-04-18T04:25:16Z</time>
      </trkpt>
      <trkpt lat="44.58043" lon="7.18106">
        <ele>989</ele>
        <time>2019-04-18T04:26:16Z</time>
      </trkpt>
      <trkpt lat="44.5805" lon="7.1808">
        <ele>992</ele>
        <time>2019-04-18T04:27:16Z</time>
      </trkpt>
      <trkpt lat="44.58054" lon="7.18054">
        <ele>993</ele>
        <time>2019-04-18T04:28:16Z</time>
      </trkpt>
      <trkpt lat="44.58064" lon="7.17934">
        <ele>994</ele>
        <time>2019-04-18T04:29:16Z</time>
      </trkpt>
      <trkpt lat="44.58075" lon="7.17755">
        <ele>988</ele>
        <time>2019-04-18T04:30:16Z</time>
      </trkpt>
      <trkpt lat="44.5808" lon="7.17719">
        <ele>986</ele>
        <time>2019-04-18T04:31:16Z</time>
      </trkpt>
      <trkpt lat="44.58095" lon="7.17638">
        <ele>985</ele>
        <time>2019-04-18T04:32:16Z</time>
      </trkpt>
      <trkpt lat="44.58177" lon="7.17271">
        <ele>991</ele>
        <time>2019-04-18T04:33:16Z</time>
      </trkpt>
      <trkpt lat="44.58187" lon="7.17208">
        <ele>993</ele>
        <time>2019-04-18T04:34:16Z</time>
      </trkpt>
      <trkpt lat="44.58191" lon="7.17147">
        <ele>993</ele>
        <time>2019-04-18T04:35:16Z</time>
      </trkpt>
      <trkpt lat="44.58179" lon="7.17044">
        <ele>990</ele>
        <time>2019-04-18T04:36:16Z</time>
      </trkpt>
      <trkpt lat="44.58189" lon="7.16908">
        <ele>992</ele>
        <time>2019-04-18T04:37:16Z</time>
      </trkpt>
      <trkpt lat="44.5819" lon="7.16868">
        <ele>993</ele>
        <time>2019-04-18T04:38:16Z</time>
      </trkpt>
      <trkpt lat="44.58176" lon="7.16812">
        <ele>993</ele>
        <time>2019-04-18T04:39:16Z</time>
      </trkpt>
      <trkpt lat="44.58099" lon="7.16553">
        <ele>996</ele>
        <time>2019-04-18T04:40:16Z</time>
      </trkpt>
      <trkpt lat="44.58064" lon="7.16464">
        <ele>1003</ele>
        <time>2019-04-18T04:41:16Z</time>
      </trkpt>
      <trkpt lat="44.5804" lon="7.1642">
        <ele>1005</ele>
        <time>2019-04-18T04:42:16Z</time>
      </trkpt>
      <trkpt lat="44.58011" lon="7.16378">
        <ele>1008</ele>
        <time>2019-04-18T04:43:16Z</time>
      </trkpt>
      <trkpt lat="44.57977" lon="7.16336">
        <ele>1011</ele>
        <time>2019-04-18T04:44:16Z</time>
      </trkpt>
      <trkpt lat="44.57968" lon="7.16319">
        <ele>1011</ele>
        <time>2019-04-18T04:45:16Z</time>
      </trkpt>
      <trkpt lat="44.57957" lon="7.16285">
        <ele>1013</ele>
        <time>2019-04-18T04:46:16Z</time>
      </trkpt>
      <trkpt lat="44.57944" lon="7.16218">
        <ele>1015</ele>
        <time>2019-04-18T04:47:16Z</time>
      </trkpt>
      <trkpt lat="44.57941" lon="7.16113">
        <ele>1017</ele>
        <time>2019-04-18T04:48:16Z</time>
      </trkpt>
      <trkpt lat="44.57935" lon="7.16039">
        <ele>1017</ele>
        <time>2019-04-18T04:49:16Z</time>
      </trkpt>
      <trkpt lat="44.57912" lon="7.15931">
        <ele>1018</ele>
        <time>2019-04-18T04:50:16Z</time>
      </trkpt>
      <trkpt lat="44.57911" lon="7.15878">
        <ele>1020</ele>
        <time>2019-04-18T04:51:16Z</time>
      </trkpt>
      <trkpt lat="44.57917" lon="7.15832">
        <ele>1020</ele>
        <time>2019-04-18T04:52:16Z</time>
      </trkpt>
      <trkpt lat="44.57938" lon="7.1572">
        <ele>1022</ele>
        <time>2019-04-18T04:53:16Z</time>
      </trkpt>
      <trkpt lat="44.57979" lon="7.15528">
        <ele>1029</ele>
        <time>2019-04-18T04:54:16Z</time>
      </trkpt>
      <trkpt lat="44.58055" lon="7.15113">
        <ele>1034</ele>
        <time>2019-04-18T04:55:16Z</time>
      </trkpt>
      <trkpt lat="44.58056" lon="7.15089">
        <ele>1035</ele>
        <time>2019-04-18T04:56:16Z</time>
      </trkpt>
      <trkpt lat="44.58056" lon="7.15064">
        <ele>1036</ele>
        <time>2019-04-18T04:57:16Z</time>
      </trkpt>
      <trkpt lat="44.58048" lon="7.14958">
        <ele>1040</ele>
        <time>2019-04-18T04:58:16Z</time>
      </trkpt>
      <trkpt lat="44.58049" lon="7.14907">
        <ele>1043</ele>
        <time>2019-04-18T04:59:16Z</time>
      </trkpt>
      <trkpt lat="44.58058" lon="7.14842">
        <ele>1048</ele>
        <time>2019-04-18T05:00:16Z</time>
      </trkpt>
      <trkpt lat="44.58073" lon="7.14795">
        <ele>1046</ele>
        <time>2019-04-18T05:01:16Z</time>
      </trkpt>
      <trkpt lat="44.58161" lon="7.14635">
        <ele>1049</ele>
        <time>2019-04-18T05:02:16Z</time>
      </trkpt>
      <trkpt lat="44.5817" lon="7.14614">
        <ele>1049</ele>
        <time>2019-04-18T05:03:16Z</time>
      </trkpt>
      <trkpt lat="44.58243" lon="7.14364">
        <ele>1060</ele>
        <time>2019-04-18T05:04:16Z</time>
      </trkpt>
      <trkpt lat="44.58271" lon="7.14261">
        <ele>1069</ele>
        <time>2019-04-18T05:05:16Z</time>
      </trkpt>
      <trkpt lat="44.58275" lon="7.14231">
        <ele>1071</ele>
        <time>2019-04-18T05:06:16Z</time>
      </trkpt>
      <trkpt lat="44.58273" lon="7.14203">
        <ele>1072</ele>
        <time>2019-04-18T05:07:16Z</time>
      </trkpt>
      <trkpt lat="44.58197" lon="7.13962">
        <ele>1079</ele>
        <time>2019-04-18T05:08:16Z</time>
      </trkpt>
      <trkpt lat="44.58166" lon="7.13733">
        <ele>1094</ele>
        <time>2019-04-18T05:09:16Z</time>
      </trkpt>
      <trkpt lat="44.58161" lon="7.13711">
        <ele>1099</ele>
        <time>2019-04-18T05:10:16Z</time>
      </trkpt>
      <trkpt lat="44.58144" lon="7.13654">
        <ele>1106</ele>
        <time>2019-04-18T05:11:16Z</time>
      </trkpt>
      <trkpt lat="44.58139" lon="7.13604">
        <ele>1105</ele>
        <time>2019-04-18T05:12:16Z</time>
      </trkpt>
      <trkpt lat="44.58142" lon="7.13529">
        <ele>1105</ele>
        <time>2019-04-18T05:13:16Z</time>
      </trkpt>
      <trkpt lat="44.58146" lon="7.1348">
        <ele>1105</ele>
        <time>2019-04-18T05:14:16Z</time>
      </trkpt>
      <trkpt lat="44.58153" lon="7.13454">
        <ele>1104</ele>
        <time>2019-04-18T05:15:16Z</time>
      </trkpt>
      <trkpt lat="44.58166" lon="7.13427">
        <ele>1101</ele>
        <time>2019-04-18T05:16:16Z</time>
      </trkpt>
      <trkpt lat="44.58219" lon="7.13338">
        <ele>1110</ele>
        <time>2019-04-18T05:17:16Z</time>
      </trkpt>
      <trkpt lat="44.58225" lon="7.13324">
        <ele>1111</ele>
        <time>2019-04-18T05:18:16Z</time>
      </trkpt>
      <trkpt lat="44.58234" lon="7.13295">
        <ele>1113</ele>
        <time>2019-04-18T05:19:16Z</time>
      </trkpt>
      <trkpt lat="44.58236" lon="7.13267">
        <ele>1113</ele>
        <time>2019-04-18T05:20:16Z</time>
      </trkpt>
      <trkpt lat="44.58229" lon="7.13214">
        <ele>1115</ele>
        <time>2019-04-18T05:21:16Z</time>
      </trkpt>
      <trkpt lat="44.58224" lon="7.13152">
        <ele>1119</ele>
        <time>2019-04-18T05:22:16Z</time>
      </trkpt>
      <trkpt lat="44.58228" lon="7.13106">
        <ele>1122</ele>
        <time>2019-04-18T05:23:16Z</time>
      </trkpt>
      <trkpt lat="44.58247" lon="7.13047">
        <ele>1122</ele>
        <time>2019-04-18T05:24:16Z</time>
      </trkpt>
      <trkpt lat="44.58248" lon="7.13015">
        <ele>1122</ele>
        <time>2019-04-18T05:25:16Z</time>
      </trkpt>
      <trkpt lat="44.58245" lon="7.1298">
        <ele>1124</ele>
        <time>2019-04-18T05:26:16Z</time>
      </trkpt>
      <trkpt lat="44.58235" lon="7.12923">
        <ele>1129</ele>
        <time>2019-04-18T05:27:16Z</time>
      </trkpt>
      <trkpt lat="44.58234" lon="7.12901">
        <ele>1129</ele>
        <time>2019-04-18T05:28:16Z</time>
      </trkpt>
      <trkpt lat="44.58238" lon="7.12876">
        <ele>1127</ele>
        <time>2019-04-18T05:29:16Z</time>
      </trkpt>
      <trkpt lat="44.58262" lon="7.12811">
        <ele>1124</ele>
        <time>2019-04-18T05:30:16Z</time>
      </trkpt>
      <trkpt lat="44.58276" lon="7.12762">
        <ele>1124</ele>
        <time>2019-04-18T05:31:16Z</time>
      </trkpt>
      <trkpt lat="44.58286" lon="7.12681">
        <ele>1125</ele>
        <time>2019-04-18T05:32:16Z</time>
      </trkpt>
      <trkpt lat="44.58308" lon="7.1247">
        <ele>1128</ele>
        <time>2019-04-18T05:33:16Z</time>
      </trkpt>
      <trkpt lat="44.58319" lon="7.12418">
        <ele>1127</ele>
        <time>2019-04-18T05:34:16Z</time>
      </trkpt>
      <trkpt lat="44.58366" lon="7.12246">
        <ele>1130</ele>
        <time>2019-04-18T05:35:16Z</time>
      </trkpt>
      <trkpt lat="44.58378" lon="7.12194">
        <ele>1133</ele>
        <time>2019-04-18T05:36:16Z</time>
      </trkpt>
      <trkpt lat="44.58382" lon="7.12148">
        <ele>1133</ele>
        <time>2019-04-18T05:37:16Z</time>
      </trkpt>
      <trkpt lat="44.58383" lon="7.12097">
        <ele>1134</ele>
        <time>2019-04-18T05:38:16Z</time>
      </trkpt>
      <trkpt lat="44.58376" lon="7.12045">
        <ele>1135</ele>
        <time>2019-04-18T05:39:16Z</time>
      </trkpt>
      <trkpt lat="44.58334" lon="7.11845">
        <ele>1132</ele>
        <time>2019-04-18T05:40:16Z</time>
      </trkpt>
      <trkpt lat="44.58317" lon="7.1175">
        <ele>1134</ele>
        <time>2019-04-18T05:41:16Z</time>
      </trkpt>
      <trkpt lat="44.58311" lon="7.11685">
        <ele>1136</ele>
        <time>2019-04-18T05:42:16Z</time>
      </trkpt>
      <trkpt lat="44.58312" lon="7.11623">
        <ele>1138</ele>
        <time>2019-04-18T05:43:16Z</time>
      </trkpt>
      <trkpt lat="44.58318" lon="7.11529">
        <ele>1137</ele>
        <time>2019-04-18T05:44:16Z</time>
      </trkpt>
      <trkpt lat="44.58331" lon="7.11381">
        <ele>1135</ele>
        <time>2019-04-18T05:45:16Z</time>
      </trkpt>
      <trkpt lat="44.58375" lon="7.10871">
        <ele>1150</ele>
        <time>2019-04-18T05:46:16Z</time>
      </trkpt>
      <trkpt lat="44.58384" lon="7.10781">
        <ele>1150</ele>
        <time>2019-04-18T05:47:16Z</time>
      </trkpt>
      <trkpt lat="44.58397" lon="7.10614">
        <ele>1154</ele>
        <time>2019-04-18T05:48:16Z</time>
      </trkpt>
      <trkpt lat="44.58398" lon="7.10562">
        <ele>1155</ele>
        <time>2019-04-18T05:49:16Z</time>
      </trkpt>
      <trkpt lat="44.58396" lon="7.10523">
        <ele>1154</ele>
        <time>2019-04-18T05:50:16Z</time>
      </trkpt>
      <trkpt lat="44.58343" lon="7.0997">
        <ele>1184</ele>
        <time>2019-04-18T05:51:16Z</time>
      </trkpt>
      <trkpt lat="44.58337" lon="7.09896">
        <ele>1181</ele>
        <time>2019-04-18T05:52:16Z</time>
      </trkpt>
      <trkpt lat="44.5834" lon="7.09795">
        <ele>1179</ele>
        <time>2019-04-18T05:53:16Z</time>
      </trkpt>
      <trkpt lat="44.58372" lon="7.09286">
        <ele>1198</ele>
        <time>2019-04-18T05:54:16Z</time>
      </trkpt>
      <trkpt lat="44.5837" lon="7.0924">
        <ele>1199</ele>
        <time>2019-04-18T05:55:16Z</time>
      </trkpt>
      <trkpt lat="44.58341" lon="7.09053">
        <ele>1195</ele>
        <time>2019-04-18T05:56:16Z</time>
      </trkpt>
      <trkpt lat="44.58339" lon="7.0899">
        <ele>1196</ele>
        <time>2019-04-18T05:57:16Z</time>
      </trkpt>
      <trkpt lat="44.58342" lon="7.08953">
        <ele>1197</ele>
        <time>2019-04-18T05:58:16Z</time>
      </trkpt>
      <trkpt lat="44.58353" lon="7.0892">
        <ele>1199</ele>
        <time>2019-04-18T05:59:16Z</time>
      </trkpt>
      <trkpt lat="44.58368" lon="7.08883">
        <ele>1201</ele>
        <time>2019-04-18T06:00:16Z</time>
      </trkpt>
      <trkpt lat="44.58476" lon="7.08755">
        <ele>1219</ele>
        <time>2019-04-18T06:01:16Z</time>
      </trkpt>
      <trkpt lat="44.58485" lon="7.0875">
        <ele>1221</ele>
        <time>2019-04-18T06:02:16Z</time>
      </trkpt>
      <trkpt lat="44.58495" lon="7.08751">
        <ele>1224</ele>
        <time>2019-04-18T06:03:16Z</time>
      </trkpt>
      <trkpt lat="44.58501" lon="7.08761">
        <ele>1226</ele>
        <time>2019-04-18T06:04:16Z</time>
      </trkpt>
      <trkpt lat="44.58498" lon="7.08782">
        <ele>1225</ele>
        <time>2019-04-18T06:05:16Z</time>
      </trkpt>
      <trkpt lat="44.58476" lon="7.08826">
        <ele>1219</ele>
        <time>2019-04-18T06:06:16Z</time>
      </trkpt>
      <trkpt lat="44.58464" lon="7.08854">
        <ele>1217</ele>
        <time>2019-04-18T06:07:16Z</time>
      </trkpt>
      <trkpt lat="44.58459" lon="7.0887">
        <ele>1217</ele>
        <time>2019-04-18T06:08:16Z</time>
      </trkpt>
      <trkpt lat="44.58456" lon="7.08919">
        <ele>1218</ele>
        <time>2019-04-18T06:09:16Z</time>
      </trkpt>
      <trkpt lat="44.58457" lon="7.08951">
        <ele>1221</ele>
        <time>2019-04-18T06:10:16Z</time>
      </trkpt>
      <trkpt lat="44.5846" lon="7.08982">
        <ele>1224</ele>
        <time>2019-04-18T06:11:16Z</time>
      </trkpt>
      <trkpt lat="44.58463" lon="7.08994">
        <ele>1225</ele>
        <time>2019-04-18T06:12:16Z</time>
      </trkpt>
      <trkpt lat="44.58467" lon="7.09">
        <ele>1226</ele>
        <time>2019-04-18T06:13:16Z</time>
      </trkpt>
      <trkpt lat="44.58477" lon="7.09004">
        <ele>1229</ele>
        <time>2019-04-18T06:14:16Z</time>
      </trkpt>
      <trkpt lat="44.58484" lon="7.09001">
        <ele>1230</ele>
        <time>2019-04-18T06:15:16Z</time>
      </trkpt>
      <trkpt lat="44.58488" lon="7.08996">
        <ele>1231</ele>
        <time>2019-04-18T06:16:16Z</time>
      </trkpt>
      <trkpt lat="44.58491" lon="7.08987">
        <ele>1231</ele>
        <time>2019-04-18T06:17:16Z</time>
      </trkpt>
      <trkpt lat="44.58498" lon="7.08944">
        <ele>1229</ele>
        <time>2019-04-18T06:18:16Z</time>
      </trkpt>
      <trkpt lat="44.58504" lon="7.08919">
        <ele>1229</ele>
        <time>2019-04-18T06:19:16Z</time>
      </trkpt>
      <trkpt lat="44.5853" lon="7.0885">
        <ele>1240</ele>
        <time>2019-04-18T06:20:16Z</time>
      </trkpt>
      <trkpt lat="44.58534" lon="7.08845">
        <ele>1241</ele>
        <time>2019-04-18T06:21:16Z</time>
      </trkpt>
      <trkpt lat="44.58544" lon="7.08844">
        <ele>1246</ele>
        <time>2019-04-18T06:22:16Z</time>
      </trkpt>
      <trkpt lat="44.58552" lon="7.08851">
        <ele>1250</ele>
        <time>2019-04-18T06:23:16Z</time>
      </trkpt>
      <trkpt lat="44.58553" lon="7.08856">
        <ele>1250</ele>
        <time>2019-04-18T06:24:16Z</time>
      </trkpt>
      <trkpt lat="44.58552" lon="7.0887">
        <ele>1250</ele>
        <time>2019-04-18T06:25:16Z</time>
      </trkpt>
      <trkpt lat="44.58535" lon="7.08939">
        <ele>1244</ele>
        <time>2019-04-18T06:26:16Z</time>
      </trkpt>
      <trkpt lat="44.58533" lon="7.08953">
        <ele>1244</ele>
        <time>2019-04-18T06:27:16Z</time>
      </trkpt>
      <trkpt lat="44.58535" lon="7.08962">
        <ele>1245</ele>
        <time>2019-04-18T06:28:16Z</time>
      </trkpt>
      <trkpt lat="44.5854" lon="7.08966">
        <ele>1247</ele>
        <time>2019-04-18T06:29:16Z</time>
      </trkpt>
      <trkpt lat="44.58547" lon="7.08967">
        <ele>1250</ele>
        <time>2019-04-18T06:30:16Z</time>
      </trkpt>
      <trkpt lat="44.58553" lon="7.08963">
        <ele>1252</ele>
        <time>2019-04-18T06:31:16Z</time>
      </trkpt>
      <trkpt lat="44.58559" lon="7.08952">
        <ele>1254</ele>
        <time>2019-04-18T06:32:16Z</time>
      </trkpt>
      <trkpt lat="44.58563" lon="7.08936">
        <ele>1256</ele>
        <time>2019-04-18T06:33:16Z</time>
      </trkpt>
      <trkpt lat="44.5857" lon="7.08871">
        <ele>1258</ele>
        <time>2019-04-18T06:34:16Z</time>
      </trkpt>
      <trkpt lat="44.58571" lon="7.088">
        <ele>1264</ele>
        <time>2019-04-18T06:35:16Z</time>
      </trkpt>
      <trkpt lat="44.58533" lon="7.08565">
        <ele>1270</ele>
        <time>2019-04-18T06:36:16Z</time>
      </trkpt>
      <trkpt lat="44.58518" lon="7.08514">
        <ele>1262</ele>
        <time>2019-04-18T06:37:16Z</time>
      </trkpt>
      <trkpt lat="44.58515" lon="7.08473">
        <ele>1261</ele>
        <time>2019-04-18T06:38:16Z</time>
      </trkpt>
      <trkpt lat="44.58517" lon="7.08451">
        <ele>1261</ele>
        <time>2019-04-18T06:39:16Z</time>
      </trkpt>
      <trkpt lat="44.58539" lon="7.08372">
        <ele>1271</ele>
        <time>2019-04-18T06:40:16Z</time>
      </trkpt>
      <trkpt lat="44.58547" lon="7.0834">
        <ele>1275</ele>
        <time>2019-04-18T06:41:16Z</time>
      </trkpt>
      <trkpt lat="44.58551" lon="7.08313">
        <ele>1278</ele>
        <time>2019-04-18T06:42:16Z</time>
      </trkpt>
      <trkpt lat="44.58554" lon="7.0828">
        <ele>1281</ele>
        <time>2019-04-18T06:43:16Z</time>
      </trkpt>
      <trkpt lat="44.58552" lon="7.08247">
        <ele>1282</ele>
        <time>2019-04-18T06:44:16Z</time>
      </trkpt>
      <trkpt lat="44.58541" lon="7.08199">
        <ele>1279</ele>
        <time>2019-04-18T06:45:16Z</time>
      </trkpt>
      <trkpt lat="44.5854" lon="7.08187">
        <ele>1279</ele>
        <time>2019-04-18T06:46:16Z</time>
      </trkpt>
      <trkpt lat="44.58543" lon="7.08168">
        <ele>1282</ele>
        <time>2019-04-18T06:47:16Z</time>
      </trkpt>
      <trkpt lat="44.5856" lon="7.0811">
        <ele>1293</ele>
        <time>2019-04-18T06:48:16Z</time>
      </trkpt>
      <trkpt lat="44.58562" lon="7.08079">
        <ele>1295</ele>
        <time>2019-04-18T06:49:16Z</time>
      </trkpt>
      <trkpt lat="44.58559" lon="7.08056">
        <ele>1296</ele>
        <time>2019-04-18T06:50:16Z</time>
      </trkpt>
      <trkpt lat="44.58537" lon="7.07976">
        <ele>1294</ele>
        <time>2019-04-18T06:51:16Z</time>
      </trkpt>
      <trkpt lat="44.58509" lon="7.07898">
        <ele>1288</ele>
        <time>2019-04-18T06:52:16Z</time>
      </trkpt>
      <trkpt lat="44.58501" lon="7.07865">
        <ele>1285</ele>
        <time>2019-04-18T06:53:16Z</time>
      </trkpt>
      <trkpt lat="44.58504" lon="7.07844">
        <ele>1285</ele>
        <time>2019-04-18T06:54:16Z</time>
      </trkpt>
      <trkpt lat="44.58528" lon="7.07777">
        <ele>1287</ele>
        <time>2019-04-18T06:55:16Z</time>
      </trkpt>
      <trkpt lat="44.58541" lon="7.07755">
        <ele>1288</ele>
        <time>2019-04-18T06:56:16Z</time>
      </trkpt>
      <trkpt lat="44.58565" lon="7.07734">
        <ele>1291</ele>
        <time>2019-04-18T06:57:16Z</time>
      </trkpt>
      <trkpt lat="44.58706" lon="7.07646">
        <ele>1296</ele>
        <time>2019-04-18T06:58:16Z</time>
      </trkpt>
      <trkpt lat="44.58725" lon="7.07627">
        <ele>1296</ele>
        <time>2019-04-18T06:59:16Z</time>
      </trkpt>
      <trkpt lat="44.58743" lon="7.07603">
        <ele>1295</ele>
        <time>2019-04-18T07:00:16Z</time>
      </trkpt>
      <trkpt lat="44.58761" lon="7.07568">
        <ele>1296</ele>
        <time>2019-04-18T07:01:16Z</time>
      </trkpt>
      <trkpt lat="44.58848" lon="7.07379">
        <ele>1294</ele>
        <time>2019-04-18T07:02:16Z</time>
      </trkpt>
      <trkpt lat="44.5886" lon="7.07342">
        <ele>1293</ele>
        <time>2019-04-18T07:03:16Z</time>
      </trkpt>
      <trkpt lat="44.58876" lon="7.07276">
        <ele>1297</ele>
        <time>2019-04-18T07:04:16Z</time>
      </trkpt>
      <trkpt lat="44.58879" lon="7.07258">
        <ele>1298</ele>
        <time>2019-04-18T07:05:16Z</time>
      </trkpt>
      <trkpt lat="44.58879" lon="7.07243">
        <ele>1298</ele>
        <time>2019-04-18T07:06:16Z</time>
      </trkpt>
      <trkpt lat="44.58875" lon="7.07212">
        <ele>1296</ele>
        <time>2019-04-18T07:07:16Z</time>
      </trkpt>
      <trkpt lat="44.58872" lon="7.07156">
        <ele>1293</ele>
        <time>2019-04-18T07:08:16Z</time>
      </trkpt>
      <trkpt lat="44.58876" lon="7.07127">
        <ele>1293</ele>
        <time>2019-04-18T07:09:16Z</time>
      </trkpt>
      <trkpt lat="44.58882" lon="7.07106">
        <ele>1293</ele>
        <time>2019-04-18T07:10:16Z</time>
      </trkpt>
      <trkpt lat="44.58912" lon="7.07012">
        <ele>1293</ele>
        <time>2019-04-18T07:11:16Z</time>
      </trkpt>
      <trkpt lat="44.58927" lon="7.06973">
        <ele>1293</ele>
        <time>2019-04-18T07:12:16Z</time>
      </trkpt>
      <trkpt lat="44.58935" lon="7.06958">
        <ele>1293</ele>
        <time>2019-04-18T07:13:16Z</time>
      </trkpt>
      <trkpt lat="44.58963" lon="7.06918">
        <ele>1294</ele>
        <time>2019-04-18T07:14:16Z</time>
      </trkpt>
      <trkpt lat="44.58972" lon="7.06909">
        <ele>1295</ele>
        <time>2019-04-18T07:15:16Z</time>
      </trkpt>
      <trkpt lat="44.58997" lon="7.06892">
        <ele>1298</ele>
        <time>2019-04-18T07:16:16Z</time>
      </trkpt>
      <trkpt lat="44.59068" lon="7.06853">
        <ele>1303</ele>
        <time>2019-04-18T07:17:16Z</time>
      </trkpt>
      <trkpt lat="44.5908" lon="7.06842">
        <ele>1302</ele>
        <time>2019-04-18T07:18:16Z</time>
      </trkpt>
      <trkpt lat="44.59106" lon="7.06806">
        <ele>1303</ele>
        <time>2019-04-18T07:19:16Z</time>
      </trkpt>
      <trkpt lat="44.59121" lon="7.06788">
        <ele>1303</ele>
        <time>2019-04-18T07:20:16Z</time>
      </trkpt>
      <trkpt lat="44.59133" lon="7.06778">
        <ele>1304</ele>
        <time>2019-04-18T07:21:16Z</time>
      </trkpt>
      <trkpt lat="44.59144" lon="7.06773">
        <ele>1304</ele>
        <time>2019-04-18T07:22:16Z</time>
      </trkpt>
      <trkpt lat="44.59156" lon="7.06772">
        <ele>1305</ele>
        <time>2019-04-18T07:23:16Z</time>
      </trkpt>
      <trkpt lat="44.59212" lon="7.06775">
        <ele>1314</ele>
        <time>2019-04-18T07:24:16Z</time>
      </trkpt>
      <trkpt lat="44.59226" lon="7.06774">
        <ele>1316</ele>
        <time>2019-04-18T07:25:16Z</time>
      </trkpt>
      <trkpt lat="44.5925" lon="7.06759">
        <ele>1316</ele>
        <time>2019-04-18T07:26:16Z</time>
      </trkpt>
      <trkpt lat="44.59274" lon="7.06742">
        <ele>1319</ele>
        <time>2019-04-18T07:27:16Z</time>
      </trkpt>
      <trkpt lat="44.59365" lon="7.06661">
        <ele>1329</ele>
        <time>2019-04-18T07:28:16Z</time>
      </trkpt>
      <trkpt lat="44.59375" lon="7.06659">
        <ele>1332</ele>
        <time>2019-04-18T07:29:16Z</time>
      </trkpt>
      <trkpt lat="44.59381" lon="7.06662">
        <ele>1332</ele>
        <time>2019-04-18T07:30:16Z</time>
      </trkpt>
      <trkpt lat="44.59387" lon="7.06671">
        <ele>1332</ele>
        <time>2019-04-18T07:31:16Z</time>
      </trkpt>
      <trkpt lat="44.5939" lon="7.0668">
        <ele>1334</ele>
        <time>2019-04-18T07:32:16Z</time>
      </trkpt>
      <trkpt lat="44.59387" lon="7.06693">
        <ele>1336</ele>
        <time>2019-04-18T07:33:16Z</time>
      </trkpt>
      <trkpt lat="44.59383" lon="7.06702">
        <ele>1337</ele>
        <time>2019-04-18T07:34:16Z</time>
      </trkpt>
      <trkpt lat="44.59255" lon="7.06787">
        <ele>1325</ele>
        <time>2019-04-18T07:35:16Z</time>
      </trkpt>
      <trkpt lat="44.59211" lon="7.06835">
        <ele>1327</ele>
        <time>2019-04-18T07:36:16Z</time>
      </trkpt>
      <trkpt lat="44.59201" lon="7.06852">
        <ele>1329</ele>
        <time>2019-04-18T07:37:16Z</time>
      </trkpt>
      <trkpt lat="44.59173" lon="7.06894">
        <ele>1333</ele>
        <time>2019-04-18T07:38:16Z</time>
      </trkpt>
      <trkpt lat="44.59137" lon="7.06947">
        <ele>1337</ele>
        <time>2019-04-18T07:39:16Z</time>
      </trkpt>
      <trkpt lat="44.5911" lon="7.06982">
        <ele>1340</ele>
        <time>2019-04-18T07:40:16Z</time>
      </trkpt>
      <trkpt lat="44.5906" lon="7.07031">
        <ele>1337</ele>
        <time>2019-04-18T07:41:16Z</time>
      </trkpt>
      <trkpt lat="44.59053" lon="7.07047">
        <ele>1337</ele>
        <time>2019-04-18T07:42:16Z</time>
      </trkpt>
      <trkpt lat="44.59049" lon="7.07063">
        <ele>1339</ele>
        <time>2019-04-18T07:43:16Z</time>
      </trkpt>
      <trkpt lat="44.59054" lon="7.07141">
        <ele>1349</ele>
        <time>2019-04-18T07:44:16Z</time>
      </trkpt>
      <trkpt lat="44.59051" lon="7.07174">
        <ele>1351</ele>
        <time>2019-04-18T07:45:16Z</time>
      </trkpt>
      <trkpt lat="44.59042" lon="7.07205">
        <ele>1354</ele>
        <time>2019-04-18T07:46:16Z</time>
      </trkpt>
      <trkpt lat="44.59015" lon="7.07268">
        <ele>1351</ele>
        <time>2019-04-18T07:47:16Z</time>
      </trkpt>
      <trkpt lat="44.59006" lon="7.07303">
        <ele>1350</ele>
        <time>2019-04-18T07:48:16Z</time>
      </trkpt>
      <trkpt lat="44.59007" lon="7.07309">
        <ele>1351</ele>
        <time>2019-04-18T07:49:16Z</time>
      </trkpt>
      <trkpt lat="44.5901" lon="7.07313">
        <ele>1353</ele>
        <time>2019-04-18T07:50:16Z</time>
      </trkpt>
      <trkpt lat="44.59018" lon="7.07315">
        <ele>1358</ele>
        <time>2019-04-18T07:51:16Z</time>
      </trkpt>
      <trkpt lat="44.59021" lon="7.07311">
        <ele>1359</ele>
        <time>2019-04-18T07:52:16Z</time>
      </trkpt>
      <trkpt lat="44.59022" lon="7.07304">
        <ele>1359</ele>
        <time>2019-04-18T07:53:16Z</time>
      </trkpt>
      <trkpt lat="44.59022" lon="7.07277">
        <ele>1356</ele>
        <time>2019-04-18T07:54:16Z</time>
      </trkpt>
      <trkpt lat="44.59026" lon="7.07263">
        <ele>1356</ele>
        <time>2019-04-18T07:55:16Z</time>
      </trkpt>
      <trkpt lat="44.59079" lon="7.07177">
        <ele>1364</ele>
        <time>2019-04-18T07:56:16Z</time>
      </trkpt>
      <trkpt lat="44.59091" lon="7.07161">
        <ele>1366</ele>
        <time>2019-04-18T07:57:16Z</time>
      </trkpt>
      <trkpt lat="44.59122" lon="7.07137">
        <ele>1373</ele>
        <time>2019-04-18T07:58:16Z</time>
      </trkpt>
      <trkpt lat="44.59292" lon="7.07041">
        <ele>1395</ele>
        <time>2019-04-18T07:59:16Z</time>
      </trkpt>
      <trkpt lat="44.59318" lon="7.07023">
        <ele>1396</ele>
        <time>2019-04-18T08:00:16Z</time>
      </trkpt>
      <trkpt lat="44.59337" lon="7.07007">
        <ele>1397</ele>
        <time>2019-04-18T08:01:16Z</time>
      </trkpt>
      <trkpt lat="44.59395" lon="7.06938">
        <ele>1401</ele>
        <time>2019-04-18T08:02:16Z</time>
      </trkpt>
      <trkpt lat="44.59419" lon="7.06906">
        <ele>1401</ele>
        <time>2019-04-18T08:03:16Z</time>
      </trkpt>
      <trkpt lat="44.59432" lon="7.06895">
        <ele>1401</ele>
        <time>2019-04-18T08:04:16Z</time>
      </trkpt>
      <trkpt lat="44.59463" lon="7.06885">
        <ele>1406</ele>
        <time>2019-04-18T08:05:16Z</time>
      </trkpt>
      <trkpt lat="44.59518" lon="7.06877">
        <ele>1415</ele>
        <time>2019-04-18T08:06:16Z</time>
      </trkpt>
      <trkpt lat="44.5961" lon="7.0687">
        <ele>1424</ele>
        <time>2019-04-18T08:07:16Z</time>
      </trkpt>
      <trkpt lat="44.5962" lon="7.06872">
        <ele>1424</ele>
        <time>2019-04-18T08:08:16Z</time>
      </trkpt>
      <trkpt lat="44.59689" lon="7.06908">
        <ele>1440</ele>
        <time>2019-04-18T08:09:16Z</time>
      </trkpt>
      <trkpt lat="44.59701" lon="7.0691">
        <ele>1442</ele>
        <time>2019-04-18T08:10:16Z</time>
      </trkpt>
      <trkpt lat="44.59716" lon="7.06906">
        <ele>1443</ele>
        <time>2019-04-18T08:11:16Z</time>
      </trkpt>
      <trkpt lat="44.59728" lon="7.06897">
        <ele>1442</ele>
        <time>2019-04-18T08:12:16Z</time>
      </trkpt>
      <trkpt lat="44.59743" lon="7.06873">
        <ele>1439</ele>
        <time>2019-04-18T08:13:16Z</time>
      </trkpt>
      <trkpt lat="44.59761" lon="7.06852">
        <ele>1440</ele>
        <time>2019-04-18T08:14:16Z</time>
      </trkpt>
      <trkpt lat="44.59793" lon="7.06836">
        <ele>1448</ele>
        <time>2019-04-18T08:15:16Z</time>
      </trkpt>
      <trkpt lat="44.59831" lon="7.068">
        <ele>1447</ele>
        <time>2019-04-18T08:16:16Z</time>
      </trkpt>
      <trkpt lat="44.59841" lon="7.06793">
        <ele>1446</ele>
        <time>2019-04-18T08:17:16Z</time>
      </trkpt>
      <trkpt lat="44.59851" lon="7.06791">
        <ele>1448</ele>
        <time>2019-04-18T08:18:16Z</time>
      </trkpt>
      <trkpt lat="44.59875" lon="7.06793">
        <ele>1455</ele>
        <time>2019-04-18T08:19:16Z</time>
      </trkpt>
      <trkpt lat="44.59889" lon="7.0679">
        <ele>1457</ele>
        <time>2019-04-18T08:20:16Z</time>
      </trkpt>
      <trkpt lat="44.59903" lon="7.06779">
        <ele>1456</ele>
        <time>2019-04-18T08:21:16Z</time>
      </trkpt>
      <trkpt lat="44.59919" lon="7.06771">
        <ele>1457</ele>
        <time>2019-04-18T08:22:16Z</time>
      </trkpt>
      <trkpt lat="44.5994" lon="7.06767">
        <ele>1463</ele>
        <time>2019-04-18T08:23:16Z</time>
      </trkpt>
      <trkpt lat="44.59954" lon="7.06761">
        <ele>1466</ele>
        <time>2019-04-18T08:24:16Z</time>
      </trkpt>
      <trkpt lat="44.59969" lon="7.0675">
        <ele>1467</ele>
        <time>2019-04-18T08:25:16Z</time>
      </trkpt>
      <trkpt lat="44.59998" lon="7.06694">
        <ele>1459</ele>
        <time>2019-04-18T08:26:16Z</time>
      </trkpt>
      <trkpt lat="44.60031" lon="7.06669">
        <ele>1467</ele>
        <time>2019-04-18T08:27:16Z</time>
      </trkpt>
      <trkpt lat="44.60054" lon="7.06631">
        <ele>1468</ele>
        <time>2019-04-18T08:28:16Z</time>
      </trkpt>
      <trkpt lat="44.60116" lon="7.06565">
        <ele>1477</ele>
        <time>2019-04-18T08:29:16Z</time>
      </trkpt>
      <trkpt lat="44.60193" lon="7.06502">
        <ele>1484</ele>
        <time>2019-04-18T08:30:16Z</time>
      </trkpt>
      <trkpt lat="44.60216" lon="7.06487">
        <ele>1489</ele>
        <time>2019-04-18T08:31:16Z</time>
      </trkpt>
      <trkpt lat="44.6024" lon="7.06466">
        <ele>1490</ele>
        <time>2019-04-18T08:32:16Z</time>
      </trkpt>
      <trkpt lat="44.60268" lon="7.06436">
        <ele>1489</ele>
        <time>2019-04-18T08:33:16Z</time>
      </trkpt>
      <trkpt lat="44.60286" lon="7.06414">
        <ele>1489</ele>
        <time>2019-04-18T08:34:16Z</time>
      </trkpt>
      <trkpt lat="44.603" lon="7.06401">
        <ele>1491</ele>
        <time>2019-04-18T08:35:16Z</time>
      </trkpt>
      <trkpt lat="44.60342" lon="7.06375">
        <ele>1498</ele>
        <time>2019-04-18T08:36:16Z</time>
      </trkpt>
      <trkpt lat="44.60385" lon="7.06327">
        <ele>1497</ele>
        <time>2019-04-18T08:37:16Z</time>
      </trkpt>
      <trkpt lat="44.60407" lon="7.06308">
        <ele>1499</ele>
        <time>2019-04-18T08:38:16Z</time>
      </trkpt>
      <trkpt lat="44.6042" lon="7.06302">
        <ele>1501</ele>
        <time>2019-04-18T08:39:16Z</time>
      </trkpt>
      <trkpt lat="44.60453" lon="7.06291">
        <ele>1510</ele>
        <time>2019-04-18T08:40:16Z</time>
      </trkpt>
      <trkpt lat="44.60492" lon="7.06266">
        <ele>1517</ele>
        <time>2019-04-18T08:41:16Z</time>
      </trkpt>
      <trkpt lat="44.60526" lon="7.06251">
        <ele>1520</ele>
        <time>2019-04-18T08:42:16Z</time>
      </trkpt>
      <trkpt lat="44.60583" lon="7.06203">
        <ele>1519</ele>
        <time>2019-04-18T08:43:16Z</time>
      </trkpt>
      <trkpt lat="44.60656" lon="7.06138">
        <ele>1522</ele>
        <time>2019-04-18T08:44:16Z</time>
      </trkpt>
      <trkpt lat="44.60701" lon="7.06086">
        <ele>1522</ele>
        <time>2019-04-18T08:45:16Z</time>
      </trkpt>
      <trkpt lat="44.60717" lon="7.06077">
        <ele>1524</ele>
        <time>2019-04-18T08:46:16Z</time>
      </trkpt>
      <trkpt lat="44.60739" lon="7.0608">
        <ele>1530</ele>
        <time>2019-04-18T08:47:16Z</time>
      </trkpt>
      <trkpt lat="44.60761" lon="7.06079">
        <ele>1535</ele>
        <time>2019-04-18T08:48:16Z</time>
      </trkpt>
      <trkpt lat="44.60779" lon="7.06063">
        <ele>1536</ele>
        <time>2019-04-18T08:49:16Z</time>
      </trkpt>
      <trkpt lat="44.60807" lon="7.06028">
        <ele>1534</ele>
        <time>2019-04-18T08:50:16Z</time>
      </trkpt>
      <trkpt lat="44.60825" lon="7.06011">
        <ele>1533</ele>
        <time>2019-04-18T08:51:16Z</time>
      </trkpt>
      <trkpt lat="44.60845" lon="7.06">
        <ele>1536</ele>
        <time>2019-04-18T08:52:16Z</time>
      </trkpt>
      <trkpt lat="44.60877" lon="7.05994">
        <ele>1549</ele>
        <time>2019-04-18T08:53:16Z</time>
      </trkpt>
      <trkpt lat="44.609" lon="7.05985">
        <ele>1557</ele>
        <time>2019-04-18T08:54:16Z</time>
      </trkpt>
      <trkpt lat="44.60911" lon="7.05973">
        <ele>1559</ele>
        <time>2019-04-18T08:55:16Z</time>
      </trkpt>
      <trkpt lat="44.60922" lon="7.05949">
        <ele>1558</ele>
        <time>2019-04-18T08:56:16Z</time>
      </trkpt>
      <trkpt lat="44.60967" lon="7.05812">
        <ele>1556</ele>
        <time>2019-04-18T08:57:16Z</time>
      </trkpt>
      <trkpt lat="44.60984" lon="7.0577">
        <ele>1555</ele>
        <time>2019-04-18T08:58:16Z</time>
      </trkpt>
      <trkpt lat="44.61045" lon="7.05716">
        <ele>1569</ele>
        <time>2019-04-18T08:59:16Z</time>
      </trkpt>
      <trkpt lat="44.61057" lon="7.05698">
        <ele>1571</ele>
        <time>2019-04-18T09:00:16Z</time>
      </trkpt>
      <trkpt lat="44.61064" lon="7.05679">
        <ele>1570</ele>
        <time>2019-04-18T09:01:16Z</time>
      </trkpt>
      <trkpt lat="44.61067" lon="7.05654">
        <ele>1569</ele>
        <time>2019-04-18T09:02:16Z</time>
      </trkpt>
      <trkpt lat="44.61067" lon="7.05614">
        <ele>1566</ele>
        <time>2019-04-18T09:03:16Z</time>
      </trkpt>
      <trkpt lat="44.61061" lon="7.05555">
        <ele>1558</ele>
        <time>2019-04-18T09:04:16Z</time>
      </trkpt>
      <trkpt lat="44.6106" lon="7.05533">
        <ele>1555</ele>
        <time>2019-04-18T09:05:16Z</time>
      </trkpt>
      <trkpt lat="44.61063" lon="7.05517">
        <ele>1555</ele>
        <time>2019-04-18T09:06:16Z</time>
      </trkpt>
      <trkpt lat="44.61096" lon="7.05466">
        <ele>1561</ele>
        <time>2019-04-18T09:07:16Z</time>
      </trkpt>
      <trkpt lat="44.61129" lon="7.05432">
        <ele>1567</ele>
        <time>2019-04-18T09:08:16Z</time>
      </trkpt>
      <trkpt lat="44.61158" lon="7.05411">
        <ele>1574</ele>
        <time>2019-04-18T09:09:16Z</time>
      </trkpt>
      <trkpt lat="44.61188" lon="7.05394">
        <ele>1580</ele>
        <time>2019-04-18T09:10:16Z</time>
      </trkpt>
      <trkpt lat="44.61235" lon="7.05352">
        <ele>1582</ele>
        <time>2019-04-18T09:11:16Z</time>
      </trkpt>
      <trkpt lat="44.61322" lon="7.05294">
        <ele>1584</ele>
        <time>2019-04-18T09:12:16Z</time>
      </trkpt>
      <trkpt lat="44.61336" lon="7.05289">
        <ele>1585</ele>
        <time>2019-04-18T09:13:16Z</time>
      </trkpt>
      <trkpt lat="44.61369" lon="7.05281">
        <ele>1586</ele>
        <time>2019-04-18T09:14:16Z</time>
      </trkpt>
      <trkpt lat="44.61389" lon="7.0528">
        <ele>1587</ele>
        <time>2019-04-18T09:15:16Z</time>
      </trkpt>
      <trkpt lat="44.61446" lon="7.05264">
        <ele>1587</ele>
        <time>2019-04-18T09:16:16Z</time>
      </trkpt>
      <trkpt lat="44.61467" lon="7.05263">
        <ele>1588</ele>
        <time>2019-04-18T09:17:16Z</time>
      </trkpt>
      <trkpt lat="44.61494" lon="7.05273">
        <ele>1594</ele>
        <time>2019-04-18T09:18:16Z</time>
      </trkpt>
      <trkpt lat="44.61508" lon="7.05271">
        <ele>1595</ele>
        <time>2019-04-18T09:19:16Z</time>
      </trkpt>
      <trkpt lat="44.61513" lon="7.05267">
        <ele>1595</ele>
        <time>2019-04-18T09:20:16Z</time>
      </trkpt>
      <trkpt lat="44.61526" lon="7.0525">
        <ele>1593</ele>
        <time>2019-04-18T09:21:16Z</time>
      </trkpt>
      <trkpt lat="44.61534" lon="7.0523">
        <ele>1596</ele>
        <time>2019-04-18T09:22:16Z</time>
      </trkpt>
      <trkpt lat="44.61534" lon="7.05221">
        <ele>1597</ele>
        <time>2019-04-18T09:23:16Z</time>
      </trkpt>
      <trkpt lat="44.61533" lon="7.05206">
        <ele>1597</ele>
        <time>2019-04-18T09:24:16Z</time>
      </trkpt>
      <trkpt lat="44.61509" lon="7.051">
        <ele>1591</ele>
        <time>2019-04-18T09:25:16Z</time>
      </trkpt>
      <trkpt lat="44.615" lon="7.05077">
        <ele>1589</ele>
        <time>2019-04-18T09:26:16Z</time>
      </trkpt>
      <trkpt lat="44.61482" lon="7.05046">
        <ele>1590</ele>
        <time>2019-04-18T09:27:16Z</time>
      </trkpt>
      <trkpt lat="44.61475" lon="7.05029">
        <ele>1592</ele>
        <time>2019-04-18T09:28:16Z</time>
      </trkpt>
      <trkpt lat="44.61473" lon="7.05019">
        <ele>1593</ele>
        <time>2019-04-18T09:29:16Z</time>
      </trkpt>
      <trkpt lat="44.61471" lon="7.04976">
        <ele>1594</ele>
        <time>2019-04-18T09:30:16Z</time>
      </trkpt>
      <trkpt lat="44.61459" lon="7.04918">
        <ele>1590</ele>
        <time>2019-04-18T09:31:16Z</time>
      </trkpt>
      <trkpt lat="44.61456" lon="7.04895">
        <ele>1586</ele>
        <time>2019-04-18T09:32:16Z</time>
      </trkpt>
      <trkpt lat="44.6146" lon="7.04879">
        <ele>1585</ele>
        <time>2019-04-18T09:33:16Z</time>
      </trkpt>
      <trkpt lat="44.61474" lon="7.0486">
        <ele>1583</ele>
        <time>2019-04-18T09:34:16Z</time>
      </trkpt>
      <trkpt lat="44.615" lon="7.0485">
        <ele>1585</ele>
        <time>2019-04-18T09:35:16Z</time>
      </trkpt>
      <trkpt lat="44.6152" lon="7.04839">
        <ele>1591</ele>
        <time>2019-04-18T09:36:16Z</time>
      </trkpt>
      <trkpt lat="44.6153" lon="7.04827">
        <ele>1594</ele>
        <time>2019-04-18T09:37:16Z</time>
      </trkpt>
      <trkpt lat="44.6154" lon="7.04805">
        <ele>1596</ele>
        <time>2019-04-18T09:38:16Z</time>
      </trkpt>
      <trkpt lat="44.61549" lon="7.04777">
        <ele>1598</ele>
        <time>2019-04-18T09:39:16Z</time>
      </trkpt>
      <trkpt lat="44.61564" lon="7.04713">
        <ele>1599</ele>
        <time>2019-04-18T09:40:16Z</time>
      </trkpt>
      <trkpt lat="44.61578" lon="7.04634">
        <ele>1597</ele>
        <time>2019-04-18T09:41:16Z</time>
      </trkpt>
      <trkpt lat="44.61601" lon="7.04572">
        <ele>1603</ele>
        <time>2019-04-18T09:42:16Z</time>
      </trkpt>
      <trkpt lat="44.61694" lon="7.0424">
        <ele>1599</ele>
        <time>2019-04-18T09:43:16Z</time>
      </trkpt>
      <trkpt lat="44.61741" lon="7.04079">
        <ele>1595</ele>
        <time>2019-04-18T09:44:16Z</time>
      </trkpt>
      <trkpt lat="44.61763" lon="7.0399">
        <ele>1598</ele>
        <time>2019-04-18T09:45:16Z</time>
      </trkpt>
      <trkpt lat="44.6178" lon="7.03899">
        <ele>1597</ele>
        <time>2019-04-18T09:46:16Z</time>
      </trkpt>
      <trkpt lat="44.61791" lon="7.03857">
        <ele>1596</ele>
        <time>2019-04-18T09:47:16Z</time>
      </trkpt>
      <trkpt lat="44.61808" lon="7.03824">
        <ele>1598</ele>
        <time>2019-04-18T09:48:16Z</time>
      </trkpt>
      <trkpt lat="44.61868" lon="7.03721">
        <ele>1597</ele>
        <time>2019-04-18T09:49:16Z</time>
      </trkpt>
      <trkpt lat="44.61951" lon="7.03623">
        <ele>1605</ele>
        <time>2019-04-18T09:50:16Z</time>
      </trkpt>
      <trkpt lat="44.61981" lon="7.03557">
        <ele>1604</ele>
        <time>2019-04-18T09:51:16Z</time>
      </trkpt>
      <trkpt lat="44.62021" lon="7.03455">
        <ele>1601</ele>
        <time>2019-04-18T09:52:16Z</time>
      </trkpt>
      <trkpt lat="44.6203" lon="7.03424">
        <ele>1600</ele>
        <time>2019-04-18T09:53:16Z</time>
      </trkpt>
      <trkpt lat="44.62036" lon="7.03395">
        <ele>1599</ele>
        <time>2019-04-18T09:54:16Z</time>
      </trkpt>
      <trkpt lat="44.62048" lon="7.03321">
        <ele>1598</ele>
        <time>2019-04-18T09:55:16Z</time>
      </trkpt>
      <trkpt lat="44.62056" lon="7.03292">
        <ele>1599</ele>
        <time>2019-04-18T09:56:16Z</time>
      </trkpt>
      <trkpt lat="44.62077" lon="7.03236">
        <ele>1600</ele>
        <time>2019-04-18T09:57:16Z</time>
      </trkpt>
      <trkpt lat="44.62124" lon="7.03172">
        <ele>1604</ele>
        <time>2019-04-18T09:58:16Z</time>
      </trkpt>
      <trkpt lat="44.62142" lon="7.03158">
        <ele>1605</ele>
        <time>2019-04-18T09:59:16Z</time>
      </trkpt>
      <trkpt lat="44.62165" lon="7.03144">
        <ele>1607</ele>
        <time>2019-04-18T10:00:16Z</time>
      </trkpt>
      <trkpt lat="44.62197" lon="7.03141">
        <ele>1610</ele>
        <time>2019-04-18T10:01:16Z</time>
      </trkpt>
      <trkpt lat="44.62212" lon="7.03134">
        <ele>1611</ele>
        <time>2019-04-18T10:02:16Z</time>
      </trkpt>
      <trkpt lat="44.62229" lon="7.03127">
        <ele>1613</ele>
        <time>2019-04-18T10:03:16Z</time>
      </trkpt>
      <trkpt lat="44.62252" lon="7.0311">
        <ele>1614</ele>
        <time>2019-04-18T10:04:16Z</time>
      </trkpt>
      <trkpt lat="44.62299" lon="7.03059">
        <ele>1622</ele>
        <time>2019-04-18T10:05:16Z</time>
      </trkpt>
      <trkpt lat="44.62317" lon="7.03028">
        <ele>1624</ele>
        <time>2019-04-18T10:06:16Z</time>
      </trkpt>
      <trkpt lat="44.62355" lon="7.02942">
        <ele>1630</ele>
        <time>2019-04-18T10:07:16Z</time>
      </trkpt>
      <trkpt lat="44.6243" lon="7.02751">
        <ele>1643</ele>
        <time>2019-04-18T10:08:16Z</time>
      </trkpt>
      <trkpt lat="44.62439" lon="7.02721">
        <ele>1646</ele>
        <time>2019-04-18T10:09:16Z</time>
      </trkpt>
      <trkpt lat="44.62448" lon="7.02683">
        <ele>1647</ele>
        <time>2019-04-18T10:10:16Z</time>
      </trkpt>
      <trkpt lat="44.62456" lon="7.02621">
        <ele>1647</ele>
        <time>2019-04-18T10:11:16Z</time>
      </trkpt>
      <trkpt lat="44.62459" lon="7.02574">
        <ele>1646</ele>
        <time>2019-04-18T10:12:16Z</time>
      </trkpt>
      <trkpt lat="44.62457" lon="7.02546">
        <ele>1647</ele>
        <time>2019-04-18T10:13:16Z</time>
      </trkpt>
      <trkpt lat="44.62443" lon="7.02418">
        <ele>1652</ele>
        <time>2019-04-18T10:14:16Z</time>
      </trkpt>
      <trkpt lat="44.62433" lon="7.02344">
        <ele>1655</ele>
        <time>2019-04-18T10:15:16Z</time>
      </trkpt>
      <trkpt lat="44.62438" lon="7.02328">
        <ele>1655</ele>
        <time>2019-04-18T10:16:16Z</time>
      </trkpt>
      <trkpt lat="44.62443" lon="7.0232">
        <ele>1655</ele>
        <time>2019-04-18T10:17:16Z</time>
      </trkpt>
      <trkpt lat="44.6245" lon="7.02314">
        <ele>1655</ele>
        <time>2019-04-18T10:18:16Z</time>
      </trkpt>
      <trkpt lat="44.62472" lon="7.02302">
        <ele>1657</ele>
        <time>2019-04-18T10:19:16Z</time>
      </trkpt>
      <trkpt lat="44.6254" lon="7.02328">
        <ele>1666</ele>
        <time>2019-04-18T10:20:16Z</time>
      </trkpt>
      <trkpt lat="44.62556" lon="7.02327">
        <ele>1668</ele>
        <time>2019-04-18T10:21:16Z</time>
      </trkpt>
      <trkpt lat="44.62567" lon="7.02322">
        <ele>1669</ele>
        <time>2019-04-18T10:22:16Z</time>
      </trkpt>
      <trkpt lat="44.6261" lon="7.02294">
        <ele>1674</ele>
        <time>2019-04-18T10:23:16Z</time>
      </trkpt>
      <trkpt lat="44.6268" lon="7.02244">
        <ele>1683</ele>
        <time>2019-04-18T10:24:16Z</time>
      </trkpt>
      <trkpt lat="44.62786" lon="7.02179">
        <ele>1704</ele>
        <time>2019-04-18T10:25:16Z</time>
      </trkpt>
      <trkpt lat="44.62818" lon="7.02151">
        <ele>1709</ele>
        <time>2019-04-18T10:26:16Z</time>
      </trkpt>
      <trkpt lat="44.6285" lon="7.02114">
        <ele>1708</ele>
        <time>2019-04-18T10:27:16Z</time>
      </trkpt>
      <trkpt lat="44.62882" lon="7.02059">
        <ele>1707</ele>
        <time>2019-04-18T10:28:16Z</time>
      </trkpt>
      <trkpt lat="44.62937" lon="7.01988">
        <ele>1710</ele>
        <time>2019-04-18T10:29:16Z</time>
      </trkpt>
      <trkpt lat="44.6298" lon="7.01944">
        <ele>1713</ele>
        <time>2019-04-18T10:30:16Z</time>
      </trkpt>
      <trkpt lat="44.63093" lon="7.01837">
        <ele>1710</ele>
        <time>2019-04-18T10:31:16Z</time>
      </trkpt>
      <trkpt lat="44.63138" lon="7.01783">
        <ele>1711</ele>
        <time>2019-04-18T10:32:16Z</time>
      </trkpt>
      <trkpt lat="44.63188" lon="7.01729">
        <ele>1710</ele>
        <time>2019-04-18T10:33:16Z</time>
      </trkpt>
      <trkpt lat="44.6322" lon="7.01712">
        <ele>1713</ele>
        <time>2019-04-18T10:34:16Z</time>
      </trkpt>
      <trkpt lat="44.63324" lon="7.0167">
        <ele>1725</ele>
        <time>2019-04-18T10:35:16Z</time>
      </trkpt>
      <trkpt lat="44.63379" lon="7.01627">
        <ele>1731</ele>
        <time>2019-04-18T10:36:16Z</time>
      </trkpt>
      <trkpt lat="44.63428" lon="7.01576">
        <ele>1734</ele>
        <time>2019-04-18T10:37:16Z</time>
      </trkpt>
      <trkpt lat="44.6351" lon="7.01434">
        <ele>1726</ele>
        <time>2019-04-18T10:38:16Z</time>
      </trkpt>
      <trkpt lat="44.63553" lon="7.01375">
        <ele>1732</ele>
        <time>2019-04-18T10:39:16Z</time>
      </trkpt>
      <trkpt lat="44.63621" lon="7.01307">
        <ele>1742</ele>
        <time>2019-04-18T10:40:16Z</time>
      </trkpt>
      <trkpt lat="44.63736" lon="7.01224">
        <ele>1750</ele>
        <time>2019-04-18T10:41:16Z</time>
      </trkpt>
      <trkpt lat="44.63855" lon="7.01147">
        <ele>1754</ele>
        <time>2019-04-18T10:42:16Z</time>
      </trkpt>
      <trkpt lat="44.63915" lon="7.01099">
        <ele>1746</ele>
        <time>2019-04-18T10:43:16Z</time>
      </trkpt>
      <trkpt lat="44.64005" lon="7.0104">
        <ele>1754</ele>
        <time>2019-04-18T10:44:16Z</time>
      </trkpt>
      <trkpt lat="44.64049" lon="7.01002">
        <ele>1756</ele>
        <time>2019-04-18T10:45:16Z</time>
      </trkpt>
      <trkpt lat="44.64068" lon="7.00983">
        <ele>1759</ele>
        <time>2019-04-18T10:46:16Z</time>
      </trkpt>
      <trkpt lat="44.64084" lon="7.00959">
        <ele>1759</ele>
        <time>2019-04-18T10:47:16Z</time>
      </trkpt>
      <trkpt lat="44.64162" lon="7.00787">
        <ele>1763</ele>
        <time>2019-04-18T10:48:16Z</time>
      </trkpt>
      <trkpt lat="44.64181" lon="7.00752">
        <ele>1763</ele>
        <time>2019-04-18T10:49:16Z</time>
      </trkpt>
      <trkpt lat="44.64209" lon="7.00721">
        <ele>1764</ele>
        <time>2019-04-18T10:50:16Z</time>
      </trkpt>
      <trkpt lat="44.64267" lon="7.00671">
        <ele>1768</ele>
        <time>2019-04-18T10:51:16Z</time>
      </trkpt>
      <trkpt lat="44.64277" lon="7.00658">
        <ele>1769</ele>
        <time>2019-04-18T10:52:16Z</time>
      </trkpt>
      <trkpt lat="44.64318" lon="7.00593">
        <ele>1773</ele>
        <time>2019-04-18T10:53:16Z</time>
      </trkpt>
      <trkpt lat="44.64354" lon="7.00541">
        <ele>1774</ele>
        <time>2019-04-18T10:54:16Z</time>
      </trkpt>
      <trkpt lat="44.64389" lon="7.00503">
        <ele>1778</ele>
        <time>2019-04-18T10:55:16Z</time>
      </trkpt>
      <trkpt lat="44.64427" lon="7.00453">
        <ele>1780</ele>
        <time>2019-04-18T10:56:16Z</time>
      </trkpt>
      <trkpt lat="44.64501" lon="7.00336">
        <ele>1782</ele>
        <time>2019-04-18T10:57:16Z</time>
      </trkpt>
      <trkpt lat="44.64524" lon="7.00297">
        <ele>1786</ele>
        <time>2019-04-18T10:58:16Z</time>
      </trkpt>
      <trkpt lat="44.64559" lon="7.00206">
        <ele>1787</ele>
        <time>2019-04-18T10:59:16Z</time>
      </trkpt>
      <trkpt lat="44.64594" lon="7.00132">
        <ele>1787</ele>
        <time>2019-04-18T11:00:16Z</time>
      </trkpt>
      <trkpt lat="44.64633" lon="7.00058">
        <ele>1791</ele>
        <time>2019-04-18T11:01:16Z</time>
      </trkpt>
      <trkpt lat="44.64645" lon="7.00043">
        <ele>1792</ele>
        <time>2019-04-18T11:02:16Z</time>
      </trkpt>
      <trkpt lat="44.64706" lon="6.99993">
        <ele>1798</ele>
        <time>2019-04-18T11:03:16Z</time>
      </trkpt>
      <trkpt lat="44.64721" lon="6.99973">
        <ele>1799</ele>
        <time>2019-04-18T11:04:16Z</time>
      </trkpt>
      <trkpt lat="44.6476" lon="6.99903">
        <ele>1798</ele>
        <time>2019-04-18T11:05:16Z</time>
      </trkpt>
      <trkpt lat="44.64832" lon="6.99756">
        <ele>1808</ele>
        <time>2019-04-18T11:06:16Z</time>
      </trkpt>
      <trkpt lat="44.6489" lon="6.99648">
        <ele>1808</ele>
        <time>2019-04-18T11:07:16Z</time>
      </trkpt>
      <trkpt lat="44.65053" lon="6.99462">
        <ele>1818</ele>
        <time>2019-04-18T11:08:16Z</time>
      </trkpt>
      <trkpt lat="44.65147" lon="6.99358">
        <ele>1823</ele>
        <time>2019-04-18T11:09:16Z</time>
      </trkpt>
      <trkpt lat="44.65304" lon="6.99201">
        <ele>1835</ele>
        <time>2019-04-18T11:10:16Z</time>
      </trkpt>
      <trkpt lat="44.65348" lon="6.99164">
        <ele>1839</ele>
        <time>2019-04-18T11:11:16Z</time>
      </trkpt>
      <trkpt lat="44.65435" lon="6.99104">
        <ele>1862</ele>
        <time>2019-04-18T11:12:16Z</time>
      </trkpt>
      <trkpt lat="44.65489" lon="6.9908">
        <ele>1871</ele>
        <time>2019-04-18T11:13:16Z</time>
      </trkpt>
      <trkpt lat="44.65492" lon="6.99068">
        <ele>1874</ele>
        <time>2019-04-18T11:14:16Z</time>
      </trkpt>
      <trkpt lat="44.65492" lon="6.99057">
        <ele>1877</ele>
        <time>2019-04-18T11:15:16Z</time>
      </trkpt>
      <trkpt lat="44.65491" lon="6.99053">
        <ele>1877</ele>
        <time>2019-04-18T11:16:16Z</time>
      </trkpt>
      <trkpt lat="44.65478" lon="6.99042">
        <ele>1878</ele>
        <time>2019-04-18T11:17:16Z</time>
      </trkpt>
      <trkpt lat="44.65464" lon="6.99041">
        <ele>1877</ele>
        <time>2019-04-18T11:18:16Z</time>
      </trkpt>
      <trkpt lat="44.65416" lon="6.99046">
        <ele>1870</ele>
        <time>2019-04-18T11:19:16Z</time>
      </trkpt>
      <trkpt lat="44.65382" lon="6.99041">
        <ele>1865</ele>
        <time>2019-04-18T11:20:16Z</time>
      </trkpt>
      <trkpt lat="44.65364" lon="6.99037">
        <ele>1863</ele>
        <time>2019-04-18T11:21:16Z</time>
      </trkpt>
      <trkpt lat="44.6535" lon="6.9903">
        <ele>1863</ele>
        <time>2019-04-18T11:22:16Z</time>
      </trkpt>
      <trkpt lat="44.65339" lon="6.99018">
        <ele>1865</ele>
        <time>2019-04-18T11:23:16Z</time>
      </trkpt>
      <trkpt lat="44.65318" lon="6.98977">
        <ele>1867</ele>
        <time>2019-04-18T11:24:16Z</time>
      </trkpt>
      <trkpt lat="44.65309" lon="6.98949">
        <ele>1867</ele>
        <time>2019-04-18T11:25:16Z</time>
      </trkpt>
      <trkpt lat="44.65308" lon="6.98934">
        <ele>1868</ele>
        <time>2019-04-18T11:26:16Z</time>
      </trkpt>
      <trkpt lat="44.65313" lon="6.98887">
        <ele>1874</ele>
        <time>2019-04-18T11:27:16Z</time>
      </trkpt>
      <trkpt lat="44.65308" lon="6.98842">
        <ele>1878</ele>
        <time>2019-04-18T11:28:16Z</time>
      </trkpt>
      <trkpt lat="44.65298" lon="6.98781">
        <ele>1889</ele>
        <time>2019-04-18T11:29:16Z</time>
      </trkpt>
      <trkpt lat="44.65285" lon="6.98726">
        <ele>1896</ele>
        <time>2019-04-18T11:30:16Z</time>
      </trkpt>
      <trkpt lat="44.65288" lon="6.98718">
        <ele>1900</ele>
        <time>2019-04-18T11:31:16Z</time>
      </trkpt>
      <trkpt lat="44.65295" lon="6.98716">
        <ele>1904</ele>
        <time>2019-04-18T11:32:16Z</time>
      </trkpt>
      <trkpt lat="44.653" lon="6.98719">
        <ele>1906</ele>
        <time>2019-04-18T11:33:16Z</time>
      </trkpt>
      <trkpt lat="44.65305" lon="6.98728">
        <ele>1906</ele>
        <time>2019-04-18T11:34:16Z</time>
      </trkpt>
      <trkpt lat="44.65307" lon="6.98743">
        <ele>1904</ele>
        <time>2019-04-18T11:35:16Z</time>
      </trkpt>
      <trkpt lat="44.65338" lon="6.98817">
        <ele>1896</ele>
        <time>2019-04-18T11:36:16Z</time>
      </trkpt>
      <trkpt lat="44.65363" lon="6.98861">
        <ele>1897</ele>
        <time>2019-04-18T11:37:16Z</time>
      </trkpt>
      <trkpt lat="44.65375" lon="6.98871">
        <ele>1901</ele>
        <time>2019-04-18T11:38:16Z</time>
      </trkpt>
      <trkpt lat="44.65423" lon="6.98895">
        <ele>1913</ele>
        <time>2019-04-18T11:39:16Z</time>
      </trkpt>
      <trkpt lat="44.65456" lon="6.98905">
        <ele>1917</ele>
        <time>2019-04-18T11:40:16Z</time>
      </trkpt>
      <trkpt lat="44.65527" lon="6.98912">
        <ele>1930</ele>
        <time>2019-04-18T11:41:16Z</time>
      </trkpt>
      <trkpt lat="44.65567" lon="6.98921">
        <ele>1936</ele>
        <time>2019-04-18T11:42:16Z</time>
      </trkpt>
      <trkpt lat="44.6563" lon="6.98948">
        <ele>1943</ele>
        <time>2019-04-18T11:43:16Z</time>
      </trkpt>
      <trkpt lat="44.65701" lon="6.98968">
        <ele>1954</ele>
        <time>2019-04-18T11:44:16Z</time>
      </trkpt>
      <trkpt lat="44.65745" lon="6.98976">
        <ele>1960</ele>
        <time>2019-04-18T11:45:16Z</time>
      </trkpt>
      <trkpt lat="44.65836" lon="6.98981">
        <ele>1971</ele>
        <time>2019-04-18T11:46:16Z</time>
      </trkpt>
      <trkpt lat="44.65856" lon="6.98988">
        <ele>1975</ele>
        <time>2019-04-18T11:47:16Z</time>
      </trkpt>
      <trkpt lat="44.6587" lon="6.98996">
        <ele>1977</ele>
        <time>2019-04-18T11:48:16Z</time>
      </trkpt>
      <trkpt lat="44.65883" lon="6.99008">
        <ele>1980</ele>
        <time>2019-04-18T11:49:16Z</time>
      </trkpt>
      <trkpt lat="44.65914" lon="6.99048">
        <ele>1986</ele>
        <time>2019-04-18T11:50:16Z</time>
      </trkpt>
      <trkpt lat="44.65937" lon="6.99071">
        <ele>1989</ele>
        <time>2019-04-18T11:51:16Z</time>
      </trkpt>
      <trkpt lat="44.65965" lon="6.99095">
        <ele>1992</ele>
        <time>2019-04-18T11:52:16Z</time>
      </trkpt>
      <trkpt lat="44.65989" lon="6.99112">
        <ele>1995</ele>
        <time>2019-04-18T11:53:16Z</time>
      </trkpt>
      <trkpt lat="44.66001" lon="6.99117">
        <ele>1997</ele>
        <time>2019-04-18T11:54:16Z</time>
      </trkpt>
      <trkpt lat="44.6603" lon="6.99126">
        <ele>2001</ele>
        <time>2019-04-18T11:55:16Z</time>
      </trkpt>
      <trkpt lat="44.66079" lon="6.99136">
        <ele>2009</ele>
        <time>2019-04-18T11:56:16Z</time>
      </trkpt>
      <trkpt lat="44.66093" lon="6.99141">
        <ele>2011</ele>
        <time>2019-04-18T11:57:16Z</time>
      </trkpt>
      <trkpt lat="44.66107" lon="6.9915">
        <ele>2013</ele>
        <time>2019-04-18T11:58:16Z</time>
      </trkpt>
      <trkpt lat="44.66125" lon="6.99165">
        <ele>2015</ele>
        <time>2019-04-18T11:59:16Z</time>
      </trkpt>
      <trkpt lat="44.66138" lon="6.99179">
        <ele>2017</ele>
        <time>2019-04-18T12:00:16Z</time>
      </trkpt>
      <trkpt lat="44.66173" lon="6.99231">
        <ele>2019</ele>
        <time>2019-04-18T12:01:16Z</time>
      </trkpt>
      <trkpt lat="44.6619" lon="6.99253">
        <ele>2022</ele>
        <time>2019-04-18T12:02:16Z</time>
      </trkpt>
      <trkpt lat="44.66196" lon="6.99254">
        <ele>2023</ele>
        <time>2019-04-18T12:03:16Z</time>
      </trkpt>
      <trkpt lat="44.66203" lon="6.99253">
        <ele>2025</ele>
        <time>2019-04-18T12:04:16Z</time>
      </trkpt>
      <trkpt lat="44.66207" lon="6.99248">
        <ele>2027</ele>
        <time>2019-04-18T12:05:16Z</time>
      </trkpt>
      <trkpt lat="44.66211" lon="6.99235">
        <ele>2030</ele>
        <time>2019-04-18T12:06:16Z</time>
      </trkpt>
      <trkpt lat="44.6621" lon="6.99224">
        <ele>2031</ele>
        <time>2019-04-18T12:07:16Z</time>
      </trkpt>
      <trkpt lat="44.66206" lon="6.99211">
        <ele>2031</ele>
        <time>2019-04-18T12:08:16Z</time>
      </trkpt>
      <trkpt lat="44.66194" lon="6.99186">
        <ele>2031</ele>
        <time>2019-04-18T12:09:16Z</time>
      </trkpt>
      <trkpt lat="44.66125" lon="6.99068">
        <ele>2034</ele>
        <time>2019-04-18T12:10:16Z</time>
      </trkpt>
      <trkpt lat="44.66071" lon="6.98987">
        <ele>2036</ele>
        <time>2019-04-18T12:11:16Z</time>
      </trkpt>
      <trkpt lat="44.66052" lon="6.98943">
        <ele>2040</ele>
        <time>2019-04-18T12:12:16Z</time>
      </trkpt>
      <trkpt lat="44.66034" lon="6.98871">
        <ele>2053</ele>
        <time>2019-04-18T12:13:16Z</time>
      </trkpt>
      <trkpt lat="44.66027" lon="6.98824">
        <ele>2064</ele>
        <time>2019-04-18T12:14:16Z</time>
      </trkpt>
      <trkpt lat="44.66023" lon="6.98813">
        <ele>2067</ele>
        <time>2019-04-18T12:15:16Z</time>
      </trkpt>
      <trkpt lat="44.66015" lon="6.98798">
        <ele>2069</ele>
        <time>2019-04-18T12:16:16Z</time>
      </trkpt>
      <trkpt lat="44.66007" lon="6.98787">
        <ele>2069</ele>
        <time>2019-04-18T12:17:16Z</time>
      </trkpt>
      <trkpt lat="44.65995" lon="6.98777">
        <ele>2068</ele>
        <time>2019-04-18T12:18:16Z</time>
      </trkpt>
      <trkpt lat="44.65965" lon="6.98764">
        <ele>2068</ele>
        <time>2019-04-18T12:19:16Z</time>
      </trkpt>
      <trkpt lat="44.65942" lon="6.98744">
        <ele>2071</ele>
        <time>2019-04-18T12:20:16Z</time>
      </trkpt>
      <trkpt lat="44.65879" lon="6.98733">
        <ele>2070</ele>
        <time>2019-04-18T12:21:16Z</time>
      </trkpt>
      <trkpt lat="44.65818" lon="6.98709">
        <ele>2081</ele>
        <time>2019-04-18T12:22:16Z</time>
      </trkpt>
      <trkpt lat="44.65804" lon="6.98708">
        <ele>2084</ele>
        <time>2019-04-18T12:23:16Z</time>
      </trkpt>
      <trkpt lat="44.65789" lon="6.98711">
        <ele>2085</ele>
        <time>2019-04-18T12:24:16Z</time>
      </trkpt>
      <trkpt lat="44.65765" lon="6.9872">
        <ele>2085</ele>
        <time>2019-04-18T12:25:16Z</time>
      </trkpt>
      <trkpt lat="44.65704" lon="6.98754">
        <ele>2067</ele>
        <time>2019-04-18T12:26:16Z</time>
      </trkpt>
      <trkpt lat="44.65692" lon="6.98754">
        <ele>2066</ele>
        <time>2019-04-18T12:27:16Z</time>
      </trkpt>
      <trkpt lat="44.65685" lon="6.9875">
        <ele>2067</ele>
        <time>2019-04-18T12:28:16Z</time>
      </trkpt>
      <trkpt lat="44.65676" lon="6.98731">
        <ele>2076</ele>
        <time>2019-04-18T12:29:16Z</time>
      </trkpt>
      <trkpt lat="44.65674" lon="6.98712">
        <ele>2085</ele>
        <time>2019-04-18T12:30:16Z</time>
      </trkpt>
      <trkpt lat="44.65678" lon="6.98702">
        <ele>2090</ele>
        <time>2019-04-18T12:31:16Z</time>
      </trkpt>
      <trkpt lat="44.65685" lon="6.98693">
        <ele>2095</ele>
        <time>2019-04-18T12:32:16Z</time>
      </trkpt>
      <trkpt lat="44.65733" lon="6.9867">
        <ele>2107</ele>
        <time>2019-04-18T12:33:16Z</time>
      </trkpt>
      <trkpt lat="44.65781" lon="6.98645">
        <ele>2113</ele>
        <time>2019-04-18T12:34:16Z</time>
      </trkpt>
      <trkpt lat="44.65826" lon="6.98634">
        <ele>2110</ele>
        <time>2019-04-18T12:35:16Z</time>
      </trkpt>
      <trkpt lat="44.65879" lon="6.98614">
        <ele>2119</ele>
        <time>2019-04-18T12:36:16Z</time>
      </trkpt>
      <trkpt lat="44.66011" lon="6.98613">
        <ele>2134</ele>
        <time>2019-04-18T12:37:16Z</time>
      </trkpt>
      <trkpt lat="44.66137" lon="6.986">
        <ele>2156</ele>
        <time>2019-04-18T12:38:16Z</time>
      </trkpt>
      <trkpt lat="44.66184" lon="6.986">
        <ele>2163</ele>
        <time>2019-04-18T12:39:16Z</time>
      </trkpt>
      <trkpt lat="44.66229" lon="6.98618">
        <ele>2170</ele>
        <time>2019-04-18T12:40:16Z</time>
      </trkpt>
      <trkpt lat="44.66264" lon="6.98637">
        <ele>2175</ele>
        <time>2019-04-18T12:41:16Z</time>
      </trkpt>
      <trkpt lat="44.66269" lon="6.98643">
        <ele>2177</ele>
        <time>2019-04-18T12:42:16Z</time>
      </trkpt>
      <trkpt lat="44.66269" lon="6.98649">
        <ele>2177</ele>
        <time>2019-04-18T12:43:16Z</time>
      </trkpt>
      <trkpt lat="44.66267" lon="6.98654">
        <ele>2177</ele>
        <time>2019-04-18T12:44:16Z</time>
      </trkpt>
      <trkpt lat="44.66263" lon="6.98658">
        <ele>2177</ele>
        <time>2019-04-18T12:45:16Z</time>
      </trkpt>
      <trkpt lat="44.66241" lon="6.98656">
        <ele>2174</ele>
        <time>2019-04-18T12:46:16Z</time>
      </trkpt>
      <trkpt lat="44.66179" lon="6.98692">
        <ele>2176</ele>
        <time>2019-04-18T12:47:16Z</time>
      </trkpt>
      <trkpt lat="44.66174" lon="6.987">
        <ele>2177</ele>
        <time>2019-04-18T12:48:16Z</time>
      </trkpt>
      <trkpt lat="44.66172" lon="6.9871">
        <ele>2178</ele>
        <time>2019-04-18T12:49:16Z</time>
      </trkpt>
      <trkpt lat="44.66174" lon="6.98718">
        <ele>2180</ele>
        <time>2019-04-18T12:50:16Z</time>
      </trkpt>
      <trkpt lat="44.66181" lon="6.98722">
        <ele>2182</ele>
        <time>2019-04-18T12:51:16Z</time>
      </trkpt>
      <trkpt lat="44.66187" lon="6.98723">
        <ele>2183</ele>
        <time>2019-04-18T12:52:16Z</time>
      </trkpt>
      <trkpt lat="44.66211" lon="6.98711">
        <ele>2184</ele>
        <time>2019-04-18T12:53:16Z</time>
      </trkpt>
      <trkpt lat="44.66238" lon="6.98709">
        <ele>2187</ele>
        <time>2019-04-18T12:54:16Z</time>
      </trkpt>
      <trkpt lat="44.66286" lon="6.98714">
        <ele>2194</ele>
        <time>2019-04-18T12:55:16Z</time>
      </trkpt>
      <trkpt lat="44.66303" lon="6.98714">
        <ele>2196</ele>
        <time>2019-04-18T12:56:16Z</time>
      </trkpt>
      <trkpt lat="44.66348" lon="6.98704">
        <ele>2200</ele>
        <time>2019-04-18T12:57:16Z</time>
      </trkpt>
      <trkpt lat="44.66436" lon="6.98701">
        <ele>2212</ele>
        <time>2019-04-18T12:58:16Z</time>
      </trkpt>
      <trkpt lat="44.66523" lon="6.98694">
        <ele>2220</ele>
        <time>2019-04-18T12:59:16Z</time>
      </trkpt>
      <trkpt lat="44.66549" lon="6.98697">
        <ele>2224</ele>
        <time>2019-04-18T13:00:16Z</time>
      </trkpt>
      <trkpt lat="44.6657" lon="6.98697">
        <ele>2226</ele>
        <time>2019-04-18T13:01:16Z</time>
      </trkpt>
      <trkpt lat="44.66618" lon="6.98689">
        <ele>2230</ele>
        <time>2019-04-18T13:02:16Z</time>
      </trkpt>
      <trkpt lat="44.66688" lon="6.98685">
        <ele>2239</ele>
        <time>2019-04-18T13:03:16Z</time>
      </trkpt>
      <trkpt lat="44.66775" lon="6.98684">
        <ele>2249</ele>
        <time>2019-04-18T13:04:16Z</time>
      </trkpt>
      <trkpt lat="44.66813" lon="6.98692">
        <ele>2255</ele>
        <time>2019-04-18T13:05:16Z</time>
      </trkpt>
      <trkpt lat="44.66909" lon="6.98719">
        <ele>2269</ele>
        <time>2019-04-18T13:06:16Z</time>
      </trkpt>
      <trkpt lat="44.66932" lon="6.98722">
        <ele>2272</ele>
        <time>2019-04-18T13:07:16Z</time>
      </trkpt>
      <trkpt lat="44.66972" lon="6.98721">
        <ele>2278</ele>
        <time>2019-04-18T13:08:16Z</time>
      </trkpt>
      <trkpt lat="44.66994" lon="6.98718">
        <ele>2280</ele>
        <time>2019-04-18T13:09:16Z</time>
      </trkpt>
      <trkpt lat="44.6703" lon="6.98707">
        <ele>2284</ele>
        <time>2019-04-18T13:10:16Z</time>
      </trkpt>
      <trkpt lat="44.6711" lon="6.98668">
        <ele>2290</ele>
        <time>2019-04-18T13:11:16Z</time>
      </trkpt>
      <trkpt lat="44.67134" lon="6.98662">
        <ele>2294</ele>
        <time>2019-04-18T13:12:16Z</time>
      </trkpt>
      <trkpt lat="44.67162" lon="6.98659">
        <ele>2300</ele>
        <time>2019-04-18T13:13:16Z</time>
      </trkpt>
      <trkpt lat="44.67197" lon="6.98665">
        <ele>2306</ele>
        <time>2019-04-18T13:14:16Z</time>
      </trkpt>
      <trkpt lat="44.67211" lon="6.98671">
        <ele>2309</ele>
        <time>2019-04-18T13:15:16Z</time>
      </trkpt>
      <trkpt lat="44.67215" lon="6.98676">
        <ele>2310</ele>
        <time>2019-04-18T13:16:16Z</time>
      </trkpt>
      <trkpt lat="44.67215" lon="6.98683">
        <ele>2312</ele>
        <time>2019-04-18T13:17:16Z</time>
      </trkpt>
      <trkpt lat="44.67214" lon="6.98688">
        <ele>2312</ele>
        <time>2019-04-18T13:18:16Z</time>
      </trkpt>
      <trkpt lat="44.67205" lon="6.98693">
        <ele>2312</ele>
        <time>2019-04-18T13:19:16Z</time>
      </trkpt>
      <trkpt lat="44.67193" lon="6.98693">
        <ele>2310</ele>
        <time>2019-04-18T13:20:16Z</time>
      </trkpt>
      <trkpt lat="44.67183" lon="6.98698">
        <ele>2310</ele>
        <time>2019-04-18T13:21:16Z</time>
      </trkpt>
      <trkpt lat="44.67173" lon="6.98707">
        <ele>2310</ele>
        <time>2019-04-18T13:22:16Z</time>
      </trkpt>
      <trkpt lat="44.6716" lon="6.98722">
        <ele>2311</ele>
        <time>2019-04-18T13:23:16Z</time>
      </trkpt>
      <trkpt lat="44.6714" lon="6.98756">
        <ele>2316</ele>
        <time>2019-04-18T13:24:16Z</time>
      </trkpt>
      <trkpt lat="44.67109" lon="6.98795">
        <ele>2323</ele>
        <time>2019-04-18T13:25:16Z</time>
      </trkpt>
      <trkpt lat="44.67107" lon="6.98803">
        <ele>2325</ele>
        <time>2019-04-18T13:26:16Z</time>
      </trkpt>
      <trkpt lat="44.67107" lon="6.98811">
        <ele>2328</ele>
        <time>2019-04-18T13:27:16Z</time>
      </trkpt>
      <trkpt lat="44.6711" lon="6.98817">
        <ele>2329</ele>
        <time>2019-04-18T13:28:16Z</time>
      </trkpt>
      <trkpt lat="44.67149" lon="6.98825">
        <ele>2333</ele>
        <time>2019-04-18T13:29:16Z</time>
      </trkpt>
      <trkpt lat="44.67182" lon="6.98829">
        <ele>2337</ele>
        <time>2019-04-18T13:30:16Z</time>
      </trkpt>
      <trkpt lat="44.67225" lon="6.98829">
        <ele>2341</ele>
        <time>2019-04-18T13:31:16Z</time>
      </trkpt>
      <trkpt lat="44.67239" lon="6.98827">
        <ele>2342</ele>
        <time>2019-04-18T13:32:16Z</time>
      </trkpt>
      <trkpt lat="44.67254" lon="6.98818">
        <ele>2342</ele>
        <time>2019-04-18T13:33:16Z</time>
      </trkpt>
      <trkpt lat="44.67259" lon="6.98818">
        <ele>2344</ele>
        <time>2019-04-18T13:34:16Z</time>
      </trkpt>
      <trkpt lat="44.67262" lon="6.9882">
        <ele>2345</ele>
        <time>2019-04-18T13:35:16Z</time>
      </trkpt>
      <trkpt lat="44.67264" lon="6.98828">
        <ele>2347</ele>
        <time>2019-04-18T13:36:16Z</time>
      </trkpt>
      <trkpt lat="44.67262" lon="6.98834">
        <ele>2347</ele>
        <time>2019-04-18T13:37:16Z</time>
      </trkpt>
      <trkpt lat="44.67258" lon="6.98839">
        <ele>2347</ele>
        <time>2019-04-18T13:38:16Z</time>
      </trkpt>
      <trkpt lat="44.67236" lon="6.98857">
        <ele>2347</ele>
        <time>2019-04-18T13:39:16Z</time>
      </trkpt>
      <trkpt lat="44.67217" lon="6.98869">
        <ele>2349</ele>
        <time>2019-04-18T13:40:16Z</time>
      </trkpt>
      <trkpt lat="44.672" lon="6.98875">
        <ele>2349</ele>
        <time>2019-04-18T13:41:16Z</time>
      </trkpt>
      <trkpt lat="44.67196" lon="6.9888">
        <ele>2350</ele>
        <time>2019-04-18T13:42:16Z</time>
      </trkpt>
      <trkpt lat="44.67194" lon="6.98885">
        <ele>2351</ele>
        <time>2019-04-18T13:43:16Z</time>
      </trkpt>
      <trkpt lat="44.67195" lon="6.98889">
        <ele>2352</ele>
        <time>2019-04-18T13:44:16Z</time>
      </trkpt>
      <trkpt lat="44.67199" lon="6.98893">
        <ele>2353</ele>
        <time>2019-04-18T13:45:16Z</time>
      </trkpt>
      <trkpt lat="44.67241" lon="6.98898">
        <ele>2356</ele>
        <time>2019-04-18T13:46:16Z</time>
      </trkpt>
      <trkpt lat="44.67254" lon="6.98894">
        <ele>2356</ele>
        <time>2019-04-18T13:47:16Z</time>
      </trkpt>
      <trkpt lat="44.67283" lon="6.98869">
        <ele>2358</ele>
        <time>2019-04-18T13:48:16Z</time>
      </trkpt>
      <trkpt lat="44.67296" lon="6.98867">
        <ele>2361</ele>
        <time>2019-04-18T13:49:16Z</time>
      </trkpt>
      <trkpt lat="44.67317" lon="6.98872">
        <ele>2366</ele>
        <time>2019-04-18T13:50:16Z</time>
      </trkpt>
      <trkpt lat="44.67331" lon="6.98886">
        <ele>2370</ele>
        <time>2019-04-18T13:51:16Z</time>
      </trkpt>
      <trkpt lat="44.6734" lon="6.98907">
        <ele>2374</ele>
        <time>2019-04-18T13:52:16Z</time>
      </trkpt>
      <trkpt lat="44.67344" lon="6.98932">
        <ele>2378</ele>
        <time>2019-04-18T13:53:16Z</time>
      </trkpt>
      <trkpt lat="44.67342" lon="6.98958">
        <ele>2379</ele>
        <time>2019-04-18T13:54:16Z</time>
      </trkpt>
      <trkpt lat="44.67336" lon="6.98984">
        <ele>2380</ele>
        <time>2019-04-18T13:55:16Z</time>
      </trkpt>
      <trkpt lat="44.67325" lon="6.99003">
        <ele>2381</ele>
        <time>2019-04-18T13:56:16Z</time>
      </trkpt>
      <trkpt lat="44.67309" lon="6.99017">
        <ele>2382</ele>
        <time>2019-04-18T13:57:16Z</time>
      </trkpt>
      <trkpt lat="44.67286" lon="6.99027">
        <ele>2383</ele>
        <time>2019-04-18T13:58:16Z</time>
      </trkpt>
      <trkpt lat="44.67258" lon="6.99033">
        <ele>2382</ele>
        <time>2019-04-18T13:59:16Z</time>
      </trkpt>
      <trkpt lat="44.67237" lon="6.99034">
        <ele>2383</ele>
        <time>2019-04-18T14:00:16Z</time>
      </trkpt>
      <trkpt lat="44.67188" lon="6.99028">
        <ele>2383</ele>
        <time>2019-04-18T14:01:16Z</time>
      </trkpt>
      <trkpt lat="44.67175" lon="6.9903">
        <ele>2384</ele>
        <time>2019-04-18T14:02:16Z</time>
      </trkpt>
      <trkpt lat="44.67169" lon="6.99034">
        <ele>2385</ele>
        <time>2019-04-18T14:03:16Z</time>
      </trkpt>
      <trkpt lat="44.67168" lon="6.99042">
        <ele>2388</ele>
        <time>2019-04-18T14:04:16Z</time>
      </trkpt>
      <trkpt lat="44.67169" lon="6.99048">
        <ele>2389</ele>
        <time>2019-04-18T14:05:16Z</time>
      </trkpt>
      <trkpt lat="44.67174" lon="6.99056">
        <ele>2391</ele>
        <time>2019-04-18T14:06:16Z</time>
      </trkpt>
      <trkpt lat="44.67208" lon="6.99068">
        <ele>2393</ele>
        <time>2019-04-18T14:07:16Z</time>
      </trkpt>
      <trkpt lat="44.67256" lon="6.99081">
        <ele>2395</ele>
        <time>2019-04-18T14:08:16Z</time>
      </trkpt>
      <trkpt lat="44.67324" lon="6.99119">
        <ele>2407</ele>
        <time>2019-04-18T14:09:16Z</time>
      </trkpt>
      <trkpt lat="44.67339" lon="6.99121">
        <ele>2409</ele>
        <time>2019-04-18T14:10:16Z</time>
      </trkpt>
      <trkpt lat="44.67356" lon="6.99118">
        <ele>2412</ele>
        <time>2019-04-18T14:11:16Z</time>
      </trkpt>
      <trkpt lat="44.67378" lon="6.99113">
        <ele>2416</ele>
        <time>2019-04-18T14:12:16Z</time>
      </trkpt>
      <trkpt lat="44.67402" lon="6.99099">
        <ele>2417</ele>
        <time>2019-04-18T14:13:16Z</time>
      </trkpt>
      <trkpt lat="44.67426" lon="6.9908">
        <ele>2420</ele>
        <time>2019-04-18T14:14:16Z</time>
      </trkpt>
      <trkpt lat="44.67447" lon="6.99059">
        <ele>2426</ele>
        <time>2019-04-18T14:15:16Z</time>
      </trkpt>
      <trkpt lat="44.67457" lon="6.99044">
        <ele>2428</ele>
        <time>2019-04-18T14:16:16Z</time>
      </trkpt>
      <trkpt lat="44.6749" lon="6.98983">
        <ele>2435</ele>
        <time>2019-04-18T14:17:16Z</time>
      </trkpt>
      <trkpt lat="44.67494" lon="6.9898">
        <ele>2437</ele>
        <time>2019-04-18T14:18:16Z</time>
      </trkpt>
      <trkpt lat="44.67499" lon="6.98981">
        <ele>2440</ele>
        <time>2019-04-18T14:19:16Z</time>
      </trkpt>
      <trkpt lat="44.67501" lon="6.98985">
        <ele>2440</ele>
        <time>2019-04-18T14:20:16Z</time>
      </trkpt>
      <trkpt lat="44.67502" lon="6.98992">
        <ele>2441</ele>
        <time>2019-04-18T14:21:16Z</time>
      </trkpt>
      <trkpt lat="44.67499" lon="6.99011">
        <ele>2442</ele>
        <time>2019-04-18T14:22:16Z</time>
      </trkpt>
      <trkpt lat="44.67462" lon="6.99121">
        <ele>2447</ele>
        <time>2019-04-18T14:23:16Z</time>
      </trkpt>
      <trkpt lat="44.67441" lon="6.99169">
        <ele>2451</ele>
        <time>2019-04-18T14:24:16Z</time>
      </trkpt>
      <trkpt lat="44.67423" lon="6.99199">
        <ele>2453</ele>
        <time>2019-04-18T14:25:16Z</time>
      </trkpt>
      <trkpt lat="44.67403" lon="6.99225">
        <ele>2458</ele>
        <time>2019-04-18T14:26:16Z</time>
      </trkpt>
      <trkpt lat="44.67371" lon="6.99255">
        <ele>2469</ele>
        <time>2019-04-18T14:27:16Z</time>
      </trkpt>
      <trkpt lat="44.67368" lon="6.99266">
        <ele>2476</ele>
        <time>2019-04-18T14:28:16Z</time>
      </trkpt>
      <trkpt lat="44.6737" lon="6.99269">
        <ele>2478</ele>
        <time>2019-04-18T14:29:16Z</time>
      </trkpt>
      <trkpt lat="44.67375" lon="6.99272">
        <ele>2480</ele>
        <time>2019-04-18T14:30:16Z</time>
      </trkpt>
      <trkpt lat="44.6738" lon="6.99271">
        <ele>2480</ele>
        <time>2019-04-18T14:31:16Z</time>
      </trkpt>
      <trkpt lat="44.67401" lon="6.99256">
        <ele>2471</ele>
        <time>2019-04-18T14:32:16Z</time>
      </trkpt>
      <trkpt lat="44.67431" lon="6.99239">
        <ele>2470</ele>
        <time>2019-04-18T14:33:16Z</time>
      </trkpt>
      <trkpt lat="44.67496" lon="6.99196">
        <ele>2483</ele>
        <time>2019-04-18T14:34:16Z</time>
      </trkpt>
      <trkpt lat="44.67518" lon="6.99171">
        <ele>2484</ele>
        <time>2019-04-18T14:35:16Z</time>
      </trkpt>
      <trkpt lat="44.67548" lon="6.99115">
        <ele>2483</ele>
        <time>2019-04-18T14:36:16Z</time>
      </trkpt>
      <trkpt lat="44.67562" lon="6.991">
        <ele>2486</ele>
        <time>2019-04-18T14:37:16Z</time>
      </trkpt>
      <trkpt lat="44.676" lon="6.99078">
        <ele>2496</ele>
        <time>2019-04-18T14:38:16Z</time>
      </trkpt>
      <trkpt lat="44.67613" lon="6.99065">
        <ele>2497</ele>
        <time>2019-04-18T14:39:16Z</time>
      </trkpt>
      <trkpt lat="44.67638" lon="6.99033">
        <ele>2501</ele>
        <time>2019-04-18T14:40:16Z</time>
      </trkpt>
      <trkpt lat="44.67668" lon="6.99009">
        <ele>2508</ele>
        <time>2019-04-18T14:41:16Z</time>
      </trkpt>
      <trkpt lat="44.67696" lon="6.9898">
        <ele>2513</ele>
        <time>2019-04-18T14:42:16Z</time>
      </trkpt>
      <trkpt lat="44.67725" lon="6.98958">
        <ele>2517</ele>
        <time>2019-04-18T14:43:16Z</time>
      </trkpt>
      <trkpt lat="44.67757" lon="6.98948">
        <ele>2521</ele>
        <time>2019-04-18T14:44:16Z</time>
      </trkpt>
      <trkpt lat="44.67811" lon="6.98936">
        <ele>2530</ele>
        <time>2019-04-18T14:45:16Z</time>
      </trkpt>
      <trkpt lat="44.67831" lon="6.98929">
        <ele>2533</ele>
        <time>2019-04-18T14:46:16Z</time>
      </trkpt>
      <trkpt lat="44.6785" lon="6.98917">
        <ele>2537</ele>
        <time>2019-04-18T14:47:16Z</time>
      </trkpt>
      <trkpt lat="44.67862" lon="6.98898">
        <ele>2539</ele>
        <time>2019-04-18T14:48:16Z</time>
      </trkpt>
      <trkpt lat="44.67876" lon="6.98871">
        <ele>2540</ele>
        <time>2019-04-18T14:49:16Z</time>
      </trkpt>
      <trkpt lat="44.67909" lon="6.98822">
        <ele>2544</ele>
        <time>2019-04-18T14:50:16Z</time>
      </trkpt>
      <trkpt lat="44.67914" lon="6.98802">
        <ele>2546</ele>
        <time>2019-04-18T14:51:16Z</time>
      </trkpt>
      <trkpt lat="44.67915" lon="6.98777">
        <ele>2547</ele>
        <time>2019-04-18T14:52:16Z</time>
      </trkpt>
      <trkpt lat="44.67911" lon="6.98666">
        <ele>2548</ele>
        <time>2019-04-18T14:53:16Z</time>
      </trkpt>
      <trkpt lat="44.67911" lon="6.98639">
        <ele>2551</ele>
        <time>2019-04-18T14:54:16Z</time>
      </trkpt>
      <trkpt lat="44.6792" lon="6.98611">
        <ele>2555</ele>
        <time>2019-04-18T14:55:16Z</time>
      </trkpt>
      <trkpt lat="44.67935" lon="6.98583">
        <ele>2559</ele>
        <time>2019-04-18T14:56:16Z</time>
      </trkpt>
      <trkpt lat="44.68009" lon="6.98432">
        <ele>2568</ele>
        <time>2019-04-18T14:57:16Z</time>
      </trkpt>
      <trkpt lat="44.68024" lon="6.98394">
        <ele>2571</ele>
        <time>2019-04-18T14:58:16Z</time>
      </trkpt>
      <trkpt lat="44.68035" lon="6.98359">
        <ele>2573</ele>
        <time>2019-04-18T14:59:16Z</time>
      </trkpt>
      <trkpt lat="44.68049" lon="6.98327">
        <ele>2577</ele>
        <time>2019-04-18T15:00:16Z</time>
      </trkpt>
      <trkpt lat="44.68052" lon="6.98315">
        <ele>2580</ele>
        <time>2019-04-18T15:01:16Z</time>
      </trkpt>
      <trkpt lat="44.68051" lon="6.98294">
        <ele>2583</ele>
        <time>2019-04-18T15:02:16Z</time>
      </trkpt>
      <trkpt lat="44.68044" lon="6.98277">
        <ele>2583</ele>
        <time>2019-04-18T15:03:16Z</time>
      </trkpt>
      <trkpt lat="44.68026" lon="6.98249">
        <ele>2581</ele>
        <time>2019-04-18T15:04:16Z</time>
      </trkpt>
      <trkpt lat="44.68005" lon="6.98207">
        <ele>2593</ele>
        <time>2019-04-18T15:05:16Z</time>
      </trkpt>
      <trkpt lat="44.67979" lon="6.98165">
        <ele>2600</ele>
        <time>2019-04-18T15:06:16Z</time>
      </trkpt>
      <trkpt lat="44.6796" lon="6.98126">
        <ele>2603</ele>
        <time>2019-04-18T15:07:16Z</time>
      </trkpt>
      <trkpt lat="44.67952" lon="6.98118">
        <ele>2602</ele>
        <time>2019-04-18T15:08:16Z</time>
      </trkpt>
      <trkpt lat="44.67933" lon="6.98106">
        <ele>2597</ele>
        <time>2019-04-18T15:09:16Z</time>
      </trkpt>
      <trkpt lat="44.67928" lon="6.98098">
        <ele>2598</ele>
        <time>2019-04-18T15:10:16Z</time>
      </trkpt>
      <trkpt lat="44.67923" lon="6.98085">
        <ele>2601</ele>
        <time>2019-04-18T15:11:16Z</time>
      </trkpt>
      <trkpt lat="44.6792" lon="6.98041">
        <ele>2609</ele>
        <time>2019-04-18T15:12:16Z</time>
      </trkpt>
      <trkpt lat="44.67914" lon="6.98023">
        <ele>2611</ele>
        <time>2019-04-18T15:13:16Z</time>
      </trkpt>
      <trkpt lat="44.67885" lon="6.97982">
        <ele>2614</ele>
        <time>2019-04-18T15:14:16Z</time>
      </trkpt>
      <trkpt lat="44.67875" lon="6.97972">
        <ele>2615</ele>
        <time>2019-04-18T15:15:16Z</time>
      </trkpt>
      <trkpt lat="44.67852" lon="6.97958">
        <ele>2614</ele>
        <time>2019-04-18T15:16:16Z</time>
      </trkpt>
      <trkpt lat="44.67834" lon="6.97939">
        <ele>2617</ele>
        <time>2019-04-18T15:17:16Z</time>
      </trkpt>
      <trkpt lat="44.67824" lon="6.97924">
        <ele>2621</ele>
        <time>2019-04-18T15:18:16Z</time>
      </trkpt>
      <trkpt lat="44.67802" lon="6.97881">
        <ele>2625</ele>
        <time>2019-04-18T15:19:16Z</time>
      </trkpt>
      <trkpt lat="44.67774" lon="6.97842">
        <ele>2625</ele>
        <time>2019-04-18T15:20:16Z</time>
      </trkpt>
      <trkpt lat="44.6775" lon="6.97796">
        <ele>2628</ele>
        <time>2019-04-18T15:21:16Z</time>
      </trkpt>
      <trkpt lat="44.67736" lon="6.97775">
        <ele>2628</ele>
        <time>2019-04-18T15:22:16Z</time>
      </trkpt>
      <trkpt lat="44.67712" lon="6.97747">
        <ele>2628</ele>
        <time>2019-04-18T15:23:16Z</time>
      </trkpt>
      <trkpt lat="44.67708" lon="6.97739">
        <ele>2629</ele>
        <time>2019-04-18T15:24:16Z</time>
      </trkpt>
      <trkpt lat="44.67708" lon="6.97735">
        <ele>2631</ele>
        <time>2019-04-18T15:25:16Z</time>
      </trkpt>
      <trkpt lat="44.67711" lon="6.97731">
        <ele>2633</ele>
        <time>2019-04-18T15:26:16Z</time>
      </trkpt>
      <trkpt lat="44.67715" lon="6.9773">
        <ele>2634</ele>
        <time>2019-04-18T15:27:16Z</time>
      </trkpt>
      <trkpt lat="44.6772" lon="6.97731">
        <ele>2635</ele>
        <time>2019-04-18T15:28:16Z</time>
      </trkpt>
      <trkpt lat="44.67741" lon="6.9775">
        <ele>2635</ele>
        <time>2019-04-18T15:29:16Z</time>
      </trkpt>
      <trkpt lat="44.67774" lon="6.97766">
        <ele>2642</ele>
        <time>2019-04-18T15:30:16Z</time>
      </trkpt>
      <trkpt lat="44.67789" lon="6.97776">
        <ele>2645</ele>
        <time>2019-04-18T15:31:16Z</time>
      </trkpt>
      <trkpt lat="44.67816" lon="6.97802">
        <ele>2648</ele>
        <time>2019-04-18T15:32:16Z</time>
      </trkpt>
      <trkpt lat="44.67855" lon="6.97829">
        <ele>2651</ele>
        <time>2019-04-18T15:33:16Z</time>
      </trkpt>
      <trkpt lat="44.67866" lon="6.97835">
        <ele>2652</ele>
        <time>2019-04-18T15:34:16Z</time>
      </trkpt>
      <trkpt lat="44.67887" lon="6.97838">
        <ele>2655</ele>
        <time>2019-04-18T15:35:16Z</time>
      </trkpt>
      <trkpt lat="44.6792" lon="6.97829">
        <ele>2664</ele>
        <time>2019-04-18T15:36:16Z</time>
      </trkpt>
      <trkpt lat="44.67959" lon="6.9783">
        <ele>2669</ele>
        <time>2019-04-18T15:37:16Z</time>
      </trkpt>
      <trkpt lat="44.67991" lon="6.97842">
        <ele>2671</ele>
        <time>2019-04-18T15:38:16Z</time>
      </trkpt>
      <trkpt lat="44.68033" lon="6.9785">
        <ele>2677</ele>
        <time>2019-04-18T15:39:16Z</time>
      </trkpt>
      <trkpt lat="44.68074" lon="6.97866">
        <ele>2681</ele>
        <time>2019-04-18T15:40:16Z</time>
      </trkpt>
      <trkpt lat="44.68109" lon="6.97876">
        <ele>2685</ele>
        <time>2019-04-18T15:41:16Z</time>
      </trkpt>
      <trkpt lat="44.68126" lon="6.97879">
        <ele>2688</ele>
        <time>2019-04-18T15:42:16Z</time>
      </trkpt>
      <trkpt lat="44.68149" lon="6.97879">
        <ele>2692</ele>
        <time>2019-04-18T15:43:16Z</time>
      </trkpt>
      <trkpt lat="44.68224" lon="6.97895">
        <ele>2705</ele>
        <time>2019-04-18T15:44:16Z</time>
      </trkpt>
      <trkpt lat="44.68235" lon="6.97902">
        <ele>2706</ele>
        <time>2019-04-18T15:45:16Z</time>
      </trkpt>
      <trkpt lat="44.6826" lon="6.97927">
        <ele>2707</ele>
        <time>2019-04-18T15:46:16Z</time>
      </trkpt>
      <trkpt lat="44.68322" lon="6.97967">
        <ele>2723</ele>
        <time>2019-04-18T15:47:16Z</time>
      </trkpt>
      <trkpt lat="44.68327" lon="6.97974">
        <ele>2724</ele>
        <time>2019-04-18T15:48:16Z</time>
      </trkpt>
      <trkpt lat="44.68331" lon="6.97985">
        <ele>2724</ele>
        <time>2019-04-18T15:49:16Z</time>
      </trkpt>
      <trkpt lat="44.68334" lon="6.98016">
        <ele>2725</ele>
        <time>2019-04-18T15:50:16Z</time>
      </trkpt>
      <trkpt lat="44.68326" lon="6.98058">
        <ele>2725</ele>
        <time>2019-04-18T15:51:16Z</time>
      </trkpt>
      <trkpt lat="44.68321" lon="6.98101">
        <ele>2726</ele>
        <time>2019-04-18T15:52:16Z</time>
      </trkpt>
      <trkpt lat="44.68307" lon="6.98159">
        <ele>2727</ele>
        <time>2019-04-18T15:53:16Z</time>
      </trkpt>
      <trkpt lat="44.68306" lon="6.98167">
        <ele>2727</ele>
        <time>2019-04-18T15:54:16Z</time>
      </trkpt>
      <trkpt lat="44.68307" lon="6.98172">
        <ele>2726</ele>
        <time>2019-04-18T15:55:16Z</time>
      </trkpt>
      <trkpt lat="44.68311" lon="6.98174">
        <ele>2727</ele>
        <time>2019-04-18T15:56:16Z</time>
      </trkpt>
      <trkpt lat="44.68314" lon="6.98172">
        <ele>2729</ele>
        <time>2019-04-18T15:57:16Z</time>
      </trkpt>
      <trkpt lat="44.68327" lon="6.98133">
        <ele>2732</ele>
        <time>2019-04-18T15:58:16Z</time>
      </trkpt>
      <trkpt lat="44.68345" lon="6.98097">
        <ele>2734</ele>
        <time>2019-04-18T15:59:16Z</time>
      </trkpt>
      <trkpt lat="44.68363" lon="6.98054">
        <ele>2735</ele>
        <time>2019-04-18T16:00:16Z</time>
      </trkpt>
      <trkpt lat="44.68381" lon="6.97965">
        <ele>2732</ele>
        <time>2019-04-18T16:01:16Z</time>
      </trkpt>
      <trkpt lat="44.68387" lon="6.97958">
        <ele>2732</ele>
        <time>2019-04-18T16:02:16Z</time>
      </trkpt>
      <trkpt lat="44.68391" lon="6.97957">
        <ele>2733</ele>
        <time>2019-04-18T16:03:16Z</time>
      </trkpt>
      <trkpt lat="44.68399" lon="6.97958">
        <ele>2734</ele>
        <time>2019-04-18T16:04:16Z</time>
      </trkpt>
      <trkpt lat="44.68417" lon="6.97998">
        <ele>2740</ele>
        <time>2019-04-18T16:05:16Z</time>
      </trkpt>
      <trkpt lat="44.68425" lon="6.98009">
        <ele>2740</ele>
        <time>2019-04-18T16:06:16Z</time>
      </trkpt>
      <trkpt lat="44.68443" lon="6.98028">
        <ele>2740</ele>
        <time>2019-04-18T16:07:16Z</time>
      </trkpt>
      <trkpt lat="44.68454" lon="6.98037">
        <ele>2740</ele>
        <time>2019-04-18T16:08:16Z</time>
      </trkpt>
      <trkpt lat="44.68475" lon="6.98044">
        <ele>2738</ele>
        <time>2019-04-18T16:09:16Z</time>
      </trkpt>
      <trkpt lat="44.68486" lon="6.98044">
        <ele>2736</ele>
        <time>2019-04-18T16:10:16Z</time>
      </trkpt>
      <trkpt lat="44.68501" lon="6.9804">
        <ele>2733</ele>
        <time>2019-04-18T16:11:16Z</time>
      </trkpt>
      <trkpt lat="44.6851" lon="6.98033">
        <ele>2731</ele>
        <time>2019-04-18T16:12:16Z</time>
      </trkpt>
      <trkpt lat="44.68528" lon="6.98007">
        <ele>2727</ele>
        <time>2019-04-18T16:13:16Z</time>
      </trkpt>
      <trkpt lat="44.68534" lon="6.98002">
        <ele>2726</ele>
        <time>2019-04-18T16:14:16Z</time>
      </trkpt>
      <trkpt lat="44.68542" lon="6.98">
        <ele>2726</ele>
        <time>2019-04-18T16:15:16Z</time>
      </trkpt>
      <trkpt lat="44.6859" lon="6.98002">
        <ele>2726</ele>
        <time>2019-04-18T16:16:16Z</time>
      </trkpt>
      <trkpt lat="44.68597" lon="6.97998">
        <ele>2725</ele>
        <time>2019-04-18T16:17:16Z</time>
      </trkpt>
      <trkpt lat="44.68598" lon="6.97993">
        <ele>2724</ele>
        <time>2019-04-18T16:18:16Z</time>
      </trkpt>
      <trkpt lat="44.68597" lon="6.97988">
        <ele>2722</ele>
        <time>2019-04-18T16:19:16Z</time>
      </trkpt>
      <trkpt lat="44.6857" lon="6.97982">
        <ele>2721</ele>
        <time>2019-04-18T16:20:16Z</time>
      </trkpt>
      <trkpt lat="44.68536" lon="6.97968">
        <ele>2718</ele>
        <time>2019-04-18T16:21:16Z</time>
      </trkpt>
      <trkpt lat="44.68518" lon="6.97966">
        <ele>2718</ele>
        <time>2019-04-18T16:22:16Z</time>
      </trkpt>
      <trkpt lat="44.68502" lon="6.97957">
        <ele>2717</ele>
        <time>2019-04-18T16:23:16Z</time>
      </trkpt>
      <trkpt lat="44.68483" lon="6.97942">
        <ele>2718</ele>
        <time>2019-04-18T16:24:16Z</time>
      </trkpt>
      <trkpt lat="44.68474" lon="6.97929">
        <ele>2718</ele>
        <time>2019-04-18T16:25:16Z</time>
      </trkpt>
      <trkpt lat="44.68471" lon="6.97908">
        <ele>2717</ele>
        <time>2019-04-18T16:26:16Z</time>
      </trkpt>
      <trkpt lat="44.68472" lon="6.9789">
        <ele>2715</ele>
        <time>2019-04-18T16:27:16Z</time>
      </trkpt>
      <trkpt lat="44.68489" lon="6.97804">
        <ele>2705</ele>
        <time>2019-04-18T16:28:16Z</time>
      </trkpt>
      <trkpt lat="44.68495" lon="6.97799">
        <ele>2702</ele>
        <time>2019-04-18T16:29:16Z</time>
      </trkpt>
      <trkpt lat="44.685" lon="6.97799">
        <ele>2700</ele>
        <time>2019-04-18T16:30:16Z</time>
      </trkpt>
      <trkpt lat="44.68504" lon="6.97803">
        <ele>2700</ele>
        <time>2019-04-18T16:31:16Z</time>
      </trkpt>
      <trkpt lat="44.68507" lon="6.9781">
        <ele>2700</ele>
        <time>2019-04-18T16:32:16Z</time>
      </trkpt>
      <trkpt lat="44.68511" lon="6.97831">
        <ele>2700</ele>
        <time>2019-04-18T16:33:16Z</time>
      </trkpt>
      <trkpt lat="44.68516" lon="6.97849">
        <ele>2701</ele>
        <time>2019-04-18T16:34:16Z</time>
      </trkpt>
      <trkpt lat="44.68532" lon="6.97878">
        <ele>2702</ele>
        <time>2019-04-18T16:35:16Z</time>
      </trkpt>
      <trkpt lat="44.68538" lon="6.97886">
        <ele>2702</ele>
        <time>2019-04-18T16:36:16Z</time>
      </trkpt>
      <trkpt lat="44.68544" lon="6.97891">
        <ele>2702</ele>
        <time>2019-04-18T16:37:16Z</time>
      </trkpt>
      <trkpt lat="44.68551" lon="6.97891">
        <ele>2701</ele>
        <time>2019-04-18T16:38:16Z</time>
      </trkpt>
      <trkpt lat="44.68569" lon="6.97887">
        <ele>2698</ele>
        <time>2019-04-18T16:39:16Z</time>
      </trkpt>
      <trkpt lat="44.68586" lon="6.97876">
        <ele>2694</ele>
        <time>2019-04-18T16:40:16Z</time>
      </trkpt>
      <trkpt lat="44.68605" lon="6.97857">
        <ele>2688</ele>
        <time>2019-04-18T16:41:16Z</time>
      </trkpt>
      <trkpt lat="44.68617" lon="6.9785">
        <ele>2685</ele>
        <time>2019-04-18T16:42:16Z</time>
      </trkpt>
      <trkpt lat="44.68623" lon="6.97851">
        <ele>2684</ele>
        <time>2019-04-18T16:43:16Z</time>
      </trkpt>
      <trkpt lat="44.68639" lon="6.97863">
        <ele>2684</ele>
        <time>2019-04-18T16:44:16Z</time>
      </trkpt>
      <trkpt lat="44.68652" lon="6.97868">
        <ele>2684</ele>
        <time>2019-04-18T16:45:16Z</time>
      </trkpt>
      <trkpt lat="44.68716" lon="6.9788">
        <ele>2679</ele>
        <time>2019-04-18T16:46:16Z</time>
      </trkpt>
      <trkpt lat="44.68728" lon="6.97881">
        <ele>2678</ele>
        <time>2019-04-18T16:47:16Z</time>
      </trkpt>
      <trkpt lat="44.6879" lon="6.97873">
        <ele>2673</ele>
        <time>2019-04-18T16:48:16Z</time>
      </trkpt>
      <trkpt lat="44.68796" lon="6.9787">
        <ele>2672</ele>
        <time>2019-04-18T16:49:16Z</time>
      </trkpt>
      <trkpt lat="44.68804" lon="6.97861">
        <ele>2670</ele>
        <time>2019-04-18T16:50:16Z</time>
      </trkpt>
      <trkpt lat="44.68809" lon="6.97853">
        <ele>2668</ele>
        <time>2019-04-18T16:51:16Z</time>
      </trkpt>
      <trkpt lat="44.68814" lon="6.97836">
        <ele>2663</ele>
        <time>2019-04-18T16:52:16Z</time>
      </trkpt>
      <trkpt lat="44.68821" lon="6.97787">
        <ele>2655</ele>
        <time>2019-04-18T16:53:16Z</time>
      </trkpt>
      <trkpt lat="44.68825" lon="6.97767">
        <ele>2652</ele>
        <time>2019-04-18T16:54:16Z</time>
      </trkpt>
      <trkpt lat="44.68834" lon="6.97753">
        <ele>2649</ele>
        <time>2019-04-18T16:55:16Z</time>
      </trkpt>
      <trkpt lat="44.68845" lon="6.97752">
        <ele>2649</ele>
        <time>2019-04-18T16:56:16Z</time>
      </trkpt>
      <trkpt lat="44.68856" lon="6.97757">
        <ele>2649</ele>
        <time>2019-04-18T16:57:16Z</time>
      </trkpt>
      <trkpt lat="44.68866" lon="6.97764">
        <ele>2650</ele>
        <time>2019-04-18T16:58:16Z</time>
      </trkpt>
      <trkpt lat="44.68874" lon="6.97767">
        <ele>2650</ele>
        <time>2019-04-18T16:59:16Z</time>
      </trkpt>
      <trkpt lat="44.68956" lon="6.97765">
        <ele>2647</ele>
        <time>2019-04-18T17:00:16Z</time>
      </trkpt>
      <trkpt lat="44.68986" lon="6.97769">
        <ele>2647</ele>
        <time>2019-04-18T17:01:16Z</time>
      </trkpt>
      <trkpt lat="44.69008" lon="6.97769">
        <ele>2648</ele>
        <time>2019-04-18T17:02:16Z</time>
      </trkpt>
      <trkpt lat="44.6902" lon="6.97764">
        <ele>2648</ele>
        <time>2019-04-18T17:03:16Z</time>
      </trkpt>
      <trkpt lat="44.69045" lon="6.97743">
        <ele>2646</ele>
        <time>2019-04-18T17:04:16Z</time>
      </trkpt>
      <trkpt lat="44.69051" lon="6.97731">
        <ele>2644</ele>
        <time>2019-04-18T17:05:16Z</time>
      </trkpt>
      <trkpt lat="44.69054" lon="6.97716">
        <ele>2642</ele>
        <time>2019-04-18T17:06:16Z</time>
      </trkpt>
      <trkpt lat="44.69055" lon="6.97684">
        <ele>2637</ele>
        <time>2019-04-18T17:07:16Z</time>
      </trkpt>
      <trkpt lat="44.69053" lon="6.97671">
        <ele>2634</ele>
        <time>2019-04-18T17:08:16Z</time>
      </trkpt>
      <trkpt lat="44.69045" lon="6.97647">
        <ele>2632</ele>
        <time>2019-04-18T17:09:16Z</time>
      </trkpt>
      <trkpt lat="44.6901" lon="6.97568">
        <ele>2623</ele>
        <time>2019-04-18T17:10:16Z</time>
      </trkpt>
      <trkpt lat="44.69008" lon="6.97557">
        <ele>2622</ele>
        <time>2019-04-18T17:11:16Z</time>
      </trkpt>
      <trkpt lat="44.69008" lon="6.97547">
        <ele>2620</ele>
        <time>2019-04-18T17:12:16Z</time>
      </trkpt>
      <trkpt lat="44.69012" lon="6.97518">
        <ele>2618</ele>
        <time>2019-04-18T17:13:16Z</time>
      </trkpt>
      <trkpt lat="44.69012" lon="6.97505">
        <ele>2616</ele>
        <time>2019-04-18T17:14:16Z</time>
      </trkpt>
      <trkpt lat="44.69006" lon="6.9745">
        <ele>2608</ele>
        <time>2019-04-18T17:15:16Z</time>
      </trkpt>
      <trkpt lat="44.69013" lon="6.9743">
        <ele>2606</ele>
        <time>2019-04-18T17:16:16Z</time>
      </trkpt>
      <trkpt lat="44.69032" lon="6.97406">
        <ele>2604</ele>
        <time>2019-04-18T17:17:16Z</time>
      </trkpt>
      <trkpt lat="44.69063" lon="6.97379">
        <ele>2601</ele>
        <time>2019-04-18T17:18:16Z</time>
      </trkpt>
      <trkpt lat="44.69092" lon="6.97358">
        <ele>2599</ele>
        <time>2019-04-18T17:19:16Z</time>
      </trkpt>
      <trkpt lat="44.69132" lon="6.9734">
        <ele>2601</ele>
        <time>2019-04-18T17:20:16Z</time>
      </trkpt>
      <trkpt lat="44.69144" lon="6.97327">
        <ele>2600</ele>
        <time>2019-04-18T17:21:16Z</time>
      </trkpt>
      <trkpt lat="44.69149" lon="6.97313">
        <ele>2599</ele>
        <time>2019-04-18T17:22:16Z</time>
      </trkpt>
      <trkpt lat="44.69149" lon="6.97305">
        <ele>2598</ele>
        <time>2019-04-18T17:23:16Z</time>
      </trkpt>
      <trkpt lat="44.69143" lon="6.97286">
        <ele>2594</ele>
        <time>2019-04-18T17:24:16Z</time>
      </trkpt>
      <trkpt lat="44.69142" lon="6.97274">
        <ele>2593</ele>
        <time>2019-04-18T17:25:16Z</time>
      </trkpt>
      <trkpt lat="44.69142" lon="6.97264">
        <ele>2591</ele>
        <time>2019-04-18T17:26:16Z</time>
      </trkpt>
      <trkpt lat="44.69154" lon="6.97198">
        <ele>2585</ele>
        <time>2019-04-18T17:27:16Z</time>
      </trkpt>
      <trkpt lat="44.69164" lon="6.97168">
        <ele>2582</ele>
        <time>2019-04-18T17:28:16Z</time>
      </trkpt>
      <trkpt lat="44.69174" lon="6.97154">
        <ele>2582</ele>
        <time>2019-04-18T17:29:16Z</time>
      </trkpt>
      <trkpt lat="44.69187" lon="6.97141">
        <ele>2583</ele>
        <time>2019-04-18T17:30:16Z</time>
      </trkpt>
      <trkpt lat="44.69192" lon="6.97135">
        <ele>2584</ele>
        <time>2019-04-18T17:31:16Z</time>
      </trkpt>
      <trkpt lat="44.69193" lon="6.97129">
        <ele>2583</ele>
        <time>2019-04-18T17:32:16Z</time>
      </trkpt>
      <trkpt lat="44.69192" lon="6.97125">
        <ele>2582</ele>
        <time>2019-04-18T17:33:16Z</time>
      </trkpt>
      <trkpt lat="44.69188" lon="6.97122">
        <ele>2581</ele>
        <time>2019-04-18T17:34:16Z</time>
      </trkpt>
      <trkpt lat="44.6918" lon="6.97126">
        <ele>2580</ele>
        <time>2019-04-18T17:35:16Z</time>
      </trkpt>
      <trkpt lat="44.69168" lon="6.97136">
        <ele>2578</ele>
        <time>2019-04-18T17:36:16Z</time>
      </trkpt>
      <trkpt lat="44.69157" lon="6.97142">
        <ele>2578</ele>
        <time>2019-04-18T17:37:16Z</time>
      </trkpt>
      <trkpt lat="44.69145" lon="6.97142">
        <ele>2576</ele>
        <time>2019-04-18T17:38:16Z</time>
      </trkpt>
      <trkpt lat="44.6914" lon="6.97139">
        <ele>2576</ele>
        <time>2019-04-18T17:39:16Z</time>
      </trkpt>
      <trkpt lat="44.69138" lon="6.97134">
        <ele>2575</ele>
        <time>2019-04-18T17:40:16Z</time>
      </trkpt>
      <trkpt lat="44.69139" lon="6.97128">
        <ele>2574</ele>
        <time>2019-04-18T17:41:16Z</time>
      </trkpt>
      <trkpt lat="44.69143" lon="6.97119">
        <ele>2574</ele>
        <time>2019-04-18T17:42:16Z</time>
      </trkpt>
      <trkpt lat="44.69173" lon="6.9708">
        <ele>2572</ele>
        <time>2019-04-18T17:43:16Z</time>
      </trkpt>
      <trkpt lat="44.69191" lon="6.97045">
        <ele>2571</ele>
        <time>2019-04-18T17:44:16Z</time>
      </trkpt>
      <trkpt lat="44.69193" lon="6.97033">
        <ele>2570</ele>
        <time>2019-04-18T17:45:16Z</time>
      </trkpt>
      <trkpt lat="44.69199" lon="6.96969">
        <ele>2561</ele>
        <time>2019-04-18T17:46:16Z</time>
      </trkpt>
      <trkpt lat="44.69204" lon="6.96939">
        <ele>2558</ele>
        <time>2019-04-18T17:47:16Z</time>
      </trkpt>
      <trkpt lat="44.69231" lon="6.96877">
        <ele>2556</ele>
        <time>2019-04-18T17:48:16Z</time>
      </trkpt>
      <trkpt lat="44.69233" lon="6.96859">
        <ele>2554</ele>
        <time>2019-04-18T17:49:16Z</time>
      </trkpt>
      <trkpt lat="44.69232" lon="6.96845">
        <ele>2552</ele>
        <time>2019-04-18T17:50:16Z</time>
      </trkpt>
      <trkpt lat="44.69222" lon="6.96799">
        <ele>2544</ele>
        <time>2019-04-18T17:51:16Z</time>
      </trkpt>
      <trkpt lat="44.6922" lon="6.96778">
        <ele>2541</ele>
        <time>2019-04-18T17:52:16Z</time>
      </trkpt>
      <trkpt lat="44.69222" lon="6.96766">
        <ele>2541</ele>
        <time>2019-04-18T17:53:16Z</time>
      </trkpt>
      <trkpt lat="44.69225" lon="6.96754">
        <ele>2541</ele>
        <time>2019-04-18T17:54:16Z</time>
      </trkpt>
      <trkpt lat="44.69234" lon="6.96735">
        <ele>2542</ele>
        <time>2019-04-18T17:55:16Z</time>
      </trkpt>
      <trkpt lat="44.69237" lon="6.96724">
        <ele>2542</ele>
        <time>2019-04-18T17:56:16Z</time>
      </trkpt>
      <trkpt lat="44.6924" lon="6.96671">
        <ele>2539</ele>
        <time>2019-04-18T17:57:16Z</time>
      </trkpt>
      <trkpt lat="44.6925" lon="6.9659">
        <ele>2531</ele>
        <time>2019-04-18T17:58:16Z</time>
      </trkpt>
      <trkpt lat="44.69253" lon="6.96572">
        <ele>2529</ele>
        <time>2019-04-18T17:59:16Z</time>
      </trkpt>
      <trkpt lat="44.69272" lon="6.96504">
        <ele>2526</ele>
        <time>2019-04-18T18:00:16Z</time>
      </trkpt>
      <trkpt lat="44.69288" lon="6.96457">
        <ele>2524</ele>
        <time>2019-04-18T18:01:16Z</time>
      </trkpt>
      <trkpt lat="44.69288" lon="6.96452">
        <ele>2523</ele>
        <time>2019-04-18T18:02:16Z</time>
      </trkpt>
      <trkpt lat="44.69284" lon="6.96446">
        <ele>2521</ele>
        <time>2019-04-18T18:03:16Z</time>
      </trkpt>
      <trkpt lat="44.6928" lon="6.96448">
        <ele>2520</ele>
        <time>2019-04-18T18:04:16Z</time>
      </trkpt>
      <trkpt lat="44.69273" lon="6.96458">
        <ele>2519</ele>
        <time>2019-04-18T18:05:16Z</time>
      </trkpt>
      <trkpt lat="44.69259" lon="6.96487">
        <ele>2519</ele>
        <time>2019-04-18T18:06:16Z</time>
      </trkpt>
      <trkpt lat="44.69203" lon="6.96579">
        <ele>2517</ele>
        <time>2019-04-18T18:07:16Z</time>
      </trkpt>
      <trkpt lat="44.69191" lon="6.96595">
        <ele>2516</ele>
        <time>2019-04-18T18:08:16Z</time>
      </trkpt>
      <trkpt lat="44.69184" lon="6.96596">
        <ele>2514</ele>
        <time>2019-04-18T18:09:16Z</time>
      </trkpt>
      <trkpt lat="44.69182" lon="6.96588">
        <ele>2513</ele>
        <time>2019-04-18T18:10:16Z</time>
      </trkpt>
      <trkpt lat="44.69193" lon="6.96557">
        <ele>2510</ele>
        <time>2019-04-18T18:11:16Z</time>
      </trkpt>
      <trkpt lat="44.69203" lon="6.96523">
        <ele>2507</ele>
        <time>2019-04-18T18:12:16Z</time>
      </trkpt>
      <trkpt lat="44.69226" lon="6.96422">
        <ele>2497</ele>
        <time>2019-04-18T18:13:16Z</time>
      </trkpt>
      <trkpt lat="44.69234" lon="6.96396">
        <ele>2494</ele>
        <time>2019-04-18T18:14:16Z</time>
      </trkpt>
      <trkpt lat="44.69258" lon="6.96333">
        <ele>2486</ele>
        <time>2019-04-18T18:15:16Z</time>
      </trkpt>
      <trkpt lat="44.69305" lon="6.96222">
        <ele>2479</ele>
        <time>2019-04-18T18:16:16Z</time>
      </trkpt>
      <trkpt lat="44.69315" lon="6.96201">
        <ele>2477</ele>
        <time>2019-04-18T18:17:16Z</time>
      </trkpt>
      <trkpt lat="44.69336" lon="6.96172">
        <ele>2477</ele>
        <time>2019-04-18T18:18:16Z</time>
      </trkpt>
      <trkpt lat="44.69367" lon="6.9612">
        <ele>2468</ele>
        <time>2019-04-18T18:19:16Z</time>
      </trkpt>
      <trkpt lat="44.69382" lon="6.96098">
        <ele>2465</ele>
        <time>2019-04-18T18:20:16Z</time>
      </trkpt>
      <trkpt lat="44.69398" lon="6.96077">
        <ele>2463</ele>
        <time>2019-04-18T18:21:16Z</time>
      </trkpt>
      <trkpt lat="44.69411" lon="6.96056">
        <ele>2461</ele>
        <time>2019-04-18T18:22:16Z</time>
      </trkpt>
      <trkpt lat="44.69424" lon="6.96034">
        <ele>2459</ele>
        <time>2019-04-18T18:23:16Z</time>
      </trkpt>
      <trkpt lat="44.69433" lon="6.96013">
        <ele>2456</ele>
        <time>2019-04-18T18:24:16Z</time>
      </trkpt>
      <trkpt lat="44.69439" lon="6.95993">
        <ele>2454</ele>
        <time>2019-04-18T18:25:16Z</time>
      </trkpt>
      <trkpt lat="44.69442" lon="6.95975">
        <ele>2452</ele>
        <time>2019-04-18T18:26:16Z</time>
      </trkpt>
      <trkpt lat="44.69441" lon="6.95929">
        <ele>2445</ele>
        <time>2019-04-18T18:27:16Z</time>
      </trkpt>
      <trkpt lat="44.69445" lon="6.95896">
        <ele>2442</ele>
        <time>2019-04-18T18:28:16Z</time>
      </trkpt>
      <trkpt lat="44.69465" lon="6.95813">
        <ele>2439</ele>
        <time>2019-04-18T18:29:16Z</time>
      </trkpt>
      <trkpt lat="44.6947" lon="6.95799">
        <ele>2439</ele>
        <time>2019-04-18T18:30:16Z</time>
      </trkpt>
      <trkpt lat="44.69502" lon="6.95738">
        <ele>2437</ele>
        <time>2019-04-18T18:31:16Z</time>
      </trkpt>
      <trkpt lat="44.69555" lon="6.95681">
        <ele>2433</ele>
        <time>2019-04-18T18:32:16Z</time>
      </trkpt>
      <trkpt lat="44.69571" lon="6.95661">
        <ele>2430</ele>
        <time>2019-04-18T18:33:16Z</time>
      </trkpt>
      <trkpt lat="44.6958" lon="6.95645">
        <ele>2428</ele>
        <time>2019-04-18T18:34:16Z</time>
      </trkpt>
      <trkpt lat="44.69589" lon="6.95618">
        <ele>2424</ele>
        <time>2019-04-18T18:35:16Z</time>
      </trkpt>
      <trkpt lat="44.69596" lon="6.95602">
        <ele>2423</ele>
        <time>2019-04-18T18:36:16Z</time>
      </trkpt>
      <trkpt lat="44.69607" lon="6.95582">
        <ele>2422</ele>
        <time>2019-04-18T18:37:16Z</time>
      </trkpt>
      <trkpt lat="44.6963" lon="6.95549">
        <ele>2423</ele>
        <time>2019-04-18T18:38:16Z</time>
      </trkpt>
      <trkpt lat="44.69636" lon="6.95536">
        <ele>2422</ele>
        <time>2019-04-18T18:39:16Z</time>
      </trkpt>
      <trkpt lat="44.69644" lon="6.95513">
        <ele>2420</ele>
        <time>2019-04-18T18:40:16Z</time>
      </trkpt>
      <trkpt lat="44.69653" lon="6.95457">
        <ele>2413</ele>
        <time>2019-04-18T18:41:16Z</time>
      </trkpt>
      <trkpt lat="44.69656" lon="6.95444">
        <ele>2412</ele>
        <time>2019-04-18T18:42:16Z</time>
      </trkpt>
      <trkpt lat="44.69675" lon="6.95405">
        <ele>2413</ele>
        <time>2019-04-18T18:43:16Z</time>
      </trkpt>
      <trkpt lat="44.69683" lon="6.95373">
        <ele>2411</ele>
        <time>2019-04-18T18:44:16Z</time>
      </trkpt>
      <trkpt lat="44.69714" lon="6.95247">
        <ele>2400</ele>
        <time>2019-04-18T18:45:16Z</time>
      </trkpt>
      <trkpt lat="44.6972" lon="6.95213">
        <ele>2396</ele>
        <time>2019-04-18T18:46:16Z</time>
      </trkpt>
      <trkpt lat="44.69727" lon="6.95158">
        <ele>2388</ele>
        <time>2019-04-18T18:47:16Z</time>
      </trkpt>
      <trkpt lat="44.69736" lon="6.95114">
        <ele>2384</ele>
        <time>2019-04-18T18:48:16Z</time>
      </trkpt>
      <trkpt lat="44.69761" lon="6.95027">
        <ele>2378</ele>
        <time>2019-04-18T18:49:16Z</time>
      </trkpt>
      <trkpt lat="44.69778" lon="6.94997">
        <ele>2376</ele>
        <time>2019-04-18T18:50:16Z</time>
      </trkpt>
      <trkpt lat="44.69808" lon="6.94954">
        <ele>2374</ele>
        <time>2019-04-18T18:51:16Z</time>
      </trkpt>
      <trkpt lat="44.69837" lon="6.9493">
        <ele>2375</ele>
        <time>2019-04-18T18:52:16Z</time>
      </trkpt>
      <trkpt lat="44.69841" lon="6.94921">
        <ele>2373</ele>
        <time>2019-04-18T18:53:16Z</time>
      </trkpt>
      <trkpt lat="44.6984" lon="6.94916">
        <ele>2371</ele>
        <time>2019-04-18T18:54:16Z</time>
      </trkpt>
      <trkpt lat="44.69837" lon="6.94913">
        <ele>2370</ele>
        <time>2019-04-18T18:55:16Z</time>
      </trkpt>
      <trkpt lat="44.69827" lon="6.94913">
        <ele>2368</ele>
        <time>2019-04-18T18:56:16Z</time>
      </trkpt>
      <trkpt lat="44.69766" lon="6.94951">
        <ele>2363</ele>
        <time>2019-04-18T18:57:16Z</time>
      </trkpt>
      <trkpt lat="44.69714" lon="6.95015">
        <ele>2359</ele>
        <time>2019-04-18T18:58:16Z</time>
      </trkpt>
      <trkpt lat="44.69694" lon="6.95043">
        <ele>2356</ele>
        <time>2019-04-18T18:59:16Z</time>
      </trkpt>
      <trkpt lat="44.69675" lon="6.95074">
        <ele>2351</ele>
        <time>2019-04-18T19:00:16Z</time>
      </trkpt>
      <trkpt lat="44.69664" lon="6.95095">
        <ele>2349</ele>
        <time>2019-04-18T19:01:16Z</time>
      </trkpt>
      <trkpt lat="44.69644" lon="6.95144">
        <ele>2352</ele>
        <time>2019-04-18T19:02:16Z</time>
      </trkpt>
      <trkpt lat="44.69633" lon="6.95162">
        <ele>2351</ele>
        <time>2019-04-18T19:03:16Z</time>
      </trkpt>
      <trkpt lat="44.69617" lon="6.95175">
        <ele>2348</ele>
        <time>2019-04-18T19:04:16Z</time>
      </trkpt>
      <trkpt lat="44.69608" lon="6.95179">
        <ele>2346</ele>
        <time>2019-04-18T19:05:16Z</time>
      </trkpt>
      <trkpt lat="44.69596" lon="6.95176">
        <ele>2341</ele>
        <time>2019-04-18T19:06:16Z</time>
      </trkpt>
      <trkpt lat="44.69592" lon="6.95171">
        <ele>2339</ele>
        <time>2019-04-18T19:07:16Z</time>
      </trkpt>
      <trkpt lat="44.69589" lon="6.95163">
        <ele>2337</ele>
        <time>2019-04-18T19:08:16Z</time>
      </trkpt>
      <trkpt lat="44.69586" lon="6.95075">
        <ele>2327</ele>
        <time>2019-04-18T19:09:16Z</time>
      </trkpt>
      <trkpt lat="44.69587" lon="6.95039">
        <ele>2325</ele>
        <time>2019-04-18T19:10:16Z</time>
      </trkpt>
      <trkpt lat="44.69599" lon="6.94981">
        <ele>2323</ele>
        <time>2019-04-18T19:11:16Z</time>
      </trkpt>
      <trkpt lat="44.69599" lon="6.94946">
        <ele>2319</ele>
        <time>2019-04-18T19:12:16Z</time>
      </trkpt>
      <trkpt lat="44.69602" lon="6.94925">
        <ele>2317</ele>
        <time>2019-04-18T19:13:16Z</time>
      </trkpt>
      <trkpt lat="44.69612" lon="6.94907">
        <ele>2317</ele>
        <time>2019-04-18T19:14:16Z</time>
      </trkpt>
      <trkpt lat="44.69628" lon="6.94894">
        <ele>2317</ele>
        <time>2019-04-18T19:15:16Z</time>
      </trkpt>
      <trkpt lat="44.69637" lon="6.94882">
        <ele>2317</ele>
        <time>2019-04-18T19:16:16Z</time>
      </trkpt>
      <trkpt lat="44.69681" lon="6.94784">
        <ele>2302</ele>
        <time>2019-04-18T19:17:16Z</time>
      </trkpt>
      <trkpt lat="44.69689" lon="6.94769">
        <ele>2300</ele>
        <time>2019-04-18T19:18:16Z</time>
      </trkpt>
      <trkpt lat="44.69699" lon="6.94762">
        <ele>2299</ele>
        <time>2019-04-18T19:19:16Z</time>
      </trkpt>
      <trkpt lat="44.69705" lon="6.94762">
        <ele>2299</ele>
        <time>2019-04-18T19:20:16Z</time>
      </trkpt>
      <trkpt lat="44.69734" lon="6.94773">
        <ele>2304</ele>
        <time>2019-04-18T19:21:16Z</time>
      </trkpt>
      <trkpt lat="44.69744" lon="6.94775">
        <ele>2305</ele>
        <time>2019-04-18T19:22:16Z</time>
      </trkpt>
      <trkpt lat="44.69755" lon="6.94774">
        <ele>2306</ele>
        <time>2019-04-18T19:23:16Z</time>
      </trkpt>
      <trkpt lat="44.69762" lon="6.94771">
        <ele>2307</ele>
        <time>2019-04-18T19:24:16Z</time>
      </trkpt>
      <trkpt lat="44.6977" lon="6.94764">
        <ele>2306</ele>
        <time>2019-04-18T19:25:16Z</time>
      </trkpt>
      <trkpt lat="44.69776" lon="6.94755">
        <ele>2305</ele>
        <time>2019-04-18T19:26:16Z</time>
      </trkpt>
      <trkpt lat="44.69808" lon="6.94692">
        <ele>2295</ele>
        <time>2019-04-18T19:27:16Z</time>
      </trkpt>
      <trkpt lat="44.69825" lon="6.94653">
        <ele>2287</ele>
        <time>2019-04-18T19:28:16Z</time>
      </trkpt>
      <trkpt lat="44.6984" lon="6.94624">
        <ele>2282</ele>
        <time>2019-04-18T19:29:16Z</time>
      </trkpt>
      <trkpt lat="44.69847" lon="6.94616">
        <ele>2281</ele>
        <time>2019-04-18T19:30:16Z</time>
      </trkpt>
      <trkpt lat="44.69859" lon="6.94608">
        <ele>2280</ele>
        <time>2019-04-18T19:31:16Z</time>
      </trkpt>
      <trkpt lat="44.69888" lon="6.94592">
        <ele>2279</ele>
        <time>2019-04-18T19:32:16Z</time>
      </trkpt>
      <trkpt lat="44.69925" lon="6.94576">
        <ele>2281</ele>
        <time>2019-04-18T19:33:16Z</time>
      </trkpt>
      <trkpt lat="44.69929" lon="6.94564">
        <ele>2280</ele>
        <time>2019-04-18T19:34:16Z</time>
      </trkpt>
      <trkpt lat="44.69928" lon="6.94512">
        <ele>2274</ele>
        <time>2019-04-18T19:35:16Z</time>
      </trkpt>
      <trkpt lat="44.69942" lon="6.94449">
        <ele>2271</ele>
        <time>2019-04-18T19:36:16Z</time>
      </trkpt>
      <trkpt lat="44.69946" lon="6.94388">
        <ele>2266</ele>
        <time>2019-04-18T19:37:16Z</time>
      </trkpt>
      <trkpt lat="44.69975" lon="6.94321">
        <ele>2264</ele>
        <time>2019-04-18T19:38:16Z</time>
      </trkpt>
      <trkpt lat="44.69995" lon="6.94191">
        <ele>2253</ele>
        <time>2019-04-18T19:39:16Z</time>
      </trkpt>
      <trkpt lat="44.70004" lon="6.94157">
        <ele>2251</ele>
        <time>2019-04-18T19:40:16Z</time>
      </trkpt>
      <trkpt lat="44.70043" lon="6.94065">
        <ele>2249</ele>
        <time>2019-04-18T19:41:16Z</time>
      </trkpt>
      <trkpt lat="44.70071" lon="6.93989">
        <ele>2242</ele>
        <time>2019-04-18T19:42:16Z</time>
      </trkpt>
      <trkpt lat="44.70093" lon="6.93945">
        <ele>2235</ele>
        <time>2019-04-18T19:43:16Z</time>
      </trkpt>
      <trkpt lat="44.70149" lon="6.93884">
        <ele>2234</ele>
        <time>2019-04-18T19:44:16Z</time>
      </trkpt>
      <trkpt lat="44.70176" lon="6.9383">
        <ele>2227</ele>
        <time>2019-04-18T19:45:16Z</time>
      </trkpt>
      <trkpt lat="44.70244" lon="6.93739">
        <ele>2221</ele>
        <time>2019-04-18T19:46:16Z</time>
      </trkpt>
      <trkpt lat="44.70296" lon="6.93666">
        <ele>2220</ele>
        <time>2019-04-18T19:47:16Z</time>
      </trkpt>
      <trkpt lat="44.70305" lon="6.93652">
        <ele>2219</ele>
        <time>2019-04-18T19:48:16Z</time>
      </trkpt>
      <trkpt lat="44.70334" lon="6.93575">
        <ele>2209</ele>
        <time>2019-04-18T19:49:16Z</time>
      </trkpt>
      <trkpt lat="44.70349" lon="6.93513">
        <ele>2204</ele>
        <time>2019-04-18T19:50:16Z</time>
      </trkpt>
      <trkpt lat="44.70356" lon="6.93492">
        <ele>2203</ele>
        <time>2019-04-18T19:51:16Z</time>
      </trkpt>
      <trkpt lat="44.70394" lon="6.93422">
        <ele>2202</ele>
        <time>2019-04-18T19:52:16Z</time>
      </trkpt>
      <trkpt lat="44.70407" lon="6.93392">
        <ele>2199</ele>
        <time>2019-04-18T19:53:16Z</time>
      </trkpt>
      <trkpt lat="44.70421" lon="6.93345">
        <ele>2192</ele>
        <time>2019-04-18T19:54:16Z</time>
      </trkpt>
      <trkpt lat="44.70432" lon="6.9332">
        <ele>2190</ele>
        <time>2019-04-18T19:55:16Z</time>
      </trkpt>
      <trkpt lat="44.7045" lon="6.93287">
        <ele>2189</ele>
        <time>2019-04-18T19:56:16Z</time>
      </trkpt>
      <trkpt lat="44.70477" lon="6.93226">
        <ele>2184</ele>
        <time>2019-04-18T19:57:16Z</time>
      </trkpt>
      <trkpt lat="44.70484" lon="6.93214">
        <ele>2182</ele>
        <time>2019-04-18T19:58:16Z</time>
      </trkpt>
      <trkpt lat="44.70492" lon="6.93204">
        <ele>2181</ele>
        <time>2019-04-18T19:59:16Z</time>
      </trkpt>
      <trkpt lat="44.70519" lon="6.93182">
        <ele>2179</ele>
        <time>2019-04-18T20:00:16Z</time>
      </trkpt>
      <trkpt lat="44.70528" lon="6.93171">
        <ele>2178</ele>
        <time>2019-04-18T20:01:16Z</time>
      </trkpt>
      <trkpt lat="44.70536" lon="6.93153">
        <ele>2178</ele>
        <time>2019-04-18T20:02:16Z</time>
      </trkpt>
      <trkpt lat="44.70564" lon="6.93058">
        <ele>2174</ele>
        <time>2019-04-18T20:03:16Z</time>
      </trkpt>
      <trkpt lat="44.70577" lon="6.93025">
        <ele>2172</ele>
        <time>2019-04-18T20:04:16Z</time>
      </trkpt>
      <trkpt lat="44.70586" lon="6.93006">
        <ele>2171</ele>
        <time>2019-04-18T20:05:16Z</time>
      </trkpt>
      <trkpt lat="44.7063" lon="6.92938">
        <ele>2173</ele>
        <time>2019-04-18T20:06:16Z</time>
      </trkpt>
      <trkpt lat="44.70665" lon="6.92899">
        <ele>2172</ele>
        <time>2019-04-18T20:07:16Z</time>
      </trkpt>
      <trkpt lat="44.7067" lon="6.92889">
        <ele>2171</ele>
        <time>2019-04-18T20:08:16Z</time>
      </trkpt>
      <trkpt lat="44.70676" lon="6.92871">
        <ele>2171</ele>
        <time>2019-04-18T20:09:16Z</time>
      </trkpt>
      <trkpt lat="44.70691" lon="6.92805">
        <ele>2169</ele>
        <time>2019-04-18T20:10:16Z</time>
      </trkpt>
      <trkpt lat="44.70711" lon="6.92736">
        <ele>2169</ele>
        <time>2019-04-18T20:11:16Z</time>
      </trkpt>
      <trkpt lat="44.70718" lon="6.92693">
        <ele>2166</ele>
        <time>2019-04-18T20:12:16Z</time>
      </trkpt>
      <trkpt lat="44.70722" lon="6.92675">
        <ele>2165</ele>
        <time>2019-04-18T20:13:16Z</time>
      </trkpt>
      <trkpt lat="44.70745" lon="6.92612">
        <ele>2157</ele>
        <time>2019-04-18T20:14:16Z</time>
      </trkpt>
      <trkpt lat="44.7078" lon="6.92531">
        <ele>2156</ele>
        <time>2019-04-18T20:15:16Z</time>
      </trkpt>
      <trkpt lat="44.7082" lon="6.92447">
        <ele>2147</ele>
        <time>2019-04-18T20:16:16Z</time>
      </trkpt>
      <trkpt lat="44.70854" lon="6.92397">
        <ele>2140</ele>
        <time>2019-04-18T20:17:16Z</time>
      </trkpt>
      <trkpt lat="44.70878" lon="6.92347">
        <ele>2134</ele>
        <time>2019-04-18T20:18:16Z</time>
      </trkpt>
      <trkpt lat="44.70893" lon="6.92325">
        <ele>2131</ele>
        <time>2019-04-18T20:19:16Z</time>
      </trkpt>
      <trkpt lat="44.7091" lon="6.92308">
        <ele>2128</ele>
        <time>2019-04-18T20:20:16Z</time>
      </trkpt>
      <trkpt lat="44.70921" lon="6.923">
        <ele>2126</ele>
        <time>2019-04-18T20:21:16Z</time>
      </trkpt>
      <trkpt lat="44.70947" lon="6.92289">
        <ele>2124</ele>
        <time>2019-04-18T20:22:16Z</time>
      </trkpt>
      <trkpt lat="44.71002" lon="6.92276">
        <ele>2119</ele>
        <time>2019-04-18T20:23:16Z</time>
      </trkpt>
      <trkpt lat="44.71031" lon="6.92261">
        <ele>2116</ele>
        <time>2019-04-18T20:24:16Z</time>
      </trkpt>
      <trkpt lat="44.71044" lon="6.9225">
        <ele>2114</ele>
        <time>2019-04-18T20:25:16Z</time>
      </trkpt>
      <trkpt lat="44.71057" lon="6.92234">
        <ele>2113</ele>
        <time>2019-04-18T20:26:16Z</time>
      </trkpt>
      <trkpt lat="44.71096" lon="6.92177">
        <ele>2107</ele>
        <time>2019-04-18T20:27:16Z</time>
      </trkpt>
      <trkpt lat="44.71152" lon="6.92114">
        <ele>2103</ele>
        <time>2019-04-18T20:28:16Z</time>
      </trkpt>
      <trkpt lat="44.71183" lon="6.92069">
        <ele>2102</ele>
        <time>2019-04-18T20:29:16Z</time>
      </trkpt>
      <trkpt lat="44.71214" lon="6.92016">
        <ele>2102</ele>
        <time>2019-04-18T20:30:16Z</time>
      </trkpt>
      <trkpt lat="44.71228" lon="6.91983">
        <ele>2100</ele>
        <time>2019-04-18T20:31:16Z</time>
      </trkpt>
      <trkpt lat="44.71242" lon="6.91941">
        <ele>2095</ele>
        <time>2019-04-18T20:32:16Z</time>
      </trkpt>
      <trkpt lat="44.71253" lon="6.91918">
        <ele>2093</ele>
        <time>2019-04-18T20:33:16Z</time>
      </trkpt>
      <trkpt lat="44.71267" lon="6.91896">
        <ele>2093</ele>
        <time>2019-04-18T20:34:16Z</time>
      </trkpt>
      <trkpt lat="44.71291" lon="6.91869">
        <ele>2093</ele>
        <time>2019-04-18T20:35:16Z</time>
      </trkpt>
      <trkpt lat="44.71332" lon="6.91828">
        <ele>2089</ele>
        <time>2019-04-18T20:36:16Z</time>
      </trkpt>
      <trkpt lat="44.71365" lon="6.91786">
        <ele>2091</ele>
        <time>2019-04-18T20:37:16Z</time>
      </trkpt>
      <trkpt lat="44.71414" lon="6.9172">
        <ele>2087</ele>
        <time>2019-04-18T20:38:16Z</time>
      </trkpt>
      <trkpt lat="44.71472" lon="6.91655">
        <ele>2089</ele>
        <time>2019-04-18T20:39:16Z</time>
      </trkpt>
      <trkpt lat="44.71479" lon="6.91645">
        <ele>2089</ele>
        <time>2019-04-18T20:40:16Z</time>
      </trkpt>
      <trkpt lat="44.71491" lon="6.91618">
        <ele>2087</ele>
        <time>2019-04-18T20:41:16Z</time>
      </trkpt>
      <trkpt lat="44.71498" lon="6.91596">
        <ele>2085</ele>
        <time>2019-04-18T20:42:16Z</time>
      </trkpt>
      <trkpt lat="44.7151" lon="6.91535">
        <ele>2084</ele>
        <time>2019-04-18T20:43:16Z</time>
      </trkpt>
      <trkpt lat="44.71518" lon="6.91513">
        <ele>2084</ele>
        <time>2019-04-18T20:44:16Z</time>
      </trkpt>
      <trkpt lat="44.71538" lon="6.9147">
        <ele>2083</ele>
        <time>2019-04-18T20:45:16Z</time>
      </trkpt>
      <trkpt lat="44.71556" lon="6.91439">
        <ele>2079</ele>
        <time>2019-04-18T20:46:16Z</time>
      </trkpt>
      <trkpt lat="44.71569" lon="6.91422">
        <ele>2075</ele>
        <time>2019-04-18T20:47:16Z</time>
      </trkpt>
      <trkpt lat="44.71594" lon="6.91397">
        <ele>2072</ele>
        <time>2019-04-18T20:48:16Z</time>
      </trkpt>
      <trkpt lat="44.71605" lon="6.91382">
        <ele>2072</ele>
        <time>2019-04-18T20:49:16Z</time>
      </trkpt>
      <trkpt lat="44.71612" lon="6.91369">
        <ele>2072</ele>
        <time>2019-04-18T20:50:16Z</time>
      </trkpt>
      <trkpt lat="44.7164" lon="6.91292">
        <ele>2067</ele>
        <time>2019-04-18T20:51:16Z</time>
      </trkpt>
      <trkpt lat="44.71646" lon="6.91273">
        <ele>2065</ele>
        <time>2019-04-18T20:52:16Z</time>
      </trkpt>
      <trkpt lat="44.71669" lon="6.91183">
        <ele>2059</ele>
        <time>2019-04-18T20:53:16Z</time>
      </trkpt>
      <trkpt lat="44.71682" lon="6.91147">
        <ele>2058</ele>
        <time>2019-04-18T20:54:16Z</time>
      </trkpt>
      <trkpt lat="44.71699" lon="6.91117">
        <ele>2057</ele>
        <time>2019-04-18T20:55:16Z</time>
      </trkpt>
      <trkpt lat="44.71752" lon="6.91035">
        <ele>2053</ele>
        <time>2019-04-18T20:56:16Z</time>
      </trkpt>
      <trkpt lat="44.71759" lon="6.91014">
        <ele>2053</ele>
        <time>2019-04-18T20:57:16Z</time>
      </trkpt>
      <trkpt lat="44.71774" lon="6.90938">
        <ele>2052</ele>
        <time>2019-04-18T20:58:16Z</time>
      </trkpt>
      <trkpt lat="44.71795" lon="6.90845">
        <ele>2046</ele>
        <time>2019-04-18T20:59:16Z</time>
      </trkpt>
      <trkpt lat="44.71811" lon="6.9071">
        <ele>2038</ele>
        <time>2019-04-18T21:00:16Z</time>
      </trkpt>
      <trkpt lat="44.71817" lon="6.90672">
        <ele>2035</ele>
        <time>2019-04-18T21:01:16Z</time>
      </trkpt>
      <trkpt lat="44.71824" lon="6.90641">
        <ele>2034</ele>
        <time>2019-04-18T21:02:16Z</time>
      </trkpt>
      <trkpt lat="44.71845" lon="6.90586">
        <ele>2032</ele>
        <time>2019-04-18T21:03:16Z</time>
      </trkpt>
      <trkpt lat="44.71892" lon="6.90478">
        <ele>2030</ele>
        <time>2019-04-18T21:04:16Z</time>
      </trkpt>
      <trkpt lat="44.71912" lon="6.90428">
        <ele>2027</ele>
        <time>2019-04-18T21:05:16Z</time>
      </trkpt>
      <trkpt lat="44.71931" lon="6.90372">
        <ele>2026</ele>
        <time>2019-04-18T21:06:16Z</time>
      </trkpt>
      <trkpt lat="44.71937" lon="6.90336">
        <ele>2026</ele>
        <time>2019-04-18T21:07:16Z</time>
      </trkpt>
      <trkpt lat="44.71937" lon="6.90273">
        <ele>2026</ele>
        <time>2019-04-18T21:08:16Z</time>
      </trkpt>
      <trkpt lat="44.71935" lon="6.90245">
        <ele>2026</ele>
        <time>2019-04-18T21:09:16Z</time>
      </trkpt>
      <trkpt lat="44.71939" lon="6.90217">
        <ele>2026</ele>
        <time>2019-04-18T21:10:16Z</time>
      </trkpt>
      <trkpt lat="44.7196" lon="6.90109">
        <ele>2025</ele>
        <time>2019-04-18T21:11:16Z</time>
      </trkpt>
      <trkpt lat="44.71964" lon="6.90044">
        <ele>2021</ele>
        <time>2019-04-18T21:12:16Z</time>
      </trkpt>
      <trkpt lat="44.71971" lon="6.90001">
        <ele>2018</ele>
        <time>2019-04-18T21:13:16Z</time>
      </trkpt>
      <trkpt lat="44.72" lon="6.899">
        <ele>2012</ele>
        <time>2019-04-18T21:14:16Z</time>
      </trkpt>
      <trkpt lat="44.72012" lon="6.89819">
        <ele>2013</ele>
        <time>2019-04-18T21:15:16Z</time>
      </trkpt>
      <trkpt lat="44.72015" lon="6.89721">
        <ele>2016</ele>
        <time>2019-04-18T21:16:16Z</time>
      </trkpt>
      <trkpt lat="44.72021" lon="6.89642">
        <ele>2019</ele>
        <time>2019-04-18T21:17:16Z</time>
      </trkpt>
      <trkpt lat="44.72019" lon="6.89599">
        <ele>2017</ele>
        <time>2019-04-18T21:18:16Z</time>
      </trkpt>
      <trkpt lat="44.7201" lon="6.89537">
        <ele>2014</ele>
        <time>2019-04-18T21:19:16Z</time>
      </trkpt>
      <trkpt lat="44.7201" lon="6.89522">
        <ele>2013</ele>
        <time>2019-04-18T21:20:16Z</time>
      </trkpt>
      <trkpt lat="44.72015" lon="6.89493">
        <ele>2014</ele>
        <time>2019-04-18T21:21:16Z</time>
      </trkpt>
      <trkpt lat="44.72019" lon="6.89479">
        <ele>2015</ele>
        <time>2019-04-18T21:22:16Z</time>
      </trkpt>
      <trkpt lat="44.72044" lon="6.89418">
        <ele>2020</ele>
        <time>2019-04-18T21:23:16Z</time>
      </trkpt>
      <trkpt lat="44.72061" lon="6.89342">
        <ele>2017</ele>
        <time>2019-04-18T21:24:16Z</time>
      </trkpt>
      <trkpt lat="44.72094" lon="6.89227">
        <ele>2015</ele>
        <time>2019-04-18T21:25:16Z</time>
      </trkpt>
      <trkpt lat="44.72112" lon="6.89136">
        <ele>2012</ele>
        <time>2019-04-18T21:26:16Z</time>
      </trkpt>
      <trkpt lat="44.72124" lon="6.89049">
        <ele>2008</ele>
        <time>2019-04-18T21:27:16Z</time>
      </trkpt>
      <trkpt lat="44.72124" lon="6.89015">
        <ele>2007</ele>
        <time>2019-04-18T21:28:16Z</time>
      </trkpt>
      <trkpt lat="44.72122" lon="6.88972">
        <ele>2004</ele>
        <time>2019-04-18T21:29:16Z</time>
      </trkpt>
      <trkpt lat="44.72123" lon="6.88954">
        <ele>2003</ele>
        <time>2019-04-18T21:30:16Z</time>
      </trkpt>
      <trkpt lat="44.72127" lon="6.8894">
        <ele>2003</ele>
        <time>2019-04-18T21:31:16Z</time>
      </trkpt>
      <trkpt lat="44.72133" lon="6.88928">
        <ele>2004</ele>
        <time>2019-04-18T21:32:16Z</time>
      </trkpt>
      <trkpt lat="44.72161" lon="6.88896">
        <ele>2007</ele>
        <time>2019-04-18T21:33:16Z</time>
      </trkpt>
      <trkpt lat="44.7219" lon="6.88835">
        <ele>2003</ele>
        <time>2019-04-18T21:34:16Z</time>
      </trkpt>
      <trkpt lat="44.7226" lon="6.88604">
        <ele>1999</ele>
        <time>2019-04-18T21:35:16Z</time>
      </trkpt>
      <trkpt lat="44.72268" lon="6.88584">
        <ele>1998</ele>
        <time>2019-04-18T21:36:16Z</time>
      </trkpt>
      <trkpt lat="44.72303" lon="6.88545">
        <ele>1996</ele>
        <time>2019-04-18T21:37:16Z</time>
      </trkpt>
      <trkpt lat="44.7231" lon="6.88533">
        <ele>1995</ele>
        <time>2019-04-18T21:38:16Z</time>
      </trkpt>
      <trkpt lat="44.72316" lon="6.88518">
        <ele>1994</ele>
        <time>2019-04-18T21:39:16Z</time>
      </trkpt>
      <trkpt lat="44.72321" lon="6.88502">
        <ele>1994</ele>
        <time>2019-04-18T21:40:16Z</time>
      </trkpt>
      <trkpt lat="44.72324" lon="6.88482">
        <ele>1992</ele>
        <time>2019-04-18T21:41:16Z</time>
      </trkpt>
      <trkpt lat="44.72329" lon="6.88431">
        <ele>1987</ele>
        <time>2019-04-18T21:42:16Z</time>
      </trkpt>
      <trkpt lat="44.72337" lon="6.88367">
        <ele>1985</ele>
        <time>2019-04-18T21:43:16Z</time>
      </trkpt>
      <trkpt lat="44.72348" lon="6.88306">
        <ele>1985</ele>
        <time>2019-04-18T21:44:16Z</time>
      </trkpt>
      <trkpt lat="44.72362" lon="6.88257">
        <ele>1985</ele>
        <time>2019-04-18T21:45:16Z</time>
      </trkpt>
      <trkpt lat="44.7238" lon="6.8821">
        <ele>1983</ele>
        <time>2019-04-18T21:46:16Z</time>
      </trkpt>
      <trkpt lat="44.72424" lon="6.88133">
        <ele>1981</ele>
        <time>2019-04-18T21:47:16Z</time>
      </trkpt>
      <trkpt lat="44.72437" lon="6.88092">
        <ele>1981</ele>
        <time>2019-04-18T21:48:16Z</time>
      </trkpt>
      <trkpt lat="44.72455" lon="6.87982">
        <ele>1978</ele>
        <time>2019-04-18T21:49:16Z</time>
      </trkpt>
      <trkpt lat="44.72458" lon="6.8794">
        <ele>1976</ele>
        <time>2019-04-18T21:50:16Z</time>
      </trkpt>
      <trkpt lat="44.72458" lon="6.87887">
        <ele>1973</ele>
        <time>2019-04-18T21:51:16Z</time>
      </trkpt>
      <trkpt lat="44.72433" lon="6.87745">
        <ele>1961</ele>
        <time>2019-04-18T21:52:16Z</time>
      </trkpt>
      <trkpt lat="44.72436" lon="6.87697">
        <ele>1959</ele>
        <time>2019-04-18T21:53:16Z</time>
      </trkpt>
      <trkpt lat="44.72448" lon="6.87641">
        <ele>1959</ele>
        <time>2019-04-18T21:54:16Z</time>
      </trkpt>
      <trkpt lat="44.72449" lon="6.8762">
        <ele>1957</ele>
        <time>2019-04-18T21:55:16Z</time>
      </trkpt>
      <trkpt lat="44.72445" lon="6.87558">
        <ele>1953</ele>
        <time>2019-04-18T21:56:16Z</time>
      </trkpt>
      <trkpt lat="44.7245" lon="6.87514">
        <ele>1953</ele>
        <time>2019-04-18T21:57:16Z</time>
      </trkpt>
      <trkpt lat="44.72462" lon="6.87475">
        <ele>1952</ele>
        <time>2019-04-18T21:58:16Z</time>
      </trkpt>
      <trkpt lat="44.72498" lon="6.87409">
        <ele>1949</ele>
        <time>2019-04-18T21:59:16Z</time>
      </trkpt>
      <trkpt lat="44.72514" lon="6.87366">
        <ele>1950</ele>
        <time>2019-04-18T22:00:16Z</time>
      </trkpt>
      <trkpt lat="44.72519" lon="6.87299">
        <ele>1944</ele>
        <time>2019-04-18T22:01:16Z</time>
      </trkpt>
      <trkpt lat="44.72531" lon="6.8725">
        <ele>1942</ele>
        <time>2019-04-18T22:02:16Z</time>
      </trkpt>
      <trkpt lat="44.72553" lon="6.87168">
        <ele>1940</ele>
        <time>2019-04-18T22:03:16Z</time>
      </trkpt>
      <trkpt lat="44.72559" lon="6.87134">
        <ele>1939</ele>
        <time>2019-04-18T22:04:16Z</time>
      </trkpt>
      <trkpt lat="44.72562" lon="6.87059">
        <ele>1934</ele>
        <time>2019-04-18T22:05:16Z</time>
      </trkpt>
      <trkpt lat="44.72557" lon="6.86977">
        <ele>1931</ele>
        <time>2019-04-18T22:06:16Z</time>
      </trkpt>
      <trkpt lat="44.72542" lon="6.86918">
        <ele>1928</ele>
        <time>2019-04-18T22:07:16Z</time>
      </trkpt>
      <trkpt lat="44.72533" lon="6.8684">
        <ele>1926</ele>
        <time>2019-04-18T22:08:16Z</time>
      </trkpt>
      <trkpt lat="44.7252" lon="6.86691">
        <ele>1918</ele>
        <time>2019-04-18T22:09:16Z</time>
      </trkpt>
      <trkpt lat="44.72508" lon="6.86636">
        <ele>1916</ele>
        <time>2019-04-18T22:10:16Z</time>
      </trkpt>
      <trkpt lat="44.72482" lon="6.86543">
        <ele>1913</ele>
        <time>2019-04-18T22:11:16Z</time>
      </trkpt>
      <trkpt lat="44.72483" lon="6.86509">
        <ele>1914</ele>
        <time>2019-04-18T22:12:16Z</time>
      </trkpt>
      <trkpt lat="44.72493" lon="6.86452">
        <ele>1915</ele>
        <time>2019-04-18T22:13:16Z</time>
      </trkpt>
      <trkpt lat="44.72491" lon="6.86423">
        <ele>1914</ele>
        <time>2019-04-18T22:14:16Z</time>
      </trkpt>
      <trkpt lat="44.72506" lon="6.86285">
        <ele>1917</ele>
        <time>2019-04-18T22:15:16Z</time>
      </trkpt>
      <trkpt lat="44.72506" lon="6.8627">
        <ele>1917</ele>
        <time>2019-04-18T22:16:16Z</time>
      </trkpt>
      <trkpt lat="44.72495" lon="6.86233">
        <ele>1915</ele>
        <time>2019-04-18T22:17:16Z</time>
      </trkpt>
      <trkpt lat="44.72492" lon="6.8621">
        <ele>1914</ele>
        <time>2019-04-18T22:18:16Z</time>
      </trkpt>
      <trkpt lat="44.7249" lon="6.86171">
        <ele>1914</ele>
        <time>2019-04-18T22:19:16Z</time>
      </trkpt>
      <trkpt lat="44.72487" lon="6.86137">
        <ele>1912</ele>
        <time>2019-04-18T22:20:16Z</time>
      </trkpt>
      <trkpt lat="44.72462" lon="6.86023">
        <ele>1902</ele>
        <time>2019-04-18T22:21:16Z</time>
      </trkpt>
      <trkpt lat="44.72454" lon="6.85993">
        <ele>1900</ele>
        <time>2019-04-18T22:22:16Z</time>
      </trkpt>
      <trkpt lat="44.72445" lon="6.85933">
        <ele>1898</ele>
        <time>2019-04-18T22:23:16Z</time>
      </trkpt>
      <trkpt lat="44.72434" lon="6.85886">
        <ele>1897</ele>
        <time>2019-04-18T22:24:16Z</time>
      </trkpt>
      <trkpt lat="44.72402" lon="6.85789">
        <ele>1890</ele>
        <time>2019-04-18T22:25:16Z</time>
      </trkpt>
      <trkpt lat="44.72388" lon="6.85739">
        <ele>1885</ele>
        <time>2019-04-18T22:26:16Z</time>
      </trkpt>
      <trkpt lat="44.72373" lon="6.85698">
        <ele>1878</ele>
        <time>2019-04-18T22:27:16Z</time>
      </trkpt>
      <trkpt lat="44.72368" lon="6.85669">
        <ele>1875</ele>
        <time>2019-04-18T22:28:16Z</time>
      </trkpt>
      <trkpt lat="44.72366" lon="6.85642">
        <ele>1870</ele>
        <time>2019-04-18T22:29:16Z</time>
      </trkpt>
      <trkpt lat="44.72385" lon="6.8558">
        <ele>1867</ele>
        <time>2019-04-18T22:30:16Z</time>
      </trkpt>
      <trkpt lat="44.72414" lon="6.85523">
        <ele>1866</ele>
        <time>2019-04-18T22:31:16Z</time>
      </trkpt>
      <trkpt lat="44.72476" lon="6.85415">
        <ele>1859</ele>
        <time>2019-04-18T22:32:16Z</time>
      </trkpt>
      <trkpt lat="44.72594" lon="6.8522">
        <ele>1842</ele>
        <time>2019-04-18T22:33:16Z</time>
      </trkpt>
      <trkpt lat="44.72629" lon="6.8517">
        <ele>1840</ele>
        <time>2019-04-18T22:34:16Z</time>
      </trkpt>
      <trkpt lat="44.72655" lon="6.85129">
        <ele>1838</ele>
        <time>2019-04-18T22:35:16Z</time>
      </trkpt>
      <trkpt lat="44.72685" lon="6.8506">
        <ele>1830</ele>
        <time>2019-04-18T22:36:16Z</time>
      </trkpt>
      <trkpt lat="44.72691" lon="6.85039">
        <ele>1827</ele>
        <time>2019-04-18T22:37:16Z</time>
      </trkpt>
      <trkpt lat="44.72801" lon="6.84895">
        <ele>1816</ele>
        <time>2019-04-18T22:38:16Z</time>
      </trkpt>
      <trkpt lat="44.72909" lon="6.84743">
        <ele>1807</ele>
        <time>2019-04-18T22:39:16Z</time>
      </trkpt>
      <trkpt lat="44.72983" lon="6.84621">
        <ele>1798</ele>
        <time>2019-04-18T22:40:16Z</time>
      </trkpt>
      <trkpt lat="44.72985" lon="6.84614">
        <ele>1797</ele>
        <time>2019-04-18T22:41:16Z</time>
      </trkpt>
      <trkpt lat="44.72983" lon="6.84607">
        <ele>1795</ele>
        <time>2019-04-18T22:42:16Z</time>
      </trkpt>
      <trkpt lat="44.72979" lon="6.84603">
        <ele>1794</ele>
        <time>2019-04-18T22:43:16Z</time>
      </trkpt>
      <trkpt lat="44.72973" lon="6.84604">
        <ele>1794</ele>
        <time>2019-04-18T22:44:16Z</time>
      </trkpt>
      <trkpt lat="44.72964" lon="6.84608">
        <ele>1793</ele>
        <time>2019-04-18T22:45:16Z</time>
      </trkpt>
      <trkpt lat="44.72937" lon="6.84631">
        <ele>1793</ele>
        <time>2019-04-18T22:46:16Z</time>
      </trkpt>
      <trkpt lat="44.72905" lon="6.84653">
        <ele>1790</ele>
        <time>2019-04-18T22:47:16Z</time>
      </trkpt>
      <trkpt lat="44.72883" lon="6.84674">
        <ele>1788</ele>
        <time>2019-04-18T22:48:16Z</time>
      </trkpt>
      <trkpt lat="44.72874" lon="6.8468">
        <ele>1787</ele>
        <time>2019-04-18T22:49:16Z</time>
      </trkpt>
      <trkpt lat="44.7287" lon="6.84679">
        <ele>1786</ele>
        <time>2019-04-18T22:50:16Z</time>
      </trkpt>
      <trkpt lat="44.72867" lon="6.84673">
        <ele>1784</ele>
        <time>2019-04-18T22:51:16Z</time>
      </trkpt>
      <trkpt lat="44.72867" lon="6.84666">
        <ele>1783</ele>
        <time>2019-04-18T22:52:16Z</time>
      </trkpt>
      <trkpt lat="44.72869" lon="6.84656">
        <ele>1782</ele>
        <time>2019-04-18T22:53:16Z</time>
      </trkpt>
      <trkpt lat="44.72904" lon="6.8458">
        <ele>1781</ele>
        <time>2019-04-18T22:54:16Z</time>
      </trkpt>
      <trkpt lat="44.72918" lon="6.8456">
        <ele>1780</ele>
        <time>2019-04-18T22:55:16Z</time>
      </trkpt>
      <trkpt lat="44.72948" lon="6.84527">
        <ele>1777</ele>
        <time>2019-04-18T22:56:16Z</time>
      </trkpt>
      <trkpt lat="44.72965" lon="6.84501">
        <ele>1774</ele>
        <time>2019-04-18T22:57:16Z</time>
      </trkpt>
      <trkpt lat="44.72981" lon="6.84464">
        <ele>1771</ele>
        <time>2019-04-18T22:58:16Z</time>
      </trkpt>
      <trkpt lat="44.72995" lon="6.84438">
        <ele>1770</ele>
        <time>2019-04-18T22:59:16Z</time>
      </trkpt>
      <trkpt lat="44.7301" lon="6.84425">
        <ele>1770</ele>
        <time>2019-04-18T23:00:16Z</time>
      </trkpt>
      <trkpt lat="44.73031" lon="6.84405">
        <ele>1769</ele>
        <time>2019-04-18T23:01:16Z</time>
      </trkpt>
      <trkpt lat="44.73042" lon="6.8438">
        <ele>1767</ele>
        <time>2019-04-18T23:02:16Z</time>
      </trkpt>
      <trkpt lat="44.73058" lon="6.84329">
        <ele>1762</ele>
        <time>2019-04-18T23:03:16Z</time>
      </trkpt>
      <trkpt lat="44.73066" lon="6.84289">
        <ele>1758</ele>
        <time>2019-04-18T23:04:16Z</time>
      </trkpt>
      <trkpt lat="44.73096" lon="6.84215">
        <ele>1755</ele>
        <time>2019-04-18T23:05:16Z</time>
      </trkpt>
      <trkpt lat="44.731" lon="6.84193">
        <ele>1754</ele>
        <time>2019-04-18T23:06:16Z</time>
      </trkpt>
      <trkpt lat="44.73098" lon="6.84158">
        <ele>1750</ele>
        <time>2019-04-18T23:07:16Z</time>
      </trkpt>
      <trkpt lat="44.731" lon="6.84125">
        <ele>1746</ele>
        <time>2019-04-18T23:08:16Z</time>
      </trkpt>
      <trkpt lat="44.7312" lon="6.84041">
        <ele>1737</ele>
        <time>2019-04-18T23:09:16Z</time>
      </trkpt>
      <trkpt lat="44.73124" lon="6.84013">
        <ele>1733</ele>
        <time>2019-04-18T23:10:16Z</time>
      </trkpt>
      <trkpt lat="44.73139" lon="6.83996">
        <ele>1732</ele>
        <time>2019-04-18T23:11:16Z</time>
      </trkpt>
      <trkpt lat="44.73274" lon="6.83877">
        <ele>1732</ele>
        <time>2019-04-18T23:12:16Z</time>
      </trkpt>
      <trkpt lat="44.73298" lon="6.83846">
        <ele>1731</ele>
        <time>2019-04-18T23:13:16Z</time>
      </trkpt>
      <trkpt lat="44.73316" lon="6.83821">
        <ele>1730</ele>
        <time>2019-04-18T23:14:16Z</time>
      </trkpt>
      <trkpt lat="44.73332" lon="6.83791">
        <ele>1727</ele>
        <time>2019-04-18T23:15:16Z</time>
      </trkpt>
      <trkpt lat="44.73366" lon="6.83695">
        <ele>1723</ele>
        <time>2019-04-18T23:16:16Z</time>
      </trkpt>
      <trkpt lat="44.7338" lon="6.83659">
        <ele>1721</ele>
        <time>2019-04-18T23:17:16Z</time>
      </trkpt>
      <trkpt lat="44.73397" lon="6.83629">
        <ele>1719</ele>
        <time>2019-04-18T23:18:16Z</time>
      </trkpt>
      <trkpt lat="44.7344" lon="6.83578">
        <ele>1716</ele>
        <time>2019-04-18T23:19:16Z</time>
      </trkpt>
      <trkpt lat="44.73503" lon="6.83527">
        <ele>1712</ele>
        <time>2019-04-18T23:20:16Z</time>
      </trkpt>
      <trkpt lat="44.7362" lon="6.83441">
        <ele>1705</ele>
        <time>2019-04-18T23:21:16Z</time>
      </trkpt>
      <trkpt lat="44.73709" lon="6.83371">
        <ele>1698</ele>
        <time>2019-04-18T23:22:16Z</time>
      </trkpt>
      <trkpt lat="44.73749" lon="6.83346">
        <ele>1696</ele>
        <time>2019-04-18T23:23:16Z</time>
      </trkpt>
      <trkpt lat="44.73776" lon="6.83333">
        <ele>1696</ele>
        <time>2019-04-18T23:24:16Z</time>
      </trkpt>
      <trkpt lat="44.73805" lon="6.83313">
        <ele>1694</ele>
        <time>2019-04-18T23:25:16Z</time>
      </trkpt>
      <trkpt lat="44.73817" lon="6.83297">
        <ele>1692</ele>
        <time>2019-04-18T23:26:16Z</time>
      </trkpt>
      <trkpt lat="44.73844" lon="6.83245">
        <ele>1681</ele>
        <time>2019-04-18T23:27:16Z</time>
      </trkpt>
      <trkpt lat="44.73849" lon="6.83228">
        <ele>1677</ele>
        <time>2019-04-18T23:28:16Z</time>
      </trkpt>
      <trkpt lat="44.73858" lon="6.83218">
        <ele>1675</ele>
        <time>2019-04-18T23:29:16Z</time>
      </trkpt>
      <trkpt lat="44.73867" lon="6.83202">
        <ele>1671</ele>
        <time>2019-04-18T23:30:16Z</time>
      </trkpt>
      <trkpt lat="44.73887" lon="6.83194">
        <ele>1670</ele>
        <time>2019-04-18T23:31:16Z</time>
      </trkpt>
      <trkpt lat="44.73916" lon="6.83195">
        <ele>1672</ele>
        <time>2019-04-18T23:32:16Z</time>
      </trkpt>
      <trkpt lat="44.73966" lon="6.8318">
        <ele>1673</ele>
        <time>2019-04-18T23:33:16Z</time>
      </trkpt>
      <trkpt lat="44.73999" lon="6.83149">
        <ele>1666</ele>
        <time>2019-04-18T23:34:16Z</time>
      </trkpt>
      <trkpt lat="44.74029" lon="6.831">
        <ele>1656</ele>
        <time>2019-04-18T23:35:16Z</time>
      </trkpt>
      <trkpt lat="44.74073" lon="6.8307">
        <ele>1656</ele>
        <time>2019-04-18T23:36:16Z</time>
      </trkpt>
      <trkpt lat="44.74144" lon="6.83073">
        <ele>1657</ele>
        <time>2019-04-18T23:37:16Z</time>
      </trkpt>
      <trkpt lat="44.74245" lon="6.83042">
        <ele>1645</ele>
        <time>2019-04-18T23:38:16Z</time>
      </trkpt>
      <trkpt lat="44.74303" lon="6.83018">
        <ele>1640</ele>
        <time>2019-04-18T23:39:16Z</time>
      </trkpt>
      <trkpt lat="44.74336" lon="6.83009">
        <ele>1638</ele>
        <time>2019-04-18T23:40:16Z</time>
      </trkpt>
      <trkpt lat="44.7439" lon="6.83014">
        <ele>1636</ele>
        <time>2019-04-18T23:41:16Z</time>
      </trkpt>
      <trkpt lat="44.74516" lon="6.83115">
        <ele>1638</ele>
        <time>2019-04-18T23:42:16Z</time>
      </trkpt>
      <trkpt lat="44.7454" lon="6.83135">
        <ele>1638</ele>
        <time>2019-04-18T23:43:16Z</time>
      </trkpt>
      <trkpt lat="44.7455" lon="6.83137">
        <ele>1637</ele>
        <time>2019-04-18T23:44:16Z</time>
      </trkpt>
      <trkpt lat="44.74572" lon="6.83133">
        <ele>1630</ele>
        <time>2019-04-18T23:45:16Z</time>
      </trkpt>
      <trkpt lat="44.74616" lon="6.83121">
        <ele>1620</ele>
        <time>2019-04-18T23:46:16Z</time>
      </trkpt>
      <trkpt lat="44.74703" lon="6.83114">
        <ele>1611</ele>
        <time>2019-04-18T23:47:16Z</time>
      </trkpt>
      <trkpt lat="44.74745" lon="6.83098">
        <ele>1605</ele>
        <time>2019-04-18T23:48:16Z</time>
      </trkpt>
      <trkpt lat="44.74765" lon="6.8308">
        <ele>1601</ele>
        <time>2019-04-18T23:49:16Z</time>
      </trkpt>
      <trkpt lat="44.7478" lon="6.83057">
        <ele>1594</ele>
        <time>2019-04-18T23:50:16Z</time>
      </trkpt>
      <trkpt lat="44.74787" lon="6.83029">
        <ele>1586</ele>
        <time>2019-04-18T23:51:16Z</time>
      </trkpt>
      <trkpt lat="44.74796" lon="6.83016">
        <ele>1583</ele>
        <time>2019-04-18T23:52:16Z</time>
      </trkpt>
      <trkpt lat="44.74821" lon="6.83002">
        <ele>1583</ele>
        <time>2019-04-18T23:53:16Z</time>
      </trkpt>
      <trkpt lat="44.74845" lon="6.82993">
        <ele>1578</ele>
        <time>2019-04-18T23:54:16Z</time>
      </trkpt>
      <trkpt lat="44.74856" lon="6.83002">
        <ele>1577</ele>
        <time>2019-04-18T23:55:16Z</time>
      </trkpt>
      <trkpt lat="44.74862" lon="6.83022">
        <ele>1580</ele>
        <time>2019-04-18T23:56:16Z</time>
      </trkpt>
      <trkpt lat="44.74862" lon="6.83054">
        <ele>1587</ele>
        <time>2019-04-18T23:57:16Z</time>
      </trkpt>
      <trkpt lat="44.74873" lon="6.83084">
        <ele>1590</ele>
        <time>2019-04-18T23:58:16Z</time>
      </trkpt>
      <trkpt lat="44.74904" lon="6.83116">
        <ele>1581</ele>
        <time>2019-04-18T23:59:16Z</time>
      </trkpt>
      <trkpt lat="44.74924" lon="6.83149">
        <ele>1577</ele>
        <time>2019-04-19T00:00:16Z</time>
      </trkpt>
      <trkpt lat="44.74912" lon="6.83184">
        <ele>1582</ele>
        <time>2019-04-19T00:01:16Z</time>
      </trkpt>
      <trkpt lat="44.74901" lon="6.83201">
        <ele>1584</ele>
        <time>2019-04-19T00:02:16Z</time>
      </trkpt>
      <trkpt lat="44.74892" lon="6.8322">
        <ele>1585</ele>
        <time>2019-04-19T00:03:16Z</time>
      </trkpt>
      <trkpt lat="44.74892" lon="6.83234">
        <ele>1584</ele>
        <time>2019-04-19T00:04:16Z</time>
      </trkpt>
      <trkpt lat="44.74898" lon="6.83247">
        <ele>1581</ele>
        <time>2019-04-19T00:05:16Z</time>
      </trkpt>
      <trkpt lat="44.74915" lon="6.83256">
        <ele>1577</ele>
        <time>2019-04-19T00:06:16Z</time>
      </trkpt>
      <trkpt lat="44.74926" lon="6.83258">
        <ele>1576</ele>
        <time>2019-04-19T00:07:16Z</time>
      </trkpt>
      <trkpt lat="44.74965" lon="6.83251">
        <ele>1570</ele>
        <time>2019-04-19T00:08:16Z</time>
      </trkpt>
      <trkpt lat="44.74991" lon="6.83253">
        <ele>1567</ele>
        <time>2019-04-19T00:09:16Z</time>
      </trkpt>
      <trkpt lat="44.75013" lon="6.83259">
        <ele>1566</ele>
        <time>2019-04-19T00:10:16Z</time>
      </trkpt>
      <trkpt lat="44.75061" lon="6.83279">
        <ele>1565</ele>
        <time>2019-04-19T00:11:16Z</time>
      </trkpt>
      <trkpt lat="44.75069" lon="6.8328">
        <ele>1564</ele>
        <time>2019-04-19T00:12:16Z</time>
      </trkpt>
      <trkpt lat="44.75079" lon="6.83277">
        <ele>1563</ele>
        <time>2019-04-19T00:13:16Z</time>
      </trkpt>
      <trkpt lat="44.75084" lon="6.83272">
        <ele>1562</ele>
        <time>2019-04-19T00:14:16Z</time>
      </trkpt>
      <trkpt lat="44.75088" lon="6.83261">
        <ele>1561</ele>
        <time>2019-04-19T00:15:16Z</time>
      </trkpt>
      <trkpt lat="44.75089" lon="6.83231">
        <ele>1558</ele>
        <time>2019-04-19T00:16:16Z</time>
      </trkpt>
      <trkpt lat="44.75089" lon="6.83162">
        <ele>1550</ele>
        <time>2019-04-19T00:17:16Z</time>
      </trkpt>
      <trkpt lat="44.75098" lon="6.8312">
        <ele>1547</ele>
        <time>2019-04-19T00:18:16Z</time>
      </trkpt>
      <trkpt lat="44.75125" lon="6.83055">
        <ele>1542</ele>
        <time>2019-04-19T00:19:16Z</time>
      </trkpt>
      <trkpt lat="44.75179" lon="6.8296">
        <ele>1535</ele>
        <time>2019-04-19T00:20:16Z</time>
      </trkpt>
      <trkpt lat="44.75195" lon="6.82937">
        <ele>1533</ele>
        <time>2019-04-19T00:21:16Z</time>
      </trkpt>
      <trkpt lat="44.75238" lon="6.829">
        <ele>1533</ele>
        <time>2019-04-19T00:22:16Z</time>
      </trkpt>
      <trkpt lat="44.75254" lon="6.82879">
        <ele>1531</ele>
        <time>2019-04-19T00:23:16Z</time>
      </trkpt>
      <trkpt lat="44.75266" lon="6.82855">
        <ele>1528</ele>
        <time>2019-04-19T00:24:16Z</time>
      </trkpt>
      <trkpt lat="44.75277" lon="6.82827">
        <ele>1525</ele>
        <time>2019-04-19T00:25:16Z</time>
      </trkpt>
      <trkpt lat="44.75285" lon="6.82794">
        <ele>1524</ele>
        <time>2019-04-19T00:26:16Z</time>
      </trkpt>
      <trkpt lat="44.75289" lon="6.82767">
        <ele>1523</ele>
        <time>2019-04-19T00:27:16Z</time>
      </trkpt>
      <trkpt lat="44.7529" lon="6.8267">
        <ele>1514</ele>
        <time>2019-04-19T00:28:16Z</time>
      </trkpt>
      <trkpt lat="44.75295" lon="6.82638">
        <ele>1510</ele>
        <time>2019-04-19T00:29:16Z</time>
      </trkpt>
      <trkpt lat="44.75307" lon="6.82609">
        <ele>1509</ele>
        <time>2019-04-19T00:30:16Z</time>
      </trkpt>
      <trkpt lat="44.75427" lon="6.82405">
        <ele>1499</ele>
        <time>2019-04-19T00:31:16Z</time>
      </trkpt>
      <trkpt lat="44.75461" lon="6.82389">
        <ele>1498</ele>
        <time>2019-04-19T00:32:16Z</time>
      </trkpt>
      <trkpt lat="44.75488" lon="6.82385">
        <ele>1501</ele>
        <time>2019-04-19T00:33:16Z</time>
      </trkpt>
      <trkpt lat="44.75523" lon="6.82409">
        <ele>1503</ele>
        <time>2019-04-19T00:34:16Z</time>
      </trkpt>
      <trkpt lat="44.75579" lon="6.82425">
        <ele>1497</ele>
        <time>2019-04-19T00:35:16Z</time>
      </trkpt>
      <trkpt lat="44.75621" lon="6.82427">
        <ele>1493</ele>
        <time>2019-04-19T00:36:16Z</time>
      </trkpt>
      <trkpt lat="44.75651" lon="6.82437">
        <ele>1492</ele>
        <time>2019-04-19T00:37:16Z</time>
      </trkpt>
      <trkpt lat="44.75706" lon="6.82468">
        <ele>1494</ele>
        <time>2019-04-19T00:38:16Z</time>
      </trkpt>
      <trkpt lat="44.75736" lon="6.82472">
        <ele>1490</ele>
        <time>2019-04-19T00:39:16Z</time>
      </trkpt>
      <trkpt lat="44.75816" lon="6.82459">
        <ele>1478</ele>
        <time>2019-04-19T00:40:16Z</time>
      </trkpt>
      <trkpt lat="44.75926" lon="6.82417">
        <ele>1463</ele>
        <time>2019-04-19T00:41:16Z</time>
      </trkpt>
      <trkpt lat="44.75944" lon="6.82418">
        <ele>1459</ele>
        <time>2019-04-19T00:42:16Z</time>
      </trkpt>
      <trkpt lat="44.75964" lon="6.82425">
        <ele>1457</ele>
        <time>2019-04-19T00:43:16Z</time>
      </trkpt>
      <trkpt lat="44.75979" lon="6.82438">
        <ele>1457</ele>
        <time>2019-04-19T00:44:16Z</time>
      </trkpt>
      <trkpt lat="44.75991" lon="6.82464">
        <ele>1461</ele>
        <time>2019-04-19T00:45:16Z</time>
      </trkpt>
      <trkpt lat="44.76005" lon="6.82481">
        <ele>1462</ele>
        <time>2019-04-19T00:46:16Z</time>
      </trkpt>
      <trkpt lat="44.76056" lon="6.82521">
        <ele>1457</ele>
        <time>2019-04-19T00:47:16Z</time>
      </trkpt>
      <trkpt lat="44.76105" lon="6.82551">
        <ele>1453</ele>
        <time>2019-04-19T00:48:16Z</time>
      </trkpt>
      <trkpt lat="44.76142" lon="6.82567">
        <ele>1447</ele>
        <time>2019-04-19T00:49:16Z</time>
      </trkpt>
      <trkpt lat="44.76156" lon="6.82567">
        <ele>1443</ele>
        <time>2019-04-19T00:50:16Z</time>
      </trkpt>
      <trkpt lat="44.76182" lon="6.82563">
        <ele>1435</ele>
        <time>2019-04-19T00:51:16Z</time>
      </trkpt>
      <trkpt lat="44.76192" lon="6.82565">
        <ele>1433</ele>
        <time>2019-04-19T00:52:16Z</time>
      </trkpt>
      <trkpt lat="44.76203" lon="6.8257">
        <ele>1431</ele>
        <time>2019-04-19T00:53:16Z</time>
      </trkpt>
      <trkpt lat="44.76219" lon="6.82591">
        <ele>1433</ele>
        <time>2019-04-19T00:54:16Z</time>
      </trkpt>
      <trkpt lat="44.76235" lon="6.82625">
        <ele>1437</ele>
        <time>2019-04-19T00:55:16Z</time>
      </trkpt>
      <trkpt lat="44.76241" lon="6.82632">
        <ele>1437</ele>
        <time>2019-04-19T00:56:16Z</time>
      </trkpt>
      <trkpt lat="44.76248" lon="6.82634">
        <ele>1436</ele>
        <time>2019-04-19T00:57:16Z</time>
      </trkpt>
      <trkpt lat="44.76254" lon="6.8263">
        <ele>1433</ele>
        <time>2019-04-19T00:58:16Z</time>
      </trkpt>
      <trkpt lat="44.76256" lon="6.82622">
        <ele>1431</ele>
        <time>2019-04-19T00:59:16Z</time>
      </trkpt>
      <trkpt lat="44.76252" lon="6.82607">
        <ele>1428</ele>
        <time>2019-04-19T01:00:16Z</time>
      </trkpt>
      <trkpt lat="44.76192" lon="6.82517">
        <ele>1417</ele>
        <time>2019-04-19T01:01:16Z</time>
      </trkpt>
      <trkpt lat="44.76173" lon="6.82498">
        <ele>1417</ele>
        <time>2019-04-19T01:02:16Z</time>
      </trkpt>
      <trkpt lat="44.76149" lon="6.82481">
        <ele>1418</ele>
        <time>2019-04-19T01:03:16Z</time>
      </trkpt>
      <trkpt lat="44.76094" lon="6.82468">
        <ele>1428</ele>
        <time>2019-04-19T01:04:16Z</time>
      </trkpt>
      <trkpt lat="44.76073" lon="6.82447">
        <ele>1427</ele>
        <time>2019-04-19T01:05:16Z</time>
      </trkpt>
      <trkpt lat="44.76025" lon="6.82359">
        <ele>1419</ele>
        <time>2019-04-19T01:06:16Z</time>
      </trkpt>
      <trkpt lat="44.7599" lon="6.82286">
        <ele>1410</ele>
        <time>2019-04-19T01:07:16Z</time>
      </trkpt>
      <trkpt lat="44.75959" lon="6.82201">
        <ele>1404</ele>
        <time>2019-04-19T01:08:16Z</time>
      </trkpt>
      <trkpt lat="44.75956" lon="6.82177">
        <ele>1401</ele>
        <time>2019-04-19T01:09:16Z</time>
      </trkpt>
      <trkpt lat="44.75957" lon="6.82156">
        <ele>1398</ele>
        <time>2019-04-19T01:10:16Z</time>
      </trkpt>
      <trkpt lat="44.75964" lon="6.82138">
        <ele>1396</ele>
        <time>2019-04-19T01:11:16Z</time>
      </trkpt>
      <trkpt lat="44.7598" lon="6.82123">
        <ele>1392</ele>
        <time>2019-04-19T01:12:16Z</time>
      </trkpt>
      <trkpt lat="44.75995" lon="6.82116">
        <ele>1390</ele>
        <time>2019-04-19T01:13:16Z</time>
      </trkpt>
      <trkpt lat="44.76238" lon="6.82094">
        <ele>1377</ele>
        <time>2019-04-19T01:14:16Z</time>
      </trkpt>
      <trkpt lat="44.7624" lon="6.82103">
        <ele>1377</ele>
        <time>2019-04-19T01:15:16Z</time>
      </trkpt>
      <trkpt lat="44.76244" lon="6.82107">
        <ele>1377</ele>
        <time>2019-04-19T01:16:16Z</time>
      </trkpt>
      <trkpt lat="44.76249" lon="6.8211">
        <ele>1377</ele>
        <time>2019-04-19T01:17:16Z</time>
      </trkpt>
      <trkpt lat="44.76255" lon="6.82109">
        <ele>1379</ele>
        <time>2019-04-19T01:18:16Z</time>
      </trkpt>
      <trkpt lat="44.76259" lon="6.82105">
        <ele>1380</ele>
        <time>2019-04-19T01:19:16Z</time>
      </trkpt>
      <trkpt lat="44.76262" lon="6.82097">
        <ele>1382</ele>
        <time>2019-04-19T01:20:16Z</time>
      </trkpt>
      <trkpt lat="44.76262" lon="6.82087">
        <ele>1381</ele>
        <time>2019-04-19T01:21:16Z</time>
      </trkpt>
      <trkpt lat="44.76259" lon="6.82081">
        <ele>1380</ele>
        <time>2019-04-19T01:22:16Z</time>
      </trkpt>
      <trkpt lat="44.76256" lon="6.82077">
        <ele>1379</ele>
        <time>2019-04-19T01:23:16Z</time>
      </trkpt>
      <trkpt lat="44.76251" lon="6.82075">
        <ele>1377</ele>
        <time>2019-04-19T01:24:16Z</time>
      </trkpt>
      <trkpt lat="44.76255" lon="6.82047">
        <ele>1382</ele>
        <time>2019-04-19T01:25:16Z</time>
      </trkpt>
      <trkpt lat="44.76255" lon="6.82">
        <ele>1388</ele>
        <time>2019-04-19T01:26:16Z</time>
      </trkpt>
      <trkpt lat="44.76251" lon="6.81946">
        <ele>1387</ele>
        <time>2019-04-19T01:27:16Z</time>
      </trkpt>
      <trkpt lat="44.76245" lon="6.819">
        <ele>1388</ele>
        <time>2019-04-19T01:28:16Z</time>
      </trkpt>
      <trkpt lat="44.76237" lon="6.81859">
        <ele>1387</ele>
        <time>2019-04-19T01:29:16Z</time>
      </trkpt>
      <trkpt lat="44.76224" lon="6.81805">
        <ele>1388</ele>
        <time>2019-04-19T01:30:16Z</time>
      </trkpt>
      <trkpt lat="44.76203" lon="6.81736">
        <ele>1387</ele>
        <time>2019-04-19T01:31:16Z</time>
      </trkpt>
      <trkpt lat="44.76165" lon="6.81632">
        <ele>1382</ele>
        <time>2019-04-19T01:32:16Z</time>
      </trkpt>
      <trkpt lat="44.75986" lon="6.81173">
        <ele>1370</ele>
        <time>2019-04-19T01:33:16Z</time>
      </trkpt>
      <trkpt lat="44.75953" lon="6.81083">
        <ele>1371</ele>
        <time>2019-04-19T01:34:16Z</time>
      </trkpt>
      <trkpt lat="44.75939" lon="6.81042">
        <ele>1369</ele>
        <time>2019-04-19T01:35:16Z</time>
      </trkpt>
      <trkpt lat="44.75926" lon="6.80997">
        <ele>1366</ele>
        <time>2019-04-19T01:36:16Z</time>
      </trkpt>
      <trkpt lat="44.75915" lon="6.80931">
        <ele>1364</ele>
        <time>2019-04-19T01:37:16Z</time>
      </trkpt>
      <trkpt lat="44.759" lon="6.80814">
        <ele>1366</ele>
        <time>2019-04-19T01:38:16Z</time>
      </trkpt>
      <trkpt lat="44.75881" lon="6.80585">
        <ele>1372</ele>
        <time>2019-04-19T01:39:16Z</time>
      </trkpt>
      <trkpt lat="44.75855" lon="6.80421">
        <ele>1367</ele>
        <time>2019-04-19T01:40:16Z</time>
      </trkpt>
      <trkpt lat="44.75797" lon="6.80139">
        <ele>1354</ele>
        <time>2019-04-19T01:41:16Z</time>
      </trkpt>
      <trkpt lat="44.75785" lon="6.80067">
        <ele>1351</ele>
        <time>2019-04-19T01:42:16Z</time>
      </trkpt>
      <trkpt lat="44.75784" lon="6.80015">
        <ele>1352</ele>
        <time>2019-04-19T01:43:16Z</time>
      </trkpt>
      <trkpt lat="44.75786" lon="6.79971">
        <ele>1352</ele>
        <time>2019-04-19T01:44:16Z</time>
      </trkpt>
      <trkpt lat="44.75791" lon="6.79926">
        <ele>1353</ele>
        <time>2019-04-19T01:45:16Z</time>
      </trkpt>
      <trkpt lat="44.758" lon="6.79874">
        <ele>1354</ele>
        <time>2019-04-19T01:46:16Z</time>
      </trkpt>
      <trkpt lat="44.75835" lon="6.79721">
        <ele>1358</ele>
        <time>2019-04-19T01:47:16Z</time>
      </trkpt>
      <trkpt lat="44.75836" lon="6.79702">
        <ele>1359</ele>
        <time>2019-04-19T01:48:16Z</time>
      </trkpt>
      <trkpt lat="44.75834" lon="6.79688">
        <ele>1359</ele>
        <time>2019-04-19T01:49:16Z</time>
      </trkpt>
      <trkpt lat="44.75795" lon="6.79536">
        <ele>1363</ele>
        <time>2019-04-19T01:50:16Z</time>
      </trkpt>
      <trkpt lat="44.75787" lon="6.79496">
        <ele>1362</ele>
        <time>2019-04-19T01:51:16Z</time>
      </trkpt>
      <trkpt lat="44.75785" lon="6.79478">
        <ele>1362</ele>
        <time>2019-04-19T01:52:16Z</time>
      </trkpt>
      <trkpt lat="44.75788" lon="6.79456">
        <ele>1365</ele>
        <time>2019-04-19T01:53:16Z</time>
      </trkpt>
      <trkpt lat="44.75803" lon="6.79414">
        <ele>1373</ele>
        <time>2019-04-19T01:54:16Z</time>
      </trkpt>
      <trkpt lat="44.75804" lon="6.79393">
        <ele>1376</ele>
        <time>2019-04-19T01:55:16Z</time>
      </trkpt>
      <trkpt lat="44.75786" lon="6.79291">
        <ele>1384</ele>
        <time>2019-04-19T01:56:16Z</time>
      </trkpt>
      <trkpt lat="44.75776" lon="6.79259">
        <ele>1383</ele>
        <time>2019-04-19T01:57:16Z</time>
      </trkpt>
      <trkpt lat="44.75758" lon="6.79219">
        <ele>1382</ele>
        <time>2019-04-19T01:58:16Z</time>
      </trkpt>
      <trkpt lat="44.75726" lon="6.79164">
        <ele>1388</ele>
        <time>2019-04-19T01:59:16Z</time>
      </trkpt>
      <trkpt lat="44.75697" lon="6.79074">
        <ele>1395</ele>
        <time>2019-04-19T02:00:16Z</time>
      </trkpt>
      <trkpt lat="44.75688" lon="6.79051">
        <ele>1394</ele>
        <time>2019-04-19T02:01:16Z</time>
      </trkpt>
      <trkpt lat="44.75669" lon="6.79021">
        <ele>1389</ele>
        <time>2019-04-19T02:02:16Z</time>
      </trkpt>
      <trkpt lat="44.75648" lon="6.79008">
        <ele>1391</ele>
        <time>2019-04-19T02:03:16Z</time>
      </trkpt>
      <trkpt lat="44.75642" lon="6.78999">
        <ele>1393</ele>
        <time>2019-04-19T02:04:16Z</time>
      </trkpt>
      <trkpt lat="44.75643" lon="6.78923">
        <ele>1395</ele>
        <time>2019-04-19T02:05:16Z</time>
      </trkpt>
      <trkpt lat="44.75648" lon="6.78914">
        <ele>1395</ele>
        <time>2019-04-19T02:06:16Z</time>
      </trkpt>
      <trkpt lat="44.75661" lon="6.789">
        <ele>1395</ele>
        <time>2019-04-19T02:07:16Z</time>
      </trkpt>
      <trkpt lat="44.75697" lon="6.78872">
        <ele>1402</ele>
        <time>2019-04-19T02:08:16Z</time>
      </trkpt>
      <trkpt lat="44.75707" lon="6.78861">
        <ele>1403</ele>
        <time>2019-04-19T02:09:16Z</time>
      </trkpt>
      <trkpt lat="44.7571" lon="6.7885">
        <ele>1402</ele>
        <time>2019-04-19T02:10:16Z</time>
      </trkpt>
      <trkpt lat="44.75708" lon="6.78843">
        <ele>1401</ele>
        <time>2019-04-19T02:11:16Z</time>
      </trkpt>
      <trkpt lat="44.75705" lon="6.78834">
        <ele>1400</ele>
        <time>2019-04-19T02:12:16Z</time>
      </trkpt>
      <trkpt lat="44.75698" lon="6.78829">
        <ele>1400</ele>
        <time>2019-04-19T02:13:16Z</time>
      </trkpt>
      <trkpt lat="44.75658" lon="6.78821">
        <ele>1398</ele>
        <time>2019-04-19T02:14:16Z</time>
      </trkpt>
      <trkpt lat="44.75634" lon="6.78811">
        <ele>1394</ele>
        <time>2019-04-19T02:15:16Z</time>
      </trkpt>
      <trkpt lat="44.75618" lon="6.78794">
        <ele>1393</ele>
        <time>2019-04-19T02:16:16Z</time>
      </trkpt>
      <trkpt lat="44.75606" lon="6.78776">
        <ele>1391</ele>
        <time>2019-04-19T02:17:16Z</time>
      </trkpt>
      <trkpt lat="44.75593" lon="6.78773">
        <ele>1386</ele>
        <time>2019-04-19T02:18:16Z</time>
      </trkpt>
      <trkpt lat="44.7558" lon="6.78772">
        <ele>1380</ele>
        <time>2019-04-19T02:19:16Z</time>
      </trkpt>
      <trkpt lat="44.75573" lon="6.78765">
        <ele>1378</ele>
        <time>2019-04-19T02:20:16Z</time>
      </trkpt>
      <trkpt lat="44.75564" lon="6.78741">
        <ele>1377</ele>
        <time>2019-04-19T02:21:16Z</time>
      </trkpt>
      <trkpt lat="44.75542" lon="6.78688">
        <ele>1375</ele>
        <time>2019-04-19T02:22:16Z</time>
      </trkpt>
      <trkpt lat="44.75535" lon="6.7866">
        <ele>1374</ele>
        <time>2019-04-19T02:23:16Z</time>
      </trkpt>
      <trkpt lat="44.75538" lon="6.78617">
        <ele>1375</ele>
        <time>2019-04-19T02:24:16Z</time>
      </trkpt>
      <trkpt lat="44.75544" lon="6.78578">
        <ele>1378</ele>
        <time>2019-04-19T02:25:16Z</time>
      </trkpt>
      <trkpt lat="44.75544" lon="6.78533">
        <ele>1381</ele>
        <time>2019-04-19T02:26:16Z</time>
      </trkpt>
      <trkpt lat="44.75538" lon="6.78489">
        <ele>1380</ele>
        <time>2019-04-19T02:27:16Z</time>
      </trkpt>
      <trkpt lat="44.75524" lon="6.78428">
        <ele>1376</ele>
        <time>2019-04-19T02:28:16Z</time>
      </trkpt>
      <trkpt lat="44.75508" lon="6.78366">
        <ele>1373</ele>
        <time>2019-04-19T02:29:16Z</time>
      </trkpt>
      <trkpt lat="44.75441" lon="6.78156">
        <ele>1363</ele>
        <time>2019-04-19T02:30:16Z</time>
      </trkpt>
      <trkpt lat="44.7543" lon="6.78133">
        <ele>1362</ele>
        <time>2019-04-19T02:31:16Z</time>
      </trkpt>
      <trkpt lat="44.75404" lon="6.7809">
        <ele>1359</ele>
        <time>2019-04-19T02:32:16Z</time>
      </trkpt>
      <trkpt lat="44.7535" lon="6.78028">
        <ele>1354</ele>
        <time>2019-04-19T02:33:16Z</time>
      </trkpt>
      <trkpt lat="44.75308" lon="6.77977">
        <ele>1348</ele>
        <time>2019-04-19T02:34:16Z</time>
      </trkpt>
      <trkpt lat="44.75286" lon="6.77934">
        <ele>1348</ele>
        <time>2019-04-19T02:35:16Z</time>
      </trkpt>
      <trkpt lat="44.75243" lon="6.77872">
        <ele>1348</ele>
        <time>2019-04-19T02:36:16Z</time>
      </trkpt>
      <trkpt lat="44.75187" lon="6.77778">
        <ele>1355</ele>
        <time>2019-04-19T02:37:16Z</time>
      </trkpt>
      <trkpt lat="44.75159" lon="6.77738">
        <ele>1357</ele>
        <time>2019-04-19T02:38:16Z</time>
      </trkpt>
      <trkpt lat="44.75119" lon="6.77698">
        <ele>1355</ele>
        <time>2019-04-19T02:39:16Z</time>
      </trkpt>
      <trkpt lat="44.75104" lon="6.77674">
        <ele>1355</ele>
        <time>2019-04-19T02:40:16Z</time>
      </trkpt>
      <trkpt lat="44.75088" lon="6.7764">
        <ele>1355</ele>
        <time>2019-04-19T02:41:16Z</time>
      </trkpt>
      <trkpt lat="44.75049" lon="6.7757">
        <ele>1358</ele>
        <time>2019-04-19T02:42:16Z</time>
      </trkpt>
      <trkpt lat="44.74991" lon="6.77499">
        <ele>1356</ele>
        <time>2019-04-19T02:43:16Z</time>
      </trkpt>
      <trkpt lat="44.74971" lon="6.77465">
        <ele>1358</ele>
        <time>2019-04-19T02:44:16Z</time>
      </trkpt>
      <trkpt lat="44.74904" lon="6.77365">
        <ele>1359</ele>
        <time>2019-04-19T02:45:16Z</time>
      </trkpt>
      <trkpt lat="44.74885" lon="6.77341">
        <ele>1361</ele>
        <time>2019-04-19T02:46:16Z</time>
      </trkpt>
      <trkpt lat="44.74853" lon="6.77306">
        <ele>1360</ele>
        <time>2019-04-19T02:47:16Z</time>
      </trkpt>
      <trkpt lat="44.74815" lon="6.77259">
        <ele>1360</ele>
        <time>2019-04-19T02:48:16Z</time>
      </trkpt>
      <trkpt lat="44.74805" lon="6.77246">
        <ele>1360</ele>
        <time>2019-04-19T02:49:16Z</time>
      </trkpt>
      <trkpt lat="44.74787" lon="6.77225">
        <ele>1359</ele>
        <time>2019-04-19T02:50:16Z</time>
      </trkpt>
      <trkpt lat="44.74746" lon="6.77158">
        <ele>1357</ele>
        <time>2019-04-19T02:51:16Z</time>
      </trkpt>
      <trkpt lat="44.7469" lon="6.7709">
        <ele>1356</ele>
        <time>2019-04-19T02:52:16Z</time>
      </trkpt>
      <trkpt lat="44.74673" lon="6.77074">
        <ele>1355</ele>
        <time>2019-04-19T02:53:16Z</time>
      </trkpt>
      <trkpt lat="44.74649" lon="6.77056">
        <ele>1357</ele>
        <time>2019-04-19T02:54:16Z</time>
      </trkpt>
      <trkpt lat="44.74607" lon="6.77037">
        <ele>1357</ele>
        <time>2019-04-19T02:55:16Z</time>
      </trkpt>
      <trkpt lat="44.74552" lon="6.77016">
        <ele>1358</ele>
        <time>2019-04-19T02:56:16Z</time>
      </trkpt>
      <trkpt lat="44.74487" lon="6.76995">
        <ele>1359</ele>
        <time>2019-04-19T02:57:16Z</time>
      </trkpt>
      <trkpt lat="44.7446" lon="6.76976">
        <ele>1365</ele>
        <time>2019-04-19T02:58:16Z</time>
      </trkpt>
      <trkpt lat="44.74445" lon="6.76957">
        <ele>1367</ele>
        <time>2019-04-19T02:59:16Z</time>
      </trkpt>
      <trkpt lat="44.74437" lon="6.76931">
        <ele>1368</ele>
        <time>2019-04-19T03:00:16Z</time>
      </trkpt>
      <trkpt lat="44.74432" lon="6.76893">
        <ele>1365</ele>
        <time>2019-04-19T03:01:16Z</time>
      </trkpt>
      <trkpt lat="44.74432" lon="6.76848">
        <ele>1360</ele>
        <time>2019-04-19T03:02:16Z</time>
      </trkpt>
      <trkpt lat="44.74442" lon="6.76806">
        <ele>1355</ele>
        <time>2019-04-19T03:03:16Z</time>
      </trkpt>
      <trkpt lat="44.74454" lon="6.76766">
        <ele>1350</ele>
        <time>2019-04-19T03:04:16Z</time>
      </trkpt>
      <trkpt lat="44.74456" lon="6.76747">
        <ele>1346</ele>
        <time>2019-04-19T03:05:16Z</time>
      </trkpt>
      <trkpt lat="44.74452" lon="6.76729">
        <ele>1344</ele>
        <time>2019-04-19T03:06:16Z</time>
      </trkpt>
      <trkpt lat="44.74445" lon="6.76718">
        <ele>1342</ele>
        <time>2019-04-19T03:07:16Z</time>
      </trkpt>
      <trkpt lat="44.74436" lon="6.76715">
        <ele>1339</ele>
        <time>2019-04-19T03:08:16Z</time>
      </trkpt>
      <trkpt lat="44.74425" lon="6.7672">
        <ele>1335</ele>
        <time>2019-04-19T03:09:16Z</time>
      </trkpt>
      <trkpt lat="44.74416" lon="6.76731">
        <ele>1332</ele>
        <time>2019-04-19T03:10:16Z</time>
      </trkpt>
      <trkpt lat="44.74409" lon="6.76749">
        <ele>1330</ele>
        <time>2019-04-19T03:11:16Z</time>
      </trkpt>
      <trkpt lat="44.74409" lon="6.76768">
        <ele>1335</ele>
        <time>2019-04-19T03:12:16Z</time>
      </trkpt>
      <trkpt lat="44.74412" lon="6.76786">
        <ele>1340</ele>
        <time>2019-04-19T03:13:16Z</time>
      </trkpt>
      <trkpt lat="44.74414" lon="6.76803">
        <ele>1344</ele>
        <time>2019-04-19T03:14:16Z</time>
      </trkpt>
      <trkpt lat="44.74412" lon="6.76809">
        <ele>1346</ele>
        <time>2019-04-19T03:15:16Z</time>
      </trkpt>
      <trkpt lat="44.74407" lon="6.76818">
        <ele>1349</ele>
        <time>2019-04-19T03:16:16Z</time>
      </trkpt>
      <trkpt lat="44.74396" lon="6.76819">
        <ele>1350</ele>
        <time>2019-04-19T03:17:16Z</time>
      </trkpt>
      <trkpt lat="44.74391" lon="6.76815">
        <ele>1349</ele>
        <time>2019-04-19T03:18:16Z</time>
      </trkpt>
      <trkpt lat="44.74386" lon="6.76808">
        <ele>1347</ele>
        <time>2019-04-19T03:19:16Z</time>
      </trkpt>
      <trkpt lat="44.74375" lon="6.76777">
        <ele>1337</ele>
        <time>2019-04-19T03:20:16Z</time>
      </trkpt>
      <trkpt lat="44.74363" lon="6.76757">
        <ele>1330</ele>
        <time>2019-04-19T03:21:16Z</time>
      </trkpt>
      <trkpt lat="44.74351" lon="6.76748">
        <ele>1326</ele>
        <time>2019-04-19T03:22:16Z</time>
      </trkpt>
      <trkpt lat="44.74322" lon="6.76746">
        <ele>1328</ele>
        <time>2019-04-19T03:23:16Z</time>
      </trkpt>
      <trkpt lat="44.74308" lon="6.76738">
        <ele>1331</ele>
        <time>2019-04-19T03:24:16Z</time>
      </trkpt>
      <trkpt lat="44.74287" lon="6.76706">
        <ele>1327</ele>
        <time>2019-04-19T03:25:16Z</time>
      </trkpt>
      <trkpt lat="44.74271" lon="6.76693">
        <ele>1325</ele>
        <time>2019-04-19T03:26:16Z</time>
      </trkpt>
      <trkpt lat="44.74244" lon="6.7668">
        <ele>1322</ele>
        <time>2019-04-19T03:27:16Z</time>
      </trkpt>
      <trkpt lat="44.74198" lon="6.76671">
        <ele>1317</ele>
        <time>2019-04-19T03:28:16Z</time>
      </trkpt>
      <trkpt lat="44.74157" lon="6.7665">
        <ele>1313</ele>
        <time>2019-04-19T03:29:16Z</time>
      </trkpt>
      <trkpt lat="44.74136" lon="6.76641">
        <ele>1312</ele>
        <time>2019-04-19T03:30:16Z</time>
      </trkpt>
      <trkpt lat="44.74119" lon="6.76638">
        <ele>1311</ele>
        <time>2019-04-19T03:31:16Z</time>
      </trkpt>
      <trkpt lat="44.74105" lon="6.76639">
        <ele>1310</ele>
        <time>2019-04-19T03:32:16Z</time>
      </trkpt>
      <trkpt lat="44.74043" lon="6.76666">
        <ele>1306</ele>
        <time>2019-04-19T03:33:16Z</time>
      </trkpt>
      <trkpt lat="44.74019" lon="6.76667">
        <ele>1304</ele>
        <time>2019-04-19T03:34:16Z</time>
      </trkpt>
      <trkpt lat="44.73998" lon="6.76662">
        <ele>1303</ele>
        <time>2019-04-19T03:35:16Z</time>
      </trkpt>
      <trkpt lat="44.73981" lon="6.76662">
        <ele>1302</ele>
        <time>2019-04-19T03:36:16Z</time>
      </trkpt>
      <trkpt lat="44.73952" lon="6.76676">
        <ele>1301</ele>
        <time>2019-04-19T03:37:16Z</time>
      </trkpt>
      <trkpt lat="44.73919" lon="6.76713">
        <ele>1299</ele>
        <time>2019-04-19T03:38:16Z</time>
      </trkpt>
      <trkpt lat="44.73885" lon="6.76747">
        <ele>1295</ele>
        <time>2019-04-19T03:39:16Z</time>
      </trkpt>
      <trkpt lat="44.73822" lon="6.76828">
        <ele>1288</ele>
        <time>2019-04-19T03:40:16Z</time>
      </trkpt>
      <trkpt lat="44.73801" lon="6.76847">
        <ele>1285</ele>
        <time>2019-04-19T03:41:16Z</time>
      </trkpt>
      <trkpt lat="44.73791" lon="6.7685">
        <ele>1284</ele>
        <time>2019-04-19T03:42:16Z</time>
      </trkpt>
      <trkpt lat="44.73769" lon="6.76851">
        <ele>1279</ele>
        <time>2019-04-19T03:43:16Z</time>
      </trkpt>
      <trkpt lat="44.73683" lon="6.7683">
        <ele>1272</ele>
        <time>2019-04-19T03:44:16Z</time>
      </trkpt>
      <trkpt lat="44.73632" lon="6.7682">
        <ele>1275</ele>
        <time>2019-04-19T03:45:16Z</time>
      </trkpt>
      <trkpt lat="44.73552" lon="6.76819">
        <ele>1273</ele>
        <time>2019-04-19T03:46:16Z</time>
      </trkpt>
      <trkpt lat="44.73522" lon="6.76815">
        <ele>1273</ele>
        <time>2019-04-19T03:47:16Z</time>
      </trkpt>
      <trkpt lat="44.73495" lon="6.76806">
        <ele>1274</ele>
        <time>2019-04-19T03:48:16Z</time>
      </trkpt>
      <trkpt lat="44.73303" lon="6.76724">
        <ele>1276</ele>
        <time>2019-04-19T03:49:16Z</time>
      </trkpt>
      <trkpt lat="44.73186" lon="6.76704">
        <ele>1268</ele>
        <time>2019-04-19T03:50:16Z</time>
      </trkpt>
      <trkpt lat="44.73156" lon="6.76695">
        <ele>1267</ele>
        <time>2019-04-19T03:51:16Z</time>
      </trkpt>
      <trkpt lat="44.73131" lon="6.76669">
        <ele>1268</ele>
        <time>2019-04-19T03:52:16Z</time>
      </trkpt>
      <trkpt lat="44.73083" lon="6.76574">
        <ele>1267</ele>
        <time>2019-04-19T03:53:16Z</time>
      </trkpt>
      <trkpt lat="44.73025" lon="6.76475">
        <ele>1283</ele>
        <time>2019-04-19T03:54:16Z</time>
      </trkpt>
      <trkpt lat="44.72997" lon="6.76441">
        <ele>1277</ele>
        <time>2019-04-19T03:55:16Z</time>
      </trkpt>
      <trkpt lat="44.72974" lon="6.7642">
        <ele>1282</ele>
        <time>2019-04-19T03:56:16Z</time>
      </trkpt>
      <trkpt lat="44.72958" lon="6.76409">
        <ele>1292</ele>
        <time>2019-04-19T03:57:16Z</time>
      </trkpt>
      <trkpt lat="44.72938" lon="6.76399">
        <ele>1303</ele>
        <time>2019-04-19T03:58:16Z</time>
      </trkpt>
      <trkpt lat="44.72918" lon="6.76393">
        <ele>1308</ele>
        <time>2019-04-19T03:59:16Z</time>
      </trkpt>
      <trkpt lat="44.72895" lon="6.76393">
        <ele>1312</ele>
        <time>2019-04-19T04:00:16Z</time>
      </trkpt>
      <trkpt lat="44.72872" lon="6.76397">
        <ele>1313</ele>
        <time>2019-04-19T04:01:16Z</time>
      </trkpt>
      <trkpt lat="44.7281" lon="6.76419">
        <ele>1313</ele>
        <time>2019-04-19T04:02:16Z</time>
      </trkpt>
      <trkpt lat="44.72737" lon="6.76415">
        <ele>1312</ele>
        <time>2019-04-19T04:03:16Z</time>
      </trkpt>
      <trkpt lat="44.726" lon="6.76386">
        <ele>1308</ele>
        <time>2019-04-19T04:04:16Z</time>
      </trkpt>
      <trkpt lat="44.7253" lon="6.76363">
        <ele>1320</ele>
        <time>2019-04-19T04:05:16Z</time>
      </trkpt>
      <trkpt lat="44.72447" lon="6.76285">
        <ele>1327</ele>
        <time>2019-04-19T04:06:16Z</time>
      </trkpt>
      <trkpt lat="44.72419" lon="6.76263">
        <ele>1324</ele>
        <time>2019-04-19T04:07:16Z</time>
      </trkpt>
      <trkpt lat="44.72389" lon="6.76249">
        <ele>1317</ele>
        <time>2019-04-19T04:08:16Z</time>
      </trkpt>
      <trkpt lat="44.72335" lon="6.76244">
        <ele>1309</ele>
        <time>2019-04-19T04:09:16Z</time>
      </trkpt>
      <trkpt lat="44.72249" lon="6.7625">
        <ele>1289</ele>
        <time>2019-04-19T04:10:16Z</time>
      </trkpt>
      <trkpt lat="44.72218" lon="6.76248">
        <ele>1284</ele>
        <time>2019-04-19T04:11:16Z</time>
      </trkpt>
      <trkpt lat="44.72171" lon="6.76236">
        <ele>1275</ele>
        <time>2019-04-19T04:12:16Z</time>
      </trkpt>
      <trkpt lat="44.72107" lon="6.7621">
        <ele>1245</ele>
        <time>2019-04-19T04:13:16Z</time>
      </trkpt>
      <trkpt lat="44.71924" lon="6.76148">
        <ele>1223</ele>
        <time>2019-04-19T04:14:16Z</time>
      </trkpt>
      <trkpt lat="44.7186" lon="6.76119">
        <ele>1225</ele>
        <time>2019-04-19T04:15:16Z</time>
      </trkpt>
      <trkpt lat="44.71807" lon="6.76077">
        <ele>1223</ele>
        <time>2019-04-19T04:16:16Z</time>
      </trkpt>
      <trkpt lat="44.71776" lon="6.76046">
        <ele>1221</ele>
        <time>2019-04-19T04:17:16Z</time>
      </trkpt>
      <trkpt lat="44.7175" lon="6.76013">
        <ele>1217</ele>
        <time>2019-04-19T04:18:16Z</time>
      </trkpt>
      <trkpt lat="44.71674" lon="6.7585">
        <ele>1217</ele>
        <time>2019-04-19T04:19:16Z</time>
      </trkpt>
      <trkpt lat="44.71607" lon="6.75694">
        <ele>1224</ele>
        <time>2019-04-19T04:20:16Z</time>
      </trkpt>
      <trkpt lat="44.71587" lon="6.75611">
        <ele>1216</ele>
        <time>2019-04-19T04:21:16Z</time>
      </trkpt>
      <trkpt lat="44.71576" lon="6.75463">
        <ele>1222</ele>
        <time>2019-04-19T04:22:16Z</time>
      </trkpt>
      <trkpt lat="44.71568" lon="6.75287">
        <ele>1222</ele>
        <time>2019-04-19T04:23:16Z</time>
      </trkpt>
      <trkpt lat="44.71543" lon="6.75075">
        <ele>1210</ele>
        <time>2019-04-19T04:24:16Z</time>
      </trkpt>
      <trkpt lat="44.71521" lon="6.75001">
        <ele>1204</ele>
        <time>2019-04-19T04:25:16Z</time>
      </trkpt>
      <trkpt lat="44.71493" lon="6.7492">
        <ele>1208</ele>
        <time>2019-04-19T04:26:16Z</time>
      </trkpt>
      <trkpt lat="44.71232" lon="6.7441">
        <ele>1205</ele>
        <time>2019-04-19T04:27:16Z</time>
      </trkpt>
      <trkpt lat="44.71215" lon="6.74366">
        <ele>1206</ele>
        <time>2019-04-19T04:28:16Z</time>
      </trkpt>
      <trkpt lat="44.71201" lon="6.74313">
        <ele>1208</ele>
        <time>2019-04-19T04:29:16Z</time>
      </trkpt>
      <trkpt lat="44.71196" lon="6.74284">
        <ele>1212</ele>
        <time>2019-04-19T04:30:16Z</time>
      </trkpt>
      <trkpt lat="44.71178" lon="6.74233">
        <ele>1211</ele>
        <time>2019-04-19T04:31:16Z</time>
      </trkpt>
      <trkpt lat="44.71164" lon="6.74209">
        <ele>1210</ele>
        <time>2019-04-19T04:32:16Z</time>
      </trkpt>
      <trkpt lat="44.71137" lon="6.74177">
        <ele>1209</ele>
        <time>2019-04-19T04:33:16Z</time>
      </trkpt>
      <trkpt lat="44.71057" lon="6.74069">
        <ele>1206</ele>
        <time>2019-04-19T04:34:16Z</time>
      </trkpt>
      <trkpt lat="44.70856" lon="6.73664">
        <ele>1191</ele>
        <time>2019-04-19T04:35:16Z</time>
      </trkpt>
      <trkpt lat="44.70829" lon="6.73543">
        <ele>1188</ele>
        <time>2019-04-19T04:36:16Z</time>
      </trkpt>
      <trkpt lat="44.70825" lon="6.73511">
        <ele>1190</ele>
        <time>2019-04-19T04:37:16Z</time>
      </trkpt>
      <trkpt lat="44.70825" lon="6.73465">
        <ele>1184</ele>
        <time>2019-04-19T04:38:16Z</time>
      </trkpt>
      <trkpt lat="44.70835" lon="6.73424">
        <ele>1177</ele>
        <time>2019-04-19T04:39:16Z</time>
      </trkpt>
      <trkpt lat="44.70844" lon="6.73375">
        <ele>1176</ele>
        <time>2019-04-19T04:40:16Z</time>
      </trkpt>
      <trkpt lat="44.70854" lon="6.7334">
        <ele>1175</ele>
        <time>2019-04-19T04:41:16Z</time>
      </trkpt>
      <trkpt lat="44.7088" lon="6.73287">
        <ele>1180</ele>
        <time>2019-04-19T04:42:16Z</time>
      </trkpt>
      <trkpt lat="44.70892" lon="6.73256">
        <ele>1180</ele>
        <time>2019-04-19T04:43:16Z</time>
      </trkpt>
      <trkpt lat="44.70901" lon="6.73207">
        <ele>1182</ele>
        <time>2019-04-19T04:44:16Z</time>
      </trkpt>
      <trkpt lat="44.70895" lon="6.73129">
        <ele>1190</ele>
        <time>2019-04-19T04:45:16Z</time>
      </trkpt>
      <trkpt lat="44.70885" lon="6.73088">
        <ele>1194</ele>
        <time>2019-04-19T04:46:16Z</time>
      </trkpt>
      <trkpt lat="44.70867" lon="6.73024">
        <ele>1189</ele>
        <time>2019-04-19T04:47:16Z</time>
      </trkpt>
      <trkpt lat="44.70841" lon="6.72946">
        <ele>1177</ele>
        <time>2019-04-19T04:48:16Z</time>
      </trkpt>
      <trkpt lat="44.70825" lon="6.72906">
        <ele>1176</ele>
        <time>2019-04-19T04:49:16Z</time>
      </trkpt>
      <trkpt lat="44.70653" lon="6.72545">
        <ele>1167</ele>
        <time>2019-04-19T04:50:16Z</time>
      </trkpt>
      <trkpt lat="44.70571" lon="6.72408">
        <ele>1168</ele>
        <time>2019-04-19T04:51:16Z</time>
      </trkpt>
      <trkpt lat="44.70551" lon="6.72371">
        <ele>1167</ele>
        <time>2019-04-19T04:52:16Z</time>
      </trkpt>
      <trkpt lat="44.70535" lon="6.72321">
        <ele>1165</ele>
        <time>2019-04-19T04:53:16Z</time>
      </trkpt>
      <trkpt lat="44.70524" lon="6.72267">
        <ele>1163</ele>
        <time>2019-04-19T04:54:16Z</time>
      </trkpt>
      <trkpt lat="44.70523" lon="6.72226">
        <ele>1164</ele>
        <time>2019-04-19T04:55:16Z</time>
      </trkpt>
      <trkpt lat="44.70522" lon="6.72127">
        <ele>1171</ele>
        <time>2019-04-19T04:56:16Z</time>
      </trkpt>
      <trkpt lat="44.70521" lon="6.72097">
        <ele>1174</ele>
        <time>2019-04-19T04:57:16Z</time>
      </trkpt>
      <trkpt lat="44.70518" lon="6.72067">
        <ele>1178</ele>
        <time>2019-04-19T04:58:16Z</time>
      </trkpt>
      <trkpt lat="44.70506" lon="6.72025">
        <ele>1178</ele>
        <time>2019-04-19T04:59:16Z</time>
      </trkpt>
      <trkpt lat="44.70493" lon="6.71996">
        <ele>1176</ele>
        <time>2019-04-19T05:00:16Z</time>
      </trkpt>
      <trkpt lat="44.70472" lon="6.71966">
        <ele>1185</ele>
        <time>2019-04-19T05:01:16Z</time>
      </trkpt>
      <trkpt lat="44.70455" lon="6.71951">
        <ele>1183</ele>
        <time>2019-04-19T05:02:16Z</time>
      </trkpt>
      <trkpt lat="44.70436" lon="6.71939">
        <ele>1175</ele>
        <time>2019-04-19T05:03:16Z</time>
      </trkpt>
      <trkpt lat="44.70356" lon="6.71897">
        <ele>1160</ele>
        <time>2019-04-19T05:04:16Z</time>
      </trkpt>
      <trkpt lat="44.70329" lon="6.71877">
        <ele>1158</ele>
        <time>2019-04-19T05:05:16Z</time>
      </trkpt>
      <trkpt lat="44.70303" lon="6.71846">
        <ele>1158</ele>
        <time>2019-04-19T05:06:16Z</time>
      </trkpt>
      <trkpt lat="44.70279" lon="6.71793">
        <ele>1154</ele>
        <time>2019-04-19T05:07:16Z</time>
      </trkpt>
      <trkpt lat="44.70265" lon="6.71744">
        <ele>1154</ele>
        <time>2019-04-19T05:08:16Z</time>
      </trkpt>
      <trkpt lat="44.70242" lon="6.71702">
        <ele>1155</ele>
        <time>2019-04-19T05:09:16Z</time>
      </trkpt>
      <trkpt lat="44.70213" lon="6.71658">
        <ele>1155</ele>
        <time>2019-04-19T05:10:16Z</time>
      </trkpt>
      <trkpt lat="44.7017" lon="6.71619">
        <ele>1151</ele>
        <time>2019-04-19T05:11:16Z</time>
      </trkpt>
      <trkpt lat="44.70135" lon="6.7158">
        <ele>1154</ele>
        <time>2019-04-19T05:12:16Z</time>
      </trkpt>
      <trkpt lat="44.70123" lon="6.7156">
        <ele>1154</ele>
        <time>2019-04-19T05:13:16Z</time>
      </trkpt>
      <trkpt lat="44.70108" lon="6.71527">
        <ele>1151</ele>
        <time>2019-04-19T05:14:16Z</time>
      </trkpt>
      <trkpt lat="44.70088" lon="6.71466">
        <ele>1148</ele>
        <time>2019-04-19T05:15:16Z</time>
      </trkpt>
      <trkpt lat="44.70079" lon="6.71442">
        <ele>1150</ele>
        <time>2019-04-19T05:16:16Z</time>
      </trkpt>
      <trkpt lat="44.70026" lon="6.71331">
        <ele>1154</ele>
        <time>2019-04-19T05:17:16Z</time>
      </trkpt>
      <trkpt lat="44.7001" lon="6.71286">
        <ele>1151</ele>
        <time>2019-04-19T05:18:16Z</time>
      </trkpt>
      <trkpt lat="44.69989" lon="6.71215">
        <ele>1154</ele>
        <time>2019-04-19T05:19:16Z</time>
      </trkpt>
      <trkpt lat="44.69969" lon="6.71167">
        <ele>1152</ele>
        <time>2019-04-19T05:20:16Z</time>
      </trkpt>
      <trkpt lat="44.69885" lon="6.71022">
        <ele>1143</ele>
        <time>2019-04-19T05:21:16Z</time>
      </trkpt>
      <trkpt lat="44.69866" lon="6.70986">
        <ele>1136</ele>
        <time>2019-04-19T05:22:16Z</time>
      </trkpt>
      <trkpt lat="44.69816" lon="6.70901">
        <ele>1128</ele>
        <time>2019-04-19T05:23:16Z</time>
      </trkpt>
      <trkpt lat="44.69712" lon="6.70778">
        <ele>1127</ele>
        <time>2019-04-19T05:24:16Z</time>
      </trkpt>
      <trkpt lat="44.69591" lon="6.70642">
        <ele>1117</ele>
        <time>2019-04-19T05:25:16Z</time>
      </trkpt>
      <trkpt lat="44.69543" lon="6.70605">
        <ele>1117</ele>
        <time>2019-04-19T05:26:16Z</time>
      </trkpt>
      <trkpt lat="44.69413" lon="6.7054">
        <ele>1110</ele>
        <time>2019-04-19T05:27:16Z</time>
      </trkpt>
      <trkpt lat="44.69348" lon="6.705">
        <ele>1104</ele>
        <time>2019-04-19T05:28:16Z</time>
      </trkpt>
      <trkpt lat="44.69292" lon="6.70445">
        <ele>1107</ele>
        <time>2019-04-19T05:29:16Z</time>
      </trkpt>
      <trkpt lat="44.69234" lon="6.70333">
        <ele>1103</ele>
        <time>2019-04-19T05:30:16Z</time>
      </trkpt>
      <trkpt lat="44.69198" lon="6.70281">
        <ele>1105</ele>
        <time>2019-04-19T05:31:16Z</time>
      </trkpt>
      <trkpt lat="44.69135" lon="6.70213">
        <ele>1103</ele>
        <time>2019-04-19T05:32:16Z</time>
      </trkpt>
      <trkpt lat="44.68753" lon="6.699">
        <ele>1088</ele>
        <time>2019-04-19T05:33:16Z</time>
      </trkpt>
      <trkpt lat="44.68669" lon="6.69851">
        <ele>1084</ele>
        <time>2019-04-19T05:34:16Z</time>
      </trkpt>
      <trkpt lat="44.68631" lon="6.69844">
        <ele>1083</ele>
        <time>2019-04-19T05:35:16Z</time>
      </trkpt>
      <trkpt lat="44.68579" lon="6.69841">
        <ele>1080</ele>
        <time>2019-04-19T05:36:16Z</time>
      </trkpt>
      <trkpt lat="44.6847" lon="6.6983">
        <ele>1083</ele>
        <time>2019-04-19T05:37:16Z</time>
      </trkpt>
      <trkpt lat="44.6845" lon="6.69826">
        <ele>1084</ele>
        <time>2019-04-19T05:38:16Z</time>
      </trkpt>
      <trkpt lat="44.68432" lon="6.69816">
        <ele>1086</ele>
        <time>2019-04-19T05:39:16Z</time>
      </trkpt>
      <trkpt lat="44.68388" lon="6.69772">
        <ele>1088</ele>
        <time>2019-04-19T05:40:16Z</time>
      </trkpt>
      <trkpt lat="44.68342" lon="6.69757">
        <ele>1075</ele>
        <time>2019-04-19T05:41:16Z</time>
      </trkpt>
      <trkpt lat="44.68182" lon="6.69733">
        <ele>1078</ele>
        <time>2019-04-19T05:42:16Z</time>
      </trkpt>
      <trkpt lat="44.68075" lon="6.69614">
        <ele>1081</ele>
        <time>2019-04-19T05:43:16Z</time>
      </trkpt>
      <trkpt lat="44.68051" lon="6.69598">
        <ele>1080</ele>
        <time>2019-04-19T05:44:16Z</time>
      </trkpt>
      <trkpt lat="44.68016" lon="6.69578">
        <ele>1076</ele>
        <time>2019-04-19T05:45:16Z</time>
      </trkpt>
      <trkpt lat="44.67925" lon="6.69554">
        <ele>1076</ele>
        <time>2019-04-19T05:46:16Z</time>
      </trkpt>
      <trkpt lat="44.67908" lon="6.69544">
        <ele>1077</ele>
        <time>2019-04-19T05:47:16Z</time>
      </trkpt>
      <trkpt lat="44.67884" lon="6.69521">
        <ele>1077</ele>
        <time>2019-04-19T05:48:16Z</time>
      </trkpt>
      <trkpt lat="44.67871" lon="6.69514">
        <ele>1075</ele>
        <time>2019-04-19T05:49:16Z</time>
      </trkpt>
      <trkpt lat="44.67823" lon="6.69499">
        <ele>1069</ele>
        <time>2019-04-19T05:50:16Z</time>
      </trkpt>
      <trkpt lat="44.67804" lon="6.69487">
        <ele>1072</ele>
        <time>2019-04-19T05:51:16Z</time>
      </trkpt>
      <trkpt lat="44.67755" lon="6.69407">
        <ele>1067</ele>
        <time>2019-04-19T05:52:16Z</time>
      </trkpt>
      <trkpt lat="44.67731" lon="6.69374">
        <ele>1063</ele>
        <time>2019-04-19T05:53:16Z</time>
      </trkpt>
      <trkpt lat="44.67719" lon="6.6937">
        <ele>1062</ele>
        <time>2019-04-19T05:54:16Z</time>
      </trkpt>
      <trkpt lat="44.67707" lon="6.69373">
        <ele>1062</ele>
        <time>2019-04-19T05:55:16Z</time>
      </trkpt>
      <trkpt lat="44.67689" lon="6.69389">
        <ele>1062</ele>
        <time>2019-04-19T05:56:16Z</time>
      </trkpt>
      <trkpt lat="44.67681" lon="6.69388">
        <ele>1062</ele>
        <time>2019-04-19T05:57:16Z</time>
      </trkpt>
      <trkpt lat="44.67663" lon="6.6937">
        <ele>1062</ele>
        <time>2019-04-19T05:58:16Z</time>
      </trkpt>
      <trkpt lat="44.67643" lon="6.69319">
        <ele>1066</ele>
        <time>2019-04-19T05:59:16Z</time>
      </trkpt>
      <trkpt lat="44.67631" lon="6.69309">
        <ele>1070</ele>
        <time>2019-04-19T06:00:16Z</time>
      </trkpt>
      <trkpt lat="44.67609" lon="6.69284">
        <ele>1074</ele>
        <time>2019-04-19T06:01:16Z</time>
      </trkpt>
      <trkpt lat="44.67596" lon="6.69261">
        <ele>1072</ele>
        <time>2019-04-19T06:02:16Z</time>
      </trkpt>
      <trkpt lat="44.67588" lon="6.69238">
        <ele>1068</ele>
        <time>2019-04-19T06:03:16Z</time>
      </trkpt>
      <trkpt lat="44.67558" lon="6.69195">
        <ele>1072</ele>
        <time>2019-04-19T06:04:16Z</time>
      </trkpt>
      <trkpt lat="44.67555" lon="6.6917">
        <ele>1067</ele>
        <time>2019-04-19T06:05:16Z</time>
      </trkpt>
      <trkpt lat="44.67553" lon="6.69136">
        <ele>1063</ele>
        <time>2019-04-19T06:06:16Z</time>
      </trkpt>
      <trkpt lat="44.67549" lon="6.6911">
        <ele>1061</ele>
        <time>2019-04-19T06:07:16Z</time>
      </trkpt>
      <trkpt lat="44.67536" lon="6.69081">
        <ele>1062</ele>
        <time>2019-04-19T06:08:16Z</time>
      </trkpt>
      <trkpt lat="44.67533" lon="6.69068">
        <ele>1064</ele>
        <time>2019-04-19T06:09:16Z</time>
      </trkpt>
      <trkpt lat="44.67527" lon="6.69023">
        <ele>1067</ele>
        <time>2019-04-19T06:10:16Z</time>
      </trkpt>
      <trkpt lat="44.67511" lon="6.68974">
        <ele>1065</ele>
        <time>2019-04-19T06:11:16Z</time>
      </trkpt>
      <trkpt lat="44.67486" lon="6.68934">
        <ele>1065</ele>
        <time>2019-04-19T06:12:16Z</time>
      </trkpt>
      <trkpt lat="44.67472" lon="6.6892">
        <ele>1073</ele>
        <time>2019-04-19T06:13:16Z</time>
      </trkpt>
      <trkpt lat="44.6746" lon="6.689">
        <ele>1077</ele>
        <time>2019-04-19T06:14:16Z</time>
      </trkpt>
      <trkpt lat="44.67434" lon="6.68835">
        <ele>1077</ele>
        <time>2019-04-19T06:15:16Z</time>
      </trkpt>
      <trkpt lat="44.67416" lon="6.68768">
        <ele>1072</ele>
        <time>2019-04-19T06:16:16Z</time>
      </trkpt>
      <trkpt lat="44.67401" lon="6.68692">
        <ele>1082</ele>
        <time>2019-04-19T06:17:16Z</time>
      </trkpt>
      <trkpt lat="44.67404" lon="6.68647">
        <ele>1081</ele>
        <time>2019-04-19T06:18:16Z</time>
      </trkpt>
      <trkpt lat="44.67416" lon="6.6859">
        <ele>1076</ele>
        <time>2019-04-19T06:19:16Z</time>
      </trkpt>
      <trkpt lat="44.67424" lon="6.68564">
        <ele>1071</ele>
        <time>2019-04-19T06:20:16Z</time>
      </trkpt>
      <trkpt lat="44.67443" lon="6.68545">
        <ele>1063</ele>
        <time>2019-04-19T06:21:16Z</time>
      </trkpt>
      <trkpt lat="44.67453" lon="6.68529">
        <ele>1057</ele>
        <time>2019-04-19T06:22:16Z</time>
      </trkpt>
      <trkpt lat="44.67455" lon="6.68508">
        <ele>1054</ele>
        <time>2019-04-19T06:23:16Z</time>
      </trkpt>
      <trkpt lat="44.67451" lon="6.68495">
        <ele>1055</ele>
        <time>2019-04-19T06:24:16Z</time>
      </trkpt>
      <trkpt lat="44.67418" lon="6.68448">
        <ele>1052</ele>
        <time>2019-04-19T06:25:16Z</time>
      </trkpt>
      <trkpt lat="44.67403" lon="6.68439">
        <ele>1059</ele>
        <time>2019-04-19T06:26:16Z</time>
      </trkpt>
      <trkpt lat="44.67382" lon="6.68429">
        <ele>1070</ele>
        <time>2019-04-19T06:27:16Z</time>
      </trkpt>
      <trkpt lat="44.6737" lon="6.68418">
        <ele>1074</ele>
        <time>2019-04-19T06:28:16Z</time>
      </trkpt>
      <trkpt lat="44.67356" lon="6.68394">
        <ele>1075</ele>
        <time>2019-04-19T06:29:16Z</time>
      </trkpt>
      <trkpt lat="44.67337" lon="6.68377">
        <ele>1074</ele>
        <time>2019-04-19T06:30:16Z</time>
      </trkpt>
      <trkpt lat="44.67317" lon="6.68351">
        <ele>1072</ele>
        <time>2019-04-19T06:31:16Z</time>
      </trkpt>
      <trkpt lat="44.67279" lon="6.6831">
        <ele>1080</ele>
        <time>2019-04-19T06:32:16Z</time>
      </trkpt>
      <trkpt lat="44.67273" lon="6.683">
        <ele>1079</ele>
        <time>2019-04-19T06:33:16Z</time>
      </trkpt>
      <trkpt lat="44.67264" lon="6.68273">
        <ele>1071</ele>
        <time>2019-04-19T06:34:16Z</time>
      </trkpt>
      <trkpt lat="44.67253" lon="6.68253">
        <ele>1065</ele>
        <time>2019-04-19T06:35:16Z</time>
      </trkpt>
      <trkpt lat="44.67235" lon="6.68235">
        <ele>1069</ele>
        <time>2019-04-19T06:36:16Z</time>
      </trkpt>
      <trkpt lat="44.67222" lon="6.68206">
        <ele>1063</ele>
        <time>2019-04-19T06:37:16Z</time>
      </trkpt>
      <trkpt lat="44.67203" lon="6.6819">
        <ele>1065</ele>
        <time>2019-04-19T06:38:16Z</time>
      </trkpt>
      <trkpt lat="44.67114" lon="6.68162">
        <ele>1094</ele>
        <time>2019-04-19T06:39:16Z</time>
      </trkpt>
      <trkpt lat="44.67091" lon="6.68152">
        <ele>1101</ele>
        <time>2019-04-19T06:40:16Z</time>
      </trkpt>
      <trkpt lat="44.6707" lon="6.68138">
        <ele>1103</ele>
        <time>2019-04-19T06:41:16Z</time>
      </trkpt>
      <trkpt lat="44.6699" lon="6.68066">
        <ele>1117</ele>
        <time>2019-04-19T06:42:16Z</time>
      </trkpt>
      <trkpt lat="44.66935" lon="6.68038">
        <ele>1148</ele>
        <time>2019-04-19T06:43:16Z</time>
      </trkpt>
      <trkpt lat="44.66902" lon="6.67974">
        <ele>1142</ele>
        <time>2019-04-19T06:44:16Z</time>
      </trkpt>
      <trkpt lat="44.66886" lon="6.67905">
        <ele>1121</ele>
        <time>2019-04-19T06:45:16Z</time>
      </trkpt>
      <trkpt lat="44.66895" lon="6.67842">
        <ele>1091</ele>
        <time>2019-04-19T06:46:16Z</time>
      </trkpt>
      <trkpt lat="44.66893" lon="6.67815">
        <ele>1087</ele>
        <time>2019-04-19T06:47:16Z</time>
      </trkpt>
      <trkpt lat="44.66881" lon="6.67775">
        <ele>1091</ele>
        <time>2019-04-19T06:48:16Z</time>
      </trkpt>
      <trkpt lat="44.66883" lon="6.67756">
        <ele>1086</ele>
        <time>2019-04-19T06:49:16Z</time>
      </trkpt>
      <trkpt lat="44.66887" lon="6.67733">
        <ele>1080</ele>
        <time>2019-04-19T06:50:16Z</time>
      </trkpt>
      <trkpt lat="44.66877" lon="6.67684">
        <ele>1085</ele>
        <time>2019-04-19T06:51:16Z</time>
      </trkpt>
      <trkpt lat="44.66877" lon="6.67671">
        <ele>1084</ele>
        <time>2019-04-19T06:52:16Z</time>
      </trkpt>
      <trkpt lat="44.66894" lon="6.67647">
        <ele>1070</ele>
        <time>2019-04-19T06:53:16Z</time>
      </trkpt>
      <trkpt lat="44.66889" lon="6.67618">
        <ele>1073</ele>
        <time>2019-04-19T06:54:16Z</time>
      </trkpt>
      <trkpt lat="44.66887" lon="6.67574">
        <ele>1073</ele>
        <time>2019-04-19T06:55:16Z</time>
      </trkpt>
      <trkpt lat="44.66877" lon="6.67541">
        <ele>1075</ele>
        <time>2019-04-19T06:56:16Z</time>
      </trkpt>
      <trkpt lat="44.66861" lon="6.67506">
        <ele>1078</ele>
        <time>2019-04-19T06:57:16Z</time>
      </trkpt>
      <trkpt lat="44.66852" lon="6.67492">
        <ele>1080</ele>
        <time>2019-04-19T06:58:16Z</time>
      </trkpt>
      <trkpt lat="44.66786" lon="6.6742">
        <ele>1089</ele>
        <time>2019-04-19T06:59:16Z</time>
      </trkpt>
      <trkpt lat="44.66771" lon="6.67391">
        <ele>1089</ele>
        <time>2019-04-19T07:00:16Z</time>
      </trkpt>
      <trkpt lat="44.66762" lon="6.67371">
        <ele>1090</ele>
        <time>2019-04-19T07:01:16Z</time>
      </trkpt>
      <trkpt lat="44.66741" lon="6.67259">
        <ele>1088</ele>
        <time>2019-04-19T07:02:16Z</time>
      </trkpt>
      <trkpt lat="44.6673" lon="6.6721">
        <ele>1089</ele>
        <time>2019-04-19T07:03:16Z</time>
      </trkpt>
      <trkpt lat="44.66725" lon="6.67151">
        <ele>1086</ele>
        <time>2019-04-19T07:04:16Z</time>
      </trkpt>
      <trkpt lat="44.66702" lon="6.6703">
        <ele>1083</ele>
        <time>2019-04-19T07:05:16Z</time>
      </trkpt>
      <trkpt lat="44.66684" lon="6.67">
        <ele>1093</ele>
        <time>2019-04-19T07:06:16Z</time>
      </trkpt>
      <trkpt lat="44.66681" lon="6.66977">
        <ele>1093</ele>
        <time>2019-04-19T07:07:16Z</time>
      </trkpt>
      <trkpt lat="44.66685" lon="6.66924">
        <ele>1084</ele>
        <time>2019-04-19T07:08:16Z</time>
      </trkpt>
      <trkpt lat="44.66683" lon="6.66909">
        <ele>1085</ele>
        <time>2019-04-19T07:09:16Z</time>
      </trkpt>
      <trkpt lat="44.66673" lon="6.66897">
        <ele>1096</ele>
        <time>2019-04-19T07:10:16Z</time>
      </trkpt>
      <trkpt lat="44.66629" lon="6.66873">
        <ele>1128</ele>
        <time>2019-04-19T07:11:16Z</time>
      </trkpt>
      <trkpt lat="44.66625" lon="6.66867">
        <ele>1130</ele>
        <time>2019-04-19T07:12:16Z</time>
      </trkpt>
      <trkpt lat="44.66622" lon="6.66859">
        <ele>1132</ele>
        <time>2019-04-19T07:13:16Z</time>
      </trkpt>
      <trkpt lat="44.66625" lon="6.66842">
        <ele>1129</ele>
        <time>2019-04-19T07:14:16Z</time>
      </trkpt>
      <trkpt lat="44.66637" lon="6.66819">
        <ele>1120</ele>
        <time>2019-04-19T07:15:16Z</time>
      </trkpt>
      <trkpt lat="44.66649" lon="6.66789">
        <ele>1111</ele>
        <time>2019-04-19T07:16:16Z</time>
      </trkpt>
      <trkpt lat="44.66666" lon="6.66736">
        <ele>1099</ele>
        <time>2019-04-19T07:17:16Z</time>
      </trkpt>
      <trkpt lat="44.66666" lon="6.66709">
        <ele>1089</ele>
        <time>2019-04-19T07:18:16Z</time>
      </trkpt>
      <trkpt lat="44.66656" lon="6.66688">
        <ele>1086</ele>
        <time>2019-04-19T07:19:16Z</time>
      </trkpt>
      <trkpt lat="44.66587" lon="6.66656">
        <ele>1101</ele>
        <time>2019-04-19T07:20:16Z</time>
      </trkpt>
      <trkpt lat="44.6657" lon="6.66633">
        <ele>1100</ele>
        <time>2019-04-19T07:21:16Z</time>
      </trkpt>
      <trkpt lat="44.66541" lon="6.66583">
        <ele>1098</ele>
        <time>2019-04-19T07:22:16Z</time>
      </trkpt>
      <trkpt lat="44.66533" lon="6.66562">
        <ele>1099</ele>
        <time>2019-04-19T07:23:16Z</time>
      </trkpt>
      <trkpt lat="44.6653" lon="6.66545">
        <ele>1099</ele>
        <time>2019-04-19T07:24:16Z</time>
      </trkpt>
      <trkpt lat="44.66522" lon="6.66391">
        <ele>1102</ele>
        <time>2019-04-19T07:25:16Z</time>
      </trkpt>
      <trkpt lat="44.66519" lon="6.66378">
        <ele>1103</ele>
        <time>2019-04-19T07:26:16Z</time>
      </trkpt>
      <trkpt lat="44.66514" lon="6.66367">
        <ele>1104</ele>
        <time>2019-04-19T07:27:16Z</time>
      </trkpt>
      <trkpt lat="44.665" lon="6.66352">
        <ele>1105</ele>
        <time>2019-04-19T07:28:16Z</time>
      </trkpt>
      <trkpt lat="44.66491" lon="6.66348">
        <ele>1105</ele>
        <time>2019-04-19T07:29:16Z</time>
      </trkpt>
      <trkpt lat="44.66458" lon="6.66344">
        <ele>1102</ele>
        <time>2019-04-19T07:30:16Z</time>
      </trkpt>
      <trkpt lat="44.66441" lon="6.66335">
        <ele>1100</ele>
        <time>2019-04-19T07:31:16Z</time>
      </trkpt>
      <trkpt lat="44.66432" lon="6.66326">
        <ele>1099</ele>
        <time>2019-04-19T07:32:16Z</time>
      </trkpt>
      <trkpt lat="44.66339" lon="6.66185">
        <ele>1092</ele>
        <time>2019-04-19T07:33:16Z</time>
      </trkpt>
      <trkpt lat="44.66318" lon="6.66163">
        <ele>1092</ele>
        <time>2019-04-19T07:34:16Z</time>
      </trkpt>
      <trkpt lat="44.66235" lon="6.66114">
        <ele>1086</ele>
        <time>2019-04-19T07:35:16Z</time>
      </trkpt>
      <trkpt lat="44.66225" lon="6.66106">
        <ele>1084</ele>
        <time>2019-04-19T07:36:16Z</time>
      </trkpt>
      <trkpt lat="44.66201" lon="6.66074">
        <ele>1081</ele>
        <time>2019-04-19T07:37:16Z</time>
      </trkpt>
      <trkpt lat="44.66127" lon="6.65964">
        <ele>1078</ele>
        <time>2019-04-19T07:38:16Z</time>
      </trkpt>
      <trkpt lat="44.6608" lon="6.6591">
        <ele>1076</ele>
        <time>2019-04-19T07:39:16Z</time>
      </trkpt>
      <trkpt lat="44.66062" lon="6.65817">
        <ele>1068</ele>
        <time>2019-04-19T07:40:16Z</time>
      </trkpt>
      <trkpt lat="44.66072" lon="6.65735">
        <ele>1062</ele>
        <time>2019-04-19T07:41:16Z</time>
      </trkpt>
      <trkpt lat="44.6606" lon="6.65669">
        <ele>1057</ele>
        <time>2019-04-19T07:42:16Z</time>
      </trkpt>
      <trkpt lat="44.66061" lon="6.65618">
        <ele>1052</ele>
        <time>2019-04-19T07:43:16Z</time>
      </trkpt>
      <trkpt lat="44.66059" lon="6.65588">
        <ele>1049</ele>
        <time>2019-04-19T07:44:16Z</time>
      </trkpt>
      <trkpt lat="44.66046" lon="6.65516">
        <ele>1044</ele>
        <time>2019-04-19T07:45:16Z</time>
      </trkpt>
      <trkpt lat="44.66045" lon="6.65506">
        <ele>1043</ele>
        <time>2019-04-19T07:46:16Z</time>
      </trkpt>
      <trkpt lat="44.66045" lon="6.65473">
        <ele>1041</ele>
        <time>2019-04-19T07:47:16Z</time>
      </trkpt>
      <trkpt lat="44.66042" lon="6.65436">
        <ele>1039</ele>
        <time>2019-04-19T07:48:16Z</time>
      </trkpt>
      <trkpt lat="44.66032" lon="6.65343">
        <ele>1032</ele>
        <time>2019-04-19T07:49:16Z</time>
      </trkpt>
      <trkpt lat="44.66006" lon="6.65232">
        <ele>1023</ele>
        <time>2019-04-19T07:50:16Z</time>
      </trkpt>
      <trkpt lat="44.66003" lon="6.65213">
        <ele>1021</ele>
        <time>2019-04-19T07:51:16Z</time>
      </trkpt>
      <trkpt lat="44.66004" lon="6.65195">
        <ele>1019</ele>
        <time>2019-04-19T07:52:16Z</time>
      </trkpt>
      <trkpt lat="44.66008" lon="6.65174">
        <ele>1017</ele>
        <time>2019-04-19T07:53:16Z</time>
      </trkpt>
      <trkpt lat="44.66038" lon="6.65109">
        <ele>1016</ele>
        <time>2019-04-19T07:54:16Z</time>
      </trkpt>
      <trkpt lat="44.66021" lon="6.65069">
        <ele>1013</ele>
        <time>2019-04-19T07:55:16Z</time>
      </trkpt>
      <trkpt lat="44.66039" lon="6.65064">
        <ele>1015</ele>
        <time>2019-04-19T07:56:16Z</time>
      </trkpt>
      <trkpt lat="44.66026" lon="6.65">
        <ele>1012</ele>
        <time>2019-04-19T07:57:16Z</time>
      </trkpt>
      <trkpt lat="44.66045" lon="6.64993">
        <ele>1014</ele>
        <time>2019-04-19T07:58:16Z</time>
      </trkpt>
      <trkpt lat="44.66025" lon="6.64887">
        <ele>1008</ele>
        <time>2019-04-19T07:59:16Z</time>
      </trkpt>
      <trkpt lat="44.66008" lon="6.64886">
        <ele>1006</ele>
        <time>2019-04-19T08:00:16Z</time>
      </trkpt>
      <trkpt lat="44.66007" lon="6.64856">
        <ele>1004</ele>
        <time>2019-04-19T08:01:16Z</time>
      </trkpt>
      <trkpt lat="44.6599" lon="6.6485">
        <ele>1002</ele>
        <time>2019-04-19T08:02:16Z</time>
      </trkpt>
      <trkpt lat="44.65984" lon="6.6485">
        <ele>1001</ele>
        <time>2019-04-19T08:03:16Z</time>
      </trkpt>
      <trkpt lat="44.65986" lon="6.64827">
        <ele>1000</ele>
        <time>2019-04-19T08:04:16Z</time>
      </trkpt>
      <trkpt lat="44.66007" lon="6.64727">
        <ele>995</ele>
        <time>2019-04-19T08:05:16Z</time>
      </trkpt>
      <trkpt lat="44.66011" lon="6.64699">
        <ele>994</ele>
        <time>2019-04-19T08:06:16Z</time>
      </trkpt>
      <trkpt lat="44.66013" lon="6.64681">
        <ele>994</ele>
        <time>2019-04-19T08:07:16Z</time>
      </trkpt>
      <trkpt lat="44.66006" lon="6.64515">
        <ele>992</ele>
        <time>2019-04-19T08:08:16Z</time>
      </trkpt>
      <trkpt lat="44.66003" lon="6.64496">
        <ele>993</ele>
        <time>2019-04-19T08:09:16Z</time>
      </trkpt>
      <trkpt lat="44.65994" lon="6.64472">
        <ele>991</ele>
        <time>2019-04-19T08:10:16Z</time>
      </trkpt>
      <trkpt lat="44.65962" lon="6.64416">
        <ele>986</ele>
        <time>2019-04-19T08:11:16Z</time>
      </trkpt>
      <trkpt lat="44.65943" lon="6.64373">
        <ele>981</ele>
        <time>2019-04-19T08:12:16Z</time>
      </trkpt>
      <trkpt lat="44.65937" lon="6.64311">
        <ele>979</ele>
        <time>2019-04-19T08:13:16Z</time>
      </trkpt>
      <trkpt lat="44.65937" lon="6.64264">
        <ele>978</ele>
        <time>2019-04-19T08:14:16Z</time>
      </trkpt>
      <trkpt lat="44.65939" lon="6.64221">
        <ele>976</ele>
        <time>2019-04-19T08:15:16Z</time>
      </trkpt>
      <trkpt lat="44.65945" lon="6.64198">
        <ele>976</ele>
        <time>2019-04-19T08:16:16Z</time>
      </trkpt>
      <trkpt lat="44.65947" lon="6.64194">
        <ele>976</ele>
        <time>2019-04-19T08:17:16Z</time>
      </trkpt>
      <trkpt lat="44.6595" lon="6.64185">
        <ele>976</ele>
        <time>2019-04-19T08:18:16Z</time>
      </trkpt>
      <trkpt lat="44.65952" lon="6.6415">
        <ele>974</ele>
        <time>2019-04-19T08:19:16Z</time>
      </trkpt>
      <trkpt lat="44.65959" lon="6.64133">
        <ele>974</ele>
        <time>2019-04-19T08:20:16Z</time>
      </trkpt>
      <trkpt lat="44.65979" lon="6.64092">
        <ele>973</ele>
        <time>2019-04-19T08:21:16Z</time>
      </trkpt>
      <trkpt lat="44.6599" lon="6.64064">
        <ele>973</ele>
        <time>2019-04-19T08:22:16Z</time>
      </trkpt>
      <trkpt lat="44.65993" lon="6.64033">
        <ele>972</ele>
        <time>2019-04-19T08:23:16Z</time>
      </trkpt>
      <trkpt lat="44.65993" lon="6.64007">
        <ele>970</ele>
        <time>2019-04-19T08:24:16Z</time>
      </trkpt>
      <trkpt lat="44.65977" lon="6.63893">
        <ele>965</ele>
        <time>2019-04-19T08:25:16Z</time>
      </trkpt>
      <trkpt lat="44.65975" lon="6.63868">
        <ele>964</ele>
        <time>2019-04-19T08:26:16Z</time>
      </trkpt>
      <trkpt lat="44.65977" lon="6.63844">
        <ele>964</ele>
        <time>2019-04-19T08:27:16Z</time>
      </trkpt>
      <trkpt lat="44.65988" lon="6.63774">
        <ele>963</ele>
        <time>2019-04-19T08:28:16Z</time>
      </trkpt>
      <trkpt lat="44.65989" lon="6.63752">
        <ele>962</ele>
        <time>2019-04-19T08:29:16Z</time>
      </trkpt>
      <trkpt lat="44.65988" lon="6.63731">
        <ele>962</ele>
        <time>2019-04-19T08:30:16Z</time>
      </trkpt>
      <trkpt lat="44.65981" lon="6.63701">
        <ele>960</ele>
        <time>2019-04-19T08:31:16Z</time>
      </trkpt>
      <trkpt lat="44.65855" lon="6.63408">
        <ele>946</ele>
        <time>2019-04-19T08:32:16Z</time>
      </trkpt>
      <trkpt lat="44.65844" lon="6.63375">
        <ele>945</ele>
        <time>2019-04-19T08:33:16Z</time>
      </trkpt>
      <trkpt lat="44.65841" lon="6.63358">
        <ele>944</ele>
        <time>2019-04-19T08:34:16Z</time>
      </trkpt>
      <trkpt lat="44.6584" lon="6.63341">
        <ele>944</ele>
        <time>2019-04-19T08:35:16Z</time>
      </trkpt>
      <trkpt lat="44.65842" lon="6.6332">
        <ele>943</ele>
        <time>2019-04-19T08:36:16Z</time>
      </trkpt>
      <trkpt lat="44.65846" lon="6.633">
        <ele>942</ele>
        <time>2019-04-19T08:37:16Z</time>
      </trkpt>
      <trkpt lat="44.65853" lon="6.63284">
        <ele>941</ele>
        <time>2019-04-19T08:38:16Z</time>
      </trkpt>
      <trkpt lat="44.65897" lon="6.63221">
        <ele>939</ele>
        <time>2019-04-19T08:39:16Z</time>
      </trkpt>
      <trkpt lat="44.65926" lon="6.63175">
        <ele>936</ele>
        <time>2019-04-19T08:40:16Z</time>
      </trkpt>
      <trkpt lat="44.65943" lon="6.63136">
        <ele>936</ele>
        <time>2019-04-19T08:41:16Z</time>
      </trkpt>
      <trkpt lat="44.65957" lon="6.63098">
        <ele>934</ele>
        <time>2019-04-19T08:42:16Z</time>
      </trkpt>
      <trkpt lat="44.65971" lon="6.63045">
        <ele>933</ele>
        <time>2019-04-19T08:43:16Z</time>
      </trkpt>
      <trkpt lat="44.65977" lon="6.63002">
        <ele>931</ele>
        <time>2019-04-19T08:44:16Z</time>
      </trkpt>
      <trkpt lat="44.65978" lon="6.62962">
        <ele>928</ele>
        <time>2019-04-19T08:45:16Z</time>
      </trkpt>
      <trkpt lat="44.65976" lon="6.62874">
        <ele>924</ele>
        <time>2019-04-19T08:46:16Z</time>
      </trkpt>
      <trkpt lat="44.65942" lon="6.6228">
        <ele>912</ele>
        <time>2019-04-19T08:47:16Z</time>
      </trkpt>
      <trkpt lat="44.65945" lon="6.62223">
        <ele>912</ele>
        <time>2019-04-19T08:48:16Z</time>
      </trkpt>
      <trkpt lat="44.65952" lon="6.62178">
        <ele>912</ele>
        <time>2019-04-19T08:49:16Z</time>
      </trkpt>
      <trkpt lat="44.65962" lon="6.62135">
        <ele>912</ele>
        <time>2019-04-19T08:50:16Z</time>
      </trkpt>
      <trkpt lat="44.65975" lon="6.62096">
        <ele>911</ele>
        <time>2019-04-19T08:51:16Z</time>
      </trkpt>
      <trkpt lat="44.66002" lon="6.62041">
        <ele>909</ele>
        <time>2019-04-19T08:52:16Z</time>
      </trkpt>
      <trkpt lat="44.66013" lon="6.62024">
        <ele>909</ele>
        <time>2019-04-19T08:53:16Z</time>
      </trkpt>
      <trkpt lat="44.66046" lon="6.6198">
        <ele>908</ele>
        <time>2019-04-19T08:54:16Z</time>
      </trkpt>
      <trkpt lat="44.66166" lon="6.61859">
        <ele>904</ele>
        <time>2019-04-19T08:55:16Z</time>
      </trkpt>
      <trkpt lat="44.66184" lon="6.61848">
        <ele>904</ele>
        <time>2019-04-19T08:56:16Z</time>
      </trkpt>
      <trkpt lat="44.66189" lon="6.6185">
        <ele>903</ele>
        <time>2019-04-19T08:57:16Z</time>
      </trkpt>
      <trkpt lat="44.66194" lon="6.61851">
        <ele>903</ele>
        <time>2019-04-19T08:58:16Z</time>
      </trkpt>
      <trkpt lat="44.66199" lon="6.61848">
        <ele>903</ele>
        <time>2019-04-19T08:59:16Z</time>
      </trkpt>
      <trkpt lat="44.66202" lon="6.61843">
        <ele>903</ele>
        <time>2019-04-19T09:00:16Z</time>
      </trkpt>
      <trkpt lat="44.66204" lon="6.61837">
        <ele>903</ele>
        <time>2019-04-19T09:01:16Z</time>
      </trkpt>
      <trkpt lat="44.66204" lon="6.6183">
        <ele>903</ele>
        <time>2019-04-19T09:02:16Z</time>
      </trkpt>
      <trkpt lat="44.66201" lon="6.6182">
        <ele>903</ele>
        <time>2019-04-19T09:03:16Z</time>
      </trkpt>
      <trkpt lat="44.66193" lon="6.61815">
        <ele>903</ele>
        <time>2019-04-19T09:04:16Z</time>
      </trkpt>
      <trkpt lat="44.66188" lon="6.61815">
        <ele>903</ele>
        <time>2019-04-19T09:05:16Z</time>
      </trkpt>
      <trkpt lat="44.66174" lon="6.61798">
        <ele>903</ele>
        <time>2019-04-19T09:06:16Z</time>
      </trkpt>
      <trkpt lat="44.66118" lon="6.61693">
        <ele>906</ele>
        <time>2019-04-19T09:07:16Z</time>
      </trkpt>
      <trkpt lat="44.66107" lon="6.61658">
        <ele>907</ele>
        <time>2019-04-19T09:08:16Z</time>
      </trkpt>
      <trkpt lat="44.66103" lon="6.61502">
        <ele>903</ele>
        <time>2019-04-19T09:09:16Z</time>
      </trkpt>
      <trkpt lat="44.66064" lon="6.61194">
        <ele>902</ele>
        <time>2019-04-19T09:10:16Z</time>
      </trkpt>
      <trkpt lat="44.66059" lon="6.61121">
        <ele>899</ele>
        <time>2019-04-19T09:11:16Z</time>
      </trkpt>
      <trkpt lat="44.66059" lon="6.61041">
        <ele>895</ele>
        <time>2019-04-19T09:12:16Z</time>
      </trkpt>
      <trkpt lat="44.66036" lon="6.60885">
        <ele>893</ele>
        <time>2019-04-19T09:13:16Z</time>
      </trkpt>
      <trkpt lat="44.66033" lon="6.60846">
        <ele>892</ele>
        <time>2019-04-19T09:14:16Z</time>
      </trkpt>
      <trkpt lat="44.6604" lon="6.60656">
        <ele>882</ele>
        <time>2019-04-19T09:15:16Z</time>
      </trkpt>
      <trkpt lat="44.66039" lon="6.60608">
        <ele>882</ele>
        <time>2019-04-19T09:16:16Z</time>
      </trkpt>
      <trkpt lat="44.66019" lon="6.60463">
        <ele>882</ele>
        <time>2019-04-19T09:17:16Z</time>
      </trkpt>
      <trkpt lat="44.66008" lon="6.60363">
        <ele>884</ele>
        <time>2019-04-19T09:18:16Z</time>
      </trkpt>
      <trkpt lat="44.659" lon="6.60154">
        <ele>882</ele>
        <time>2019-04-19T09:19:16Z</time>
      </trkpt>
      <trkpt lat="44.6558" lon="6.59522">
        <ele>882</ele>
        <time>2019-04-19T09:20:16Z</time>
      </trkpt>
      <trkpt lat="44.6548" lon="6.59329">
        <ele>878</ele>
        <time>2019-04-19T09:21:16Z</time>
      </trkpt>
      <trkpt lat="44.65194" lon="6.58768">
        <ele>882</ele>
        <time>2019-04-19T09:22:16Z</time>
      </trkpt>
      <trkpt lat="44.65141" lon="6.58659">
        <ele>877</ele>
        <time>2019-04-19T09:23:16Z</time>
      </trkpt>
      <trkpt lat="44.65125" lon="6.58632">
        <ele>878</ele>
        <time>2019-04-19T09:24:16Z</time>
      </trkpt>
      <trkpt lat="44.65074" lon="6.58558">
        <ele>879</ele>
        <time>2019-04-19T09:25:16Z</time>
      </trkpt>
      <trkpt lat="44.65061" lon="6.58528">
        <ele>877</ele>
        <time>2019-04-19T09:26:16Z</time>
      </trkpt>
      <trkpt lat="44.65054" lon="6.58505">
        <ele>876</ele>
        <time>2019-04-19T09:27:16Z</time>
      </trkpt>
      <trkpt lat="44.65047" lon="6.5847">
        <ele>875</ele>
        <time>2019-04-19T09:28:16Z</time>
      </trkpt>
      <trkpt lat="44.65044" lon="6.58422">
        <ele>875</ele>
        <time>2019-04-19T09:29:16Z</time>
      </trkpt>
      <trkpt lat="44.65047" lon="6.58293">
        <ele>874</ele>
        <time>2019-04-19T09:30:16Z</time>
      </trkpt>
      <trkpt lat="44.65027" lon="6.58184">
        <ele>873</ele>
        <time>2019-04-19T09:31:16Z</time>
      </trkpt>
      <trkpt lat="44.65019" lon="6.58127">
        <ele>873</ele>
        <time>2019-04-19T09:32:16Z</time>
      </trkpt>
      <trkpt lat="44.65001" lon="6.58082">
        <ele>872</ele>
        <time>2019-04-19T09:33:16Z</time>
      </trkpt>
      <trkpt lat="44.64921" lon="6.57989">
        <ele>875</ele>
        <time>2019-04-19T09:34:16Z</time>
      </trkpt>
      <trkpt lat="44.64872" lon="6.57881">
        <ele>876</ele>
        <time>2019-04-19T09:35:16Z</time>
      </trkpt>
      <trkpt lat="44.64852" lon="6.57856">
        <ele>876</ele>
        <time>2019-04-19T09:36:16Z</time>
      </trkpt>
      <trkpt lat="44.64752" lon="6.57742">
        <ele>872</ele>
        <time>2019-04-19T09:37:16Z</time>
      </trkpt>
      <trkpt lat="44.64447" lon="6.57401">
        <ele>871</ele>
        <time>2019-04-19T09:38:16Z</time>
      </trkpt>
      <trkpt lat="44.63905" lon="6.56789">
        <ele>896</ele>
        <time>2019-04-19T09:39:16Z</time>
      </trkpt>
      <trkpt lat="44.63802" lon="6.56669">
        <ele>894</ele>
        <time>2019-04-19T09:40:16Z</time>
      </trkpt>
      <trkpt lat="44.63753" lon="6.5661">
        <ele>903</ele>
        <time>2019-04-19T09:41:16Z</time>
      </trkpt>
      <trkpt lat="44.63733" lon="6.56595">
        <ele>905</ele>
        <time>2019-04-19T09:42:16Z</time>
      </trkpt>
      <trkpt lat="44.63532" lon="6.56515">
        <ele>910</ele>
        <time>2019-04-19T09:43:16Z</time>
      </trkpt>
      <trkpt lat="44.63513" lon="6.56501">
        <ele>912</ele>
        <time>2019-04-19T09:44:16Z</time>
      </trkpt>
      <trkpt lat="44.6348" lon="6.56461">
        <ele>919</ele>
        <time>2019-04-19T09:45:16Z</time>
      </trkpt>
      <trkpt lat="44.63466" lon="6.56449">
        <ele>920</ele>
        <time>2019-04-19T09:46:16Z</time>
      </trkpt>
      <trkpt lat="44.63448" lon="6.56443">
        <ele>919</ele>
        <time>2019-04-19T09:47:16Z</time>
      </trkpt>
      <trkpt lat="44.63405" lon="6.5644">
        <ele>913</ele>
        <time>2019-04-19T09:48:16Z</time>
      </trkpt>
      <trkpt lat="44.63377" lon="6.56429">
        <ele>911</ele>
        <time>2019-04-19T09:49:16Z</time>
      </trkpt>
      <trkpt lat="44.63363" lon="6.56419">
        <ele>912</ele>
        <time>2019-04-19T09:50:16Z</time>
      </trkpt>
      <trkpt lat="44.6335" lon="6.56404">
        <ele>914</ele>
        <time>2019-04-19T09:51:16Z</time>
      </trkpt>
      <trkpt lat="44.6333" lon="6.56368">
        <ele>920</ele>
        <time>2019-04-19T09:52:16Z</time>
      </trkpt>
      <trkpt lat="44.63252" lon="6.56204">
        <ele>922</ele>
        <time>2019-04-19T09:53:16Z</time>
      </trkpt>
      <trkpt lat="44.63242" lon="6.5617">
        <ele>924</ele>
        <time>2019-04-19T09:54:16Z</time>
      </trkpt>
      <trkpt lat="44.6324" lon="6.56142">
        <ele>925</ele>
        <time>2019-04-19T09:55:16Z</time>
      </trkpt>
      <trkpt lat="44.63245" lon="6.56116">
        <ele>930</ele>
        <time>2019-04-19T09:56:16Z</time>
      </trkpt>
      <trkpt lat="44.63246" lon="6.56089">
        <ele>933</ele>
        <time>2019-04-19T09:57:16Z</time>
      </trkpt>
      <trkpt lat="44.63241" lon="6.56054">
        <ele>933</ele>
        <time>2019-04-19T09:58:16Z</time>
      </trkpt>
      <trkpt lat="44.63218" lon="6.5596">
        <ele>925</ele>
        <time>2019-04-19T09:59:16Z</time>
      </trkpt>
      <trkpt lat="44.63214" lon="6.55931">
        <ele>924</ele>
        <time>2019-04-19T10:00:16Z</time>
      </trkpt>
      <trkpt lat="44.63215" lon="6.55899">
        <ele>923</ele>
        <time>2019-04-19T10:01:16Z</time>
      </trkpt>
      <trkpt lat="44.63221" lon="6.55857">
        <ele>922</ele>
        <time>2019-04-19T10:02:16Z</time>
      </trkpt>
      <trkpt lat="44.63236" lon="6.55813">
        <ele>924</ele>
        <time>2019-04-19T10:03:16Z</time>
      </trkpt>
      <trkpt lat="44.63265" lon="6.55761">
        <ele>933</ele>
        <time>2019-04-19T10:04:16Z</time>
      </trkpt>
      <trkpt lat="44.63285" lon="6.5568">
        <ele>928</ele>
        <time>2019-04-19T10:05:16Z</time>
      </trkpt>
      <trkpt lat="44.63291" lon="6.55632">
        <ele>927</ele>
        <time>2019-04-19T10:06:16Z</time>
      </trkpt>
      <trkpt lat="44.63296" lon="6.55464">
        <ele>930</ele>
        <time>2019-04-19T10:07:16Z</time>
      </trkpt>
      <trkpt lat="44.63292" lon="6.55419">
        <ele>929</ele>
        <time>2019-04-19T10:08:16Z</time>
      </trkpt>
      <trkpt lat="44.6327" lon="6.5529">
        <ele>927</ele>
        <time>2019-04-19T10:09:16Z</time>
      </trkpt>
      <trkpt lat="44.63264" lon="6.55165">
        <ele>926</ele>
        <time>2019-04-19T10:10:16Z</time>
      </trkpt>
      <trkpt lat="44.63246" lon="6.55077">
        <ele>919</ele>
        <time>2019-04-19T10:11:16Z</time>
      </trkpt>
      <trkpt lat="44.63227" lon="6.54962">
        <ele>927</ele>
        <time>2019-04-19T10:12:16Z</time>
      </trkpt>
      <trkpt lat="44.63216" lon="6.54921">
        <ele>931</ele>
        <time>2019-04-19T10:13:16Z</time>
      </trkpt>
      <trkpt lat="44.6319" lon="6.54882">
        <ele>929</ele>
        <time>2019-04-19T10:14:16Z</time>
      </trkpt>
      <trkpt lat="44.63098" lon="6.54781">
        <ele>924</ele>
        <time>2019-04-19T10:15:16Z</time>
      </trkpt>
      <trkpt lat="44.63085" lon="6.54772">
        <ele>922</ele>
        <time>2019-04-19T10:16:16Z</time>
      </trkpt>
      <trkpt lat="44.63062" lon="6.54763">
        <ele>921</ele>
        <time>2019-04-19T10:17:16Z</time>
      </trkpt>
      <trkpt lat="44.62992" lon="6.54749">
        <ele>918</ele>
        <time>2019-04-19T10:18:16Z</time>
      </trkpt>
      <trkpt lat="44.62953" lon="6.54725">
        <ele>915</ele>
        <time>2019-04-19T10:19:16Z</time>
      </trkpt>
      <trkpt lat="44.62752" lon="6.54546">
        <ele>915</ele>
        <time>2019-04-19T10:20:16Z</time>
      </trkpt>
      <trkpt lat="44.6262" lon="6.54426">
        <ele>925</ele>
        <time>2019-04-19T10:21:16Z</time>
      </trkpt>
      <trkpt lat="44.6259" lon="6.54391">
        <ele>928</ele>
        <time>2019-04-19T10:22:16Z</time>
      </trkpt>
      <trkpt lat="44.62571" lon="6.54361">
        <ele>928</ele>
        <time>2019-04-19T10:23:16Z</time>
      </trkpt>
      <trkpt lat="44.62556" lon="6.54333">
        <ele>927</ele>
        <time>2019-04-19T10:24:16Z</time>
      </trkpt>
      <trkpt lat="44.62533" lon="6.54277">
        <ele>926</ele>
        <time>2019-04-19T10:25:16Z</time>
      </trkpt>
      <trkpt lat="44.62425" lon="6.53973">
        <ele>936</ele>
        <time>2019-04-19T10:26:16Z</time>
      </trkpt>
      <trkpt lat="44.6242" lon="6.53923">
        <ele>940</ele>
        <time>2019-04-19T10:27:16Z</time>
      </trkpt>
      <trkpt lat="44.62413" lon="6.5389">
        <ele>940</ele>
        <time>2019-04-19T10:28:16Z</time>
      </trkpt>
      <trkpt lat="44.62401" lon="6.53857">
        <ele>939</ele>
        <time>2019-04-19T10:29:16Z</time>
      </trkpt>
      <trkpt lat="44.62383" lon="6.53789">
        <ele>941</ele>
        <time>2019-04-19T10:30:16Z</time>
      </trkpt>
      <trkpt lat="44.6237" lon="6.53753">
        <ele>943</ele>
        <time>2019-04-19T10:31:16Z</time>
      </trkpt>
      <trkpt lat="44.6236" lon="6.5373">
        <ele>943</ele>
        <time>2019-04-19T10:32:16Z</time>
      </trkpt>
      <trkpt lat="44.6229" lon="6.5358">
        <ele>950</ele>
        <time>2019-04-19T10:33:16Z</time>
      </trkpt>
      <trkpt lat="44.62194" lon="6.53383">
        <ele>952</ele>
        <time>2019-04-19T10:34:16Z</time>
      </trkpt>
      <trkpt lat="44.62126" lon="6.53225">
        <ele>958</ele>
        <time>2019-04-19T10:35:16Z</time>
      </trkpt>
      <trkpt lat="44.62106" lon="6.53187">
        <ele>965</ele>
        <time>2019-04-19T10:36:16Z</time>
      </trkpt>
      <trkpt lat="44.62077" lon="6.53161">
        <ele>964</ele>
        <time>2019-04-19T10:37:16Z</time>
      </trkpt>
      <trkpt lat="44.6205" lon="6.53133">
        <ele>960</ele>
        <time>2019-04-19T10:38:16Z</time>
      </trkpt>
      <trkpt lat="44.62035" lon="6.53103">
        <ele>962</ele>
        <time>2019-04-19T10:39:16Z</time>
      </trkpt>
      <trkpt lat="44.61983" lon="6.52932">
        <ele>968</ele>
        <time>2019-04-19T10:40:16Z</time>
      </trkpt>
      <trkpt lat="44.61963" lon="6.52881">
        <ele>968</ele>
        <time>2019-04-19T10:41:16Z</time>
      </trkpt>
      <trkpt lat="44.61947" lon="6.52848">
        <ele>968</ele>
        <time>2019-04-19T10:42:16Z</time>
      </trkpt>
      <trkpt lat="44.61859" lon="6.52722">
        <ele>974</ele>
        <time>2019-04-19T10:43:16Z</time>
      </trkpt>
      <trkpt lat="44.6179" lon="6.52635">
        <ele>973</ele>
        <time>2019-04-19T10:44:16Z</time>
      </trkpt>
      <trkpt lat="44.61773" lon="6.52591">
        <ele>974</ele>
        <time>2019-04-19T10:45:16Z</time>
      </trkpt>
      <trkpt lat="44.61755" lon="6.52472">
        <ele>983</ele>
        <time>2019-04-19T10:46:16Z</time>
      </trkpt>
      <trkpt lat="44.61734" lon="6.52431">
        <ele>984</ele>
        <time>2019-04-19T10:47:16Z</time>
      </trkpt>
      <trkpt lat="44.61684" lon="6.52357">
        <ele>982</ele>
        <time>2019-04-19T10:48:16Z</time>
      </trkpt>
      <trkpt lat="44.61642" lon="6.52306">
        <ele>975</ele>
        <time>2019-04-19T10:49:16Z</time>
      </trkpt>
      <trkpt lat="44.61637" lon="6.52296">
        <ele>974</ele>
        <time>2019-04-19T10:50:16Z</time>
      </trkpt>
      <trkpt lat="44.61634" lon="6.52285">
        <ele>974</ele>
        <time>2019-04-19T10:51:16Z</time>
      </trkpt>
      <trkpt lat="44.61636" lon="6.52273">
        <ele>975</ele>
        <time>2019-04-19T10:52:16Z</time>
      </trkpt>
      <trkpt lat="44.61642" lon="6.52263">
        <ele>976</ele>
        <time>2019-04-19T10:53:16Z</time>
      </trkpt>
      <trkpt lat="44.61679" lon="6.5222">
        <ele>983</ele>
        <time>2019-04-19T10:54:16Z</time>
      </trkpt>
      <trkpt lat="44.61688" lon="6.52203">
        <ele>984</ele>
        <time>2019-04-19T10:55:16Z</time>
      </trkpt>
      <trkpt lat="44.61694" lon="6.52178">
        <ele>983</ele>
        <time>2019-04-19T10:56:16Z</time>
      </trkpt>
      <trkpt lat="44.61692" lon="6.52155">
        <ele>981</ele>
        <time>2019-04-19T10:57:16Z</time>
      </trkpt>
      <trkpt lat="44.61686" lon="6.52137">
        <ele>980</ele>
        <time>2019-04-19T10:58:16Z</time>
      </trkpt>
      <trkpt lat="44.61674" lon="6.52116">
        <ele>978</ele>
        <time>2019-04-19T10:59:16Z</time>
      </trkpt>
      <trkpt lat="44.61653" lon="6.52096">
        <ele>981</ele>
        <time>2019-04-19T11:00:16Z</time>
      </trkpt>
      <trkpt lat="44.61642" lon="6.5209">
        <ele>984</ele>
        <time>2019-04-19T11:01:16Z</time>
      </trkpt>
      <trkpt lat="44.61628" lon="6.52091">
        <ele>988</ele>
        <time>2019-04-19T11:02:16Z</time>
      </trkpt>
      <trkpt lat="44.61608" lon="6.52101">
        <ele>990</ele>
        <time>2019-04-19T11:03:16Z</time>
      </trkpt>
      <trkpt lat="44.6153" lon="6.52154">
        <ele>987</ele>
        <time>2019-04-19T11:04:16Z</time>
      </trkpt>
      <trkpt lat="44.61517" lon="6.52173">
        <ele>986</ele>
        <time>2019-04-19T11:05:16Z</time>
      </trkpt>
      <trkpt lat="44.61503" lon="6.52206">
        <ele>985</ele>
        <time>2019-04-19T11:06:16Z</time>
      </trkpt>
      <trkpt lat="44.61497" lon="6.52211">
        <ele>985</ele>
        <time>2019-04-19T11:07:16Z</time>
      </trkpt>
      <trkpt lat="44.6149" lon="6.52211">
        <ele>986</ele>
        <time>2019-04-19T11:08:16Z</time>
      </trkpt>
      <trkpt lat="44.61453" lon="6.52199">
        <ele>988</ele>
        <time>2019-04-19T11:09:16Z</time>
      </trkpt>
      <trkpt lat="44.61413" lon="6.52162">
        <ele>990</ele>
        <time>2019-04-19T11:10:16Z</time>
      </trkpt>
      <trkpt lat="44.61396" lon="6.52103">
        <ele>990</ele>
        <time>2019-04-19T11:11:16Z</time>
      </trkpt>
      <trkpt lat="44.61383" lon="6.52079">
        <ele>991</ele>
        <time>2019-04-19T11:12:16Z</time>
      </trkpt>
      <trkpt lat="44.61272" lon="6.51974">
        <ele>992</ele>
        <time>2019-04-19T11:13:16Z</time>
      </trkpt>
      <trkpt lat="44.61256" lon="6.51969">
        <ele>992</ele>
        <time>2019-04-19T11:14:16Z</time>
      </trkpt>
      <trkpt lat="44.61205" lon="6.51976">
        <ele>991</ele>
        <time>2019-04-19T11:15:16Z</time>
      </trkpt>
      <trkpt lat="44.61188" lon="6.51975">
        <ele>992</ele>
        <time>2019-04-19T11:16:16Z</time>
      </trkpt>
      <trkpt lat="44.61138" lon="6.51952">
        <ele>994</ele>
        <time>2019-04-19T11:17:16Z</time>
      </trkpt>
      <trkpt lat="44.61116" lon="6.5195">
        <ele>994</ele>
        <time>2019-04-19T11:18:16Z</time>
      </trkpt>
      <trkpt lat="44.6105" lon="6.51967">
        <ele>991</ele>
        <time>2019-04-19T11:19:16Z</time>
      </trkpt>
      <trkpt lat="44.61023" lon="6.51971">
        <ele>990</ele>
        <time>2019-04-19T11:20:16Z</time>
      </trkpt>
      <trkpt lat="44.60831" lon="6.51975">
        <ele>990</ele>
        <time>2019-04-19T11:21:16Z</time>
      </trkpt>
      <trkpt lat="44.60756" lon="6.51971">
        <ele>991</ele>
        <time>2019-04-19T11:22:16Z</time>
      </trkpt>
      <trkpt lat="44.60662" lon="6.51982">
        <ele>987</ele>
        <time>2019-04-19T11:23:16Z</time>
      </trkpt>
      <trkpt lat="44.60605" lon="6.51981">
        <ele>986</ele>
        <time>2019-04-19T11:24:16Z</time>
      </trkpt>
      <trkpt lat="44.60534" lon="6.51971">
        <ele>986</ele>
        <time>2019-04-19T11:25:16Z</time>
      </trkpt>
      <trkpt lat="44.60416" lon="6.51973">
        <ele>984</ele>
        <time>2019-04-19T11:26:16Z</time>
      </trkpt>
      <trkpt lat="44.60362" lon="6.51964">
        <ele>983</ele>
        <time>2019-04-19T11:27:16Z</time>
      </trkpt>
      <trkpt lat="44.60221" lon="6.51929">
        <ele>984</ele>
        <time>2019-04-19T11:28:16Z</time>
      </trkpt>
      <trkpt lat="44.60115" lon="6.5191">
        <ele>985</ele>
        <time>2019-04-19T11:29:16Z</time>
      </trkpt>
      <trkpt lat="44.60078" lon="6.51896">
        <ele>987</ele>
        <time>2019-04-19T11:30:16Z</time>
      </trkpt>
      <trkpt lat="44.59885" lon="6.51774">
        <ele>976</ele>
        <time>2019-04-19T11:31:16Z</time>
      </trkpt>
      <trkpt lat="44.59861" lon="6.51764">
        <ele>974</ele>
        <time>2019-04-19T11:32:16Z</time>
      </trkpt>
      <trkpt lat="44.59844" lon="6.51767">
        <ele>972</ele>
        <time>2019-04-19T11:33:16Z</time>
      </trkpt>
      <trkpt lat="44.59829" lon="6.51779">
        <ele>970</ele>
        <time>2019-04-19T11:34:16Z</time>
      </trkpt>
      <trkpt lat="44.59795" lon="6.5182">
        <ele>965</ele>
        <time>2019-04-19T11:35:16Z</time>
      </trkpt>
      <trkpt lat="44.59781" lon="6.51829">
        <ele>964</ele>
        <time>2019-04-19T11:36:16Z</time>
      </trkpt>
      <trkpt lat="44.59763" lon="6.5183">
        <ele>963</ele>
        <time>2019-04-19T11:37:16Z</time>
      </trkpt>
      <trkpt lat="44.59747" lon="6.51819">
        <ele>962</ele>
        <time>2019-04-19T11:38:16Z</time>
      </trkpt>
      <trkpt lat="44.59734" lon="6.51795">
        <ele>962</ele>
        <time>2019-04-19T11:39:16Z</time>
      </trkpt>
      <trkpt lat="44.59733" lon="6.5176">
        <ele>963</ele>
        <time>2019-04-19T11:40:16Z</time>
      </trkpt>
      <trkpt lat="44.59744" lon="6.51667">
        <ele>962</ele>
        <time>2019-04-19T11:41:16Z</time>
      </trkpt>
      <trkpt lat="44.59744" lon="6.51637">
        <ele>962</ele>
        <time>2019-04-19T11:42:16Z</time>
      </trkpt>
      <trkpt lat="44.59741" lon="6.51615">
        <ele>962</ele>
        <time>2019-04-19T11:43:16Z</time>
      </trkpt>
      <trkpt lat="44.59735" lon="6.51597">
        <ele>962</ele>
        <time>2019-04-19T11:44:16Z</time>
      </trkpt>
      <trkpt lat="44.59723" lon="6.51582">
        <ele>961</ele>
        <time>2019-04-19T11:45:16Z</time>
      </trkpt>
      <trkpt lat="44.5971" lon="6.51573">
        <ele>961</ele>
        <time>2019-04-19T11:46:16Z</time>
      </trkpt>
      <trkpt lat="44.59507" lon="6.51512">
        <ele>948</ele>
        <time>2019-04-19T11:47:16Z</time>
      </trkpt>
      <trkpt lat="44.59485" lon="6.515">
        <ele>947</ele>
        <time>2019-04-19T11:48:16Z</time>
      </trkpt>
      <trkpt lat="44.59461" lon="6.51484">
        <ele>946</ele>
        <time>2019-04-19T11:49:16Z</time>
      </trkpt>
      <trkpt lat="44.59396" lon="6.51418">
        <ele>943</ele>
        <time>2019-04-19T11:50:16Z</time>
      </trkpt>
      <trkpt lat="44.59264" lon="6.51272">
        <ele>938</ele>
        <time>2019-04-19T11:51:16Z</time>
      </trkpt>
      <trkpt lat="44.59247" lon="6.51247">
        <ele>939</ele>
        <time>2019-04-19T11:52:16Z</time>
      </trkpt>
      <trkpt lat="44.59236" lon="6.51221">
        <ele>938</ele>
        <time>2019-04-19T11:53:16Z</time>
      </trkpt>
      <trkpt lat="44.59219" lon="6.51172">
        <ele>938</ele>
        <time>2019-04-19T11:54:16Z</time>
      </trkpt>
      <trkpt lat="44.59203" lon="6.51149">
        <ele>937</ele>
        <time>2019-04-19T11:55:16Z</time>
      </trkpt>
      <trkpt lat="44.59177" lon="6.5113">
        <ele>936</ele>
        <time>2019-04-19T11:56:16Z</time>
      </trkpt>
      <trkpt lat="44.59158" lon="6.51125">
        <ele>935</ele>
        <time>2019-04-19T11:57:16Z</time>
      </trkpt>
      <trkpt lat="44.59132" lon="6.5113">
        <ele>934</ele>
        <time>2019-04-19T11:58:16Z</time>
      </trkpt>
      <trkpt lat="44.59108" lon="6.51145">
        <ele>932</ele>
        <time>2019-04-19T11:59:16Z</time>
      </trkpt>
      <trkpt lat="44.59092" lon="6.51168">
        <ele>928</ele>
        <time>2019-04-19T12:00:16Z</time>
      </trkpt>
      <trkpt lat="44.59082" lon="6.51196">
        <ele>926</ele>
        <time>2019-04-19T12:01:16Z</time>
      </trkpt>
      <trkpt lat="44.59057" lon="6.51288">
        <ele>921</ele>
        <time>2019-04-19T12:02:16Z</time>
      </trkpt>
      <trkpt lat="44.59044" lon="6.51316">
        <ele>920</ele>
        <time>2019-04-19T12:03:16Z</time>
      </trkpt>
      <trkpt lat="44.5903" lon="6.51335">
        <ele>919</ele>
        <time>2019-04-19T12:04:16Z</time>
      </trkpt>
      <trkpt lat="44.59014" lon="6.5135">
        <ele>917</ele>
        <time>2019-04-19T12:05:16Z</time>
      </trkpt>
      <trkpt lat="44.58989" lon="6.51362">
        <ele>915</ele>
        <time>2019-04-19T12:06:16Z</time>
      </trkpt>
      <trkpt lat="44.58954" lon="6.51364">
        <ele>914</ele>
        <time>2019-04-19T12:07:16Z</time>
      </trkpt>
      <trkpt lat="44.58834" lon="6.51345">
        <ele>910</ele>
        <time>2019-04-19T12:08:16Z</time>
      </trkpt>
      <trkpt lat="44.58799" lon="6.51335">
        <ele>909</ele>
        <time>2019-04-19T12:09:16Z</time>
      </trkpt>
      <trkpt lat="44.58754" lon="6.51312">
        <ele>907</ele>
        <time>2019-04-19T12:10:16Z</time>
      </trkpt>
      <trkpt lat="44.58706" lon="6.51279">
        <ele>904</ele>
        <time>2019-04-19T12:11:16Z</time>
      </trkpt>
      <trkpt lat="44.58691" lon="6.51266">
        <ele>904</ele>
        <time>2019-04-19T12:12:16Z</time>
      </trkpt>
      <trkpt lat="44.58683" lon="6.51261">
        <ele>903</ele>
        <time>2019-04-19T12:13:16Z</time>
      </trkpt>
      <trkpt lat="44.58676" lon="6.51263">
        <ele>902</ele>
        <time>2019-04-19T12:14:16Z</time>
      </trkpt>
      <trkpt lat="44.58671" lon="6.51254">
        <ele>902</ele>
        <time>2019-04-19T12:15:16Z</time>
      </trkpt>
      <trkpt lat="44.58663" lon="6.51247">
        <ele>902</ele>
        <time>2019-04-19T12:16:16Z</time>
      </trkpt>
      <trkpt lat="44.58652" lon="6.51244">
        <ele>902</ele>
        <time>2019-04-19T12:17:16Z</time>
      </trkpt>
      <trkpt lat="44.58641" lon="6.51246">
        <ele>902</ele>
        <time>2019-04-19T12:18:16Z</time>
      </trkpt>
      <trkpt lat="44.58606" lon="6.51242">
        <ele>902</ele>
        <time>2019-04-19T12:19:16Z</time>
      </trkpt>
      <trkpt lat="44.58463" lon="6.51245">
        <ele>898</ele>
        <time>2019-04-19T12:20:16Z</time>
      </trkpt>
      <trkpt lat="44.58137" lon="6.5116">
        <ele>892</ele>
        <time>2019-04-19T12:21:16Z</time>
      </trkpt>
      <trkpt lat="44.58055" lon="6.51107">
        <ele>892</ele>
        <time>2019-04-19T12:22:16Z</time>
      </trkpt>
      <trkpt lat="44.57991" lon="6.51088">
        <ele>889</ele>
        <time>2019-04-19T12:23:16Z</time>
      </trkpt>
      <trkpt lat="44.5789" lon="6.51066">
        <ele>889</ele>
        <time>2019-04-19T12:24:16Z</time>
      </trkpt>
      <trkpt lat="44.5781" lon="6.51072">
        <ele>888</ele>
        <time>2019-04-19T12:25:16Z</time>
      </trkpt>
      <trkpt lat="44.57418" lon="6.50973">
        <ele>882</ele>
        <time>2019-04-19T12:26:16Z</time>
      </trkpt>
      <trkpt lat="44.57388" lon="6.50959">
        <ele>880</ele>
        <time>2019-04-19T12:27:16Z</time>
      </trkpt>
      <trkpt lat="44.57135" lon="6.50771">
        <ele>878</ele>
        <time>2019-04-19T12:28:16Z</time>
      </trkpt>
      <trkpt lat="44.57121" lon="6.5076">
        <ele>878</ele>
        <time>2019-04-19T12:29:16Z</time>
      </trkpt>
      <trkpt lat="44.57113" lon="6.50748">
        <ele>879</ele>
        <time>2019-04-19T12:30:16Z</time>
      </trkpt>
      <trkpt lat="44.57001" lon="6.50581">
        <ele>870</ele>
        <time>2019-04-19T12:31:16Z</time>
      </trkpt>
      <trkpt lat="44.5699" lon="6.5056">
        <ele>868</ele>
        <time>2019-04-19T12:32:16Z</time>
      </trkpt>
      <trkpt lat="44.56987" lon="6.50541">
        <ele>867</ele>
        <time>2019-04-19T12:33:16Z</time>
      </trkpt>
      <trkpt lat="44.56997" lon="6.50439">
        <ele>866</ele>
        <time>2019-04-19T12:34:16Z</time>
      </trkpt>
      <trkpt lat="44.56998" lon="6.50396">
        <ele>865</ele>
        <time>2019-04-19T12:35:16Z</time>
      </trkpt>
      <trkpt lat="44.56984" lon="6.50284">
        <ele>863</ele>
        <time>2019-04-19T12:36:16Z</time>
      </trkpt>
      <trkpt lat="44.56985" lon="6.50222">
        <ele>865</ele>
        <time>2019-04-19T12:37:16Z</time>
      </trkpt>
      <trkpt lat="44.5698" lon="6.50202">
        <ele>865</ele>
        <time>2019-04-19T12:38:16Z</time>
      </trkpt>
      <trkpt lat="44.56971" lon="6.50187">
        <ele>865</ele>
        <time>2019-04-19T12:39:16Z</time>
      </trkpt>
      <trkpt lat="44.56687" lon="6.49846">
        <ele>871</ele>
        <time>2019-04-19T12:40:16Z</time>
      </trkpt>
      <trkpt lat="44.56628" lon="6.49778">
        <ele>872</ele>
        <time>2019-04-19T12:41:16Z</time>
      </trkpt>
      <trkpt lat="44.56622" lon="6.49763">
        <ele>872</ele>
        <time>2019-04-19T12:42:16Z</time>
      </trkpt>
      <trkpt lat="44.56612" lon="6.4976">
        <ele>872</ele>
        <time>2019-04-19T12:43:16Z</time>
      </trkpt>
      <trkpt lat="44.56604" lon="6.49756">
        <ele>871</ele>
        <time>2019-04-19T12:44:16Z</time>
      </trkpt>
      <trkpt lat="44.5656" lon="6.49713">
        <ele>871</ele>
        <time>2019-04-19T12:45:16Z</time>
      </trkpt>
      <trkpt lat="44.56556" lon="6.49707">
        <ele>871</ele>
        <time>2019-04-19T12:46:16Z</time>
      </trkpt>
      <trkpt lat="44.56553" lon="6.49695">
        <ele>872</ele>
        <time>2019-04-19T12:47:16Z</time>
      </trkpt>
      <trkpt lat="44.56545" lon="6.49591">
        <ele>873</ele>
        <time>2019-04-19T12:48:16Z</time>
      </trkpt>
      <trkpt lat="44.56538" lon="6.49551">
        <ele>872</ele>
        <time>2019-04-19T12:49:16Z</time>
      </trkpt>
      <trkpt lat="44.56526" lon="6.49521">
        <ele>871</ele>
        <time>2019-04-19T12:50:16Z</time>
      </trkpt>
      <trkpt lat="44.56415" lon="6.49323">
        <ele>861</ele>
        <time>2019-04-19T12:51:16Z</time>
      </trkpt>
      <trkpt lat="44.56391" lon="6.49284">
        <ele>860</ele>
        <time>2019-04-19T12:52:16Z</time>
      </trkpt>
      <trkpt lat="44.56385" lon="6.49275">
        <ele>859</ele>
        <time>2019-04-19T12:53:16Z</time>
      </trkpt>
      <trkpt lat="44.56366" lon="6.49255">
        <ele>857</ele>
        <time>2019-04-19T12:54:16Z</time>
      </trkpt>
      <trkpt lat="44.56339" lon="6.49241">
        <ele>855</ele>
        <time>2019-04-19T12:55:16Z</time>
      </trkpt>
      <trkpt lat="44.56322" lon="6.49226">
        <ele>854</ele>
        <time>2019-04-19T12:56:16Z</time>
      </trkpt>
      <trkpt lat="44.56294" lon="6.49188">
        <ele>853</ele>
        <time>2019-04-19T12:57:16Z</time>
      </trkpt>
      <trkpt lat="44.56024" lon="6.48771">
        <ele>845</ele>
        <time>2019-04-19T12:58:16Z</time>
      </trkpt>
      <trkpt lat="44.56005" lon="6.48733">
        <ele>843</ele>
        <time>2019-04-19T12:59:16Z</time>
      </trkpt>
      <trkpt lat="44.55989" lon="6.48691">
        <ele>842</ele>
        <time>2019-04-19T13:00:16Z</time>
      </trkpt>
      <trkpt lat="44.55964" lon="6.48603">
        <ele>840</ele>
        <time>2019-04-19T13:01:16Z</time>
      </trkpt>
      <trkpt lat="44.5594" lon="6.48529">
        <ele>837</ele>
        <time>2019-04-19T13:02:16Z</time>
      </trkpt>
      <trkpt lat="44.55923" lon="6.48487">
        <ele>836</ele>
        <time>2019-04-19T13:03:16Z</time>
      </trkpt>
      <trkpt lat="44.55898" lon="6.48455">
        <ele>836</ele>
        <time>2019-04-19T13:04:16Z</time>
      </trkpt>
      <trkpt lat="44.55877" lon="6.48441">
        <ele>834</ele>
        <time>2019-04-19T13:05:16Z</time>
      </trkpt>
      <trkpt lat="44.55838" lon="6.4843">
        <ele>829</ele>
        <time>2019-04-19T13:06:16Z</time>
      </trkpt>
      <trkpt lat="44.55808" lon="6.48419">
        <ele>825</ele>
        <time>2019-04-19T13:07:16Z</time>
      </trkpt>
      <trkpt lat="44.55766" lon="6.48387">
        <ele>821</ele>
        <time>2019-04-19T13:08:16Z</time>
      </trkpt>
      <trkpt lat="44.55738" lon="6.48356">
        <ele>821</ele>
        <time>2019-04-19T13:09:16Z</time>
      </trkpt>
      <trkpt lat="44.5573" lon="6.48344">
        <ele>822</ele>
        <time>2019-04-19T13:10:16Z</time>
      </trkpt>
      <trkpt lat="44.55697" lon="6.48319">
        <ele>820</ele>
        <time>2019-04-19T13:11:16Z</time>
      </trkpt>
      <trkpt lat="44.55671" lon="6.48308">
        <ele>817</ele>
        <time>2019-04-19T13:12:16Z</time>
      </trkpt>
      <trkpt lat="44.55655" lon="6.48306">
        <ele>816</ele>
        <time>2019-04-19T13:13:16Z</time>
      </trkpt>
      <trkpt lat="44.55615" lon="6.48311">
        <ele>814</ele>
        <time>2019-04-19T13:14:16Z</time>
      </trkpt>
      <trkpt lat="44.5561" lon="6.48305">
        <ele>814</ele>
        <time>2019-04-19T13:15:16Z</time>
      </trkpt>
      <trkpt lat="44.55607" lon="6.48304">
        <ele>814</ele>
        <time>2019-04-19T13:16:16Z</time>
      </trkpt>
      <trkpt lat="44.55597" lon="6.48291">
        <ele>815</ele>
        <time>2019-04-19T13:17:16Z</time>
      </trkpt>
      <trkpt lat="44.55574" lon="6.48265">
        <ele>816</ele>
        <time>2019-04-19T13:18:16Z</time>
      </trkpt>
      <trkpt lat="44.55563" lon="6.48241">
        <ele>818</ele>
        <time>2019-04-19T13:19:16Z</time>
      </trkpt>
      <trkpt lat="44.55545" lon="6.48158">
        <ele>825</ele>
        <time>2019-04-19T13:20:16Z</time>
      </trkpt>
      <trkpt lat="44.5552" lon="6.48114">
        <ele>825</ele>
        <time>2019-04-19T13:21:16Z</time>
      </trkpt>
      <trkpt lat="44.55435" lon="6.4801">
        <ele>813</ele>
        <time>2019-04-19T13:22:16Z</time>
      </trkpt>
      <trkpt lat="44.55418" lon="6.4803">
        <ele>811</ele>
        <time>2019-04-19T13:23:16Z</time>
      </trkpt>
      <trkpt lat="44.55406" lon="6.48034">
        <ele>810</ele>
        <time>2019-04-19T13:24:16Z</time>
      </trkpt>
      <trkpt lat="44.55306" lon="6.4799">
        <ele>800</ele>
        <time>2019-04-19T13:25:16Z</time>
      </trkpt>
      <trkpt lat="44.55313" lon="6.48097">
        <ele>801</ele>
        <time>2019-04-19T13:26:16Z</time>
      </trkpt>
      <trkpt lat="44.55288" lon="6.481">
        <ele>798</ele>
        <time>2019-04-19T13:27:16Z</time>
      </trkpt>
    </trkseg>
  </trk>
</gpx>